<?xml version="1.0" encoding="UTF-8" standalone="no" ?>
<gpx xmlns="http://www.topografix.com/GPX/1/1" xmlns:xsi="http://www.w3.org/2001/XMLSchema-instance" xsi:schemaLocation="http://www.topografix.com/GPX/1/1 http://www.topografix.com/GPX/1/1/gpx.xsd" version="1.1" creator="VisuGPX - https://www.visugpx.com">
  <metadata>
    <name>Château de Forcalqueiret</name>
    <desc><![CDATA[boucle au départ de Puget-Ville via le plateau de Thème]]></desc>
  </metadata>
  <trk>
    <name><![CDATA[2021-12-30 château de Forcalqueiret]]></name>
    <trkseg>
      <trkpt lat="43.28607" lon="6.13227">
        <ele>192.1875</ele>
        <time>2021-12-30T12:32:07Z</time>
      </trkpt>
      <trkpt lat="43.28606" lon="6.13226">
        <ele>192.1796875</ele>
        <time>2021-12-30T12:32:37Z</time>
      </trkpt>
      <trkpt lat="43.28606" lon="6.13226">
        <ele>192.17578125</ele>
        <time>2021-12-30T12:32:38Z</time>
      </trkpt>
      <trkpt lat="43.28606" lon="6.13226">
        <ele>192.15625</ele>
        <time>2021-12-30T12:32:42Z</time>
      </trkpt>
      <trkpt lat="43.28606" lon="6.13226">
        <ele>192.1640625</ele>
        <time>2021-12-30T12:32:43Z</time>
      </trkpt>
      <trkpt lat="43.28608" lon="6.13221">
        <ele>192.421875</ele>
        <time>2021-12-30T12:33:09Z</time>
      </trkpt>
      <trkpt lat="43.28608" lon="6.1322">
        <ele>192.44921875</ele>
        <time>2021-12-30T12:33:42Z</time>
      </trkpt>
      <trkpt lat="43.28607" lon="6.13221">
        <ele>192.3671875</ele>
        <time>2021-12-30T12:34:07Z</time>
      </trkpt>
      <trkpt lat="43.28606" lon="6.13221">
        <ele>192.3671875</ele>
        <time>2021-12-30T12:34:24Z</time>
      </trkpt>
      <trkpt lat="43.28607" lon="6.13222">
        <ele>192.3515625</ele>
        <time>2021-12-30T12:35:04Z</time>
      </trkpt>
      <trkpt lat="43.28608" lon="6.13223">
        <ele>192.37109375</ele>
        <time>2021-12-30T12:35:51Z</time>
      </trkpt>
      <trkpt lat="43.28608" lon="6.13221">
        <ele>192.41796875</ele>
        <time>2021-12-30T12:36:29Z</time>
      </trkpt>
      <trkpt lat="43.28607" lon="6.13218">
        <ele>192.484375</ele>
        <time>2021-12-30T12:37:04Z</time>
      </trkpt>
      <trkpt lat="43.28607" lon="6.13223">
        <ele>192.328125</ele>
        <time>2021-12-30T12:37:32Z</time>
      </trkpt>
      <trkpt lat="43.28607" lon="6.13225">
        <ele>192.234375</ele>
        <time>2021-12-30T12:38:08Z</time>
      </trkpt>
      <trkpt lat="43.28606" lon="6.13222">
        <ele>192.32421875</ele>
        <time>2021-12-30T12:38:47Z</time>
      </trkpt>
      <trkpt lat="43.28609" lon="6.1322">
        <ele>192.50390625</ele>
        <time>2021-12-30T12:39:16Z</time>
      </trkpt>
      <trkpt lat="43.28612" lon="6.13218">
        <ele>192.68359375</ele>
        <time>2021-12-30T12:39:37Z</time>
      </trkpt>
      <trkpt lat="43.28612" lon="6.13222">
        <ele>192.51953125</ele>
        <time>2021-12-30T12:40:00Z</time>
      </trkpt>
      <trkpt lat="43.2861" lon="6.13226">
        <ele>192.296875</ele>
        <time>2021-12-30T12:40:16Z</time>
      </trkpt>
      <trkpt lat="43.28607" lon="6.1323">
        <ele>192.0859375</ele>
        <time>2021-12-30T12:40:32Z</time>
      </trkpt>
      <trkpt lat="43.28604" lon="6.13234">
        <ele>191.828125</ele>
        <time>2021-12-30T12:40:35Z</time>
      </trkpt>
      <trkpt lat="43.28603" lon="6.13238">
        <ele>191.66015625</ele>
        <time>2021-12-30T12:40:36Z</time>
      </trkpt>
      <trkpt lat="43.28603" lon="6.13242">
        <ele>191.48828125</ele>
        <time>2021-12-30T12:40:37Z</time>
      </trkpt>
      <trkpt lat="43.28604" lon="6.13247">
        <ele>191.34375</ele>
        <time>2021-12-30T12:40:38Z</time>
      </trkpt>
      <trkpt lat="43.28606" lon="6.13252">
        <ele>191.25</ele>
        <time>2021-12-30T12:40:39Z</time>
      </trkpt>
      <trkpt lat="43.28608" lon="6.13256">
        <ele>191.171875</ele>
        <time>2021-12-30T12:40:40Z</time>
      </trkpt>
      <trkpt lat="43.28611" lon="6.13261">
        <ele>191.1015625</ele>
        <time>2021-12-30T12:40:41Z</time>
      </trkpt>
      <trkpt lat="43.28614" lon="6.13265">
        <ele>191.01953125</ele>
        <time>2021-12-30T12:40:42Z</time>
      </trkpt>
      <trkpt lat="43.28617" lon="6.13268">
        <ele>190.8828125</ele>
        <time>2021-12-30T12:40:43Z</time>
      </trkpt>
      <trkpt lat="43.2862" lon="6.13271">
        <ele>190.796875</ele>
        <time>2021-12-30T12:40:44Z</time>
      </trkpt>
      <trkpt lat="43.28624" lon="6.1327">
        <ele>190.82421875</ele>
        <time>2021-12-30T12:40:45Z</time>
      </trkpt>
      <trkpt lat="43.28628" lon="6.13267">
        <ele>190.92578125</ele>
        <time>2021-12-30T12:40:46Z</time>
      </trkpt>
      <trkpt lat="43.28665" lon="6.13246">
        <ele>192.29296875</ele>
        <time>2021-12-30T12:40:59Z</time>
      </trkpt>
      <trkpt lat="43.28702" lon="6.13245">
        <ele>192.43359375</ele>
        <time>2021-12-30T12:41:13Z</time>
      </trkpt>
      <trkpt lat="43.2871" lon="6.13253">
        <ele>191.859375</ele>
        <time>2021-12-30T12:41:16Z</time>
      </trkpt>
      <trkpt lat="43.28722" lon="6.13262">
        <ele>191.265625</ele>
        <time>2021-12-30T12:41:20Z</time>
      </trkpt>
      <trkpt lat="43.28725" lon="6.13259">
        <ele>191.4296875</ele>
        <time>2021-12-30T12:41:21Z</time>
      </trkpt>
      <trkpt lat="43.28727" lon="6.13255">
        <ele>191.66796875</ele>
        <time>2021-12-30T12:41:22Z</time>
      </trkpt>
      <trkpt lat="43.2873" lon="6.13251">
        <ele>191.9140625</ele>
        <time>2021-12-30T12:41:23Z</time>
      </trkpt>
      <trkpt lat="43.28732" lon="6.13247">
        <ele>192.13671875</ele>
        <time>2021-12-30T12:41:24Z</time>
      </trkpt>
      <trkpt lat="43.28745" lon="6.13211">
        <ele>193.88671875</ele>
        <time>2021-12-30T12:41:33Z</time>
      </trkpt>
      <trkpt lat="43.28744" lon="6.13208">
        <ele>194.15625</ele>
        <time>2021-12-30T12:41:34Z</time>
      </trkpt>
      <trkpt lat="43.28742" lon="6.13204">
        <ele>194.39453125</ele>
        <time>2021-12-30T12:41:35Z</time>
      </trkpt>
      <trkpt lat="43.2874" lon="6.13202">
        <ele>194.5859375</ele>
        <time>2021-12-30T12:41:36Z</time>
      </trkpt>
      <trkpt lat="43.28738" lon="6.13199">
        <ele>194.7578125</ele>
        <time>2021-12-30T12:41:37Z</time>
      </trkpt>
      <trkpt lat="43.28709" lon="6.13155">
        <ele>197.43359375</ele>
        <time>2021-12-30T12:41:53Z</time>
      </trkpt>
      <trkpt lat="43.28693" lon="6.13117">
        <ele>198.25</ele>
        <time>2021-12-30T12:42:06Z</time>
      </trkpt>
      <trkpt lat="43.28694" lon="6.13113">
        <ele>198.4140625</ele>
        <time>2021-12-30T12:42:07Z</time>
      </trkpt>
      <trkpt lat="43.28697" lon="6.13111">
        <ele>198.5859375</ele>
        <time>2021-12-30T12:42:08Z</time>
      </trkpt>
      <trkpt lat="43.28699" lon="6.13109">
        <ele>198.73828125</ele>
        <time>2021-12-30T12:42:09Z</time>
      </trkpt>
      <trkpt lat="43.28701" lon="6.13107">
        <ele>198.89453125</ele>
        <time>2021-12-30T12:42:10Z</time>
      </trkpt>
      <trkpt lat="43.28721" lon="6.13091">
        <ele>200.18359375</ele>
        <time>2021-12-30T12:42:19Z</time>
      </trkpt>
      <trkpt lat="43.28723" lon="6.13093">
        <ele>200.1875</ele>
        <time>2021-12-30T12:42:20Z</time>
      </trkpt>
      <trkpt lat="43.28725" lon="6.13096">
        <ele>200.11328125</ele>
        <time>2021-12-30T12:42:21Z</time>
      </trkpt>
      <trkpt lat="43.28743" lon="6.13124">
        <ele>199.0859375</ele>
        <time>2021-12-30T12:42:31Z</time>
      </trkpt>
      <trkpt lat="43.28746" lon="6.13124">
        <ele>199.08984375</ele>
        <time>2021-12-30T12:42:32Z</time>
      </trkpt>
      <trkpt lat="43.28749" lon="6.13122">
        <ele>199.14453125</ele>
        <time>2021-12-30T12:42:33Z</time>
      </trkpt>
      <trkpt lat="43.28752" lon="6.1312">
        <ele>199.23046875</ele>
        <time>2021-12-30T12:42:34Z</time>
      </trkpt>
      <trkpt lat="43.28755" lon="6.13118">
        <ele>199.3203125</ele>
        <time>2021-12-30T12:42:35Z</time>
      </trkpt>
      <trkpt lat="43.28791" lon="6.13082">
        <ele>200.5859375</ele>
        <time>2021-12-30T12:42:50Z</time>
      </trkpt>
      <trkpt lat="43.28805" lon="6.1307">
        <ele>201.02734375</ele>
        <time>2021-12-30T12:42:58Z</time>
      </trkpt>
      <trkpt lat="43.28807" lon="6.13067">
        <ele>201.16015625</ele>
        <time>2021-12-30T12:42:59Z</time>
      </trkpt>
      <trkpt lat="43.28807" lon="6.13063">
        <ele>201.2890625</ele>
        <time>2021-12-30T12:43:00Z</time>
      </trkpt>
      <trkpt lat="43.28807" lon="6.13059">
        <ele>201.4296875</ele>
        <time>2021-12-30T12:43:01Z</time>
      </trkpt>
      <trkpt lat="43.28807" lon="6.13055">
        <ele>201.57421875</ele>
        <time>2021-12-30T12:43:02Z</time>
      </trkpt>
      <trkpt lat="43.28827" lon="6.13023">
        <ele>202.71875</ele>
        <time>2021-12-30T12:43:13Z</time>
      </trkpt>
      <trkpt lat="43.28863" lon="6.12979">
        <ele>204.31640625</ele>
        <time>2021-12-30T12:43:29Z</time>
      </trkpt>
      <trkpt lat="43.28902" lon="6.12931">
        <ele>207.48828125</ele>
        <time>2021-12-30T12:43:47Z</time>
      </trkpt>
      <trkpt lat="43.28928" lon="6.12891">
        <ele>209.9296875</ele>
        <time>2021-12-30T12:44:00Z</time>
      </trkpt>
      <trkpt lat="43.28946" lon="6.12838">
        <ele>212.375</ele>
        <time>2021-12-30T12:44:15Z</time>
      </trkpt>
      <trkpt lat="43.28976" lon="6.12785">
        <ele>215.37890625</ele>
        <time>2021-12-30T12:44:31Z</time>
      </trkpt>
      <trkpt lat="43.29007" lon="6.12733">
        <ele>218.40234375</ele>
        <time>2021-12-30T12:44:48Z</time>
      </trkpt>
      <trkpt lat="43.29038" lon="6.12686">
        <ele>220.26953125</ele>
        <time>2021-12-30T12:45:05Z</time>
      </trkpt>
      <trkpt lat="43.29059" lon="6.12645">
        <ele>222.42578125</ele>
        <time>2021-12-30T12:45:19Z</time>
      </trkpt>
      <trkpt lat="43.29061" lon="6.12632">
        <ele>222.94921875</ele>
        <time>2021-12-30T12:45:23Z</time>
      </trkpt>
      <trkpt lat="43.29063" lon="6.1263">
        <ele>223.09765625</ele>
        <time>2021-12-30T12:45:24Z</time>
      </trkpt>
      <trkpt lat="43.29095" lon="6.12575">
        <ele>226.59375</ele>
        <time>2021-12-30T12:45:42Z</time>
      </trkpt>
      <trkpt lat="43.29113" lon="6.12546">
        <ele>229.83203125</ele>
        <time>2021-12-30T12:45:54Z</time>
      </trkpt>
      <trkpt lat="43.29114" lon="6.12544">
        <ele>229.9296875</ele>
        <time>2021-12-30T12:45:55Z</time>
      </trkpt>
      <trkpt lat="43.29114" lon="6.12543">
        <ele>230</ele>
        <time>2021-12-30T12:45:56Z</time>
      </trkpt>
      <trkpt lat="43.29117" lon="6.1254">
        <ele>230.015625</ele>
        <time>2021-12-30T12:45:58Z</time>
      </trkpt>
      <trkpt lat="43.29119" lon="6.12539">
        <ele>230.03515625</ele>
        <time>2021-12-30T12:45:59Z</time>
      </trkpt>
      <trkpt lat="43.29121" lon="6.12537">
        <ele>230.078125</ele>
        <time>2021-12-30T12:46:00Z</time>
      </trkpt>
      <trkpt lat="43.29123" lon="6.12534">
        <ele>230.13671875</ele>
        <time>2021-12-30T12:46:01Z</time>
      </trkpt>
      <trkpt lat="43.29125" lon="6.12531">
        <ele>230.21484375</ele>
        <time>2021-12-30T12:46:02Z</time>
      </trkpt>
      <trkpt lat="43.29168" lon="6.12501">
        <ele>232.015625</ele>
        <time>2021-12-30T12:46:17Z</time>
      </trkpt>
      <trkpt lat="43.29229" lon="6.12486">
        <ele>236.6015625</ele>
        <time>2021-12-30T12:46:36Z</time>
      </trkpt>
      <trkpt lat="43.29274" lon="6.12455">
        <ele>241.296875</ele>
        <time>2021-12-30T12:46:51Z</time>
      </trkpt>
      <trkpt lat="43.29307" lon="6.12428">
        <ele>243.8828125</ele>
        <time>2021-12-30T12:47:03Z</time>
      </trkpt>
      <trkpt lat="43.29358" lon="6.1239">
        <ele>248.390625</ele>
        <time>2021-12-30T12:47:20Z</time>
      </trkpt>
      <trkpt lat="43.29404" lon="6.12352">
        <ele>254.21875</ele>
        <time>2021-12-30T12:47:36Z</time>
      </trkpt>
      <trkpt lat="43.29435" lon="6.12298">
        <ele>255.95703125</ele>
        <time>2021-12-30T12:47:51Z</time>
      </trkpt>
      <trkpt lat="43.29467" lon="6.12254">
        <ele>254.4375</ele>
        <time>2021-12-30T12:48:05Z</time>
      </trkpt>
      <trkpt lat="43.29519" lon="6.12236">
        <ele>264.18359375</ele>
        <time>2021-12-30T12:48:21Z</time>
      </trkpt>
      <trkpt lat="43.29553" lon="6.12189">
        <ele>264.59765625</ele>
        <time>2021-12-30T12:48:36Z</time>
      </trkpt>
      <trkpt lat="43.29597" lon="6.12152">
        <ele>266.37890625</ele>
        <time>2021-12-30T12:48:52Z</time>
      </trkpt>
      <trkpt lat="43.29631" lon="6.12128">
        <ele>267.7421875</ele>
        <time>2021-12-30T12:49:05Z</time>
      </trkpt>
      <trkpt lat="43.2965" lon="6.12122">
        <ele>270.5625</ele>
        <time>2021-12-30T12:49:13Z</time>
      </trkpt>
      <trkpt lat="43.2967" lon="6.12118">
        <ele>274.3671875</ele>
        <time>2021-12-30T12:49:22Z</time>
      </trkpt>
      <trkpt lat="43.29699" lon="6.12116">
        <ele>277.92578125</ele>
        <time>2021-12-30T12:49:35Z</time>
      </trkpt>
      <trkpt lat="43.29719" lon="6.12109">
        <ele>278.15234375</ele>
        <time>2021-12-30T12:49:45Z</time>
      </trkpt>
      <trkpt lat="43.29745" lon="6.12113">
        <ele>279.81640625</ele>
        <time>2021-12-30T12:49:57Z</time>
      </trkpt>
      <trkpt lat="43.29774" lon="6.12125">
        <ele>282.578125</ele>
        <time>2021-12-30T12:50:10Z</time>
      </trkpt>
      <trkpt lat="43.29806" lon="6.12136">
        <ele>286.19140625</ele>
        <time>2021-12-30T12:50:21Z</time>
      </trkpt>
      <trkpt lat="43.2984" lon="6.1214">
        <ele>286.67578125</ele>
        <time>2021-12-30T12:50:33Z</time>
      </trkpt>
      <trkpt lat="43.29878" lon="6.12153">
        <ele>287.328125</ele>
        <time>2021-12-30T12:50:46Z</time>
      </trkpt>
      <trkpt lat="43.2992" lon="6.12172">
        <ele>287.9609375</ele>
        <time>2021-12-30T12:51:00Z</time>
      </trkpt>
      <trkpt lat="43.29949" lon="6.12189">
        <ele>289.42578125</ele>
        <time>2021-12-30T12:51:10Z</time>
      </trkpt>
      <trkpt lat="43.29974" lon="6.12213">
        <ele>289.60546875</ele>
        <time>2021-12-30T12:51:20Z</time>
      </trkpt>
      <trkpt lat="43.30007" lon="6.12236">
        <ele>294.1875</ele>
        <time>2021-12-30T12:51:32Z</time>
      </trkpt>
      <trkpt lat="43.30039" lon="6.12249">
        <ele>298.3828125</ele>
        <time>2021-12-30T12:51:45Z</time>
      </trkpt>
      <trkpt lat="43.30068" lon="6.12241">
        <ele>299.41015625</ele>
        <time>2021-12-30T12:51:55Z</time>
      </trkpt>
      <trkpt lat="43.30103" lon="6.12232">
        <ele>300.69921875</ele>
        <time>2021-12-30T12:52:08Z</time>
      </trkpt>
      <trkpt lat="43.30138" lon="6.12241">
        <ele>302.203125</ele>
        <time>2021-12-30T12:52:19Z</time>
      </trkpt>
      <trkpt lat="43.30171" lon="6.12274">
        <ele>304.4765625</ele>
        <time>2021-12-30T12:52:33Z</time>
      </trkpt>
      <trkpt lat="43.30199" lon="6.12289">
        <ele>303.6171875</ele>
        <time>2021-12-30T12:52:44Z</time>
      </trkpt>
      <trkpt lat="43.30218" lon="6.12311">
        <ele>306.8515625</ele>
        <time>2021-12-30T12:52:55Z</time>
      </trkpt>
      <trkpt lat="43.30218" lon="6.12314">
        <ele>307.07421875</ele>
        <time>2021-12-30T12:52:56Z</time>
      </trkpt>
      <trkpt lat="43.30212" lon="6.12336">
        <ele>308.9765625</ele>
        <time>2021-12-30T12:53:04Z</time>
      </trkpt>
      <trkpt lat="43.30213" lon="6.12339">
        <ele>309.359375</ele>
        <time>2021-12-30T12:53:05Z</time>
      </trkpt>
      <trkpt lat="43.30215" lon="6.12345">
        <ele>310.16015625</ele>
        <time>2021-12-30T12:53:07Z</time>
      </trkpt>
      <trkpt lat="43.30221" lon="6.12352">
        <ele>311.2265625</ele>
        <time>2021-12-30T12:53:11Z</time>
      </trkpt>
      <trkpt lat="43.30226" lon="6.12356">
        <ele>311.98828125</ele>
        <time>2021-12-30T12:53:14Z</time>
      </trkpt>
      <trkpt lat="43.30242" lon="6.12391">
        <ele>315.71875</ele>
        <time>2021-12-30T12:53:27Z</time>
      </trkpt>
      <trkpt lat="43.30248" lon="6.12442">
        <ele>319.93359375</ele>
        <time>2021-12-30T12:53:40Z</time>
      </trkpt>
      <trkpt lat="43.3025" lon="6.1249">
        <ele>325.109375</ele>
        <time>2021-12-30T12:53:53Z</time>
      </trkpt>
      <trkpt lat="43.30249" lon="6.12532">
        <ele>328.75390625</ele>
        <time>2021-12-30T12:54:05Z</time>
      </trkpt>
      <trkpt lat="43.30246" lon="6.1257">
        <ele>332.75390625</ele>
        <time>2021-12-30T12:54:16Z</time>
      </trkpt>
      <trkpt lat="43.30244" lon="6.12598">
        <ele>334.73046875</ele>
        <time>2021-12-30T12:54:25Z</time>
      </trkpt>
      <trkpt lat="43.30242" lon="6.1261">
        <ele>335.51171875</ele>
        <time>2021-12-30T12:54:29Z</time>
      </trkpt>
      <trkpt lat="43.30241" lon="6.12616">
        <ele>335.91015625</ele>
        <time>2021-12-30T12:54:31Z</time>
      </trkpt>
      <trkpt lat="43.30238" lon="6.12644">
        <ele>337.453125</ele>
        <time>2021-12-30T12:54:40Z</time>
      </trkpt>
      <trkpt lat="43.30238" lon="6.12672">
        <ele>338.29296875</ele>
        <time>2021-12-30T12:54:50Z</time>
      </trkpt>
      <trkpt lat="43.30249" lon="6.12703">
        <ele>337.3515625</ele>
        <time>2021-12-30T12:55:01Z</time>
      </trkpt>
      <trkpt lat="43.30259" lon="6.12718">
        <ele>336.63671875</ele>
        <time>2021-12-30T12:55:08Z</time>
      </trkpt>
      <trkpt lat="43.30261" lon="6.12718">
        <ele>336.59765625</ele>
        <time>2021-12-30T12:55:09Z</time>
      </trkpt>
      <trkpt lat="43.30262" lon="6.12718">
        <ele>336.578125</ele>
        <time>2021-12-30T12:55:10Z</time>
      </trkpt>
      <trkpt lat="43.30264" lon="6.12718">
        <ele>336.58984375</ele>
        <time>2021-12-30T12:55:11Z</time>
      </trkpt>
      <trkpt lat="43.30265" lon="6.12717">
        <ele>336.6328125</ele>
        <time>2021-12-30T12:55:12Z</time>
      </trkpt>
      <trkpt lat="43.3027" lon="6.12712">
        <ele>336.88671875</ele>
        <time>2021-12-30T12:55:15Z</time>
      </trkpt>
      <trkpt lat="43.30281" lon="6.12688">
        <ele>338.640625</ele>
        <time>2021-12-30T12:55:25Z</time>
      </trkpt>
      <trkpt lat="43.30293" lon="6.12659">
        <ele>341.65625</ele>
        <time>2021-12-30T12:55:35Z</time>
      </trkpt>
      <trkpt lat="43.30314" lon="6.12645">
        <ele>344.9765625</ele>
        <time>2021-12-30T12:55:45Z</time>
      </trkpt>
      <trkpt lat="43.30316" lon="6.12645">
        <ele>345.25</ele>
        <time>2021-12-30T12:55:46Z</time>
      </trkpt>
      <trkpt lat="43.30349" lon="6.12639">
        <ele>350.02734375</ele>
        <time>2021-12-30T12:56:00Z</time>
      </trkpt>
      <trkpt lat="43.30367" lon="6.12626">
        <ele>354.79296875</ele>
        <time>2021-12-30T12:56:08Z</time>
      </trkpt>
      <trkpt lat="43.30374" lon="6.12621">
        <ele>356.5390625</ele>
        <time>2021-12-30T12:56:12Z</time>
      </trkpt>
      <trkpt lat="43.30386" lon="6.12615">
        <ele>359.10546875</ele>
        <time>2021-12-30T12:56:18Z</time>
      </trkpt>
      <trkpt lat="43.30388" lon="6.12615">
        <ele>359.3984375</ele>
        <time>2021-12-30T12:56:19Z</time>
      </trkpt>
      <trkpt lat="43.3039" lon="6.12616">
        <ele>359.58984375</ele>
        <time>2021-12-30T12:56:20Z</time>
      </trkpt>
      <trkpt lat="43.30406" lon="6.12619">
        <ele>362.28125</ele>
        <time>2021-12-30T12:56:28Z</time>
      </trkpt>
      <trkpt lat="43.30424" lon="6.12613">
        <ele>366.6015625</ele>
        <time>2021-12-30T12:56:38Z</time>
      </trkpt>
      <trkpt lat="43.30442" lon="6.12616">
        <ele>368.87890625</ele>
        <time>2021-12-30T12:56:48Z</time>
      </trkpt>
      <trkpt lat="43.3045" lon="6.12616">
        <ele>369.875</ele>
        <time>2021-12-30T12:56:53Z</time>
      </trkpt>
      <trkpt lat="43.30465" lon="6.12615">
        <ele>371.4453125</ele>
        <time>2021-12-30T12:57:01Z</time>
      </trkpt>
      <trkpt lat="43.3047" lon="6.12617">
        <ele>371.58203125</ele>
        <time>2021-12-30T12:57:04Z</time>
      </trkpt>
      <trkpt lat="43.3049" lon="6.12617">
        <ele>372.03125</ele>
        <time>2021-12-30T12:57:17Z</time>
      </trkpt>
      <trkpt lat="43.30492" lon="6.12616">
        <ele>372.203125</ele>
        <time>2021-12-30T12:57:18Z</time>
      </trkpt>
      <trkpt lat="43.30493" lon="6.12616">
        <ele>372.421875</ele>
        <time>2021-12-30T12:57:19Z</time>
      </trkpt>
      <trkpt lat="43.30495" lon="6.12615">
        <ele>372.76953125</ele>
        <time>2021-12-30T12:57:20Z</time>
      </trkpt>
      <trkpt lat="43.30497" lon="6.12614">
        <ele>373.05078125</ele>
        <time>2021-12-30T12:57:21Z</time>
      </trkpt>
      <trkpt lat="43.30499" lon="6.12614">
        <ele>373.21875</ele>
        <time>2021-12-30T12:57:22Z</time>
      </trkpt>
      <trkpt lat="43.30501" lon="6.12614">
        <ele>373.24609375</ele>
        <time>2021-12-30T12:57:23Z</time>
      </trkpt>
      <trkpt lat="43.30502" lon="6.12613">
        <ele>373.3359375</ele>
        <time>2021-12-30T12:57:24Z</time>
      </trkpt>
      <trkpt lat="43.30504" lon="6.12613">
        <ele>373.5703125</ele>
        <time>2021-12-30T12:57:25Z</time>
      </trkpt>
      <trkpt lat="43.30523" lon="6.12606">
        <ele>375.68359375</ele>
        <time>2021-12-30T12:57:36Z</time>
      </trkpt>
      <trkpt lat="43.30542" lon="6.12601">
        <ele>376.75390625</ele>
        <time>2021-12-30T12:57:48Z</time>
      </trkpt>
      <trkpt lat="43.30559" lon="6.12596">
        <ele>377.8046875</ele>
        <time>2021-12-30T12:57:59Z</time>
      </trkpt>
      <trkpt lat="43.30577" lon="6.12585">
        <ele>379.24609375</ele>
        <time>2021-12-30T12:58:09Z</time>
      </trkpt>
      <trkpt lat="43.30596" lon="6.12573">
        <ele>380.83984375</ele>
        <time>2021-12-30T12:58:18Z</time>
      </trkpt>
      <trkpt lat="43.3061" lon="6.12561">
        <ele>382.6171875</ele>
        <time>2021-12-30T12:58:26Z</time>
      </trkpt>
      <trkpt lat="43.30611" lon="6.12559">
        <ele>383.0546875</ele>
        <time>2021-12-30T12:58:27Z</time>
      </trkpt>
      <trkpt lat="43.30612" lon="6.12557">
        <ele>383.46484375</ele>
        <time>2021-12-30T12:58:28Z</time>
      </trkpt>
      <trkpt lat="43.30613" lon="6.12555">
        <ele>383.9765625</ele>
        <time>2021-12-30T12:58:29Z</time>
      </trkpt>
      <trkpt lat="43.30614" lon="6.12553">
        <ele>384.6796875</ele>
        <time>2021-12-30T12:58:30Z</time>
      </trkpt>
      <trkpt lat="43.30615" lon="6.1255">
        <ele>385.3671875</ele>
        <time>2021-12-30T12:58:31Z</time>
      </trkpt>
      <trkpt lat="43.30617" lon="6.12548">
        <ele>386</ele>
        <time>2021-12-30T12:58:32Z</time>
      </trkpt>
      <trkpt lat="43.30618" lon="6.12545">
        <ele>386.703125</ele>
        <time>2021-12-30T12:58:33Z</time>
      </trkpt>
      <trkpt lat="43.30618" lon="6.12543">
        <ele>387.48046875</ele>
        <time>2021-12-30T12:58:34Z</time>
      </trkpt>
      <trkpt lat="43.30621" lon="6.12536">
        <ele>389.15234375</ele>
        <time>2021-12-30T12:58:43Z</time>
      </trkpt>
      <trkpt lat="43.30625" lon="6.12529">
        <ele>390.95703125</ele>
        <time>2021-12-30T12:58:55Z</time>
      </trkpt>
      <trkpt lat="43.30634" lon="6.12509">
        <ele>395.86328125</ele>
        <time>2021-12-30T12:59:07Z</time>
      </trkpt>
      <trkpt lat="43.30638" lon="6.12493">
        <ele>400.47265625</ele>
        <time>2021-12-30T12:59:16Z</time>
      </trkpt>
      <trkpt lat="43.30639" lon="6.12491">
        <ele>400.89453125</ele>
        <time>2021-12-30T12:59:17Z</time>
      </trkpt>
      <trkpt lat="43.30657" lon="6.12474">
        <ele>403.15234375</ele>
        <time>2021-12-30T12:59:27Z</time>
      </trkpt>
      <trkpt lat="43.30675" lon="6.12458">
        <ele>406.9921875</ele>
        <time>2021-12-30T12:59:35Z</time>
      </trkpt>
      <trkpt lat="43.30676" lon="6.12457">
        <ele>407.3828125</ele>
        <time>2021-12-30T12:59:36Z</time>
      </trkpt>
      <trkpt lat="43.30699" lon="6.12454">
        <ele>410.15625</ele>
        <time>2021-12-30T12:59:46Z</time>
      </trkpt>
      <trkpt lat="43.30707" lon="6.12453">
        <ele>411.60546875</ele>
        <time>2021-12-30T12:59:51Z</time>
      </trkpt>
      <trkpt lat="43.3072" lon="6.12455">
        <ele>413.45703125</ele>
        <time>2021-12-30T12:59:58Z</time>
      </trkpt>
      <trkpt lat="43.30725" lon="6.12455">
        <ele>414.75390625</ele>
        <time>2021-12-30T13:00:01Z</time>
      </trkpt>
      <trkpt lat="43.30727" lon="6.12456">
        <ele>415.15625</ele>
        <time>2021-12-30T13:00:02Z</time>
      </trkpt>
      <trkpt lat="43.3073" lon="6.12457">
        <ele>415.640625</ele>
        <time>2021-12-30T13:00:03Z</time>
      </trkpt>
      <trkpt lat="43.30732" lon="6.12458">
        <ele>416.1171875</ele>
        <time>2021-12-30T13:00:04Z</time>
      </trkpt>
      <trkpt lat="43.30733" lon="6.12458">
        <ele>416.49609375</ele>
        <time>2021-12-30T13:00:05Z</time>
      </trkpt>
      <trkpt lat="43.30735" lon="6.12459">
        <ele>416.75390625</ele>
        <time>2021-12-30T13:00:06Z</time>
      </trkpt>
      <trkpt lat="43.30736" lon="6.1246">
        <ele>416.921875</ele>
        <time>2021-12-30T13:00:07Z</time>
      </trkpt>
      <trkpt lat="43.3074" lon="6.12461">
        <ele>417.90234375</ele>
        <time>2021-12-30T13:00:10Z</time>
      </trkpt>
      <trkpt lat="43.30741" lon="6.12461">
        <ele>418.28515625</ele>
        <time>2021-12-30T13:00:11Z</time>
      </trkpt>
      <trkpt lat="43.30743" lon="6.12461">
        <ele>418.71875</ele>
        <time>2021-12-30T13:00:12Z</time>
      </trkpt>
      <trkpt lat="43.30749" lon="6.12463">
        <ele>420.26171875</ele>
        <time>2021-12-30T13:00:16Z</time>
      </trkpt>
      <trkpt lat="43.30751" lon="6.12463">
        <ele>420.5625</ele>
        <time>2021-12-30T13:00:17Z</time>
      </trkpt>
      <trkpt lat="43.30759" lon="6.12466">
        <ele>422.8125</ele>
        <time>2021-12-30T13:00:22Z</time>
      </trkpt>
      <trkpt lat="43.30765" lon="6.1247">
        <ele>423.8671875</ele>
        <time>2021-12-30T13:00:26Z</time>
      </trkpt>
      <trkpt lat="43.30766" lon="6.12471">
        <ele>424.0625</ele>
        <time>2021-12-30T13:00:27Z</time>
      </trkpt>
      <trkpt lat="43.30769" lon="6.12474">
        <ele>424.48046875</ele>
        <time>2021-12-30T13:00:29Z</time>
      </trkpt>
      <trkpt lat="43.30774" lon="6.12477">
        <ele>425.34765625</ele>
        <time>2021-12-30T13:00:34Z</time>
      </trkpt>
      <trkpt lat="43.30775" lon="6.12479">
        <ele>425.2265625</ele>
        <time>2021-12-30T13:00:35Z</time>
      </trkpt>
      <trkpt lat="43.30784" lon="6.12485">
        <ele>427.234375</ele>
        <time>2021-12-30T13:00:38Z</time>
      </trkpt>
      <trkpt lat="43.30789" lon="6.12488">
        <ele>428.46484375</ele>
        <time>2021-12-30T13:00:39Z</time>
      </trkpt>
      <trkpt lat="43.30791" lon="6.1249">
        <ele>428.8046875</ele>
        <time>2021-12-30T13:00:40Z</time>
      </trkpt>
      <trkpt lat="43.30793" lon="6.12492">
        <ele>429.1328125</ele>
        <time>2021-12-30T13:00:41Z</time>
      </trkpt>
      <trkpt lat="43.30799" lon="6.12498">
        <ele>430.30078125</ele>
        <time>2021-12-30T13:00:43Z</time>
      </trkpt>
      <trkpt lat="43.30802" lon="6.125">
        <ele>431.11328125</ele>
        <time>2021-12-30T13:00:44Z</time>
      </trkpt>
      <trkpt lat="43.30805" lon="6.12502">
        <ele>431.47265625</ele>
        <time>2021-12-30T13:00:45Z</time>
      </trkpt>
      <trkpt lat="43.30807" lon="6.12504">
        <ele>431.9765625</ele>
        <time>2021-12-30T13:00:46Z</time>
      </trkpt>
      <trkpt lat="43.30809" lon="6.12507">
        <ele>432.640625</ele>
        <time>2021-12-30T13:00:47Z</time>
      </trkpt>
      <trkpt lat="43.30812" lon="6.12508">
        <ele>433.578125</ele>
        <time>2021-12-30T13:00:48Z</time>
      </trkpt>
      <trkpt lat="43.30831" lon="6.12527">
        <ele>438.73828125</ele>
        <time>2021-12-30T13:00:57Z</time>
      </trkpt>
      <trkpt lat="43.30834" lon="6.12528">
        <ele>439.375</ele>
        <time>2021-12-30T13:00:58Z</time>
      </trkpt>
      <trkpt lat="43.30851" lon="6.12554">
        <ele>442.109375</ele>
        <time>2021-12-30T13:01:09Z</time>
      </trkpt>
      <trkpt lat="43.30862" lon="6.12592">
        <ele>442.62890625</ele>
        <time>2021-12-30T13:01:20Z</time>
      </trkpt>
      <trkpt lat="43.30865" lon="6.12618">
        <ele>444.51953125</ele>
        <time>2021-12-30T13:01:26Z</time>
      </trkpt>
      <trkpt lat="43.30864" lon="6.12623">
        <ele>444.40234375</ele>
        <time>2021-12-30T13:01:27Z</time>
      </trkpt>
      <trkpt lat="43.30864" lon="6.12627">
        <ele>444.5234375</ele>
        <time>2021-12-30T13:01:28Z</time>
      </trkpt>
      <trkpt lat="43.30864" lon="6.12674">
        <ele>448.66015625</ele>
        <time>2021-12-30T13:01:38Z</time>
      </trkpt>
      <trkpt lat="43.30856" lon="6.12719">
        <ele>450.49609375</ele>
        <time>2021-12-30T13:01:49Z</time>
      </trkpt>
      <trkpt lat="43.30848" lon="6.12767">
        <ele>452.84765625</ele>
        <time>2021-12-30T13:02:01Z</time>
      </trkpt>
      <trkpt lat="43.30844" lon="6.12783">
        <ele>451.1953125</ele>
        <time>2021-12-30T13:02:05Z</time>
      </trkpt>
      <trkpt lat="43.30844" lon="6.12786">
        <ele>451.25</ele>
        <time>2021-12-30T13:02:06Z</time>
      </trkpt>
      <trkpt lat="43.30844" lon="6.12789">
        <ele>451.2265625</ele>
        <time>2021-12-30T13:02:07Z</time>
      </trkpt>
      <trkpt lat="43.30841" lon="6.12816">
        <ele>450.0859375</ele>
        <time>2021-12-30T13:02:14Z</time>
      </trkpt>
      <trkpt lat="43.30846" lon="6.12832">
        <ele>452.6171875</ele>
        <time>2021-12-30T13:02:20Z</time>
      </trkpt>
      <trkpt lat="43.30851" lon="6.12876">
        <ele>453.51953125</ele>
        <time>2021-12-30T13:02:33Z</time>
      </trkpt>
      <trkpt lat="43.30851" lon="6.12887">
        <ele>451.86328125</ele>
        <time>2021-12-30T13:02:36Z</time>
      </trkpt>
      <trkpt lat="43.30852" lon="6.12891">
        <ele>452.25390625</ele>
        <time>2021-12-30T13:02:37Z</time>
      </trkpt>
      <trkpt lat="43.30854" lon="6.12894">
        <ele>452.92578125</ele>
        <time>2021-12-30T13:02:38Z</time>
      </trkpt>
      <trkpt lat="43.30856" lon="6.12896">
        <ele>453.5078125</ele>
        <time>2021-12-30T13:02:39Z</time>
      </trkpt>
      <trkpt lat="43.30857" lon="6.12898">
        <ele>453.95703125</ele>
        <time>2021-12-30T13:02:40Z</time>
      </trkpt>
      <trkpt lat="43.30859" lon="6.12901">
        <ele>454.2265625</ele>
        <time>2021-12-30T13:02:41Z</time>
      </trkpt>
      <trkpt lat="43.3086" lon="6.12904">
        <ele>454.35546875</ele>
        <time>2021-12-30T13:02:42Z</time>
      </trkpt>
      <trkpt lat="43.30861" lon="6.12908">
        <ele>454.08984375</ele>
        <time>2021-12-30T13:02:43Z</time>
      </trkpt>
      <trkpt lat="43.30861" lon="6.12912">
        <ele>453.51171875</ele>
        <time>2021-12-30T13:02:44Z</time>
      </trkpt>
      <trkpt lat="43.30861" lon="6.12917">
        <ele>452.71875</ele>
        <time>2021-12-30T13:02:45Z</time>
      </trkpt>
      <trkpt lat="43.30862" lon="6.12922">
        <ele>451.875</ele>
        <time>2021-12-30T13:02:46Z</time>
      </trkpt>
      <trkpt lat="43.30862" lon="6.12927">
        <ele>451.24609375</ele>
        <time>2021-12-30T13:02:47Z</time>
      </trkpt>
      <trkpt lat="43.30863" lon="6.12931">
        <ele>450.828125</ele>
        <time>2021-12-30T13:02:48Z</time>
      </trkpt>
      <trkpt lat="43.30864" lon="6.12935">
        <ele>450.48828125</ele>
        <time>2021-12-30T13:02:49Z</time>
      </trkpt>
      <trkpt lat="43.30865" lon="6.1294">
        <ele>450.03515625</ele>
        <time>2021-12-30T13:02:50Z</time>
      </trkpt>
      <trkpt lat="43.30867" lon="6.12946">
        <ele>449.35546875</ele>
        <time>2021-12-30T13:02:51Z</time>
      </trkpt>
      <trkpt lat="43.30868" lon="6.12952">
        <ele>448.515625</ele>
        <time>2021-12-30T13:02:52Z</time>
      </trkpt>
      <trkpt lat="43.30868" lon="6.12958">
        <ele>447.703125</ele>
        <time>2021-12-30T13:02:53Z</time>
      </trkpt>
      <trkpt lat="43.30869" lon="6.12963">
        <ele>446.88671875</ele>
        <time>2021-12-30T13:02:54Z</time>
      </trkpt>
      <trkpt lat="43.3087" lon="6.12967">
        <ele>446.37890625</ele>
        <time>2021-12-30T13:02:55Z</time>
      </trkpt>
      <trkpt lat="43.30874" lon="6.12974">
        <ele>446.11328125</ele>
        <time>2021-12-30T13:02:58Z</time>
      </trkpt>
      <trkpt lat="43.30876" lon="6.12979">
        <ele>445.75</ele>
        <time>2021-12-30T13:02:59Z</time>
      </trkpt>
      <trkpt lat="43.30878" lon="6.12983">
        <ele>445.63671875</ele>
        <time>2021-12-30T13:03:00Z</time>
      </trkpt>
      <trkpt lat="43.3088" lon="6.12986">
        <ele>445.890625</ele>
        <time>2021-12-30T13:03:01Z</time>
      </trkpt>
      <trkpt lat="43.30882" lon="6.12989">
        <ele>446.078125</ele>
        <time>2021-12-30T13:03:02Z</time>
      </trkpt>
      <trkpt lat="43.30882" lon="6.1299">
        <ele>446.06640625</ele>
        <time>2021-12-30T13:03:03Z</time>
      </trkpt>
      <trkpt lat="43.30894" lon="6.13005">
        <ele>447.1640625</ele>
        <time>2021-12-30T13:03:07Z</time>
      </trkpt>
      <trkpt lat="43.30897" lon="6.1301">
        <ele>447.06640625</ele>
        <time>2021-12-30T13:03:08Z</time>
      </trkpt>
      <trkpt lat="43.309" lon="6.13014">
        <ele>447.19140625</ele>
        <time>2021-12-30T13:03:09Z</time>
      </trkpt>
      <trkpt lat="43.30912" lon="6.13034">
        <ele>448.7265625</ele>
        <time>2021-12-30T13:03:14Z</time>
      </trkpt>
      <trkpt lat="43.30918" lon="6.13072">
        <ele>447.34375</ele>
        <time>2021-12-30T13:03:21Z</time>
      </trkpt>
      <trkpt lat="43.30919" lon="6.13074">
        <ele>447.55859375</ele>
        <time>2021-12-30T13:03:22Z</time>
      </trkpt>
      <trkpt lat="43.3092" lon="6.13077">
        <ele>447.4921875</ele>
        <time>2021-12-30T13:03:23Z</time>
      </trkpt>
      <trkpt lat="43.30918" lon="6.13116">
        <ele>446.28125</ele>
        <time>2021-12-30T13:03:33Z</time>
      </trkpt>
      <trkpt lat="43.30913" lon="6.13154">
        <ele>445.51171875</ele>
        <time>2021-12-30T13:03:44Z</time>
      </trkpt>
      <trkpt lat="43.30912" lon="6.13157">
        <ele>445.33203125</ele>
        <time>2021-12-30T13:03:45Z</time>
      </trkpt>
      <trkpt lat="43.3091" lon="6.13161">
        <ele>445.046875</ele>
        <time>2021-12-30T13:03:46Z</time>
      </trkpt>
      <trkpt lat="43.30907" lon="6.13169">
        <ele>444.4921875</ele>
        <time>2021-12-30T13:03:54Z</time>
      </trkpt>
      <trkpt lat="43.30895" lon="6.13193">
        <ele>443.25390625</ele>
        <time>2021-12-30T13:04:04Z</time>
      </trkpt>
      <trkpt lat="43.30894" lon="6.13195">
        <ele>443.24609375</ele>
        <time>2021-12-30T13:04:05Z</time>
      </trkpt>
      <trkpt lat="43.30892" lon="6.13198">
        <ele>443.0625</ele>
        <time>2021-12-30T13:04:07Z</time>
      </trkpt>
      <trkpt lat="43.30889" lon="6.13199">
        <ele>442.5078125</ele>
        <time>2021-12-30T13:04:09Z</time>
      </trkpt>
      <trkpt lat="43.30888" lon="6.13202">
        <ele>442.390625</ele>
        <time>2021-12-30T13:04:10Z</time>
      </trkpt>
      <trkpt lat="43.30877" lon="6.1322">
        <ele>441.4453125</ele>
        <time>2021-12-30T13:04:21Z</time>
      </trkpt>
      <trkpt lat="43.30876" lon="6.13223">
        <ele>441.50390625</ele>
        <time>2021-12-30T13:04:42Z</time>
      </trkpt>
      <trkpt lat="43.30874" lon="6.13223">
        <ele>440.56640625</ele>
        <time>2021-12-30T13:05:17Z</time>
      </trkpt>
      <trkpt lat="43.3087" lon="6.13222">
        <ele>439.23046875</ele>
        <time>2021-12-30T13:05:43Z</time>
      </trkpt>
      <trkpt lat="43.30874" lon="6.13219">
        <ele>440.06640625</ele>
        <time>2021-12-30T13:05:50Z</time>
      </trkpt>
      <trkpt lat="43.30875" lon="6.13218">
        <ele>440.39453125</ele>
        <time>2021-12-30T13:05:51Z</time>
      </trkpt>
      <trkpt lat="43.30877" lon="6.13218">
        <ele>440.78125</ele>
        <time>2021-12-30T13:05:52Z</time>
      </trkpt>
      <trkpt lat="43.30878" lon="6.13217">
        <ele>441.2421875</ele>
        <time>2021-12-30T13:05:53Z</time>
      </trkpt>
      <trkpt lat="43.3088" lon="6.13217">
        <ele>441.66796875</ele>
        <time>2021-12-30T13:05:54Z</time>
      </trkpt>
      <trkpt lat="43.30881" lon="6.13216">
        <ele>442.16015625</ele>
        <time>2021-12-30T13:05:55Z</time>
      </trkpt>
      <trkpt lat="43.30883" lon="6.13215">
        <ele>442.62109375</ele>
        <time>2021-12-30T13:05:56Z</time>
      </trkpt>
      <trkpt lat="43.30884" lon="6.13215">
        <ele>442.921875</ele>
        <time>2021-12-30T13:05:57Z</time>
      </trkpt>
      <trkpt lat="43.30885" lon="6.13214">
        <ele>443.35546875</ele>
        <time>2021-12-30T13:05:58Z</time>
      </trkpt>
      <trkpt lat="43.30887" lon="6.13214">
        <ele>443.859375</ele>
        <time>2021-12-30T13:05:59Z</time>
      </trkpt>
      <trkpt lat="43.30889" lon="6.13213">
        <ele>444.50390625</ele>
        <time>2021-12-30T13:06:00Z</time>
      </trkpt>
      <trkpt lat="43.30891" lon="6.13213">
        <ele>444.890625</ele>
        <time>2021-12-30T13:06:01Z</time>
      </trkpt>
      <trkpt lat="43.30893" lon="6.13211">
        <ele>445.15234375</ele>
        <time>2021-12-30T13:06:02Z</time>
      </trkpt>
      <trkpt lat="43.309" lon="6.13207">
        <ele>446.0859375</ele>
        <time>2021-12-30T13:06:10Z</time>
      </trkpt>
      <trkpt lat="43.3091" lon="6.13203">
        <ele>447.8359375</ele>
        <time>2021-12-30T13:06:29Z</time>
      </trkpt>
      <trkpt lat="43.30911" lon="6.13202">
        <ele>448.0859375</ele>
        <time>2021-12-30T13:06:30Z</time>
      </trkpt>
      <trkpt lat="43.30915" lon="6.13201">
        <ele>449.03515625</ele>
        <time>2021-12-30T13:06:34Z</time>
      </trkpt>
      <trkpt lat="43.30917" lon="6.132">
        <ele>449.39453125</ele>
        <time>2021-12-30T13:06:35Z</time>
      </trkpt>
      <trkpt lat="43.30919" lon="6.13199">
        <ele>449.66796875</ele>
        <time>2021-12-30T13:06:36Z</time>
      </trkpt>
      <trkpt lat="43.30927" lon="6.13194">
        <ele>450.58203125</ele>
        <time>2021-12-30T13:06:40Z</time>
      </trkpt>
      <trkpt lat="43.3093" lon="6.13194">
        <ele>450.9453125</ele>
        <time>2021-12-30T13:06:42Z</time>
      </trkpt>
      <trkpt lat="43.30935" lon="6.13196">
        <ele>451.90234375</ele>
        <time>2021-12-30T13:06:57Z</time>
      </trkpt>
      <trkpt lat="43.30936" lon="6.13205">
        <ele>452.52734375</ele>
        <time>2021-12-30T13:07:15Z</time>
      </trkpt>
      <trkpt lat="43.30938" lon="6.13208">
        <ele>452.9375</ele>
        <time>2021-12-30T13:07:27Z</time>
      </trkpt>
      <trkpt lat="43.30942" lon="6.13209">
        <ele>453.640625</ele>
        <time>2021-12-30T13:07:40Z</time>
      </trkpt>
      <trkpt lat="43.30952" lon="6.13205">
        <ele>453.8671875</ele>
        <time>2021-12-30T13:08:00Z</time>
      </trkpt>
      <trkpt lat="43.30954" lon="6.13204">
        <ele>453.87109375</ele>
        <time>2021-12-30T13:08:03Z</time>
      </trkpt>
      <trkpt lat="43.30956" lon="6.13204">
        <ele>453.87890625</ele>
        <time>2021-12-30T13:08:04Z</time>
      </trkpt>
      <trkpt lat="43.30958" lon="6.13205">
        <ele>453.90625</ele>
        <time>2021-12-30T13:08:05Z</time>
      </trkpt>
      <trkpt lat="43.30962" lon="6.13205">
        <ele>453.9453125</ele>
        <time>2021-12-30T13:08:08Z</time>
      </trkpt>
      <trkpt lat="43.30967" lon="6.13201">
        <ele>453.93359375</ele>
        <time>2021-12-30T13:08:11Z</time>
      </trkpt>
      <trkpt lat="43.3097" lon="6.13199">
        <ele>453.97265625</ele>
        <time>2021-12-30T13:08:25Z</time>
      </trkpt>
      <trkpt lat="43.30972" lon="6.132">
        <ele>453.9921875</ele>
        <time>2021-12-30T13:08:52Z</time>
      </trkpt>
      <trkpt lat="43.30973" lon="6.13199">
        <ele>454</ele>
        <time>2021-12-30T13:09:25Z</time>
      </trkpt>
      <trkpt lat="43.30975" lon="6.13198">
        <ele>454</ele>
        <time>2021-12-30T13:09:57Z</time>
      </trkpt>
      <trkpt lat="43.30975" lon="6.13199">
        <ele>454</ele>
        <time>2021-12-30T13:10:10Z</time>
      </trkpt>
      <trkpt lat="43.30976" lon="6.13199">
        <ele>454</ele>
        <time>2021-12-30T13:10:11Z</time>
      </trkpt>
      <trkpt lat="43.30977" lon="6.13199">
        <ele>454</ele>
        <time>2021-12-30T13:10:12Z</time>
      </trkpt>
      <trkpt lat="43.30979" lon="6.132">
        <ele>454</ele>
        <time>2021-12-30T13:10:13Z</time>
      </trkpt>
      <trkpt lat="43.30981" lon="6.13201">
        <ele>454</ele>
        <time>2021-12-30T13:10:14Z</time>
      </trkpt>
      <trkpt lat="43.30983" lon="6.13201">
        <ele>454</ele>
        <time>2021-12-30T13:10:15Z</time>
      </trkpt>
      <trkpt lat="43.30984" lon="6.13201">
        <ele>454</ele>
        <time>2021-12-30T13:10:16Z</time>
      </trkpt>
      <trkpt lat="43.30986" lon="6.13199">
        <ele>454</ele>
        <time>2021-12-30T13:10:17Z</time>
      </trkpt>
      <trkpt lat="43.30988" lon="6.13196">
        <ele>454</ele>
        <time>2021-12-30T13:10:18Z</time>
      </trkpt>
      <trkpt lat="43.3099" lon="6.13194">
        <ele>454</ele>
        <time>2021-12-30T13:10:19Z</time>
      </trkpt>
      <trkpt lat="43.30992" lon="6.13194">
        <ele>454</ele>
        <time>2021-12-30T13:10:20Z</time>
      </trkpt>
      <trkpt lat="43.30995" lon="6.13193">
        <ele>454</ele>
        <time>2021-12-30T13:10:21Z</time>
      </trkpt>
      <trkpt lat="43.30998" lon="6.13193">
        <ele>454</ele>
        <time>2021-12-30T13:10:22Z</time>
      </trkpt>
      <trkpt lat="43.31001" lon="6.13194">
        <ele>454.02734375</ele>
        <time>2021-12-30T13:10:23Z</time>
      </trkpt>
      <trkpt lat="43.31004" lon="6.13193">
        <ele>454.12890625</ele>
        <time>2021-12-30T13:10:24Z</time>
      </trkpt>
      <trkpt lat="43.31006" lon="6.1319">
        <ele>454.21484375</ele>
        <time>2021-12-30T13:10:25Z</time>
      </trkpt>
      <trkpt lat="43.31008" lon="6.13186">
        <ele>454.30078125</ele>
        <time>2021-12-30T13:10:26Z</time>
      </trkpt>
      <trkpt lat="43.31011" lon="6.13182">
        <ele>454.38671875</ele>
        <time>2021-12-30T13:10:27Z</time>
      </trkpt>
      <trkpt lat="43.31013" lon="6.13178">
        <ele>454.52734375</ele>
        <time>2021-12-30T13:10:28Z</time>
      </trkpt>
      <trkpt lat="43.31015" lon="6.13176">
        <ele>454.63671875</ele>
        <time>2021-12-30T13:10:29Z</time>
      </trkpt>
      <trkpt lat="43.31018" lon="6.13174">
        <ele>454.734375</ele>
        <time>2021-12-30T13:10:30Z</time>
      </trkpt>
      <trkpt lat="43.3102" lon="6.13172">
        <ele>454.828125</ele>
        <time>2021-12-30T13:10:31Z</time>
      </trkpt>
      <trkpt lat="43.31023" lon="6.13168">
        <ele>454.91015625</ele>
        <time>2021-12-30T13:10:32Z</time>
      </trkpt>
      <trkpt lat="43.31025" lon="6.13163">
        <ele>454.96484375</ele>
        <time>2021-12-30T13:10:33Z</time>
      </trkpt>
      <trkpt lat="43.31027" lon="6.13157">
        <ele>454.99609375</ele>
        <time>2021-12-30T13:10:34Z</time>
      </trkpt>
      <trkpt lat="43.31029" lon="6.13151">
        <ele>455</ele>
        <time>2021-12-30T13:10:35Z</time>
      </trkpt>
      <trkpt lat="43.31035" lon="6.1314">
        <ele>455</ele>
        <time>2021-12-30T13:10:37Z</time>
      </trkpt>
      <trkpt lat="43.31038" lon="6.13137">
        <ele>455</ele>
        <time>2021-12-30T13:10:38Z</time>
      </trkpt>
      <trkpt lat="43.31042" lon="6.13134">
        <ele>455</ele>
        <time>2021-12-30T13:10:39Z</time>
      </trkpt>
      <trkpt lat="43.31045" lon="6.1313">
        <ele>455</ele>
        <time>2021-12-30T13:10:40Z</time>
      </trkpt>
      <trkpt lat="43.31047" lon="6.13126">
        <ele>455</ele>
        <time>2021-12-30T13:10:41Z</time>
      </trkpt>
      <trkpt lat="43.31049" lon="6.13121">
        <ele>455</ele>
        <time>2021-12-30T13:10:42Z</time>
      </trkpt>
      <trkpt lat="43.3105" lon="6.13117">
        <ele>455</ele>
        <time>2021-12-30T13:10:43Z</time>
      </trkpt>
      <trkpt lat="43.31053" lon="6.13114">
        <ele>455</ele>
        <time>2021-12-30T13:10:44Z</time>
      </trkpt>
      <trkpt lat="43.31056" lon="6.13111">
        <ele>455.0078125</ele>
        <time>2021-12-30T13:10:45Z</time>
      </trkpt>
      <trkpt lat="43.31058" lon="6.13107">
        <ele>455.0859375</ele>
        <time>2021-12-30T13:10:46Z</time>
      </trkpt>
      <trkpt lat="43.31059" lon="6.13103">
        <ele>455.1328125</ele>
        <time>2021-12-30T13:10:47Z</time>
      </trkpt>
      <trkpt lat="43.31061" lon="6.13098">
        <ele>455.1796875</ele>
        <time>2021-12-30T13:10:48Z</time>
      </trkpt>
      <trkpt lat="43.31064" lon="6.1309">
        <ele>455.3046875</ele>
        <time>2021-12-30T13:10:50Z</time>
      </trkpt>
      <trkpt lat="43.31067" lon="6.13088">
        <ele>455.40234375</ele>
        <time>2021-12-30T13:10:51Z</time>
      </trkpt>
      <trkpt lat="43.31069" lon="6.13086">
        <ele>455.5</ele>
        <time>2021-12-30T13:10:52Z</time>
      </trkpt>
      <trkpt lat="43.31072" lon="6.13083">
        <ele>455.59375</ele>
        <time>2021-12-30T13:10:53Z</time>
      </trkpt>
      <trkpt lat="43.31074" lon="6.13078">
        <ele>455.67578125</ele>
        <time>2021-12-30T13:10:54Z</time>
      </trkpt>
      <trkpt lat="43.31076" lon="6.13074">
        <ele>455.75</ele>
        <time>2021-12-30T13:10:55Z</time>
      </trkpt>
      <trkpt lat="43.31079" lon="6.1307">
        <ele>455.8359375</ele>
        <time>2021-12-30T13:10:56Z</time>
      </trkpt>
      <trkpt lat="43.31082" lon="6.13068">
        <ele>455.94140625</ele>
        <time>2021-12-30T13:10:57Z</time>
      </trkpt>
      <trkpt lat="43.31084" lon="6.13065">
        <ele>456</ele>
        <time>2021-12-30T13:10:58Z</time>
      </trkpt>
      <trkpt lat="43.3109" lon="6.13054">
        <ele>456</ele>
        <time>2021-12-30T13:11:01Z</time>
      </trkpt>
      <trkpt lat="43.31093" lon="6.13054">
        <ele>456</ele>
        <time>2021-12-30T13:11:02Z</time>
      </trkpt>
      <trkpt lat="43.31096" lon="6.13057">
        <ele>456</ele>
        <time>2021-12-30T13:11:03Z</time>
      </trkpt>
      <trkpt lat="43.31097" lon="6.13062">
        <ele>456</ele>
        <time>2021-12-30T13:11:04Z</time>
      </trkpt>
      <trkpt lat="43.31098" lon="6.13066">
        <ele>456</ele>
        <time>2021-12-30T13:11:05Z</time>
      </trkpt>
      <trkpt lat="43.31098" lon="6.13072">
        <ele>456</ele>
        <time>2021-12-30T13:11:06Z</time>
      </trkpt>
      <trkpt lat="43.31098" lon="6.13078">
        <ele>456</ele>
        <time>2021-12-30T13:11:07Z</time>
      </trkpt>
      <trkpt lat="43.31098" lon="6.13084">
        <ele>456</ele>
        <time>2021-12-30T13:11:08Z</time>
      </trkpt>
      <trkpt lat="43.31098" lon="6.1309">
        <ele>456</ele>
        <time>2021-12-30T13:11:09Z</time>
      </trkpt>
      <trkpt lat="43.31098" lon="6.13096">
        <ele>456</ele>
        <time>2021-12-30T13:11:10Z</time>
      </trkpt>
      <trkpt lat="43.31098" lon="6.13102">
        <ele>456</ele>
        <time>2021-12-30T13:11:11Z</time>
      </trkpt>
      <trkpt lat="43.31099" lon="6.13108">
        <ele>456</ele>
        <time>2021-12-30T13:11:12Z</time>
      </trkpt>
      <trkpt lat="43.31103" lon="6.13146">
        <ele>456</ele>
        <time>2021-12-30T13:11:23Z</time>
      </trkpt>
      <trkpt lat="43.31106" lon="6.13183">
        <ele>456.8125</ele>
        <time>2021-12-30T13:11:32Z</time>
      </trkpt>
      <trkpt lat="43.31106" lon="6.13209">
        <ele>456.828125</ele>
        <time>2021-12-30T13:11:36Z</time>
      </trkpt>
      <trkpt lat="43.31107" lon="6.13216">
        <ele>456.87109375</ele>
        <time>2021-12-30T13:11:37Z</time>
      </trkpt>
      <trkpt lat="43.31109" lon="6.1327">
        <ele>457</ele>
        <time>2021-12-30T13:11:45Z</time>
      </trkpt>
      <trkpt lat="43.31109" lon="6.13313">
        <ele>457</ele>
        <time>2021-12-30T13:11:51Z</time>
      </trkpt>
      <trkpt lat="43.31112" lon="6.13355">
        <ele>458.01171875</ele>
        <time>2021-12-30T13:11:58Z</time>
      </trkpt>
      <trkpt lat="43.31115" lon="6.13358">
        <ele>458.046875</ele>
        <time>2021-12-30T13:11:59Z</time>
      </trkpt>
      <trkpt lat="43.31118" lon="6.13359">
        <ele>458.08984375</ele>
        <time>2021-12-30T13:12:00Z</time>
      </trkpt>
      <trkpt lat="43.31121" lon="6.13359">
        <ele>458.140625</ele>
        <time>2021-12-30T13:12:01Z</time>
      </trkpt>
      <trkpt lat="43.31125" lon="6.1336">
        <ele>458.20703125</ele>
        <time>2021-12-30T13:12:02Z</time>
      </trkpt>
      <trkpt lat="43.31129" lon="6.13361">
        <ele>458.29296875</ele>
        <time>2021-12-30T13:12:03Z</time>
      </trkpt>
      <trkpt lat="43.31144" lon="6.13363">
        <ele>458.70703125</ele>
        <time>2021-12-30T13:12:07Z</time>
      </trkpt>
      <trkpt lat="43.3117" lon="6.13359">
        <ele>459.55078125</ele>
        <time>2021-12-30T13:12:17Z</time>
      </trkpt>
      <trkpt lat="43.31174" lon="6.1336">
        <ele>459.8515625</ele>
        <time>2021-12-30T13:12:22Z</time>
      </trkpt>
      <trkpt lat="43.31176" lon="6.13362">
        <ele>459.96484375</ele>
        <time>2021-12-30T13:12:23Z</time>
      </trkpt>
      <trkpt lat="43.31177" lon="6.13363">
        <ele>460.07421875</ele>
        <time>2021-12-30T13:12:24Z</time>
      </trkpt>
      <trkpt lat="43.31178" lon="6.13364">
        <ele>460.16015625</ele>
        <time>2021-12-30T13:12:25Z</time>
      </trkpt>
      <trkpt lat="43.31179" lon="6.13366">
        <ele>460.234375</ele>
        <time>2021-12-30T13:12:26Z</time>
      </trkpt>
      <trkpt lat="43.31179" lon="6.13368">
        <ele>460.2734375</ele>
        <time>2021-12-30T13:12:27Z</time>
      </trkpt>
      <trkpt lat="43.31178" lon="6.1337">
        <ele>460.296875</ele>
        <time>2021-12-30T13:12:28Z</time>
      </trkpt>
      <trkpt lat="43.31178" lon="6.13372">
        <ele>460.32421875</ele>
        <time>2021-12-30T13:12:29Z</time>
      </trkpt>
      <trkpt lat="43.31175" lon="6.13403">
        <ele>461.2890625</ele>
        <time>2021-12-30T13:12:39Z</time>
      </trkpt>
      <trkpt lat="43.31175" lon="6.13444">
        <ele>461.7578125</ele>
        <time>2021-12-30T13:12:50Z</time>
      </trkpt>
      <trkpt lat="43.31177" lon="6.13509">
        <ele>464.15625</ele>
        <time>2021-12-30T13:13:05Z</time>
      </trkpt>
      <trkpt lat="43.31174" lon="6.13554">
        <ele>466.0390625</ele>
        <time>2021-12-30T13:13:14Z</time>
      </trkpt>
      <trkpt lat="43.3118" lon="6.13612">
        <ele>470.46875</ele>
        <time>2021-12-30T13:13:27Z</time>
      </trkpt>
      <trkpt lat="43.31185" lon="6.13648">
        <ele>473.73828125</ele>
        <time>2021-12-30T13:13:36Z</time>
      </trkpt>
      <trkpt lat="43.31184" lon="6.13694">
        <ele>478.03125</ele>
        <time>2021-12-30T13:13:49Z</time>
      </trkpt>
      <trkpt lat="43.31177" lon="6.13719">
        <ele>478.87109375</ele>
        <time>2021-12-30T13:13:57Z</time>
      </trkpt>
      <trkpt lat="43.31176" lon="6.13723">
        <ele>478.89453125</ele>
        <time>2021-12-30T13:13:58Z</time>
      </trkpt>
      <trkpt lat="43.31169" lon="6.13765">
        <ele>479.28125</ele>
        <time>2021-12-30T13:14:11Z</time>
      </trkpt>
      <trkpt lat="43.31178" lon="6.13805">
        <ele>477.11328125</ele>
        <time>2021-12-30T13:14:20Z</time>
      </trkpt>
      <trkpt lat="43.31184" lon="6.13815">
        <ele>476.94921875</ele>
        <time>2021-12-30T13:14:22Z</time>
      </trkpt>
      <trkpt lat="43.31187" lon="6.13818">
        <ele>477.109375</ele>
        <time>2021-12-30T13:14:23Z</time>
      </trkpt>
      <trkpt lat="43.31223" lon="6.13842">
        <ele>482.5859375</ele>
        <time>2021-12-30T13:14:36Z</time>
      </trkpt>
      <trkpt lat="43.31234" lon="6.13848">
        <ele>485.36328125</ele>
        <time>2021-12-30T13:14:41Z</time>
      </trkpt>
      <trkpt lat="43.31246" lon="6.13849">
        <ele>488.70703125</ele>
        <time>2021-12-30T13:14:46Z</time>
      </trkpt>
      <trkpt lat="43.31248" lon="6.13847">
        <ele>489.3984375</ele>
        <time>2021-12-30T13:14:47Z</time>
      </trkpt>
      <trkpt lat="43.31249" lon="6.13844">
        <ele>489.93359375</ele>
        <time>2021-12-30T13:14:48Z</time>
      </trkpt>
      <trkpt lat="43.3125" lon="6.13841">
        <ele>490.390625</ele>
        <time>2021-12-30T13:14:49Z</time>
      </trkpt>
      <trkpt lat="43.31251" lon="6.13838">
        <ele>490.76953125</ele>
        <time>2021-12-30T13:14:50Z</time>
      </trkpt>
      <trkpt lat="43.31252" lon="6.13835">
        <ele>491.0703125</ele>
        <time>2021-12-30T13:14:51Z</time>
      </trkpt>
      <trkpt lat="43.31253" lon="6.13831">
        <ele>491.6015625</ele>
        <time>2021-12-30T13:15:01Z</time>
      </trkpt>
      <trkpt lat="43.31256" lon="6.13829">
        <ele>492.31640625</ele>
        <time>2021-12-30T13:15:13Z</time>
      </trkpt>
      <trkpt lat="43.31259" lon="6.13832">
        <ele>492.98828125</ele>
        <time>2021-12-30T13:15:29Z</time>
      </trkpt>
      <trkpt lat="43.31259" lon="6.13832">
        <ele>493</ele>
        <time>2021-12-30T13:15:54Z</time>
      </trkpt>
      <trkpt lat="43.31259" lon="6.13834">
        <ele>493.04296875</ele>
        <time>2021-12-30T13:16:24Z</time>
      </trkpt>
      <trkpt lat="43.3126" lon="6.13832">
        <ele>493.33984375</ele>
        <time>2021-12-30T13:16:50Z</time>
      </trkpt>
      <trkpt lat="43.3126" lon="6.13832">
        <ele>493.37890625</ele>
        <time>2021-12-30T13:17:20Z</time>
      </trkpt>
      <trkpt lat="43.31263" lon="6.1383">
        <ele>494.1640625</ele>
        <time>2021-12-30T13:17:34Z</time>
      </trkpt>
      <trkpt lat="43.31263" lon="6.13828">
        <ele>494.453125</ele>
        <time>2021-12-30T13:17:35Z</time>
      </trkpt>
      <trkpt lat="43.31263" lon="6.13826">
        <ele>494.4609375</ele>
        <time>2021-12-30T13:17:36Z</time>
      </trkpt>
      <trkpt lat="43.31262" lon="6.13822">
        <ele>494.24609375</ele>
        <time>2021-12-30T13:17:37Z</time>
      </trkpt>
      <trkpt lat="43.3126" lon="6.13819">
        <ele>493.9296875</ele>
        <time>2021-12-30T13:17:38Z</time>
      </trkpt>
      <trkpt lat="43.31259" lon="6.13816">
        <ele>493.640625</ele>
        <time>2021-12-30T13:17:39Z</time>
      </trkpt>
      <trkpt lat="43.31258" lon="6.13813">
        <ele>493.4609375</ele>
        <time>2021-12-30T13:17:40Z</time>
      </trkpt>
      <trkpt lat="43.31259" lon="6.13766">
        <ele>494.8984375</ele>
        <time>2021-12-30T13:17:52Z</time>
      </trkpt>
      <trkpt lat="43.31283" lon="6.13715">
        <ele>498.5234375</ele>
        <time>2021-12-30T13:18:06Z</time>
      </trkpt>
      <trkpt lat="43.31326" lon="6.13671">
        <ele>500.3515625</ele>
        <time>2021-12-30T13:18:23Z</time>
      </trkpt>
      <trkpt lat="43.31378" lon="6.13636">
        <ele>502.19921875</ele>
        <time>2021-12-30T13:18:40Z</time>
      </trkpt>
      <trkpt lat="43.31434" lon="6.13605">
        <ele>503.76953125</ele>
        <time>2021-12-30T13:18:56Z</time>
      </trkpt>
      <trkpt lat="43.31493" lon="6.13573">
        <ele>508.36328125</ele>
        <time>2021-12-30T13:19:13Z</time>
      </trkpt>
      <trkpt lat="43.31538" lon="6.13536">
        <ele>510.81640625</ele>
        <time>2021-12-30T13:19:28Z</time>
      </trkpt>
      <trkpt lat="43.31586" lon="6.13457">
        <ele>509.109375</ele>
        <time>2021-12-30T13:19:47Z</time>
      </trkpt>
      <trkpt lat="43.31613" lon="6.13417">
        <ele>508.3671875</ele>
        <time>2021-12-30T13:19:56Z</time>
      </trkpt>
      <trkpt lat="43.31615" lon="6.13413">
        <ele>508.05078125</ele>
        <time>2021-12-30T13:19:57Z</time>
      </trkpt>
      <trkpt lat="43.31617" lon="6.13408">
        <ele>507.71875</ele>
        <time>2021-12-30T13:19:58Z</time>
      </trkpt>
      <trkpt lat="43.31618" lon="6.13403">
        <ele>507.43359375</ele>
        <time>2021-12-30T13:19:59Z</time>
      </trkpt>
      <trkpt lat="43.31617" lon="6.13397">
        <ele>507.3203125</ele>
        <time>2021-12-30T13:20:00Z</time>
      </trkpt>
      <trkpt lat="43.31614" lon="6.13392">
        <ele>507.33984375</ele>
        <time>2021-12-30T13:20:01Z</time>
      </trkpt>
      <trkpt lat="43.31611" lon="6.13388">
        <ele>507.390625</ele>
        <time>2021-12-30T13:20:02Z</time>
      </trkpt>
      <trkpt lat="43.31608" lon="6.13383">
        <ele>507.30859375</ele>
        <time>2021-12-30T13:20:03Z</time>
      </trkpt>
      <trkpt lat="43.31604" lon="6.13379">
        <ele>507.2890625</ele>
        <time>2021-12-30T13:20:04Z</time>
      </trkpt>
      <trkpt lat="43.316" lon="6.13375">
        <ele>507.421875</ele>
        <time>2021-12-30T13:20:05Z</time>
      </trkpt>
      <trkpt lat="43.31596" lon="6.13373">
        <ele>507.71484375</ele>
        <time>2021-12-30T13:20:06Z</time>
      </trkpt>
      <trkpt lat="43.31592" lon="6.1337">
        <ele>507.953125</ele>
        <time>2021-12-30T13:20:07Z</time>
      </trkpt>
      <trkpt lat="43.31588" lon="6.13369">
        <ele>508.1484375</ele>
        <time>2021-12-30T13:20:08Z</time>
      </trkpt>
      <trkpt lat="43.31584" lon="6.13367">
        <ele>508.30859375</ele>
        <time>2021-12-30T13:20:09Z</time>
      </trkpt>
      <trkpt lat="43.31563" lon="6.13357">
        <ele>508.48828125</ele>
        <time>2021-12-30T13:20:14Z</time>
      </trkpt>
      <trkpt lat="43.31559" lon="6.13354">
        <ele>508.6640625</ele>
        <time>2021-12-30T13:20:15Z</time>
      </trkpt>
      <trkpt lat="43.31555" lon="6.1335">
        <ele>508.8984375</ele>
        <time>2021-12-30T13:20:16Z</time>
      </trkpt>
      <trkpt lat="43.31552" lon="6.13346">
        <ele>509.04296875</ele>
        <time>2021-12-30T13:20:17Z</time>
      </trkpt>
      <trkpt lat="43.31548" lon="6.13341">
        <ele>509.26171875</ele>
        <time>2021-12-30T13:20:18Z</time>
      </trkpt>
      <trkpt lat="43.31545" lon="6.13337">
        <ele>509.48828125</ele>
        <time>2021-12-30T13:20:19Z</time>
      </trkpt>
      <trkpt lat="43.31542" lon="6.13332">
        <ele>509.765625</ele>
        <time>2021-12-30T13:20:20Z</time>
      </trkpt>
      <trkpt lat="43.31498" lon="6.13242">
        <ele>513.33984375</ele>
        <time>2021-12-30T13:20:38Z</time>
      </trkpt>
      <trkpt lat="43.31478" lon="6.13195">
        <ele>514.65625</ele>
        <time>2021-12-30T13:20:47Z</time>
      </trkpt>
      <trkpt lat="43.31478" lon="6.13189">
        <ele>515.0703125</ele>
        <time>2021-12-30T13:20:48Z</time>
      </trkpt>
      <trkpt lat="43.31482" lon="6.13119">
        <ele>518.80078125</ele>
        <time>2021-12-30T13:21:01Z</time>
      </trkpt>
      <trkpt lat="43.31513" lon="6.13045">
        <ele>521.56640625</ele>
        <time>2021-12-30T13:21:17Z</time>
      </trkpt>
      <trkpt lat="43.31535" lon="6.13006">
        <ele>523</ele>
        <time>2021-12-30T13:21:26Z</time>
      </trkpt>
      <trkpt lat="43.31536" lon="6.13">
        <ele>523.03125</ele>
        <time>2021-12-30T13:21:27Z</time>
      </trkpt>
      <trkpt lat="43.31537" lon="6.12994">
        <ele>523.015625</ele>
        <time>2021-12-30T13:21:28Z</time>
      </trkpt>
      <trkpt lat="43.3154" lon="6.1297">
        <ele>523.1953125</ele>
        <time>2021-12-30T13:21:32Z</time>
      </trkpt>
      <trkpt lat="43.3154" lon="6.12964">
        <ele>523.16015625</ele>
        <time>2021-12-30T13:21:33Z</time>
      </trkpt>
      <trkpt lat="43.31525" lon="6.12867">
        <ele>524.33203125</ele>
        <time>2021-12-30T13:21:50Z</time>
      </trkpt>
      <trkpt lat="43.31509" lon="6.12771">
        <ele>528.58203125</ele>
        <time>2021-12-30T13:22:06Z</time>
      </trkpt>
      <trkpt lat="43.31499" lon="6.12722">
        <ele>529.4140625</ele>
        <time>2021-12-30T13:22:14Z</time>
      </trkpt>
      <trkpt lat="43.31499" lon="6.12716">
        <ele>529.6484375</ele>
        <time>2021-12-30T13:22:15Z</time>
      </trkpt>
      <trkpt lat="43.31499" lon="6.1271">
        <ele>529.87109375</ele>
        <time>2021-12-30T13:22:16Z</time>
      </trkpt>
      <trkpt lat="43.315" lon="6.12698">
        <ele>530.40234375</ele>
        <time>2021-12-30T13:22:18Z</time>
      </trkpt>
      <trkpt lat="43.31511" lon="6.12609">
        <ele>532.671875</ele>
        <time>2021-12-30T13:22:34Z</time>
      </trkpt>
      <trkpt lat="43.31544" lon="6.12522">
        <ele>536.23046875</ele>
        <time>2021-12-30T13:22:51Z</time>
      </trkpt>
      <trkpt lat="43.31578" lon="6.12446">
        <ele>536.078125</ele>
        <time>2021-12-30T13:23:07Z</time>
      </trkpt>
      <trkpt lat="43.3159" lon="6.12404">
        <ele>535.5234375</ele>
        <time>2021-12-30T13:23:15Z</time>
      </trkpt>
      <trkpt lat="43.3159" lon="6.12398">
        <ele>535.6796875</ele>
        <time>2021-12-30T13:23:16Z</time>
      </trkpt>
      <trkpt lat="43.31589" lon="6.12392">
        <ele>535.80859375</ele>
        <time>2021-12-30T13:23:17Z</time>
      </trkpt>
      <trkpt lat="43.31588" lon="6.12386">
        <ele>535.90234375</ele>
        <time>2021-12-30T13:23:18Z</time>
      </trkpt>
      <trkpt lat="43.31586" lon="6.1238">
        <ele>535.99609375</ele>
        <time>2021-12-30T13:23:19Z</time>
      </trkpt>
      <trkpt lat="43.31583" lon="6.12374">
        <ele>536.109375</ele>
        <time>2021-12-30T13:23:20Z</time>
      </trkpt>
      <trkpt lat="43.31553" lon="6.12313">
        <ele>536.25</ele>
        <time>2021-12-30T13:23:30Z</time>
      </trkpt>
      <trkpt lat="43.31536" lon="6.12265">
        <ele>536.29296875</ele>
        <time>2021-12-30T13:23:38Z</time>
      </trkpt>
      <trkpt lat="43.31535" lon="6.12259">
        <ele>536.30859375</ele>
        <time>2021-12-30T13:23:39Z</time>
      </trkpt>
      <trkpt lat="43.31537" lon="6.12166">
        <ele>537.9453125</ele>
        <time>2021-12-30T13:23:53Z</time>
      </trkpt>
      <trkpt lat="43.31551" lon="6.12111">
        <ele>538.5</ele>
        <time>2021-12-30T13:24:01Z</time>
      </trkpt>
      <trkpt lat="43.31552" lon="6.12104">
        <ele>538.46484375</ele>
        <time>2021-12-30T13:24:02Z</time>
      </trkpt>
      <trkpt lat="43.31568" lon="6.11985">
        <ele>536.77734375</ele>
        <time>2021-12-30T13:24:18Z</time>
      </trkpt>
      <trkpt lat="43.31579" lon="6.11877">
        <ele>536.23828125</ele>
        <time>2021-12-30T13:24:31Z</time>
      </trkpt>
      <trkpt lat="43.31581" lon="6.1187">
        <ele>536.10546875</ele>
        <time>2021-12-30T13:24:32Z</time>
      </trkpt>
      <trkpt lat="43.31607" lon="6.11759">
        <ele>532.48046875</ele>
        <time>2021-12-30T13:24:46Z</time>
      </trkpt>
      <trkpt lat="43.31603" lon="6.11657">
        <ele>528.3203125</ele>
        <time>2021-12-30T13:24:59Z</time>
      </trkpt>
      <trkpt lat="43.31608" lon="6.11581">
        <ele>523.7734375</ele>
        <time>2021-12-30T13:25:09Z</time>
      </trkpt>
      <trkpt lat="43.31607" lon="6.11477">
        <ele>519.265625</ele>
        <time>2021-12-30T13:25:21Z</time>
      </trkpt>
      <trkpt lat="43.31605" lon="6.11451">
        <ele>518.36328125</ele>
        <time>2021-12-30T13:25:24Z</time>
      </trkpt>
      <trkpt lat="43.31606" lon="6.11442">
        <ele>517.6484375</ele>
        <time>2021-12-30T13:25:25Z</time>
      </trkpt>
      <trkpt lat="43.31607" lon="6.11433">
        <ele>516.72265625</ele>
        <time>2021-12-30T13:25:26Z</time>
      </trkpt>
      <trkpt lat="43.3161" lon="6.11423">
        <ele>515.4765625</ele>
        <time>2021-12-30T13:25:27Z</time>
      </trkpt>
      <trkpt lat="43.31614" lon="6.11415">
        <ele>513.296875</ele>
        <time>2021-12-30T13:25:28Z</time>
      </trkpt>
      <trkpt lat="43.31619" lon="6.11406">
        <ele>510.5</ele>
        <time>2021-12-30T13:25:29Z</time>
      </trkpt>
      <trkpt lat="43.31624" lon="6.11398">
        <ele>508.265625</ele>
        <time>2021-12-30T13:25:30Z</time>
      </trkpt>
      <trkpt lat="43.31629" lon="6.11389">
        <ele>506.48828125</ele>
        <time>2021-12-30T13:25:31Z</time>
      </trkpt>
      <trkpt lat="43.31633" lon="6.1138">
        <ele>505.125</ele>
        <time>2021-12-30T13:25:32Z</time>
      </trkpt>
      <trkpt lat="43.31636" lon="6.1137">
        <ele>504.6875</ele>
        <time>2021-12-30T13:25:33Z</time>
      </trkpt>
      <trkpt lat="43.31637" lon="6.11359">
        <ele>504.84375</ele>
        <time>2021-12-30T13:25:34Z</time>
      </trkpt>
      <trkpt lat="43.31639" lon="6.11348">
        <ele>505.21875</ele>
        <time>2021-12-30T13:25:35Z</time>
      </trkpt>
      <trkpt lat="43.31642" lon="6.11337">
        <ele>506.41796875</ele>
        <time>2021-12-30T13:25:36Z</time>
      </trkpt>
      <trkpt lat="43.31646" lon="6.11327">
        <ele>507.046875</ele>
        <time>2021-12-30T13:25:37Z</time>
      </trkpt>
      <trkpt lat="43.31652" lon="6.11319">
        <ele>507.1640625</ele>
        <time>2021-12-30T13:25:38Z</time>
      </trkpt>
      <trkpt lat="43.31659" lon="6.11311">
        <ele>507.046875</ele>
        <time>2021-12-30T13:25:39Z</time>
      </trkpt>
      <trkpt lat="43.31666" lon="6.11305">
        <ele>506.7109375</ele>
        <time>2021-12-30T13:25:40Z</time>
      </trkpt>
      <trkpt lat="43.31675" lon="6.113">
        <ele>506.7265625</ele>
        <time>2021-12-30T13:25:41Z</time>
      </trkpt>
      <trkpt lat="43.31684" lon="6.11296">
        <ele>506.60546875</ele>
        <time>2021-12-30T13:25:42Z</time>
      </trkpt>
      <trkpt lat="43.31693" lon="6.11294">
        <ele>506.25390625</ele>
        <time>2021-12-30T13:25:43Z</time>
      </trkpt>
      <trkpt lat="43.31703" lon="6.11293">
        <ele>505.95703125</ele>
        <time>2021-12-30T13:25:44Z</time>
      </trkpt>
      <trkpt lat="43.31712" lon="6.11293">
        <ele>505.64453125</ele>
        <time>2021-12-30T13:25:45Z</time>
      </trkpt>
      <trkpt lat="43.31721" lon="6.11294">
        <ele>505.16015625</ele>
        <time>2021-12-30T13:25:46Z</time>
      </trkpt>
      <trkpt lat="43.31729" lon="6.11295">
        <ele>504.8359375</ele>
        <time>2021-12-30T13:25:47Z</time>
      </trkpt>
      <trkpt lat="43.31739" lon="6.113">
        <ele>503.83984375</ele>
        <time>2021-12-30T13:25:48Z</time>
      </trkpt>
      <trkpt lat="43.31749" lon="6.11308">
        <ele>502.55859375</ele>
        <time>2021-12-30T13:25:49Z</time>
      </trkpt>
      <trkpt lat="43.31758" lon="6.11315">
        <ele>498.76171875</ele>
        <time>2021-12-30T13:25:50Z</time>
      </trkpt>
      <trkpt lat="43.31767" lon="6.11319">
        <ele>495.52734375</ele>
        <time>2021-12-30T13:25:51Z</time>
      </trkpt>
      <trkpt lat="43.31776" lon="6.11322">
        <ele>492.4609375</ele>
        <time>2021-12-30T13:25:52Z</time>
      </trkpt>
      <trkpt lat="43.31784" lon="6.11322">
        <ele>489.46875</ele>
        <time>2021-12-30T13:25:53Z</time>
      </trkpt>
      <trkpt lat="43.31791" lon="6.11318">
        <ele>487.14453125</ele>
        <time>2021-12-30T13:25:54Z</time>
      </trkpt>
      <trkpt lat="43.31799" lon="6.11311">
        <ele>485.2578125</ele>
        <time>2021-12-30T13:25:55Z</time>
      </trkpt>
      <trkpt lat="43.31806" lon="6.11303">
        <ele>483.7890625</ele>
        <time>2021-12-30T13:25:56Z</time>
      </trkpt>
      <trkpt lat="43.31813" lon="6.11295">
        <ele>481.76953125</ele>
        <time>2021-12-30T13:25:57Z</time>
      </trkpt>
      <trkpt lat="43.31819" lon="6.11285">
        <ele>480.69140625</ele>
        <time>2021-12-30T13:25:58Z</time>
      </trkpt>
      <trkpt lat="43.31823" lon="6.11273">
        <ele>480.859375</ele>
        <time>2021-12-30T13:25:59Z</time>
      </trkpt>
      <trkpt lat="43.31826" lon="6.11261">
        <ele>481.88671875</ele>
        <time>2021-12-30T13:26:00Z</time>
      </trkpt>
      <trkpt lat="43.31829" lon="6.11248">
        <ele>483.2734375</ele>
        <time>2021-12-30T13:26:01Z</time>
      </trkpt>
      <trkpt lat="43.31834" lon="6.11236">
        <ele>484.12890625</ele>
        <time>2021-12-30T13:26:02Z</time>
      </trkpt>
      <trkpt lat="43.3184" lon="6.11225">
        <ele>484.47265625</ele>
        <time>2021-12-30T13:26:03Z</time>
      </trkpt>
      <trkpt lat="43.31847" lon="6.11215">
        <ele>484.37890625</ele>
        <time>2021-12-30T13:26:04Z</time>
      </trkpt>
      <trkpt lat="43.31855" lon="6.11207">
        <ele>483.890625</ele>
        <time>2021-12-30T13:26:05Z</time>
      </trkpt>
      <trkpt lat="43.31863" lon="6.11199">
        <ele>483.1015625</ele>
        <time>2021-12-30T13:26:06Z</time>
      </trkpt>
      <trkpt lat="43.31872" lon="6.11193">
        <ele>482.18359375</ele>
        <time>2021-12-30T13:26:07Z</time>
      </trkpt>
      <trkpt lat="43.31881" lon="6.11186">
        <ele>481.49609375</ele>
        <time>2021-12-30T13:26:08Z</time>
      </trkpt>
      <trkpt lat="43.31889" lon="6.1118">
        <ele>480.4296875</ele>
        <time>2021-12-30T13:26:09Z</time>
      </trkpt>
      <trkpt lat="43.31905" lon="6.11165">
        <ele>477.71875</ele>
        <time>2021-12-30T13:26:11Z</time>
      </trkpt>
      <trkpt lat="43.31911" lon="6.11156">
        <ele>477.796875</ele>
        <time>2021-12-30T13:26:12Z</time>
      </trkpt>
      <trkpt lat="43.31916" lon="6.11145">
        <ele>477.50390625</ele>
        <time>2021-12-30T13:26:13Z</time>
      </trkpt>
      <trkpt lat="43.31933" lon="6.11112">
        <ele>476.6796875</ele>
        <time>2021-12-30T13:26:16Z</time>
      </trkpt>
      <trkpt lat="43.31938" lon="6.11101">
        <ele>476.59375</ele>
        <time>2021-12-30T13:26:17Z</time>
      </trkpt>
      <trkpt lat="43.31942" lon="6.11089">
        <ele>477.13671875</ele>
        <time>2021-12-30T13:26:18Z</time>
      </trkpt>
      <trkpt lat="43.31945" lon="6.11076">
        <ele>478.05859375</ele>
        <time>2021-12-30T13:26:19Z</time>
      </trkpt>
      <trkpt lat="43.3195" lon="6.11035">
        <ele>478.15625</ele>
        <time>2021-12-30T13:26:22Z</time>
      </trkpt>
      <trkpt lat="43.31954" lon="6.11007">
        <ele>477.75390625</ele>
        <time>2021-12-30T13:26:24Z</time>
      </trkpt>
      <trkpt lat="43.31954" lon="6.10993">
        <ele>477.5859375</ele>
        <time>2021-12-30T13:26:25Z</time>
      </trkpt>
      <trkpt lat="43.31952" lon="6.1098">
        <ele>477.3125</ele>
        <time>2021-12-30T13:26:26Z</time>
      </trkpt>
      <trkpt lat="43.3195" lon="6.10967">
        <ele>476.99609375</ele>
        <time>2021-12-30T13:26:27Z</time>
      </trkpt>
      <trkpt lat="43.31947" lon="6.10953">
        <ele>476.79296875</ele>
        <time>2021-12-30T13:26:28Z</time>
      </trkpt>
      <trkpt lat="43.31943" lon="6.1094">
        <ele>476.6796875</ele>
        <time>2021-12-30T13:26:29Z</time>
      </trkpt>
      <trkpt lat="43.31933" lon="6.109">
        <ele>475.07421875</ele>
        <time>2021-12-30T13:26:32Z</time>
      </trkpt>
      <trkpt lat="43.31928" lon="6.10856">
        <ele>472.78125</ele>
        <time>2021-12-30T13:26:35Z</time>
      </trkpt>
      <trkpt lat="43.3193" lon="6.10842">
        <ele>471.54296875</ele>
        <time>2021-12-30T13:26:36Z</time>
      </trkpt>
      <trkpt lat="43.31934" lon="6.10829">
        <ele>469.76953125</ele>
        <time>2021-12-30T13:26:37Z</time>
      </trkpt>
      <trkpt lat="43.31941" lon="6.10818">
        <ele>467.76953125</ele>
        <time>2021-12-30T13:26:38Z</time>
      </trkpt>
      <trkpt lat="43.31949" lon="6.10809">
        <ele>465.99609375</ele>
        <time>2021-12-30T13:26:39Z</time>
      </trkpt>
      <trkpt lat="43.31957" lon="6.108">
        <ele>464.27734375</ele>
        <time>2021-12-30T13:26:40Z</time>
      </trkpt>
      <trkpt lat="43.31964" lon="6.10791">
        <ele>462.83203125</ele>
        <time>2021-12-30T13:26:41Z</time>
      </trkpt>
      <trkpt lat="43.3197" lon="6.1078">
        <ele>461.84765625</ele>
        <time>2021-12-30T13:26:42Z</time>
      </trkpt>
      <trkpt lat="43.31975" lon="6.10768">
        <ele>461.00390625</ele>
        <time>2021-12-30T13:26:43Z</time>
      </trkpt>
      <trkpt lat="43.3198" lon="6.10756">
        <ele>460.265625</ele>
        <time>2021-12-30T13:26:44Z</time>
      </trkpt>
      <trkpt lat="43.31984" lon="6.10744">
        <ele>459.74609375</ele>
        <time>2021-12-30T13:26:45Z</time>
      </trkpt>
      <trkpt lat="43.31987" lon="6.10731">
        <ele>459.54296875</ele>
        <time>2021-12-30T13:26:46Z</time>
      </trkpt>
      <trkpt lat="43.31989" lon="6.10718">
        <ele>459.47265625</ele>
        <time>2021-12-30T13:26:47Z</time>
      </trkpt>
      <trkpt lat="43.31993" lon="6.10707">
        <ele>459.3203125</ele>
        <time>2021-12-30T13:26:48Z</time>
      </trkpt>
      <trkpt lat="43.31997" lon="6.10695">
        <ele>459.37109375</ele>
        <time>2021-12-30T13:26:49Z</time>
      </trkpt>
      <trkpt lat="43.32002" lon="6.10684">
        <ele>459.38671875</ele>
        <time>2021-12-30T13:26:50Z</time>
      </trkpt>
      <trkpt lat="43.32007" lon="6.10674">
        <ele>458.7265625</ele>
        <time>2021-12-30T13:26:51Z</time>
      </trkpt>
      <trkpt lat="43.32018" lon="6.10656">
        <ele>458.671875</ele>
        <time>2021-12-30T13:26:53Z</time>
      </trkpt>
      <trkpt lat="43.32023" lon="6.10646">
        <ele>458.89453125</ele>
        <time>2021-12-30T13:26:54Z</time>
      </trkpt>
      <trkpt lat="43.32028" lon="6.10637">
        <ele>459.25390625</ele>
        <time>2021-12-30T13:26:55Z</time>
      </trkpt>
      <trkpt lat="43.32058" lon="6.10591">
        <ele>464.171875</ele>
        <time>2021-12-30T13:27:03Z</time>
      </trkpt>
      <trkpt lat="43.32062" lon="6.10584">
        <ele>465.1328125</ele>
        <time>2021-12-30T13:27:05Z</time>
      </trkpt>
      <trkpt lat="43.32074" lon="6.10569">
        <ele>467.828125</ele>
        <time>2021-12-30T13:27:12Z</time>
      </trkpt>
      <trkpt lat="43.32098" lon="6.10559">
        <ele>469.61328125</ele>
        <time>2021-12-30T13:27:21Z</time>
      </trkpt>
      <trkpt lat="43.32109" lon="6.10556">
        <ele>469.984375</ele>
        <time>2021-12-30T13:27:25Z</time>
      </trkpt>
      <trkpt lat="43.32124" lon="6.10551">
        <ele>470.70703125</ele>
        <time>2021-12-30T13:27:30Z</time>
      </trkpt>
      <trkpt lat="43.32129" lon="6.10543">
        <ele>472.3828125</ele>
        <time>2021-12-30T13:27:33Z</time>
      </trkpt>
      <trkpt lat="43.3214" lon="6.10529">
        <ele>475.88671875</ele>
        <time>2021-12-30T13:27:39Z</time>
      </trkpt>
      <trkpt lat="43.3215" lon="6.10521">
        <ele>477.78125</ele>
        <time>2021-12-30T13:27:44Z</time>
      </trkpt>
      <trkpt lat="43.32173" lon="6.10499">
        <ele>482.55859375</ele>
        <time>2021-12-30T13:27:55Z</time>
      </trkpt>
      <trkpt lat="43.32192" lon="6.10475">
        <ele>488.31640625</ele>
        <time>2021-12-30T13:28:05Z</time>
      </trkpt>
      <trkpt lat="43.32195" lon="6.10468">
        <ele>489.94140625</ele>
        <time>2021-12-30T13:28:08Z</time>
      </trkpt>
      <trkpt lat="43.32197" lon="6.10467">
        <ele>490.375</ele>
        <time>2021-12-30T13:28:09Z</time>
      </trkpt>
      <trkpt lat="43.32198" lon="6.10466">
        <ele>490.76171875</ele>
        <time>2021-12-30T13:28:10Z</time>
      </trkpt>
      <trkpt lat="43.32199" lon="6.10465">
        <ele>491.15234375</ele>
        <time>2021-12-30T13:28:11Z</time>
      </trkpt>
      <trkpt lat="43.32201" lon="6.10463">
        <ele>491.625</ele>
        <time>2021-12-30T13:28:12Z</time>
      </trkpt>
      <trkpt lat="43.32203" lon="6.10462">
        <ele>492.23828125</ele>
        <time>2021-12-30T13:28:13Z</time>
      </trkpt>
      <trkpt lat="43.32205" lon="6.1046">
        <ele>492.671875</ele>
        <time>2021-12-30T13:28:14Z</time>
      </trkpt>
      <trkpt lat="43.32208" lon="6.1046">
        <ele>493.046875</ele>
        <time>2021-12-30T13:28:15Z</time>
      </trkpt>
      <trkpt lat="43.3221" lon="6.10459">
        <ele>493.44140625</ele>
        <time>2021-12-30T13:28:16Z</time>
      </trkpt>
      <trkpt lat="43.32213" lon="6.10458">
        <ele>493.84375</ele>
        <time>2021-12-30T13:28:17Z</time>
      </trkpt>
      <trkpt lat="43.32215" lon="6.10457">
        <ele>494.2421875</ele>
        <time>2021-12-30T13:28:18Z</time>
      </trkpt>
      <trkpt lat="43.32221" lon="6.10452">
        <ele>495.33203125</ele>
        <time>2021-12-30T13:28:21Z</time>
      </trkpt>
      <trkpt lat="43.32222" lon="6.10448">
        <ele>495.59375</ele>
        <time>2021-12-30T13:28:22Z</time>
      </trkpt>
      <trkpt lat="43.32223" lon="6.10444">
        <ele>495.83984375</ele>
        <time>2021-12-30T13:28:23Z</time>
      </trkpt>
      <trkpt lat="43.32223" lon="6.1044">
        <ele>496.05859375</ele>
        <time>2021-12-30T13:28:24Z</time>
      </trkpt>
      <trkpt lat="43.32224" lon="6.10435">
        <ele>496.3046875</ele>
        <time>2021-12-30T13:28:25Z</time>
      </trkpt>
      <trkpt lat="43.32225" lon="6.10431">
        <ele>496.44140625</ele>
        <time>2021-12-30T13:28:26Z</time>
      </trkpt>
      <trkpt lat="43.32227" lon="6.10427">
        <ele>496.5078125</ele>
        <time>2021-12-30T13:28:27Z</time>
      </trkpt>
      <trkpt lat="43.32231" lon="6.10414">
        <ele>496.63671875</ele>
        <time>2021-12-30T13:28:30Z</time>
      </trkpt>
      <trkpt lat="43.32231" lon="6.10411">
        <ele>496.4921875</ele>
        <time>2021-12-30T13:28:31Z</time>
      </trkpt>
      <trkpt lat="43.32231" lon="6.10407">
        <ele>496.36328125</ele>
        <time>2021-12-30T13:28:32Z</time>
      </trkpt>
      <trkpt lat="43.32232" lon="6.10404">
        <ele>496.32421875</ele>
        <time>2021-12-30T13:28:33Z</time>
      </trkpt>
      <trkpt lat="43.32234" lon="6.10401">
        <ele>496.41796875</ele>
        <time>2021-12-30T13:28:34Z</time>
      </trkpt>
      <trkpt lat="43.32238" lon="6.10398">
        <ele>496.59375</ele>
        <time>2021-12-30T13:28:35Z</time>
      </trkpt>
      <trkpt lat="43.32273" lon="6.10357">
        <ele>497.32421875</ele>
        <time>2021-12-30T13:28:46Z</time>
      </trkpt>
      <trkpt lat="43.32276" lon="6.10354">
        <ele>497.26953125</ele>
        <time>2021-12-30T13:28:47Z</time>
      </trkpt>
      <trkpt lat="43.32282" lon="6.10347">
        <ele>497.16015625</ele>
        <time>2021-12-30T13:28:49Z</time>
      </trkpt>
      <trkpt lat="43.32286" lon="6.10343">
        <ele>496.9921875</ele>
        <time>2021-12-30T13:28:50Z</time>
      </trkpt>
      <trkpt lat="43.32289" lon="6.1034">
        <ele>496.94140625</ele>
        <time>2021-12-30T13:28:51Z</time>
      </trkpt>
      <trkpt lat="43.32292" lon="6.10337">
        <ele>496.88671875</ele>
        <time>2021-12-30T13:28:52Z</time>
      </trkpt>
      <trkpt lat="43.32295" lon="6.10334">
        <ele>496.74609375</ele>
        <time>2021-12-30T13:28:53Z</time>
      </trkpt>
      <trkpt lat="43.32314" lon="6.10308">
        <ele>495.421875</ele>
        <time>2021-12-30T13:28:59Z</time>
      </trkpt>
      <trkpt lat="43.32317" lon="6.10303">
        <ele>495.1640625</ele>
        <time>2021-12-30T13:29:00Z</time>
      </trkpt>
      <trkpt lat="43.3232" lon="6.10299">
        <ele>495.08984375</ele>
        <time>2021-12-30T13:29:01Z</time>
      </trkpt>
      <trkpt lat="43.32324" lon="6.10295">
        <ele>495.12109375</ele>
        <time>2021-12-30T13:29:02Z</time>
      </trkpt>
      <trkpt lat="43.32328" lon="6.10291">
        <ele>495.078125</ele>
        <time>2021-12-30T13:29:03Z</time>
      </trkpt>
      <trkpt lat="43.32331" lon="6.10287">
        <ele>495.07421875</ele>
        <time>2021-12-30T13:29:04Z</time>
      </trkpt>
      <trkpt lat="43.32335" lon="6.10284">
        <ele>494.984375</ele>
        <time>2021-12-30T13:29:05Z</time>
      </trkpt>
      <trkpt lat="43.32338" lon="6.1028">
        <ele>494.73046875</ele>
        <time>2021-12-30T13:29:06Z</time>
      </trkpt>
      <trkpt lat="43.3234" lon="6.10276">
        <ele>494.4609375</ele>
        <time>2021-12-30T13:29:07Z</time>
      </trkpt>
      <trkpt lat="43.32342" lon="6.10272">
        <ele>494.23828125</ele>
        <time>2021-12-30T13:29:08Z</time>
      </trkpt>
      <trkpt lat="43.32345" lon="6.10267">
        <ele>493.9140625</ele>
        <time>2021-12-30T13:29:09Z</time>
      </trkpt>
      <trkpt lat="43.32348" lon="6.10263">
        <ele>493.64453125</ele>
        <time>2021-12-30T13:29:10Z</time>
      </trkpt>
      <trkpt lat="43.32351" lon="6.10259">
        <ele>493.4453125</ele>
        <time>2021-12-30T13:29:11Z</time>
      </trkpt>
      <trkpt lat="43.32354" lon="6.10254">
        <ele>493.17578125</ele>
        <time>2021-12-30T13:29:12Z</time>
      </trkpt>
      <trkpt lat="43.32357" lon="6.10249">
        <ele>492.78125</ele>
        <time>2021-12-30T13:29:13Z</time>
      </trkpt>
      <trkpt lat="43.3236" lon="6.10243">
        <ele>492.32421875</ele>
        <time>2021-12-30T13:29:14Z</time>
      </trkpt>
      <trkpt lat="43.32363" lon="6.10236">
        <ele>491.77734375</ele>
        <time>2021-12-30T13:29:15Z</time>
      </trkpt>
      <trkpt lat="43.32366" lon="6.10229">
        <ele>491.12109375</ele>
        <time>2021-12-30T13:29:16Z</time>
      </trkpt>
      <trkpt lat="43.32369" lon="6.10221">
        <ele>490.33984375</ele>
        <time>2021-12-30T13:29:17Z</time>
      </trkpt>
      <trkpt lat="43.32372" lon="6.10212">
        <ele>489.5078125</ele>
        <time>2021-12-30T13:29:18Z</time>
      </trkpt>
      <trkpt lat="43.32375" lon="6.10204">
        <ele>488.890625</ele>
        <time>2021-12-30T13:29:19Z</time>
      </trkpt>
      <trkpt lat="43.32379" lon="6.10197">
        <ele>488.47265625</ele>
        <time>2021-12-30T13:29:20Z</time>
      </trkpt>
      <trkpt lat="43.32382" lon="6.10193">
        <ele>488.234375</ele>
        <time>2021-12-30T13:29:21Z</time>
      </trkpt>
      <trkpt lat="43.32394" lon="6.10178">
        <ele>487.8203125</ele>
        <time>2021-12-30T13:29:28Z</time>
      </trkpt>
      <trkpt lat="43.32398" lon="6.10174">
        <ele>487.6875</ele>
        <time>2021-12-30T13:29:29Z</time>
      </trkpt>
      <trkpt lat="43.32401" lon="6.1017">
        <ele>487.48046875</ele>
        <time>2021-12-30T13:29:30Z</time>
      </trkpt>
      <trkpt lat="43.32404" lon="6.10165">
        <ele>487.25</ele>
        <time>2021-12-30T13:29:31Z</time>
      </trkpt>
      <trkpt lat="43.32407" lon="6.1016">
        <ele>487</ele>
        <time>2021-12-30T13:29:32Z</time>
      </trkpt>
      <trkpt lat="43.32424" lon="6.10125">
        <ele>484.74609375</ele>
        <time>2021-12-30T13:29:41Z</time>
      </trkpt>
      <trkpt lat="43.3245" lon="6.10093">
        <ele>482.8984375</ele>
        <time>2021-12-30T13:29:47Z</time>
      </trkpt>
      <trkpt lat="43.32455" lon="6.10087">
        <ele>482.72265625</ele>
        <time>2021-12-30T13:29:48Z</time>
      </trkpt>
      <trkpt lat="43.32459" lon="6.10082">
        <ele>482.53125</ele>
        <time>2021-12-30T13:29:49Z</time>
      </trkpt>
      <trkpt lat="43.32463" lon="6.10078">
        <ele>482.3046875</ele>
        <time>2021-12-30T13:29:50Z</time>
      </trkpt>
      <trkpt lat="43.32467" lon="6.10072">
        <ele>481.95703125</ele>
        <time>2021-12-30T13:29:51Z</time>
      </trkpt>
      <trkpt lat="43.3247" lon="6.10067">
        <ele>481.58984375</ele>
        <time>2021-12-30T13:29:52Z</time>
      </trkpt>
      <trkpt lat="43.32475" lon="6.10064">
        <ele>481.43359375</ele>
        <time>2021-12-30T13:29:53Z</time>
      </trkpt>
      <trkpt lat="43.3248" lon="6.10061">
        <ele>481.30859375</ele>
        <time>2021-12-30T13:29:54Z</time>
      </trkpt>
      <trkpt lat="43.32483" lon="6.10057">
        <ele>481.0625</ele>
        <time>2021-12-30T13:29:55Z</time>
      </trkpt>
      <trkpt lat="43.32486" lon="6.10053">
        <ele>480.70703125</ele>
        <time>2021-12-30T13:29:56Z</time>
      </trkpt>
      <trkpt lat="43.32489" lon="6.10048">
        <ele>480.30078125</ele>
        <time>2021-12-30T13:29:57Z</time>
      </trkpt>
      <trkpt lat="43.32492" lon="6.10042">
        <ele>479.69921875</ele>
        <time>2021-12-30T13:29:58Z</time>
      </trkpt>
      <trkpt lat="43.32495" lon="6.10037">
        <ele>479.1015625</ele>
        <time>2021-12-30T13:29:59Z</time>
      </trkpt>
      <trkpt lat="43.32499" lon="6.10032">
        <ele>478.625</ele>
        <time>2021-12-30T13:30:00Z</time>
      </trkpt>
      <trkpt lat="43.32503" lon="6.10028">
        <ele>478.05859375</ele>
        <time>2021-12-30T13:30:01Z</time>
      </trkpt>
      <trkpt lat="43.32507" lon="6.10024">
        <ele>477.48046875</ele>
        <time>2021-12-30T13:30:02Z</time>
      </trkpt>
      <trkpt lat="43.32536" lon="6.1">
        <ele>473.46484375</ele>
        <time>2021-12-30T13:30:08Z</time>
      </trkpt>
      <trkpt lat="43.3254" lon="6.09994">
        <ele>472.6875</ele>
        <time>2021-12-30T13:30:09Z</time>
      </trkpt>
      <trkpt lat="43.32548" lon="6.09984">
        <ele>470.8984375</ele>
        <time>2021-12-30T13:30:11Z</time>
      </trkpt>
      <trkpt lat="43.32552" lon="6.0998">
        <ele>470.34765625</ele>
        <time>2021-12-30T13:30:12Z</time>
      </trkpt>
      <trkpt lat="43.32557" lon="6.09978">
        <ele>470.01953125</ele>
        <time>2021-12-30T13:30:13Z</time>
      </trkpt>
      <trkpt lat="43.32562" lon="6.09975">
        <ele>469.734375</ele>
        <time>2021-12-30T13:30:14Z</time>
      </trkpt>
      <trkpt lat="43.32567" lon="6.09972">
        <ele>469.31640625</ele>
        <time>2021-12-30T13:30:15Z</time>
      </trkpt>
      <trkpt lat="43.32577" lon="6.09965">
        <ele>468.421875</ele>
        <time>2021-12-30T13:30:17Z</time>
      </trkpt>
      <trkpt lat="43.32582" lon="6.09962">
        <ele>468.0859375</ele>
        <time>2021-12-30T13:30:18Z</time>
      </trkpt>
      <trkpt lat="43.32588" lon="6.0996">
        <ele>467.78515625</ele>
        <time>2021-12-30T13:30:19Z</time>
      </trkpt>
      <trkpt lat="43.32594" lon="6.09957">
        <ele>467.53125</ele>
        <time>2021-12-30T13:30:20Z</time>
      </trkpt>
      <trkpt lat="43.32606" lon="6.09952">
        <ele>467.12890625</ele>
        <time>2021-12-30T13:30:22Z</time>
      </trkpt>
      <trkpt lat="43.32611" lon="6.09949">
        <ele>466.78515625</ele>
        <time>2021-12-30T13:30:23Z</time>
      </trkpt>
      <trkpt lat="43.32617" lon="6.09944">
        <ele>466.5234375</ele>
        <time>2021-12-30T13:30:24Z</time>
      </trkpt>
      <trkpt lat="43.32626" lon="6.09932">
        <ele>466.0625</ele>
        <time>2021-12-30T13:30:26Z</time>
      </trkpt>
      <trkpt lat="43.32629" lon="6.09927">
        <ele>465.71875</ele>
        <time>2021-12-30T13:30:27Z</time>
      </trkpt>
      <trkpt lat="43.32632" lon="6.09922">
        <ele>465.3046875</ele>
        <time>2021-12-30T13:30:28Z</time>
      </trkpt>
      <trkpt lat="43.32633" lon="6.09916">
        <ele>464.6875</ele>
        <time>2021-12-30T13:30:29Z</time>
      </trkpt>
      <trkpt lat="43.32634" lon="6.0991">
        <ele>463.9609375</ele>
        <time>2021-12-30T13:30:30Z</time>
      </trkpt>
      <trkpt lat="43.32635" lon="6.09903">
        <ele>463.1484375</ele>
        <time>2021-12-30T13:30:31Z</time>
      </trkpt>
      <trkpt lat="43.32635" lon="6.09894">
        <ele>462.26953125</ele>
        <time>2021-12-30T13:30:32Z</time>
      </trkpt>
      <trkpt lat="43.32635" lon="6.09887">
        <ele>461.4140625</ele>
        <time>2021-12-30T13:30:33Z</time>
      </trkpt>
      <trkpt lat="43.32634" lon="6.0988">
        <ele>460.41796875</ele>
        <time>2021-12-30T13:30:34Z</time>
      </trkpt>
      <trkpt lat="43.32633" lon="6.09872">
        <ele>459.5703125</ele>
        <time>2021-12-30T13:30:35Z</time>
      </trkpt>
      <trkpt lat="43.32633" lon="6.09866">
        <ele>459.046875</ele>
        <time>2021-12-30T13:30:36Z</time>
      </trkpt>
      <trkpt lat="43.32633" lon="6.09861">
        <ele>458.56640625</ele>
        <time>2021-12-30T13:30:37Z</time>
      </trkpt>
      <trkpt lat="43.32632" lon="6.09854">
        <ele>457.82421875</ele>
        <time>2021-12-30T13:30:38Z</time>
      </trkpt>
      <trkpt lat="43.32631" lon="6.09847">
        <ele>456.91796875</ele>
        <time>2021-12-30T13:30:39Z</time>
      </trkpt>
      <trkpt lat="43.32631" lon="6.09842">
        <ele>456.29296875</ele>
        <time>2021-12-30T13:30:40Z</time>
      </trkpt>
      <trkpt lat="43.32631" lon="6.09839">
        <ele>455.9765625</ele>
        <time>2021-12-30T13:30:41Z</time>
      </trkpt>
      <trkpt lat="43.3263" lon="6.09836">
        <ele>455.64453125</ele>
        <time>2021-12-30T13:30:42Z</time>
      </trkpt>
      <trkpt lat="43.3263" lon="6.09834">
        <ele>455.33984375</ele>
        <time>2021-12-30T13:30:43Z</time>
      </trkpt>
      <trkpt lat="43.32629" lon="6.09831">
        <ele>454.953125</ele>
        <time>2021-12-30T13:30:44Z</time>
      </trkpt>
      <trkpt lat="43.32628" lon="6.09823">
        <ele>453.734375</ele>
        <time>2021-12-30T13:30:46Z</time>
      </trkpt>
      <trkpt lat="43.32625" lon="6.09799">
        <ele>450.55859375</ele>
        <time>2021-12-30T13:30:50Z</time>
      </trkpt>
      <trkpt lat="43.32625" lon="6.09788">
        <ele>449.2421875</ele>
        <time>2021-12-30T13:30:52Z</time>
      </trkpt>
      <trkpt lat="43.32626" lon="6.09776">
        <ele>447.9921875</ele>
        <time>2021-12-30T13:30:54Z</time>
      </trkpt>
      <trkpt lat="43.32627" lon="6.0977">
        <ele>447.37890625</ele>
        <time>2021-12-30T13:30:55Z</time>
      </trkpt>
      <trkpt lat="43.32627" lon="6.09765">
        <ele>446.73046875</ele>
        <time>2021-12-30T13:30:56Z</time>
      </trkpt>
      <trkpt lat="43.32628" lon="6.0976">
        <ele>445.98046875</ele>
        <time>2021-12-30T13:30:57Z</time>
      </trkpt>
      <trkpt lat="43.32629" lon="6.09756">
        <ele>445.45703125</ele>
        <time>2021-12-30T13:30:58Z</time>
      </trkpt>
      <trkpt lat="43.3263" lon="6.09752">
        <ele>444.98046875</ele>
        <time>2021-12-30T13:30:59Z</time>
      </trkpt>
      <trkpt lat="43.3263" lon="6.09749">
        <ele>444.4921875</ele>
        <time>2021-12-30T13:31:00Z</time>
      </trkpt>
      <trkpt lat="43.32629" lon="6.09747">
        <ele>443.890625</ele>
        <time>2021-12-30T13:31:01Z</time>
      </trkpt>
      <trkpt lat="43.32626" lon="6.09745">
        <ele>443.2734375</ele>
        <time>2021-12-30T13:31:02Z</time>
      </trkpt>
      <trkpt lat="43.32623" lon="6.09744">
        <ele>442.58203125</ele>
        <time>2021-12-30T13:31:03Z</time>
      </trkpt>
      <trkpt lat="43.32619" lon="6.09743">
        <ele>441.84765625</ele>
        <time>2021-12-30T13:31:04Z</time>
      </trkpt>
      <trkpt lat="43.32616" lon="6.09743">
        <ele>441.3046875</ele>
        <time>2021-12-30T13:31:05Z</time>
      </trkpt>
      <trkpt lat="43.32612" lon="6.09744">
        <ele>440.8828125</ele>
        <time>2021-12-30T13:31:06Z</time>
      </trkpt>
      <trkpt lat="43.32608" lon="6.09744">
        <ele>440.1953125</ele>
        <time>2021-12-30T13:31:07Z</time>
      </trkpt>
      <trkpt lat="43.32601" lon="6.09744">
        <ele>438.328125</ele>
        <time>2021-12-30T13:31:10Z</time>
      </trkpt>
      <trkpt lat="43.3259" lon="6.09735">
        <ele>434.1484375</ele>
        <time>2021-12-30T13:31:15Z</time>
      </trkpt>
      <trkpt lat="43.32583" lon="6.09728">
        <ele>431.4375</ele>
        <time>2021-12-30T13:31:18Z</time>
      </trkpt>
      <trkpt lat="43.32583" lon="6.09725">
        <ele>431.05078125</ele>
        <time>2021-12-30T13:31:19Z</time>
      </trkpt>
      <trkpt lat="43.32583" lon="6.0972">
        <ele>430.33984375</ele>
        <time>2021-12-30T13:31:21Z</time>
      </trkpt>
      <trkpt lat="43.32584" lon="6.09714">
        <ele>429.66796875</ele>
        <time>2021-12-30T13:31:24Z</time>
      </trkpt>
      <trkpt lat="43.32579" lon="6.09705">
        <ele>427</ele>
        <time>2021-12-30T13:31:31Z</time>
      </trkpt>
      <trkpt lat="43.32577" lon="6.09703">
        <ele>426.30078125</ele>
        <time>2021-12-30T13:31:33Z</time>
      </trkpt>
      <trkpt lat="43.32575" lon="6.09692">
        <ele>423.96484375</ele>
        <time>2021-12-30T13:31:38Z</time>
      </trkpt>
      <trkpt lat="43.32573" lon="6.09692">
        <ele>423.6015625</ele>
        <time>2021-12-30T13:31:39Z</time>
      </trkpt>
      <trkpt lat="43.32567" lon="6.09685">
        <ele>421.3515625</ele>
        <time>2021-12-30T13:31:51Z</time>
      </trkpt>
      <trkpt lat="43.32565" lon="6.09684">
        <ele>420.96484375</ele>
        <time>2021-12-30T13:31:52Z</time>
      </trkpt>
      <trkpt lat="43.32563" lon="6.09681">
        <ele>420.05078125</ele>
        <time>2021-12-30T13:31:55Z</time>
      </trkpt>
      <trkpt lat="43.3256" lon="6.09676">
        <ele>418.60546875</ele>
        <time>2021-12-30T13:31:57Z</time>
      </trkpt>
      <trkpt lat="43.32554" lon="6.09672">
        <ele>416.57421875</ele>
        <time>2021-12-30T13:32:00Z</time>
      </trkpt>
      <trkpt lat="43.3255" lon="6.09671">
        <ele>415.6796875</ele>
        <time>2021-12-30T13:32:02Z</time>
      </trkpt>
      <trkpt lat="43.32547" lon="6.0967">
        <ele>414.87109375</ele>
        <time>2021-12-30T13:32:03Z</time>
      </trkpt>
      <trkpt lat="43.32544" lon="6.09667">
        <ele>413.8203125</ele>
        <time>2021-12-30T13:32:04Z</time>
      </trkpt>
      <trkpt lat="43.32541" lon="6.09664">
        <ele>412.55078125</ele>
        <time>2021-12-30T13:32:05Z</time>
      </trkpt>
      <trkpt lat="43.32538" lon="6.0966">
        <ele>411.47265625</ele>
        <time>2021-12-30T13:32:06Z</time>
      </trkpt>
      <trkpt lat="43.32536" lon="6.09657">
        <ele>410.80078125</ele>
        <time>2021-12-30T13:32:07Z</time>
      </trkpt>
      <trkpt lat="43.32535" lon="6.09655">
        <ele>410.2890625</ele>
        <time>2021-12-30T13:32:08Z</time>
      </trkpt>
      <trkpt lat="43.32534" lon="6.09654">
        <ele>409.8671875</ele>
        <time>2021-12-30T13:32:09Z</time>
      </trkpt>
      <trkpt lat="43.32531" lon="6.09653">
        <ele>409.359375</ele>
        <time>2021-12-30T13:32:10Z</time>
      </trkpt>
      <trkpt lat="43.32529" lon="6.09653">
        <ele>408.828125</ele>
        <time>2021-12-30T13:32:11Z</time>
      </trkpt>
      <trkpt lat="43.32526" lon="6.09655">
        <ele>408.546875</ele>
        <time>2021-12-30T13:32:12Z</time>
      </trkpt>
      <trkpt lat="43.32515" lon="6.09659">
        <ele>407.16015625</ele>
        <time>2021-12-30T13:32:15Z</time>
      </trkpt>
      <trkpt lat="43.32498" lon="6.09661">
        <ele>404.09375</ele>
        <time>2021-12-30T13:32:20Z</time>
      </trkpt>
      <trkpt lat="43.32486" lon="6.09657">
        <ele>401.71875</ele>
        <time>2021-12-30T13:32:24Z</time>
      </trkpt>
      <trkpt lat="43.32476" lon="6.09643">
        <ele>397.96484375</ele>
        <time>2021-12-30T13:32:28Z</time>
      </trkpt>
      <trkpt lat="43.3247" lon="6.09625">
        <ele>394.2578125</ele>
        <time>2021-12-30T13:32:33Z</time>
      </trkpt>
      <trkpt lat="43.32458" lon="6.09609">
        <ele>390.52734375</ele>
        <time>2021-12-30T13:32:37Z</time>
      </trkpt>
      <trkpt lat="43.32455" lon="6.09608">
        <ele>389.86328125</ele>
        <time>2021-12-30T13:32:38Z</time>
      </trkpt>
      <trkpt lat="43.32452" lon="6.09608">
        <ele>389.31640625</ele>
        <time>2021-12-30T13:32:39Z</time>
      </trkpt>
      <trkpt lat="43.3244" lon="6.09602">
        <ele>386.88671875</ele>
        <time>2021-12-30T13:32:42Z</time>
      </trkpt>
      <trkpt lat="43.32437" lon="6.09598">
        <ele>386.1484375</ele>
        <time>2021-12-30T13:32:43Z</time>
      </trkpt>
      <trkpt lat="43.32434" lon="6.09593">
        <ele>385.34765625</ele>
        <time>2021-12-30T13:32:44Z</time>
      </trkpt>
      <trkpt lat="43.32431" lon="6.09588">
        <ele>384.52734375</ele>
        <time>2021-12-30T13:32:45Z</time>
      </trkpt>
      <trkpt lat="43.32428" lon="6.09584">
        <ele>383.73046875</ele>
        <time>2021-12-30T13:32:46Z</time>
      </trkpt>
      <trkpt lat="43.32425" lon="6.0958">
        <ele>382.91796875</ele>
        <time>2021-12-30T13:32:47Z</time>
      </trkpt>
      <trkpt lat="43.32419" lon="6.09572">
        <ele>381.18359375</ele>
        <time>2021-12-30T13:32:49Z</time>
      </trkpt>
      <trkpt lat="43.32416" lon="6.09567">
        <ele>380.13671875</ele>
        <time>2021-12-30T13:32:50Z</time>
      </trkpt>
      <trkpt lat="43.32413" lon="6.09562">
        <ele>379.2734375</ele>
        <time>2021-12-30T13:32:51Z</time>
      </trkpt>
      <trkpt lat="43.32411" lon="6.09557">
        <ele>378.53125</ele>
        <time>2021-12-30T13:32:52Z</time>
      </trkpt>
      <trkpt lat="43.3241" lon="6.09552">
        <ele>377.7734375</ele>
        <time>2021-12-30T13:32:53Z</time>
      </trkpt>
      <trkpt lat="43.32408" lon="6.09547">
        <ele>377.02734375</ele>
        <time>2021-12-30T13:32:54Z</time>
      </trkpt>
      <trkpt lat="43.32406" lon="6.09542">
        <ele>376.3046875</ele>
        <time>2021-12-30T13:32:55Z</time>
      </trkpt>
      <trkpt lat="43.32404" lon="6.09537">
        <ele>375.52734375</ele>
        <time>2021-12-30T13:32:56Z</time>
      </trkpt>
      <trkpt lat="43.32397" lon="6.09522">
        <ele>373.30078125</ele>
        <time>2021-12-30T13:32:59Z</time>
      </trkpt>
      <trkpt lat="43.32395" lon="6.09521">
        <ele>372.984375</ele>
        <time>2021-12-30T13:33:00Z</time>
      </trkpt>
      <trkpt lat="43.32392" lon="6.09519">
        <ele>372.47265625</ele>
        <time>2021-12-30T13:33:01Z</time>
      </trkpt>
      <trkpt lat="43.32391" lon="6.09515">
        <ele>371.86328125</ele>
        <time>2021-12-30T13:33:02Z</time>
      </trkpt>
      <trkpt lat="43.32392" lon="6.09506">
        <ele>370.640625</ele>
        <time>2021-12-30T13:33:04Z</time>
      </trkpt>
      <trkpt lat="43.3239" lon="6.09502">
        <ele>369.8671875</ele>
        <time>2021-12-30T13:33:05Z</time>
      </trkpt>
      <trkpt lat="43.32388" lon="6.09498">
        <ele>369.10546875</ele>
        <time>2021-12-30T13:33:06Z</time>
      </trkpt>
      <trkpt lat="43.32388" lon="6.09493">
        <ele>368.44140625</ele>
        <time>2021-12-30T13:33:07Z</time>
      </trkpt>
      <trkpt lat="43.32389" lon="6.09488">
        <ele>367.8515625</ele>
        <time>2021-12-30T13:33:08Z</time>
      </trkpt>
      <trkpt lat="43.3239" lon="6.09483">
        <ele>367.1875</ele>
        <time>2021-12-30T13:33:09Z</time>
      </trkpt>
      <trkpt lat="43.32391" lon="6.09477">
        <ele>366.3359375</ele>
        <time>2021-12-30T13:33:10Z</time>
      </trkpt>
      <trkpt lat="43.3239" lon="6.09469">
        <ele>365.2890625</ele>
        <time>2021-12-30T13:33:11Z</time>
      </trkpt>
      <trkpt lat="43.32389" lon="6.09462">
        <ele>364.125</ele>
        <time>2021-12-30T13:33:12Z</time>
      </trkpt>
      <trkpt lat="43.32388" lon="6.09454">
        <ele>363.40234375</ele>
        <time>2021-12-30T13:33:13Z</time>
      </trkpt>
      <trkpt lat="43.32384" lon="6.09447">
        <ele>362.6640625</ele>
        <time>2021-12-30T13:33:14Z</time>
      </trkpt>
      <trkpt lat="43.3238" lon="6.09441">
        <ele>361.92578125</ele>
        <time>2021-12-30T13:33:15Z</time>
      </trkpt>
      <trkpt lat="43.32378" lon="6.09435">
        <ele>361.3203125</ele>
        <time>2021-12-30T13:33:16Z</time>
      </trkpt>
      <trkpt lat="43.32379" lon="6.0943">
        <ele>360.8203125</ele>
        <time>2021-12-30T13:33:17Z</time>
      </trkpt>
      <trkpt lat="43.32381" lon="6.09426">
        <ele>360.58984375</ele>
        <time>2021-12-30T13:33:18Z</time>
      </trkpt>
      <trkpt lat="43.32384" lon="6.09421">
        <ele>360.28125</ele>
        <time>2021-12-30T13:33:19Z</time>
      </trkpt>
      <trkpt lat="43.32383" lon="6.09416">
        <ele>359.68359375</ele>
        <time>2021-12-30T13:33:20Z</time>
      </trkpt>
      <trkpt lat="43.32381" lon="6.0941">
        <ele>358.875</ele>
        <time>2021-12-30T13:33:21Z</time>
      </trkpt>
      <trkpt lat="43.32377" lon="6.09405">
        <ele>358.09765625</ele>
        <time>2021-12-30T13:33:22Z</time>
      </trkpt>
      <trkpt lat="43.32373" lon="6.09399">
        <ele>357.44140625</ele>
        <time>2021-12-30T13:33:23Z</time>
      </trkpt>
      <trkpt lat="43.32362" lon="6.09386">
        <ele>355.6953125</ele>
        <time>2021-12-30T13:33:27Z</time>
      </trkpt>
      <trkpt lat="43.3236" lon="6.09386">
        <ele>355.5</ele>
        <time>2021-12-30T13:33:41Z</time>
      </trkpt>
      <trkpt lat="43.32359" lon="6.09386">
        <ele>355.40234375</ele>
        <time>2021-12-30T13:34:05Z</time>
      </trkpt>
      <trkpt lat="43.32358" lon="6.09384">
        <ele>355.25</ele>
        <time>2021-12-30T13:34:13Z</time>
      </trkpt>
      <trkpt lat="43.32356" lon="6.09383">
        <ele>355.07421875</ele>
        <time>2021-12-30T13:34:14Z</time>
      </trkpt>
      <trkpt lat="43.32354" lon="6.09382">
        <ele>354.84765625</ele>
        <time>2021-12-30T13:34:15Z</time>
      </trkpt>
      <trkpt lat="43.32352" lon="6.0938">
        <ele>354.52734375</ele>
        <time>2021-12-30T13:34:16Z</time>
      </trkpt>
      <trkpt lat="43.32349" lon="6.09378">
        <ele>354.1875</ele>
        <time>2021-12-30T13:34:17Z</time>
      </trkpt>
      <trkpt lat="43.32348" lon="6.09378">
        <ele>354</ele>
        <time>2021-12-30T13:34:18Z</time>
      </trkpt>
      <trkpt lat="43.32348" lon="6.0938">
        <ele>354.2265625</ele>
        <time>2021-12-30T13:34:29Z</time>
      </trkpt>
      <trkpt lat="43.3235" lon="6.09378">
        <ele>354.1953125</ele>
        <time>2021-12-30T13:35:00Z</time>
      </trkpt>
      <trkpt lat="43.3235" lon="6.09378">
        <ele>354.1875</ele>
        <time>2021-12-30T13:35:32Z</time>
      </trkpt>
      <trkpt lat="43.32349" lon="6.0938">
        <ele>354.27734375</ele>
        <time>2021-12-30T13:36:03Z</time>
      </trkpt>
      <trkpt lat="43.3235" lon="6.09379">
        <ele>354.30859375</ele>
        <time>2021-12-30T13:36:20Z</time>
      </trkpt>
      <trkpt lat="43.32349" lon="6.0938">
        <ele>354.31640625</ele>
        <time>2021-12-30T13:36:42Z</time>
      </trkpt>
      <trkpt lat="43.32349" lon="6.09381">
        <ele>354.421875</ele>
        <time>2021-12-30T13:37:10Z</time>
      </trkpt>
      <trkpt lat="43.32349" lon="6.09382">
        <ele>354.421875</ele>
        <time>2021-12-30T13:37:36Z</time>
      </trkpt>
      <trkpt lat="43.32348" lon="6.09381">
        <ele>354.296875</ele>
        <time>2021-12-30T13:38:11Z</time>
      </trkpt>
      <trkpt lat="43.32348" lon="6.0938">
        <ele>354.1640625</ele>
        <time>2021-12-30T13:38:35Z</time>
      </trkpt>
      <trkpt lat="43.32348" lon="6.0938">
        <ele>354.23828125</ele>
        <time>2021-12-30T13:39:04Z</time>
      </trkpt>
      <trkpt lat="43.32347" lon="6.09379">
        <ele>354.09375</ele>
        <time>2021-12-30T13:39:26Z</time>
      </trkpt>
      <trkpt lat="43.32346" lon="6.0938">
        <ele>354.05078125</ele>
        <time>2021-12-30T13:39:27Z</time>
      </trkpt>
      <trkpt lat="43.32344" lon="6.0938">
        <ele>353.953125</ele>
        <time>2021-12-30T13:39:28Z</time>
      </trkpt>
      <trkpt lat="43.32343" lon="6.0938">
        <ele>353.859375</ele>
        <time>2021-12-30T13:39:29Z</time>
      </trkpt>
      <trkpt lat="43.32342" lon="6.09382">
        <ele>353.9296875</ele>
        <time>2021-12-30T13:39:30Z</time>
      </trkpt>
      <trkpt lat="43.32342" lon="6.09383">
        <ele>354.0859375</ele>
        <time>2021-12-30T13:39:31Z</time>
      </trkpt>
      <trkpt lat="43.32353" lon="6.09383">
        <ele>354.828125</ele>
        <time>2021-12-30T13:39:37Z</time>
      </trkpt>
      <trkpt lat="43.32393" lon="6.09366">
        <ele>357</ele>
        <time>2021-12-30T13:39:50Z</time>
      </trkpt>
      <trkpt lat="43.32397" lon="6.09363">
        <ele>357.2578125</ele>
        <time>2021-12-30T13:39:51Z</time>
      </trkpt>
      <trkpt lat="43.32401" lon="6.09362">
        <ele>357.51953125</ele>
        <time>2021-12-30T13:39:52Z</time>
      </trkpt>
      <trkpt lat="43.32424" lon="6.09355">
        <ele>359.8046875</ele>
        <time>2021-12-30T13:40:00Z</time>
      </trkpt>
      <trkpt lat="43.32443" lon="6.09348">
        <ele>362.84375</ele>
        <time>2021-12-30T13:40:06Z</time>
      </trkpt>
      <trkpt lat="43.32462" lon="6.09343">
        <ele>366.3125</ele>
        <time>2021-12-30T13:40:12Z</time>
      </trkpt>
      <trkpt lat="43.32478" lon="6.09337">
        <ele>369.12890625</ele>
        <time>2021-12-30T13:40:17Z</time>
      </trkpt>
      <trkpt lat="43.32501" lon="6.09323">
        <ele>372.50390625</ele>
        <time>2021-12-30T13:40:25Z</time>
      </trkpt>
      <trkpt lat="43.32517" lon="6.09316">
        <ele>375.33203125</ele>
        <time>2021-12-30T13:40:31Z</time>
      </trkpt>
      <trkpt lat="43.32519" lon="6.09315">
        <ele>375.7421875</ele>
        <time>2021-12-30T13:40:32Z</time>
      </trkpt>
      <trkpt lat="43.32527" lon="6.0931">
        <ele>377.05859375</ele>
        <time>2021-12-30T13:40:35Z</time>
      </trkpt>
      <trkpt lat="43.32549" lon="6.0929">
        <ele>381.265625</ele>
        <time>2021-12-30T13:40:44Z</time>
      </trkpt>
      <trkpt lat="43.3257" lon="6.0927">
        <ele>384.51171875</ele>
        <time>2021-12-30T13:40:52Z</time>
      </trkpt>
      <trkpt lat="43.32589" lon="6.09248">
        <ele>387.53125</ele>
        <time>2021-12-30T13:41:00Z</time>
      </trkpt>
      <trkpt lat="43.32613" lon="6.09224">
        <ele>390.8671875</ele>
        <time>2021-12-30T13:41:10Z</time>
      </trkpt>
      <trkpt lat="43.32641" lon="6.09203">
        <ele>394.0078125</ele>
        <time>2021-12-30T13:41:21Z</time>
      </trkpt>
      <trkpt lat="43.32668" lon="6.09186">
        <ele>396.2421875</ele>
        <time>2021-12-30T13:41:31Z</time>
      </trkpt>
      <trkpt lat="43.32676" lon="6.0918">
        <ele>396.65625</ele>
        <time>2021-12-30T13:41:34Z</time>
      </trkpt>
      <trkpt lat="43.32684" lon="6.09179">
        <ele>397.16015625</ele>
        <time>2021-12-30T13:41:37Z</time>
      </trkpt>
      <trkpt lat="43.32687" lon="6.09179">
        <ele>397.359375</ele>
        <time>2021-12-30T13:41:38Z</time>
      </trkpt>
      <trkpt lat="43.32689" lon="6.09178">
        <ele>397.453125</ele>
        <time>2021-12-30T13:41:39Z</time>
      </trkpt>
      <trkpt lat="43.32692" lon="6.09174">
        <ele>397.52734375</ele>
        <time>2021-12-30T13:41:49Z</time>
      </trkpt>
      <trkpt lat="43.32698" lon="6.09159">
        <ele>396.51171875</ele>
        <time>2021-12-30T13:42:02Z</time>
      </trkpt>
      <trkpt lat="43.32679" lon="6.09127">
        <ele>396.07421875</ele>
        <time>2021-12-30T13:42:12Z</time>
      </trkpt>
      <trkpt lat="43.32673" lon="6.09119">
        <ele>396.51171875</ele>
        <time>2021-12-30T13:42:15Z</time>
      </trkpt>
      <trkpt lat="43.32648" lon="6.09095">
        <ele>399.234375</ele>
        <time>2021-12-30T13:42:26Z</time>
      </trkpt>
      <trkpt lat="43.32623" lon="6.09075">
        <ele>402.54296875</ele>
        <time>2021-12-30T13:42:36Z</time>
      </trkpt>
      <trkpt lat="43.32621" lon="6.09073">
        <ele>402.79296875</ele>
        <time>2021-12-30T13:42:37Z</time>
      </trkpt>
      <trkpt lat="43.32603" lon="6.09055">
        <ele>406.00390625</ele>
        <time>2021-12-30T13:42:44Z</time>
      </trkpt>
      <trkpt lat="43.32576" lon="6.09008">
        <ele>412.5625</ele>
        <time>2021-12-30T13:42:56Z</time>
      </trkpt>
      <trkpt lat="43.32578" lon="6.09005">
        <ele>413.77734375</ele>
        <time>2021-12-30T13:42:57Z</time>
      </trkpt>
      <trkpt lat="43.3258" lon="6.09004">
        <ele>414.73046875</ele>
        <time>2021-12-30T13:42:58Z</time>
      </trkpt>
      <trkpt lat="43.32583" lon="6.09006">
        <ele>415.05078125</ele>
        <time>2021-12-30T13:42:59Z</time>
      </trkpt>
      <trkpt lat="43.32584" lon="6.09008">
        <ele>414.91015625</ele>
        <time>2021-12-30T13:43:00Z</time>
      </trkpt>
      <trkpt lat="43.32586" lon="6.09011">
        <ele>414.61328125</ele>
        <time>2021-12-30T13:43:01Z</time>
      </trkpt>
      <trkpt lat="43.32588" lon="6.09014">
        <ele>414.24609375</ele>
        <time>2021-12-30T13:43:02Z</time>
      </trkpt>
      <trkpt lat="43.32595" lon="6.09027">
        <ele>412.7578125</ele>
        <time>2021-12-30T13:43:08Z</time>
      </trkpt>
      <trkpt lat="43.32604" lon="6.09035">
        <ele>412.11328125</ele>
        <time>2021-12-30T13:43:14Z</time>
      </trkpt>
      <trkpt lat="43.32606" lon="6.09034">
        <ele>413.02734375</ele>
        <time>2021-12-30T13:43:15Z</time>
      </trkpt>
      <trkpt lat="43.32607" lon="6.09031">
        <ele>414.13671875</ele>
        <time>2021-12-30T13:43:16Z</time>
      </trkpt>
      <trkpt lat="43.32607" lon="6.09028">
        <ele>415.2421875</ele>
        <time>2021-12-30T13:43:17Z</time>
      </trkpt>
      <trkpt lat="43.32607" lon="6.09025">
        <ele>416.08203125</ele>
        <time>2021-12-30T13:43:18Z</time>
      </trkpt>
      <trkpt lat="43.32606" lon="6.09022">
        <ele>416.77734375</ele>
        <time>2021-12-30T13:43:19Z</time>
      </trkpt>
      <trkpt lat="43.32605" lon="6.09019">
        <ele>417.30859375</ele>
        <time>2021-12-30T13:43:20Z</time>
      </trkpt>
      <trkpt lat="43.32604" lon="6.09017">
        <ele>417.65625</ele>
        <time>2021-12-30T13:43:21Z</time>
      </trkpt>
      <trkpt lat="43.32599" lon="6.09006">
        <ele>419.26171875</ele>
        <time>2021-12-30T13:43:25Z</time>
      </trkpt>
      <trkpt lat="43.32595" lon="6.08998">
        <ele>420.27734375</ele>
        <time>2021-12-30T13:43:28Z</time>
      </trkpt>
      <trkpt lat="43.32594" lon="6.08974">
        <ele>423.3828125</ele>
        <time>2021-12-30T13:43:37Z</time>
      </trkpt>
      <trkpt lat="43.32596" lon="6.08972">
        <ele>423.9453125</ele>
        <time>2021-12-30T13:43:38Z</time>
      </trkpt>
      <trkpt lat="43.32598" lon="6.08972">
        <ele>424.5078125</ele>
        <time>2021-12-30T13:43:39Z</time>
      </trkpt>
      <trkpt lat="43.326" lon="6.08972">
        <ele>424.9921875</ele>
        <time>2021-12-30T13:43:40Z</time>
      </trkpt>
      <trkpt lat="43.32602" lon="6.08973">
        <ele>425.3046875</ele>
        <time>2021-12-30T13:43:41Z</time>
      </trkpt>
      <trkpt lat="43.32603" lon="6.08973">
        <ele>425.6484375</ele>
        <time>2021-12-30T13:43:42Z</time>
      </trkpt>
      <trkpt lat="43.32605" lon="6.08974">
        <ele>425.984375</ele>
        <time>2021-12-30T13:43:43Z</time>
      </trkpt>
      <trkpt lat="43.32606" lon="6.08974">
        <ele>426.265625</ele>
        <time>2021-12-30T13:43:44Z</time>
      </trkpt>
      <trkpt lat="43.32608" lon="6.08975">
        <ele>426.53515625</ele>
        <time>2021-12-30T13:43:45Z</time>
      </trkpt>
      <trkpt lat="43.32609" lon="6.08976">
        <ele>426.83984375</ele>
        <time>2021-12-30T13:43:46Z</time>
      </trkpt>
      <trkpt lat="43.32611" lon="6.08976">
        <ele>426.953125</ele>
        <time>2021-12-30T13:43:47Z</time>
      </trkpt>
      <trkpt lat="43.32627" lon="6.08975">
        <ele>426.12890625</ele>
        <time>2021-12-30T13:43:56Z</time>
      </trkpt>
      <trkpt lat="43.32628" lon="6.08974">
        <ele>426.13671875</ele>
        <time>2021-12-30T13:43:57Z</time>
      </trkpt>
      <trkpt lat="43.32629" lon="6.08972">
        <ele>426.171875</ele>
        <time>2021-12-30T13:43:58Z</time>
      </trkpt>
      <trkpt lat="43.32636" lon="6.08962">
        <ele>426.09765625</ele>
        <time>2021-12-30T13:44:10Z</time>
      </trkpt>
      <trkpt lat="43.32636" lon="6.08957">
        <ele>425.7890625</ele>
        <time>2021-12-30T13:44:37Z</time>
      </trkpt>
      <trkpt lat="43.32639" lon="6.08958">
        <ele>425.22265625</ele>
        <time>2021-12-30T13:45:08Z</time>
      </trkpt>
      <trkpt lat="43.32643" lon="6.08957">
        <ele>424.07421875</ele>
        <time>2021-12-30T13:45:11Z</time>
      </trkpt>
      <trkpt lat="43.32646" lon="6.08953">
        <ele>422.75</ele>
        <time>2021-12-30T13:45:24Z</time>
      </trkpt>
      <trkpt lat="43.32644" lon="6.08953">
        <ele>423.37890625</ele>
        <time>2021-12-30T13:45:55Z</time>
      </trkpt>
      <trkpt lat="43.32642" lon="6.08951">
        <ele>423.92578125</ele>
        <time>2021-12-30T13:46:33Z</time>
      </trkpt>
      <trkpt lat="43.3264" lon="6.08953">
        <ele>424.81640625</ele>
        <time>2021-12-30T13:47:09Z</time>
      </trkpt>
      <trkpt lat="43.32639" lon="6.08952">
        <ele>424.8203125</ele>
        <time>2021-12-30T13:47:33Z</time>
      </trkpt>
      <trkpt lat="43.32643" lon="6.08954">
        <ele>423.80859375</ele>
        <time>2021-12-30T13:48:05Z</time>
      </trkpt>
      <trkpt lat="43.32643" lon="6.08961">
        <ele>424.23828125</ele>
        <time>2021-12-30T13:48:48Z</time>
      </trkpt>
      <trkpt lat="43.32646" lon="6.08957">
        <ele>423.09765625</ele>
        <time>2021-12-30T13:49:26Z</time>
      </trkpt>
      <trkpt lat="43.32647" lon="6.08958">
        <ele>422.88671875</ele>
        <time>2021-12-30T13:49:59Z</time>
      </trkpt>
      <trkpt lat="43.32643" lon="6.0896">
        <ele>424.31640625</ele>
        <time>2021-12-30T13:50:40Z</time>
      </trkpt>
      <trkpt lat="43.32646" lon="6.08956">
        <ele>422.8984375</ele>
        <time>2021-12-30T13:51:18Z</time>
      </trkpt>
      <trkpt lat="43.32647" lon="6.08961">
        <ele>423.08203125</ele>
        <time>2021-12-30T13:52:03Z</time>
      </trkpt>
      <trkpt lat="43.32644" lon="6.08958">
        <ele>423.828125</ele>
        <time>2021-12-30T13:52:45Z</time>
      </trkpt>
      <trkpt lat="43.32644" lon="6.08956">
        <ele>423.56640625</ele>
        <time>2021-12-30T13:53:19Z</time>
      </trkpt>
      <trkpt lat="43.32646" lon="6.08961">
        <ele>423.40234375</ele>
        <time>2021-12-30T13:53:57Z</time>
      </trkpt>
      <trkpt lat="43.32645" lon="6.08959">
        <ele>423.46875</ele>
        <time>2021-12-30T13:54:38Z</time>
      </trkpt>
      <trkpt lat="43.32644" lon="6.08953">
        <ele>423.328125</ele>
        <time>2021-12-30T13:55:29Z</time>
      </trkpt>
      <trkpt lat="43.32641" lon="6.08955">
        <ele>424.359375</ele>
        <time>2021-12-30T13:56:10Z</time>
      </trkpt>
      <trkpt lat="43.32642" lon="6.08956">
        <ele>424.21875</ele>
        <time>2021-12-30T13:56:38Z</time>
      </trkpt>
      <trkpt lat="43.32645" lon="6.0896">
        <ele>423.44140625</ele>
        <time>2021-12-30T13:57:05Z</time>
      </trkpt>
      <trkpt lat="43.32647" lon="6.08962">
        <ele>423.21875</ele>
        <time>2021-12-30T13:57:08Z</time>
      </trkpt>
      <trkpt lat="43.32654" lon="6.08962">
        <ele>420.9375</ele>
        <time>2021-12-30T13:57:12Z</time>
      </trkpt>
      <trkpt lat="43.32659" lon="6.08964">
        <ele>418.9765625</ele>
        <time>2021-12-30T13:57:26Z</time>
      </trkpt>
      <trkpt lat="43.32659" lon="6.08967">
        <ele>418.8984375</ele>
        <time>2021-12-30T13:58:01Z</time>
      </trkpt>
      <trkpt lat="43.32658" lon="6.08963">
        <ele>419.5546875</ele>
        <time>2021-12-30T13:58:21Z</time>
      </trkpt>
      <trkpt lat="43.32657" lon="6.08963">
        <ele>419.765625</ele>
        <time>2021-12-30T13:58:23Z</time>
      </trkpt>
      <trkpt lat="43.32629" lon="6.08972">
        <ele>426.16015625</ele>
        <time>2021-12-30T13:58:34Z</time>
      </trkpt>
      <trkpt lat="43.32622" lon="6.08981">
        <ele>426.125</ele>
        <time>2021-12-30T13:58:38Z</time>
      </trkpt>
      <trkpt lat="43.32619" lon="6.08981">
        <ele>426.26953125</ele>
        <time>2021-12-30T13:58:39Z</time>
      </trkpt>
      <trkpt lat="43.32615" lon="6.0898">
        <ele>426.50390625</ele>
        <time>2021-12-30T13:58:40Z</time>
      </trkpt>
      <trkpt lat="43.32599" lon="6.08972">
        <ele>424.8046875</ele>
        <time>2021-12-30T13:58:46Z</time>
      </trkpt>
      <trkpt lat="43.32597" lon="6.08971">
        <ele>424.484375</ele>
        <time>2021-12-30T13:58:48Z</time>
      </trkpt>
      <trkpt lat="43.32596" lon="6.0897">
        <ele>424.31640625</ele>
        <time>2021-12-30T13:58:58Z</time>
      </trkpt>
      <trkpt lat="43.32595" lon="6.08971">
        <ele>423.9453125</ele>
        <time>2021-12-30T13:58:59Z</time>
      </trkpt>
      <trkpt lat="43.32594" lon="6.08973">
        <ele>423.51171875</ele>
        <time>2021-12-30T13:59:00Z</time>
      </trkpt>
      <trkpt lat="43.32593" lon="6.08987">
        <ele>421.96875</ele>
        <time>2021-12-30T13:59:04Z</time>
      </trkpt>
      <trkpt lat="43.32596" lon="6.08997">
        <ele>420.75390625</ele>
        <time>2021-12-30T13:59:06Z</time>
      </trkpt>
      <trkpt lat="43.32605" lon="6.09016">
        <ele>418.2109375</ele>
        <time>2021-12-30T13:59:09Z</time>
      </trkpt>
      <trkpt lat="43.32608" lon="6.09023">
        <ele>416.85546875</ele>
        <time>2021-12-30T13:59:10Z</time>
      </trkpt>
      <trkpt lat="43.32609" lon="6.09028">
        <ele>415.3125</ele>
        <time>2021-12-30T13:59:11Z</time>
      </trkpt>
      <trkpt lat="43.32609" lon="6.09032">
        <ele>414.23046875</ele>
        <time>2021-12-30T13:59:12Z</time>
      </trkpt>
      <trkpt lat="43.3261" lon="6.09034">
        <ele>413.8203125</ele>
        <time>2021-12-30T13:59:13Z</time>
      </trkpt>
      <trkpt lat="43.32609" lon="6.09033">
        <ele>413.7890625</ele>
        <time>2021-12-30T13:59:32Z</time>
      </trkpt>
      <trkpt lat="43.32608" lon="6.09034">
        <ele>413.2265625</ele>
        <time>2021-12-30T13:59:33Z</time>
      </trkpt>
      <trkpt lat="43.32603" lon="6.09036">
        <ele>411.6328125</ele>
        <time>2021-12-30T13:59:40Z</time>
      </trkpt>
      <trkpt lat="43.32601" lon="6.09035">
        <ele>411.546875</ele>
        <time>2021-12-30T13:59:41Z</time>
      </trkpt>
      <trkpt lat="43.32599" lon="6.09033">
        <ele>411.671875</ele>
        <time>2021-12-30T13:59:42Z</time>
      </trkpt>
      <trkpt lat="43.32597" lon="6.0903">
        <ele>412.234375</ele>
        <time>2021-12-30T13:59:43Z</time>
      </trkpt>
      <trkpt lat="43.32595" lon="6.09026">
        <ele>412.8125</ele>
        <time>2021-12-30T13:59:44Z</time>
      </trkpt>
      <trkpt lat="43.32592" lon="6.09022">
        <ele>413.16015625</ele>
        <time>2021-12-30T13:59:45Z</time>
      </trkpt>
      <trkpt lat="43.32588" lon="6.09017">
        <ele>413.61328125</ele>
        <time>2021-12-30T13:59:46Z</time>
      </trkpt>
      <trkpt lat="43.32585" lon="6.0901">
        <ele>414.41796875</ele>
        <time>2021-12-30T13:59:47Z</time>
      </trkpt>
      <trkpt lat="43.32581" lon="6.09005">
        <ele>414.83984375</ele>
        <time>2021-12-30T13:59:48Z</time>
      </trkpt>
      <trkpt lat="43.32578" lon="6.09004">
        <ele>414.08984375</ele>
        <time>2021-12-30T13:59:49Z</time>
      </trkpt>
      <trkpt lat="43.32576" lon="6.09006">
        <ele>412.68359375</ele>
        <time>2021-12-30T13:59:50Z</time>
      </trkpt>
      <trkpt lat="43.32575" lon="6.09011">
        <ele>411.453125</ele>
        <time>2021-12-30T13:59:51Z</time>
      </trkpt>
      <trkpt lat="43.32577" lon="6.09016">
        <ele>410.6875</ele>
        <time>2021-12-30T13:59:52Z</time>
      </trkpt>
      <trkpt lat="43.32579" lon="6.0902">
        <ele>410.19140625</ele>
        <time>2021-12-30T13:59:53Z</time>
      </trkpt>
      <trkpt lat="43.32581" lon="6.09024">
        <ele>409.8046875</ele>
        <time>2021-12-30T13:59:54Z</time>
      </trkpt>
      <trkpt lat="43.3259" lon="6.09041">
        <ele>407.5703125</ele>
        <time>2021-12-30T13:59:58Z</time>
      </trkpt>
      <trkpt lat="43.32601" lon="6.09056">
        <ele>405.6015625</ele>
        <time>2021-12-30T14:00:01Z</time>
      </trkpt>
      <trkpt lat="43.32604" lon="6.0906">
        <ele>404.9375</ele>
        <time>2021-12-30T14:00:02Z</time>
      </trkpt>
      <trkpt lat="43.32608" lon="6.09064">
        <ele>404.43359375</ele>
        <time>2021-12-30T14:00:03Z</time>
      </trkpt>
      <trkpt lat="43.32633" lon="6.09083">
        <ele>401.55078125</ele>
        <time>2021-12-30T14:00:11Z</time>
      </trkpt>
      <trkpt lat="43.32635" lon="6.09084">
        <ele>401.46484375</ele>
        <time>2021-12-30T14:00:12Z</time>
      </trkpt>
      <trkpt lat="43.32642" lon="6.09092">
        <ele>399.9453125</ele>
        <time>2021-12-30T14:00:16Z</time>
      </trkpt>
      <trkpt lat="43.32644" lon="6.09093">
        <ele>399.5546875</ele>
        <time>2021-12-30T14:00:17Z</time>
      </trkpt>
      <trkpt lat="43.32646" lon="6.09095">
        <ele>399.15234375</ele>
        <time>2021-12-30T14:00:18Z</time>
      </trkpt>
      <trkpt lat="43.32649" lon="6.09097">
        <ele>398.78125</ele>
        <time>2021-12-30T14:00:19Z</time>
      </trkpt>
      <trkpt lat="43.32652" lon="6.09098">
        <ele>398.5</ele>
        <time>2021-12-30T14:00:20Z</time>
      </trkpt>
      <trkpt lat="43.32656" lon="6.091">
        <ele>398.125</ele>
        <time>2021-12-30T14:00:21Z</time>
      </trkpt>
      <trkpt lat="43.3266" lon="6.09104">
        <ele>397.7421875</ele>
        <time>2021-12-30T14:00:22Z</time>
      </trkpt>
      <trkpt lat="43.32665" lon="6.0911">
        <ele>397.3671875</ele>
        <time>2021-12-30T14:00:23Z</time>
      </trkpt>
      <trkpt lat="43.32674" lon="6.09121">
        <ele>396.375</ele>
        <time>2021-12-30T14:00:25Z</time>
      </trkpt>
      <trkpt lat="43.3268" lon="6.09127">
        <ele>396.0703125</ele>
        <time>2021-12-30T14:00:28Z</time>
      </trkpt>
      <trkpt lat="43.32684" lon="6.09131">
        <ele>396.05859375</ele>
        <time>2021-12-30T14:00:41Z</time>
      </trkpt>
      <trkpt lat="43.32692" lon="6.09149">
        <ele>396.69140625</ele>
        <time>2021-12-30T14:00:50Z</time>
      </trkpt>
      <trkpt lat="43.32697" lon="6.09163">
        <ele>396.7421875</ele>
        <time>2021-12-30T14:00:54Z</time>
      </trkpt>
      <trkpt lat="43.32696" lon="6.09168">
        <ele>397.046875</ele>
        <time>2021-12-30T14:00:56Z</time>
      </trkpt>
      <trkpt lat="43.32694" lon="6.0917">
        <ele>397.375</ele>
        <time>2021-12-30T14:00:57Z</time>
      </trkpt>
      <trkpt lat="43.32692" lon="6.09173">
        <ele>397.53125</ele>
        <time>2021-12-30T14:00:58Z</time>
      </trkpt>
      <trkpt lat="43.32689" lon="6.09175">
        <ele>397.4296875</ele>
        <time>2021-12-30T14:00:59Z</time>
      </trkpt>
      <trkpt lat="43.32687" lon="6.09178">
        <ele>397.32421875</ele>
        <time>2021-12-30T14:01:00Z</time>
      </trkpt>
      <trkpt lat="43.32685" lon="6.09181">
        <ele>397.28125</ele>
        <time>2021-12-30T14:01:01Z</time>
      </trkpt>
      <trkpt lat="43.32683" lon="6.09184">
        <ele>397.234375</ele>
        <time>2021-12-30T14:01:02Z</time>
      </trkpt>
      <trkpt lat="43.32681" lon="6.09186">
        <ele>397.09765625</ele>
        <time>2021-12-30T14:01:03Z</time>
      </trkpt>
      <trkpt lat="43.32678" lon="6.09187">
        <ele>396.92578125</ele>
        <time>2021-12-30T14:01:04Z</time>
      </trkpt>
      <trkpt lat="43.32675" lon="6.09187">
        <ele>396.71875</ele>
        <time>2021-12-30T14:01:05Z</time>
      </trkpt>
      <trkpt lat="43.32661" lon="6.0919">
        <ele>395.7265625</ele>
        <time>2021-12-30T14:01:08Z</time>
      </trkpt>
      <trkpt lat="43.32655" lon="6.09193">
        <ele>395.1875</ele>
        <time>2021-12-30T14:01:09Z</time>
      </trkpt>
      <trkpt lat="43.32649" lon="6.09197">
        <ele>394.60546875</ele>
        <time>2021-12-30T14:01:10Z</time>
      </trkpt>
      <trkpt lat="43.32626" lon="6.09212">
        <ele>392.27734375</ele>
        <time>2021-12-30T14:01:13Z</time>
      </trkpt>
      <trkpt lat="43.32618" lon="6.09218">
        <ele>391.28125</ele>
        <time>2021-12-30T14:01:14Z</time>
      </trkpt>
      <trkpt lat="43.326" lon="6.09234">
        <ele>388.890625</ele>
        <time>2021-12-30T14:01:16Z</time>
      </trkpt>
      <trkpt lat="43.32591" lon="6.09243">
        <ele>387.640625</ele>
        <time>2021-12-30T14:01:17Z</time>
      </trkpt>
      <trkpt lat="43.32582" lon="6.09254">
        <ele>386.4765625</ele>
        <time>2021-12-30T14:01:18Z</time>
      </trkpt>
      <trkpt lat="43.32573" lon="6.09265">
        <ele>384.953125</ele>
        <time>2021-12-30T14:01:19Z</time>
      </trkpt>
      <trkpt lat="43.32564" lon="6.09275">
        <ele>383.44921875</ele>
        <time>2021-12-30T14:01:20Z</time>
      </trkpt>
      <trkpt lat="43.32554" lon="6.09285">
        <ele>382.12109375</ele>
        <time>2021-12-30T14:01:21Z</time>
      </trkpt>
      <trkpt lat="43.32528" lon="6.09309">
        <ele>377.23046875</ele>
        <time>2021-12-30T14:01:24Z</time>
      </trkpt>
      <trkpt lat="43.32513" lon="6.09319">
        <ele>374.66015625</ele>
        <time>2021-12-30T14:01:26Z</time>
      </trkpt>
      <trkpt lat="43.32504" lon="6.09324">
        <ele>373.08984375</ele>
        <time>2021-12-30T14:01:27Z</time>
      </trkpt>
      <trkpt lat="43.32495" lon="6.09328">
        <ele>371.546875</ele>
        <time>2021-12-30T14:01:28Z</time>
      </trkpt>
      <trkpt lat="43.32487" lon="6.09333">
        <ele>370.41015625</ele>
        <time>2021-12-30T14:01:29Z</time>
      </trkpt>
      <trkpt lat="43.32479" lon="6.09338">
        <ele>369.2109375</ele>
        <time>2021-12-30T14:01:30Z</time>
      </trkpt>
      <trkpt lat="43.3247" lon="6.09342">
        <ele>367.7734375</ele>
        <time>2021-12-30T14:01:31Z</time>
      </trkpt>
      <trkpt lat="43.3246" lon="6.09345">
        <ele>366.015625</ele>
        <time>2021-12-30T14:01:32Z</time>
      </trkpt>
      <trkpt lat="43.3245" lon="6.09348">
        <ele>364.09765625</ele>
        <time>2021-12-30T14:01:33Z</time>
      </trkpt>
      <trkpt lat="43.32427" lon="6.09355">
        <ele>360.20703125</ele>
        <time>2021-12-30T14:01:35Z</time>
      </trkpt>
      <trkpt lat="43.32405" lon="6.09362">
        <ele>357.8828125</ele>
        <time>2021-12-30T14:01:37Z</time>
      </trkpt>
      <trkpt lat="43.32386" lon="6.09371">
        <ele>356.55078125</ele>
        <time>2021-12-30T14:01:39Z</time>
      </trkpt>
      <trkpt lat="43.32361" lon="6.09383">
        <ele>355.375</ele>
        <time>2021-12-30T14:01:42Z</time>
      </trkpt>
      <trkpt lat="43.32353" lon="6.09384">
        <ele>354.9140625</ele>
        <time>2021-12-30T14:01:43Z</time>
      </trkpt>
      <trkpt lat="43.32345" lon="6.09383">
        <ele>354.26953125</ele>
        <time>2021-12-30T14:01:44Z</time>
      </trkpt>
      <trkpt lat="43.32322" lon="6.09379">
        <ele>352.30859375</ele>
        <time>2021-12-30T14:01:47Z</time>
      </trkpt>
      <trkpt lat="43.32315" lon="6.09381">
        <ele>351.92578125</ele>
        <time>2021-12-30T14:01:48Z</time>
      </trkpt>
      <trkpt lat="43.32307" lon="6.09383">
        <ele>351.69140625</ele>
        <time>2021-12-30T14:01:49Z</time>
      </trkpt>
      <trkpt lat="43.32301" lon="6.09386">
        <ele>351.36328125</ele>
        <time>2021-12-30T14:01:50Z</time>
      </trkpt>
      <trkpt lat="43.32295" lon="6.09388">
        <ele>350.9609375</ele>
        <time>2021-12-30T14:01:51Z</time>
      </trkpt>
      <trkpt lat="43.3229" lon="6.09389">
        <ele>350.4609375</ele>
        <time>2021-12-30T14:01:52Z</time>
      </trkpt>
      <trkpt lat="43.32285" lon="6.09389">
        <ele>349.90625</ele>
        <time>2021-12-30T14:01:53Z</time>
      </trkpt>
      <trkpt lat="43.32265" lon="6.09389">
        <ele>348.2734375</ele>
        <time>2021-12-30T14:01:58Z</time>
      </trkpt>
      <trkpt lat="43.32246" lon="6.09389">
        <ele>346.9453125</ele>
        <time>2021-12-30T14:02:05Z</time>
      </trkpt>
      <trkpt lat="43.32244" lon="6.09392">
        <ele>347.171875</ele>
        <time>2021-12-30T14:02:06Z</time>
      </trkpt>
      <trkpt lat="43.32217" lon="6.09435">
        <ele>349.90234375</ele>
        <time>2021-12-30T14:02:20Z</time>
      </trkpt>
      <trkpt lat="43.32214" lon="6.09439">
        <ele>350.19921875</ele>
        <time>2021-12-30T14:02:21Z</time>
      </trkpt>
      <trkpt lat="43.3221" lon="6.09443">
        <ele>350.4140625</ele>
        <time>2021-12-30T14:02:22Z</time>
      </trkpt>
      <trkpt lat="43.32207" lon="6.09446">
        <ele>350.53125</ele>
        <time>2021-12-30T14:02:23Z</time>
      </trkpt>
      <trkpt lat="43.32203" lon="6.09449">
        <ele>350.546875</ele>
        <time>2021-12-30T14:02:24Z</time>
      </trkpt>
      <trkpt lat="43.322" lon="6.09451">
        <ele>350.53125</ele>
        <time>2021-12-30T14:02:25Z</time>
      </trkpt>
      <trkpt lat="43.32166" lon="6.09474">
        <ele>350.32421875</ele>
        <time>2021-12-30T14:02:37Z</time>
      </trkpt>
      <trkpt lat="43.32135" lon="6.09481">
        <ele>350.16796875</ele>
        <time>2021-12-30T14:02:47Z</time>
      </trkpt>
      <trkpt lat="43.32091" lon="6.09469">
        <ele>349.0390625</ele>
        <time>2021-12-30T14:03:00Z</time>
      </trkpt>
      <trkpt lat="43.32078" lon="6.09458">
        <ele>348.46875</ele>
        <time>2021-12-30T14:03:04Z</time>
      </trkpt>
      <trkpt lat="43.32062" lon="6.09444">
        <ele>349.65234375</ele>
        <time>2021-12-30T14:03:09Z</time>
      </trkpt>
      <trkpt lat="43.32059" lon="6.09441">
        <ele>349.80078125</ele>
        <time>2021-12-30T14:03:10Z</time>
      </trkpt>
      <trkpt lat="43.32057" lon="6.09439">
        <ele>349.9296875</ele>
        <time>2021-12-30T14:03:11Z</time>
      </trkpt>
      <trkpt lat="43.32034" lon="6.09437">
        <ele>350.76953125</ele>
        <time>2021-12-30T14:03:17Z</time>
      </trkpt>
      <trkpt lat="43.32024" lon="6.09433">
        <ele>351.26953125</ele>
        <time>2021-12-30T14:03:19Z</time>
      </trkpt>
      <trkpt lat="43.3202" lon="6.09431">
        <ele>351.5546875</ele>
        <time>2021-12-30T14:03:20Z</time>
      </trkpt>
      <trkpt lat="43.32016" lon="6.09431">
        <ele>351.80859375</ele>
        <time>2021-12-30T14:03:21Z</time>
      </trkpt>
      <trkpt lat="43.32012" lon="6.09429">
        <ele>352.16015625</ele>
        <time>2021-12-30T14:03:22Z</time>
      </trkpt>
      <trkpt lat="43.32008" lon="6.09425">
        <ele>352.6796875</ele>
        <time>2021-12-30T14:03:23Z</time>
      </trkpt>
      <trkpt lat="43.32005" lon="6.09421">
        <ele>353.21484375</ele>
        <time>2021-12-30T14:03:24Z</time>
      </trkpt>
      <trkpt lat="43.32001" lon="6.09418">
        <ele>353.64453125</ele>
        <time>2021-12-30T14:03:25Z</time>
      </trkpt>
      <trkpt lat="43.31998" lon="6.09417">
        <ele>353.9140625</ele>
        <time>2021-12-30T14:03:26Z</time>
      </trkpt>
      <trkpt lat="43.31994" lon="6.09416">
        <ele>354.046875</ele>
        <time>2021-12-30T14:03:27Z</time>
      </trkpt>
      <trkpt lat="43.3199" lon="6.09416">
        <ele>354.12109375</ele>
        <time>2021-12-30T14:03:28Z</time>
      </trkpt>
      <trkpt lat="43.31965" lon="6.09412">
        <ele>354.87890625</ele>
        <time>2021-12-30T14:03:38Z</time>
      </trkpt>
      <trkpt lat="43.31942" lon="6.09406">
        <ele>356.1015625</ele>
        <time>2021-12-30T14:03:51Z</time>
      </trkpt>
      <trkpt lat="43.31902" lon="6.09392">
        <ele>358.78515625</ele>
        <time>2021-12-30T14:04:05Z</time>
      </trkpt>
      <trkpt lat="43.31881" lon="6.09377">
        <ele>360.49609375</ele>
        <time>2021-12-30T14:04:12Z</time>
      </trkpt>
      <trkpt lat="43.3188" lon="6.09378">
        <ele>360.44140625</ele>
        <time>2021-12-30T14:04:13Z</time>
      </trkpt>
      <trkpt lat="43.31878" lon="6.09379">
        <ele>360.3359375</ele>
        <time>2021-12-30T14:04:14Z</time>
      </trkpt>
      <trkpt lat="43.31873" lon="6.09392">
        <ele>359.89453125</ele>
        <time>2021-12-30T14:04:18Z</time>
      </trkpt>
      <trkpt lat="43.31874" lon="6.09396">
        <ele>359.58203125</ele>
        <time>2021-12-30T14:04:19Z</time>
      </trkpt>
      <trkpt lat="43.31877" lon="6.09401">
        <ele>359.125</ele>
        <time>2021-12-30T14:04:20Z</time>
      </trkpt>
      <trkpt lat="43.3188" lon="6.09407">
        <ele>358.59765625</ele>
        <time>2021-12-30T14:04:21Z</time>
      </trkpt>
      <trkpt lat="43.31884" lon="6.09412">
        <ele>358.171875</ele>
        <time>2021-12-30T14:04:22Z</time>
      </trkpt>
      <trkpt lat="43.31905" lon="6.09463">
        <ele>356.4921875</ele>
        <time>2021-12-30T14:04:29Z</time>
      </trkpt>
      <trkpt lat="43.31905" lon="6.0947">
        <ele>356.87890625</ele>
        <time>2021-12-30T14:04:30Z</time>
      </trkpt>
      <trkpt lat="43.31903" lon="6.09475">
        <ele>357.18359375</ele>
        <time>2021-12-30T14:04:31Z</time>
      </trkpt>
      <trkpt lat="43.319" lon="6.09478">
        <ele>357.41015625</ele>
        <time>2021-12-30T14:04:32Z</time>
      </trkpt>
      <trkpt lat="43.31897" lon="6.09481">
        <ele>357.5859375</ele>
        <time>2021-12-30T14:04:33Z</time>
      </trkpt>
      <trkpt lat="43.31894" lon="6.09484">
        <ele>357.7421875</ele>
        <time>2021-12-30T14:04:34Z</time>
      </trkpt>
      <trkpt lat="43.31891" lon="6.09487">
        <ele>357.875</ele>
        <time>2021-12-30T14:04:35Z</time>
      </trkpt>
      <trkpt lat="43.31881" lon="6.09494">
        <ele>358.36328125</ele>
        <time>2021-12-30T14:04:38Z</time>
      </trkpt>
      <trkpt lat="43.31879" lon="6.09498">
        <ele>358.53515625</ele>
        <time>2021-12-30T14:04:39Z</time>
      </trkpt>
      <trkpt lat="43.31875" lon="6.09508">
        <ele>358.82421875</ele>
        <time>2021-12-30T14:04:41Z</time>
      </trkpt>
      <trkpt lat="43.31872" lon="6.09513">
        <ele>358.921875</ele>
        <time>2021-12-30T14:04:42Z</time>
      </trkpt>
      <trkpt lat="43.3187" lon="6.09517">
        <ele>358.9921875</ele>
        <time>2021-12-30T14:04:43Z</time>
      </trkpt>
      <trkpt lat="43.31853" lon="6.09579">
        <ele>360.2265625</ele>
        <time>2021-12-30T14:04:56Z</time>
      </trkpt>
      <trkpt lat="43.31844" lon="6.09636">
        <ele>362.6484375</ele>
        <time>2021-12-30T14:05:08Z</time>
      </trkpt>
      <trkpt lat="43.31834" lon="6.09682">
        <ele>364.02734375</ele>
        <time>2021-12-30T14:05:19Z</time>
      </trkpt>
      <trkpt lat="43.31819" lon="6.09718">
        <ele>364.7109375</ele>
        <time>2021-12-30T14:05:32Z</time>
      </trkpt>
      <trkpt lat="43.318" lon="6.09749">
        <ele>366.7265625</ele>
        <time>2021-12-30T14:05:44Z</time>
      </trkpt>
      <trkpt lat="43.31786" lon="6.09792">
        <ele>369.26171875</ele>
        <time>2021-12-30T14:05:59Z</time>
      </trkpt>
      <trkpt lat="43.31772" lon="6.09835">
        <ele>373.078125</ele>
        <time>2021-12-30T14:06:13Z</time>
      </trkpt>
      <trkpt lat="43.31748" lon="6.0986">
        <ele>377.50390625</ele>
        <time>2021-12-30T14:06:26Z</time>
      </trkpt>
      <trkpt lat="43.31732" lon="6.09888">
        <ele>380.1640625</ele>
        <time>2021-12-30T14:06:38Z</time>
      </trkpt>
      <trkpt lat="43.3173" lon="6.09893">
        <ele>380.47265625</ele>
        <time>2021-12-30T14:06:40Z</time>
      </trkpt>
      <trkpt lat="43.31705" lon="6.09908">
        <ele>383.84765625</ele>
        <time>2021-12-30T14:06:53Z</time>
      </trkpt>
      <trkpt lat="43.31681" lon="6.09913">
        <ele>385.91015625</ele>
        <time>2021-12-30T14:07:01Z</time>
      </trkpt>
      <trkpt lat="43.31663" lon="6.0992">
        <ele>387.53125</ele>
        <time>2021-12-30T14:07:05Z</time>
      </trkpt>
      <trkpt lat="43.31653" lon="6.09924">
        <ele>388.26171875</ele>
        <time>2021-12-30T14:07:07Z</time>
      </trkpt>
      <trkpt lat="43.31624" lon="6.09945">
        <ele>391.0390625</ele>
        <time>2021-12-30T14:07:14Z</time>
      </trkpt>
      <trkpt lat="43.31581" lon="6.09954">
        <ele>390.75</ele>
        <time>2021-12-30T14:07:26Z</time>
      </trkpt>
      <trkpt lat="43.31572" lon="6.09955">
        <ele>390.3828125</ele>
        <time>2021-12-30T14:07:28Z</time>
      </trkpt>
      <trkpt lat="43.31568" lon="6.09958">
        <ele>390.484375</ele>
        <time>2021-12-30T14:07:29Z</time>
      </trkpt>
      <trkpt lat="43.31564" lon="6.09962">
        <ele>390.7109375</ele>
        <time>2021-12-30T14:07:30Z</time>
      </trkpt>
      <trkpt lat="43.31562" lon="6.09967">
        <ele>391.1875</ele>
        <time>2021-12-30T14:07:31Z</time>
      </trkpt>
      <trkpt lat="43.31559" lon="6.09971">
        <ele>391.6953125</ele>
        <time>2021-12-30T14:07:32Z</time>
      </trkpt>
      <trkpt lat="43.31551" lon="6.09983">
        <ele>392.73046875</ele>
        <time>2021-12-30T14:07:35Z</time>
      </trkpt>
      <trkpt lat="43.31548" lon="6.09986">
        <ele>392.73828125</ele>
        <time>2021-12-30T14:07:36Z</time>
      </trkpt>
      <trkpt lat="43.31544" lon="6.09987">
        <ele>392.50390625</ele>
        <time>2021-12-30T14:07:37Z</time>
      </trkpt>
      <trkpt lat="43.31535" lon="6.09987">
        <ele>391.625</ele>
        <time>2021-12-30T14:07:40Z</time>
      </trkpt>
      <trkpt lat="43.3153" lon="6.09986">
        <ele>391.0546875</ele>
        <time>2021-12-30T14:07:42Z</time>
      </trkpt>
      <trkpt lat="43.31503" lon="6.09988">
        <ele>390.9375</ele>
        <time>2021-12-30T14:07:52Z</time>
      </trkpt>
      <trkpt lat="43.31478" lon="6.09993">
        <ele>392.1640625</ele>
        <time>2021-12-30T14:08:01Z</time>
      </trkpt>
      <trkpt lat="43.3147" lon="6.0999">
        <ele>392.3046875</ele>
        <time>2021-12-30T14:08:04Z</time>
      </trkpt>
      <trkpt lat="43.31467" lon="6.09984">
        <ele>392.72265625</ele>
        <time>2021-12-30T14:08:06Z</time>
      </trkpt>
      <trkpt lat="43.31476" lon="6.09966">
        <ele>392.44921875</ele>
        <time>2021-12-30T14:08:11Z</time>
      </trkpt>
      <trkpt lat="43.31491" lon="6.09932">
        <ele>391.4453125</ele>
        <time>2021-12-30T14:08:21Z</time>
      </trkpt>
      <trkpt lat="43.31491" lon="6.09907">
        <ele>393.421875</ele>
        <time>2021-12-30T14:08:28Z</time>
      </trkpt>
      <trkpt lat="43.31487" lon="6.09892">
        <ele>395.78515625</ele>
        <time>2021-12-30T14:08:33Z</time>
      </trkpt>
      <trkpt lat="43.31474" lon="6.09888">
        <ele>398.6015625</ele>
        <time>2021-12-30T14:08:40Z</time>
      </trkpt>
      <trkpt lat="43.31448" lon="6.09919">
        <ele>400.7734375</ele>
        <time>2021-12-30T14:08:53Z</time>
      </trkpt>
      <trkpt lat="43.31421" lon="6.09944">
        <ele>403.5859375</ele>
        <time>2021-12-30T14:09:05Z</time>
      </trkpt>
      <trkpt lat="43.31417" lon="6.09947">
        <ele>403.98828125</ele>
        <time>2021-12-30T14:09:07Z</time>
      </trkpt>
      <trkpt lat="43.31393" lon="6.09961">
        <ele>407.984375</ele>
        <time>2021-12-30T14:09:18Z</time>
      </trkpt>
      <trkpt lat="43.31383" lon="6.09968">
        <ele>409.484375</ele>
        <time>2021-12-30T14:09:23Z</time>
      </trkpt>
      <trkpt lat="43.3137" lon="6.09975">
        <ele>411.86328125</ele>
        <time>2021-12-30T14:09:30Z</time>
      </trkpt>
      <trkpt lat="43.31359" lon="6.09982">
        <ele>413.55078125</ele>
        <time>2021-12-30T14:09:36Z</time>
      </trkpt>
      <trkpt lat="43.31337" lon="6.09989">
        <ele>418.171875</ele>
        <time>2021-12-30T14:09:46Z</time>
      </trkpt>
      <trkpt lat="43.31324" lon="6.09994">
        <ele>420.2265625</ele>
        <time>2021-12-30T14:09:52Z</time>
      </trkpt>
      <trkpt lat="43.31308" lon="6.10002">
        <ele>422.171875</ele>
        <time>2021-12-30T14:10:00Z</time>
      </trkpt>
      <trkpt lat="43.31279" lon="6.10007">
        <ele>426.203125</ele>
        <time>2021-12-30T14:10:13Z</time>
      </trkpt>
      <trkpt lat="43.31241" lon="6.10005">
        <ele>430.86328125</ele>
        <time>2021-12-30T14:10:28Z</time>
      </trkpt>
      <trkpt lat="43.31228" lon="6.10004">
        <ele>432.546875</ele>
        <time>2021-12-30T14:10:33Z</time>
      </trkpt>
      <trkpt lat="43.312" lon="6.10006">
        <ele>435.33984375</ele>
        <time>2021-12-30T14:10:43Z</time>
      </trkpt>
      <trkpt lat="43.31192" lon="6.10008">
        <ele>436.1171875</ele>
        <time>2021-12-30T14:10:46Z</time>
      </trkpt>
      <trkpt lat="43.31156" lon="6.10019">
        <ele>439.56640625</ele>
        <time>2021-12-30T14:10:58Z</time>
      </trkpt>
      <trkpt lat="43.31146" lon="6.10022">
        <ele>440.13671875</ele>
        <time>2021-12-30T14:11:01Z</time>
      </trkpt>
      <trkpt lat="43.31119" lon="6.10032">
        <ele>442.7265625</ele>
        <time>2021-12-30T14:11:10Z</time>
      </trkpt>
      <trkpt lat="43.31092" lon="6.10038">
        <ele>445.6171875</ele>
        <time>2021-12-30T14:11:17Z</time>
      </trkpt>
      <trkpt lat="43.31083" lon="6.10035">
        <ele>447.80859375</ele>
        <time>2021-12-30T14:11:19Z</time>
      </trkpt>
      <trkpt lat="43.31079" lon="6.10033">
        <ele>448.9375</ele>
        <time>2021-12-30T14:11:20Z</time>
      </trkpt>
      <trkpt lat="43.31075" lon="6.10029">
        <ele>450.203125</ele>
        <time>2021-12-30T14:11:21Z</time>
      </trkpt>
      <trkpt lat="43.31067" lon="6.10023">
        <ele>452.35546875</ele>
        <time>2021-12-30T14:11:23Z</time>
      </trkpt>
      <trkpt lat="43.31062" lon="6.10022">
        <ele>452.7734375</ele>
        <time>2021-12-30T14:11:24Z</time>
      </trkpt>
      <trkpt lat="43.31057" lon="6.10023">
        <ele>452.765625</ele>
        <time>2021-12-30T14:11:25Z</time>
      </trkpt>
      <trkpt lat="43.31053" lon="6.10027">
        <ele>452.80859375</ele>
        <time>2021-12-30T14:11:26Z</time>
      </trkpt>
      <trkpt lat="43.31051" lon="6.10032">
        <ele>452.57421875</ele>
        <time>2021-12-30T14:11:27Z</time>
      </trkpt>
      <trkpt lat="43.31049" lon="6.10037">
        <ele>452.2265625</ele>
        <time>2021-12-30T14:11:28Z</time>
      </trkpt>
      <trkpt lat="43.3104" lon="6.10062">
        <ele>452.04296875</ele>
        <time>2021-12-30T14:11:35Z</time>
      </trkpt>
      <trkpt lat="43.31027" lon="6.10085">
        <ele>455.14453125</ele>
        <time>2021-12-30T14:11:42Z</time>
      </trkpt>
      <trkpt lat="43.31022" lon="6.10095">
        <ele>457.00390625</ele>
        <time>2021-12-30T14:11:45Z</time>
      </trkpt>
      <trkpt lat="43.31" lon="6.10133">
        <ele>462.7734375</ele>
        <time>2021-12-30T14:11:54Z</time>
      </trkpt>
      <trkpt lat="43.30998" lon="6.10138">
        <ele>464.23828125</ele>
        <time>2021-12-30T14:11:55Z</time>
      </trkpt>
      <trkpt lat="43.30985" lon="6.10167">
        <ele>470.09375</ele>
        <time>2021-12-30T14:12:01Z</time>
      </trkpt>
      <trkpt lat="43.30984" lon="6.10173">
        <ele>470.73046875</ele>
        <time>2021-12-30T14:12:02Z</time>
      </trkpt>
      <trkpt lat="43.30984" lon="6.10178">
        <ele>471.234375</ele>
        <time>2021-12-30T14:12:03Z</time>
      </trkpt>
      <trkpt lat="43.30984" lon="6.10182">
        <ele>471.6484375</ele>
        <time>2021-12-30T14:12:04Z</time>
      </trkpt>
      <trkpt lat="43.30984" lon="6.10187">
        <ele>471.98046875</ele>
        <time>2021-12-30T14:12:05Z</time>
      </trkpt>
      <trkpt lat="43.30981" lon="6.10198">
        <ele>472.8984375</ele>
        <time>2021-12-30T14:12:08Z</time>
      </trkpt>
      <trkpt lat="43.30979" lon="6.102">
        <ele>473.171875</ele>
        <time>2021-12-30T14:12:09Z</time>
      </trkpt>
      <trkpt lat="43.30977" lon="6.10202">
        <ele>473.3671875</ele>
        <time>2021-12-30T14:12:10Z</time>
      </trkpt>
      <trkpt lat="43.30974" lon="6.10203">
        <ele>473.58984375</ele>
        <time>2021-12-30T14:12:12Z</time>
      </trkpt>
      <trkpt lat="43.30971" lon="6.10204">
        <ele>473.77734375</ele>
        <time>2021-12-30T14:12:25Z</time>
      </trkpt>
      <trkpt lat="43.30971" lon="6.10205">
        <ele>473.8203125</ele>
        <time>2021-12-30T14:12:47Z</time>
      </trkpt>
      <trkpt lat="43.30972" lon="6.10204">
        <ele>473.76171875</ele>
        <time>2021-12-30T14:13:04Z</time>
      </trkpt>
      <trkpt lat="43.30971" lon="6.10204">
        <ele>473.7890625</ele>
        <time>2021-12-30T14:13:23Z</time>
      </trkpt>
      <trkpt lat="43.3097" lon="6.10205">
        <ele>473.87109375</ele>
        <time>2021-12-30T14:13:40Z</time>
      </trkpt>
      <trkpt lat="43.3097" lon="6.10206">
        <ele>473.890625</ele>
        <time>2021-12-30T14:14:02Z</time>
      </trkpt>
      <trkpt lat="43.3097" lon="6.10209">
        <ele>473.99609375</ele>
        <time>2021-12-30T14:14:16Z</time>
      </trkpt>
      <trkpt lat="43.3097" lon="6.10211">
        <ele>474.0859375</ele>
        <time>2021-12-30T14:14:17Z</time>
      </trkpt>
      <trkpt lat="43.30969" lon="6.10214">
        <ele>474.08984375</ele>
        <time>2021-12-30T14:14:18Z</time>
      </trkpt>
      <trkpt lat="43.3097" lon="6.10217">
        <ele>474.046875</ele>
        <time>2021-12-30T14:14:19Z</time>
      </trkpt>
      <trkpt lat="43.30972" lon="6.1022">
        <ele>474</ele>
        <time>2021-12-30T14:14:20Z</time>
      </trkpt>
      <trkpt lat="43.30975" lon="6.10223">
        <ele>473.98046875</ele>
        <time>2021-12-30T14:14:21Z</time>
      </trkpt>
      <trkpt lat="43.30983" lon="6.1023">
        <ele>474.1328125</ele>
        <time>2021-12-30T14:14:23Z</time>
      </trkpt>
      <trkpt lat="43.30986" lon="6.10236">
        <ele>474.3828125</ele>
        <time>2021-12-30T14:14:24Z</time>
      </trkpt>
      <trkpt lat="43.30989" lon="6.10243">
        <ele>474.6484375</ele>
        <time>2021-12-30T14:14:25Z</time>
      </trkpt>
      <trkpt lat="43.30996" lon="6.10258">
        <ele>475.33203125</ele>
        <time>2021-12-30T14:14:27Z</time>
      </trkpt>
      <trkpt lat="43.31004" lon="6.10271">
        <ele>476.5625</ele>
        <time>2021-12-30T14:14:29Z</time>
      </trkpt>
      <trkpt lat="43.31008" lon="6.10277">
        <ele>477.140625</ele>
        <time>2021-12-30T14:14:30Z</time>
      </trkpt>
      <trkpt lat="43.31011" lon="6.10282">
        <ele>477.62890625</ele>
        <time>2021-12-30T14:14:31Z</time>
      </trkpt>
      <trkpt lat="43.31014" lon="6.10289">
        <ele>478.046875</ele>
        <time>2021-12-30T14:14:32Z</time>
      </trkpt>
      <trkpt lat="43.31017" lon="6.10295">
        <ele>478.41015625</ele>
        <time>2021-12-30T14:14:33Z</time>
      </trkpt>
      <trkpt lat="43.31029" lon="6.10337">
        <ele>480.5625</ele>
        <time>2021-12-30T14:14:43Z</time>
      </trkpt>
      <trkpt lat="43.31035" lon="6.10355">
        <ele>480.98828125</ele>
        <time>2021-12-30T14:14:52Z</time>
      </trkpt>
      <trkpt lat="43.31047" lon="6.10374">
        <ele>483.55078125</ele>
        <time>2021-12-30T14:15:03Z</time>
      </trkpt>
      <trkpt lat="43.31066" lon="6.10399">
        <ele>486.390625</ele>
        <time>2021-12-30T14:15:16Z</time>
      </trkpt>
      <trkpt lat="43.31069" lon="6.10402">
        <ele>486.64453125</ele>
        <time>2021-12-30T14:15:18Z</time>
      </trkpt>
      <trkpt lat="43.31088" lon="6.10423">
        <ele>489.94140625</ele>
        <time>2021-12-30T14:15:33Z</time>
      </trkpt>
      <trkpt lat="43.31105" lon="6.10437">
        <ele>490.78125</ele>
        <time>2021-12-30T14:15:45Z</time>
      </trkpt>
      <trkpt lat="43.31108" lon="6.10441">
        <ele>491.21484375</ele>
        <time>2021-12-30T14:15:48Z</time>
      </trkpt>
      <trkpt lat="43.3111" lon="6.10443">
        <ele>491.515625</ele>
        <time>2021-12-30T14:15:49Z</time>
      </trkpt>
      <trkpt lat="43.31111" lon="6.10445">
        <ele>491.8125</ele>
        <time>2021-12-30T14:15:50Z</time>
      </trkpt>
      <trkpt lat="43.31119" lon="6.10459">
        <ele>493.7421875</ele>
        <time>2021-12-30T14:15:59Z</time>
      </trkpt>
      <trkpt lat="43.31129" lon="6.10481">
        <ele>498.57421875</ele>
        <time>2021-12-30T14:16:12Z</time>
      </trkpt>
      <trkpt lat="43.31136" lon="6.10502">
        <ele>503.62109375</ele>
        <time>2021-12-30T14:16:23Z</time>
      </trkpt>
      <trkpt lat="43.31141" lon="6.10514">
        <ele>506.640625</ele>
        <time>2021-12-30T14:16:30Z</time>
      </trkpt>
      <trkpt lat="43.31142" lon="6.10516">
        <ele>507.06640625</ele>
        <time>2021-12-30T14:16:31Z</time>
      </trkpt>
      <trkpt lat="43.31143" lon="6.10518">
        <ele>507.33984375</ele>
        <time>2021-12-30T14:16:32Z</time>
      </trkpt>
      <trkpt lat="43.31144" lon="6.1052">
        <ele>507.5546875</ele>
        <time>2021-12-30T14:16:33Z</time>
      </trkpt>
      <trkpt lat="43.31145" lon="6.10522">
        <ele>507.8671875</ele>
        <time>2021-12-30T14:16:34Z</time>
      </trkpt>
      <trkpt lat="43.31146" lon="6.10524">
        <ele>508.18359375</ele>
        <time>2021-12-30T14:16:35Z</time>
      </trkpt>
      <trkpt lat="43.31147" lon="6.10526">
        <ele>508.47265625</ele>
        <time>2021-12-30T14:16:36Z</time>
      </trkpt>
      <trkpt lat="43.31148" lon="6.10528">
        <ele>508.7109375</ele>
        <time>2021-12-30T14:16:37Z</time>
      </trkpt>
      <trkpt lat="43.31149" lon="6.10531">
        <ele>509.1484375</ele>
        <time>2021-12-30T14:16:39Z</time>
      </trkpt>
      <trkpt lat="43.3115" lon="6.10533">
        <ele>509.34765625</ele>
        <time>2021-12-30T14:16:40Z</time>
      </trkpt>
      <trkpt lat="43.3117" lon="6.10554">
        <ele>509.16015625</ele>
        <time>2021-12-30T14:16:52Z</time>
      </trkpt>
      <trkpt lat="43.31171" lon="6.10556">
        <ele>509.1640625</ele>
        <time>2021-12-30T14:16:53Z</time>
      </trkpt>
      <trkpt lat="43.31181" lon="6.10566">
        <ele>507.515625</ele>
        <time>2021-12-30T14:17:00Z</time>
      </trkpt>
      <trkpt lat="43.31185" lon="6.10573">
        <ele>507.4140625</ele>
        <time>2021-12-30T14:17:05Z</time>
      </trkpt>
      <trkpt lat="43.31187" lon="6.10575">
        <ele>507.328125</ele>
        <time>2021-12-30T14:17:06Z</time>
      </trkpt>
      <trkpt lat="43.31188" lon="6.10577">
        <ele>507.29296875</ele>
        <time>2021-12-30T14:17:07Z</time>
      </trkpt>
      <trkpt lat="43.31189" lon="6.1058">
        <ele>507.296875</ele>
        <time>2021-12-30T14:17:08Z</time>
      </trkpt>
      <trkpt lat="43.3119" lon="6.10582">
        <ele>507.27734375</ele>
        <time>2021-12-30T14:17:09Z</time>
      </trkpt>
      <trkpt lat="43.31194" lon="6.10618">
        <ele>512.890625</ele>
        <time>2021-12-30T14:17:22Z</time>
      </trkpt>
      <trkpt lat="43.31199" lon="6.10647">
        <ele>518.6171875</ele>
        <time>2021-12-30T14:17:33Z</time>
      </trkpt>
      <trkpt lat="43.31199" lon="6.10649">
        <ele>519.15625</ele>
        <time>2021-12-30T14:17:34Z</time>
      </trkpt>
      <trkpt lat="43.31201" lon="6.10658">
        <ele>521.0546875</ele>
        <time>2021-12-30T14:17:37Z</time>
      </trkpt>
      <trkpt lat="43.31201" lon="6.1066">
        <ele>521.83203125</ele>
        <time>2021-12-30T14:17:38Z</time>
      </trkpt>
      <trkpt lat="43.31201" lon="6.10663">
        <ele>522.51953125</ele>
        <time>2021-12-30T14:17:39Z</time>
      </trkpt>
      <trkpt lat="43.31202" lon="6.10666">
        <ele>523.16796875</ele>
        <time>2021-12-30T14:17:40Z</time>
      </trkpt>
      <trkpt lat="43.31203" lon="6.10668">
        <ele>523.78125</ele>
        <time>2021-12-30T14:17:41Z</time>
      </trkpt>
      <trkpt lat="43.31204" lon="6.10671">
        <ele>524.42578125</ele>
        <time>2021-12-30T14:17:42Z</time>
      </trkpt>
      <trkpt lat="43.31205" lon="6.10674">
        <ele>525.015625</ele>
        <time>2021-12-30T14:17:43Z</time>
      </trkpt>
      <trkpt lat="43.31208" lon="6.10681">
        <ele>526.47265625</ele>
        <time>2021-12-30T14:17:46Z</time>
      </trkpt>
      <trkpt lat="43.31209" lon="6.10683">
        <ele>526.65625</ele>
        <time>2021-12-30T14:17:47Z</time>
      </trkpt>
      <trkpt lat="43.31224" lon="6.10705">
        <ele>529.53515625</ele>
        <time>2021-12-30T14:17:58Z</time>
      </trkpt>
      <trkpt lat="43.31225" lon="6.10707">
        <ele>529.78515625</ele>
        <time>2021-12-30T14:17:59Z</time>
      </trkpt>
      <trkpt lat="43.31235" lon="6.1072">
        <ele>530.95703125</ele>
        <time>2021-12-30T14:18:05Z</time>
      </trkpt>
      <trkpt lat="43.31247" lon="6.10739">
        <ele>534.0390625</ele>
        <time>2021-12-30T14:18:14Z</time>
      </trkpt>
      <trkpt lat="43.3125" lon="6.10748">
        <ele>536.0859375</ele>
        <time>2021-12-30T14:18:18Z</time>
      </trkpt>
      <trkpt lat="43.31251" lon="6.10749">
        <ele>536.32421875</ele>
        <time>2021-12-30T14:18:19Z</time>
      </trkpt>
      <trkpt lat="43.31252" lon="6.10751">
        <ele>536.6953125</ele>
        <time>2021-12-30T14:18:20Z</time>
      </trkpt>
      <trkpt lat="43.31263" lon="6.10775">
        <ele>542.20703125</ele>
        <time>2021-12-30T14:18:31Z</time>
      </trkpt>
      <trkpt lat="43.31263" lon="6.10777">
        <ele>542.71875</ele>
        <time>2021-12-30T14:18:32Z</time>
      </trkpt>
      <trkpt lat="43.31264" lon="6.10779">
        <ele>543.18359375</ele>
        <time>2021-12-30T14:18:33Z</time>
      </trkpt>
      <trkpt lat="43.31265" lon="6.10781">
        <ele>543.59765625</ele>
        <time>2021-12-30T14:18:34Z</time>
      </trkpt>
      <trkpt lat="43.31266" lon="6.10783">
        <ele>544.08984375</ele>
        <time>2021-12-30T14:18:35Z</time>
      </trkpt>
      <trkpt lat="43.31267" lon="6.10785">
        <ele>544.38671875</ele>
        <time>2021-12-30T14:18:36Z</time>
      </trkpt>
      <trkpt lat="43.31268" lon="6.10786">
        <ele>544.7109375</ele>
        <time>2021-12-30T14:18:37Z</time>
      </trkpt>
      <trkpt lat="43.31269" lon="6.10788">
        <ele>545.15625</ele>
        <time>2021-12-30T14:18:38Z</time>
      </trkpt>
      <trkpt lat="43.31271" lon="6.10792">
        <ele>545.828125</ele>
        <time>2021-12-30T14:18:40Z</time>
      </trkpt>
      <trkpt lat="43.31277" lon="6.108">
        <ele>547.12890625</ele>
        <time>2021-12-30T14:18:53Z</time>
      </trkpt>
      <trkpt lat="43.3128" lon="6.10806">
        <ele>549.33984375</ele>
        <time>2021-12-30T14:19:08Z</time>
      </trkpt>
      <trkpt lat="43.31282" lon="6.1081">
        <ele>551.36328125</ele>
        <time>2021-12-30T14:19:35Z</time>
      </trkpt>
      <trkpt lat="43.31282" lon="6.10816">
        <ele>553.32421875</ele>
        <time>2021-12-30T14:19:48Z</time>
      </trkpt>
      <trkpt lat="43.31285" lon="6.10817">
        <ele>554.19140625</ele>
        <time>2021-12-30T14:20:08Z</time>
      </trkpt>
      <trkpt lat="43.31284" lon="6.10819">
        <ele>554.67578125</ele>
        <time>2021-12-30T14:20:24Z</time>
      </trkpt>
      <trkpt lat="43.31282" lon="6.10823">
        <ele>555.8359375</ele>
        <time>2021-12-30T14:20:49Z</time>
      </trkpt>
      <trkpt lat="43.31284" lon="6.10827">
        <ele>557.12109375</ele>
        <time>2021-12-30T14:21:04Z</time>
      </trkpt>
      <trkpt lat="43.31284" lon="6.10827">
        <ele>557.1953125</ele>
        <time>2021-12-30T14:21:18Z</time>
      </trkpt>
      <trkpt lat="43.31288" lon="6.10832">
        <ele>558.92578125</ele>
        <time>2021-12-30T14:21:34Z</time>
      </trkpt>
      <trkpt lat="43.31291" lon="6.10836">
        <ele>560.453125</ele>
        <time>2021-12-30T14:21:48Z</time>
      </trkpt>
      <trkpt lat="43.31294" lon="6.10839">
        <ele>561.4140625</ele>
        <time>2021-12-30T14:22:00Z</time>
      </trkpt>
      <trkpt lat="43.31298" lon="6.10842">
        <ele>562.4921875</ele>
        <time>2021-12-30T14:22:14Z</time>
      </trkpt>
      <trkpt lat="43.31303" lon="6.10848">
        <ele>564.40625</ele>
        <time>2021-12-30T14:22:29Z</time>
      </trkpt>
      <trkpt lat="43.31309" lon="6.10853">
        <ele>565.796875</ele>
        <time>2021-12-30T14:22:43Z</time>
      </trkpt>
      <trkpt lat="43.3131" lon="6.10853">
        <ele>565.984375</ele>
        <time>2021-12-30T14:22:44Z</time>
      </trkpt>
      <trkpt lat="43.31315" lon="6.10856">
        <ele>566.78515625</ele>
        <time>2021-12-30T14:22:47Z</time>
      </trkpt>
      <trkpt lat="43.31319" lon="6.10859">
        <ele>567.64453125</ele>
        <time>2021-12-30T14:22:51Z</time>
      </trkpt>
      <trkpt lat="43.31323" lon="6.10864">
        <ele>568.5234375</ele>
        <time>2021-12-30T14:22:55Z</time>
      </trkpt>
      <trkpt lat="43.31324" lon="6.10867">
        <ele>568.9921875</ele>
        <time>2021-12-30T14:22:57Z</time>
      </trkpt>
      <trkpt lat="43.31323" lon="6.10873">
        <ele>569.69140625</ele>
        <time>2021-12-30T14:23:01Z</time>
      </trkpt>
      <trkpt lat="43.3132" lon="6.10883">
        <ele>569.9375</ele>
        <time>2021-12-30T14:23:07Z</time>
      </trkpt>
      <trkpt lat="43.31318" lon="6.10891">
        <ele>569.671875</ele>
        <time>2021-12-30T14:23:23Z</time>
      </trkpt>
      <trkpt lat="43.31317" lon="6.10899">
        <ele>569.515625</ele>
        <time>2021-12-30T14:23:37Z</time>
      </trkpt>
      <trkpt lat="43.31317" lon="6.109">
        <ele>569.5</ele>
        <time>2021-12-30T14:23:40Z</time>
      </trkpt>
      <trkpt lat="43.31317" lon="6.1091">
        <ele>569.16015625</ele>
        <time>2021-12-30T14:23:50Z</time>
      </trkpt>
      <trkpt lat="43.31317" lon="6.10917">
        <ele>568.859375</ele>
        <time>2021-12-30T14:24:02Z</time>
      </trkpt>
      <trkpt lat="43.31319" lon="6.10916">
        <ele>568.91796875</ele>
        <time>2021-12-30T14:24:28Z</time>
      </trkpt>
      <trkpt lat="43.3132" lon="6.10917">
        <ele>568.90625</ele>
        <time>2021-12-30T14:25:04Z</time>
      </trkpt>
      <trkpt lat="43.31318" lon="6.10916">
        <ele>568.90625</ele>
        <time>2021-12-30T14:25:38Z</time>
      </trkpt>
      <trkpt lat="43.31318" lon="6.10914">
        <ele>569.02734375</ele>
        <time>2021-12-30T14:26:13Z</time>
      </trkpt>
      <trkpt lat="43.31323" lon="6.10915">
        <ele>569.078125</ele>
        <time>2021-12-30T14:26:42Z</time>
      </trkpt>
      <trkpt lat="43.31326" lon="6.10913">
        <ele>569.2578125</ele>
        <time>2021-12-30T14:27:17Z</time>
      </trkpt>
      <trkpt lat="43.31324" lon="6.10915">
        <ele>569.10546875</ele>
        <time>2021-12-30T14:27:49Z</time>
      </trkpt>
      <trkpt lat="43.31322" lon="6.10915">
        <ele>569.07421875</ele>
        <time>2021-12-30T14:28:22Z</time>
      </trkpt>
      <trkpt lat="43.31321" lon="6.10914">
        <ele>569.078125</ele>
        <time>2021-12-30T14:28:50Z</time>
      </trkpt>
      <trkpt lat="43.3132" lon="6.10913">
        <ele>569.1171875</ele>
        <time>2021-12-30T14:29:25Z</time>
      </trkpt>
      <trkpt lat="43.31321" lon="6.10915">
        <ele>569.04296875</ele>
        <time>2021-12-30T14:29:50Z</time>
      </trkpt>
      <trkpt lat="43.31319" lon="6.10916">
        <ele>568.91796875</ele>
        <time>2021-12-30T14:30:25Z</time>
      </trkpt>
      <trkpt lat="43.31319" lon="6.10915">
        <ele>569.01171875</ele>
        <time>2021-12-30T14:30:50Z</time>
      </trkpt>
      <trkpt lat="43.31318" lon="6.10915">
        <ele>568.9765625</ele>
        <time>2021-12-30T14:31:12Z</time>
      </trkpt>
      <trkpt lat="43.31321" lon="6.10917">
        <ele>568.9296875</ele>
        <time>2021-12-30T14:31:30Z</time>
      </trkpt>
      <trkpt lat="43.31321" lon="6.10912">
        <ele>569.22265625</ele>
        <time>2021-12-30T14:31:46Z</time>
      </trkpt>
      <trkpt lat="43.31321" lon="6.10911">
        <ele>569.26171875</ele>
        <time>2021-12-30T14:31:53Z</time>
      </trkpt>
      <trkpt lat="43.31325" lon="6.10905">
        <ele>569.70703125</ele>
        <time>2021-12-30T14:32:00Z</time>
      </trkpt>
      <trkpt lat="43.31337" lon="6.10906">
        <ele>570.30859375</ele>
        <time>2021-12-30T14:32:07Z</time>
      </trkpt>
      <trkpt lat="43.31341" lon="6.1091">
        <ele>570.2109375</ele>
        <time>2021-12-30T14:32:10Z</time>
      </trkpt>
      <trkpt lat="43.31364" lon="6.10897">
        <ele>572.40234375</ele>
        <time>2021-12-30T14:32:21Z</time>
      </trkpt>
      <trkpt lat="43.31385" lon="6.10882">
        <ele>572.98046875</ele>
        <time>2021-12-30T14:32:31Z</time>
      </trkpt>
      <trkpt lat="43.31401" lon="6.10879">
        <ele>572.1328125</ele>
        <time>2021-12-30T14:32:39Z</time>
      </trkpt>
      <trkpt lat="43.3141" lon="6.10877">
        <ele>571.44921875</ele>
        <time>2021-12-30T14:32:43Z</time>
      </trkpt>
      <trkpt lat="43.31421" lon="6.10872">
        <ele>569.98046875</ele>
        <time>2021-12-30T14:32:53Z</time>
      </trkpt>
      <trkpt lat="43.31432" lon="6.10877">
        <ele>569.76953125</ele>
        <time>2021-12-30T14:33:20Z</time>
      </trkpt>
      <trkpt lat="43.31438" lon="6.10885">
        <ele>570.171875</ele>
        <time>2021-12-30T14:33:24Z</time>
      </trkpt>
      <trkpt lat="43.31467" lon="6.10893">
        <ele>569.46875</ele>
        <time>2021-12-30T14:33:34Z</time>
      </trkpt>
      <trkpt lat="43.3149" lon="6.10894">
        <ele>567.41796875</ele>
        <time>2021-12-30T14:33:43Z</time>
      </trkpt>
      <trkpt lat="43.31497" lon="6.10893">
        <ele>566.61328125</ele>
        <time>2021-12-30T14:33:46Z</time>
      </trkpt>
      <trkpt lat="43.31505" lon="6.109">
        <ele>567.28515625</ele>
        <time>2021-12-30T14:33:50Z</time>
      </trkpt>
      <trkpt lat="43.31519" lon="6.10901">
        <ele>566.3984375</ele>
        <time>2021-12-30T14:33:54Z</time>
      </trkpt>
      <trkpt lat="43.31529" lon="6.10899">
        <ele>565.28125</ele>
        <time>2021-12-30T14:33:56Z</time>
      </trkpt>
      <trkpt lat="43.31537" lon="6.109">
        <ele>564.7578125</ele>
        <time>2021-12-30T14:33:58Z</time>
      </trkpt>
      <trkpt lat="43.31559" lon="6.10906">
        <ele>564.74609375</ele>
        <time>2021-12-30T14:34:04Z</time>
      </trkpt>
      <trkpt lat="43.31575" lon="6.10915">
        <ele>565.07421875</ele>
        <time>2021-12-30T14:34:09Z</time>
      </trkpt>
      <trkpt lat="43.31601" lon="6.10923">
        <ele>564.25390625</ele>
        <time>2021-12-30T14:34:19Z</time>
      </trkpt>
      <trkpt lat="43.31614" lon="6.10925">
        <ele>562.41796875</ele>
        <time>2021-12-30T14:34:23Z</time>
      </trkpt>
      <trkpt lat="43.31637" lon="6.10943">
        <ele>556.4609375</ele>
        <time>2021-12-30T14:34:33Z</time>
      </trkpt>
      <trkpt lat="43.31639" lon="6.10945">
        <ele>555.765625</ele>
        <time>2021-12-30T14:34:34Z</time>
      </trkpt>
      <trkpt lat="43.31643" lon="6.10948">
        <ele>554.28125</ele>
        <time>2021-12-30T14:34:36Z</time>
      </trkpt>
      <trkpt lat="43.31657" lon="6.10978">
        <ele>550.12890625</ele>
        <time>2021-12-30T14:34:47Z</time>
      </trkpt>
      <trkpt lat="43.31663" lon="6.11002">
        <ele>547.66015625</ele>
        <time>2021-12-30T14:34:54Z</time>
      </trkpt>
      <trkpt lat="43.31656" lon="6.11029">
        <ele>549.6328125</ele>
        <time>2021-12-30T14:35:09Z</time>
      </trkpt>
      <trkpt lat="43.31654" lon="6.11045">
        <ele>549.87109375</ele>
        <time>2021-12-30T14:35:35Z</time>
      </trkpt>
      <trkpt lat="43.31655" lon="6.11054">
        <ele>549.05859375</ele>
        <time>2021-12-30T14:35:37Z</time>
      </trkpt>
      <trkpt lat="43.31653" lon="6.11072">
        <ele>549.3046875</ele>
        <time>2021-12-30T14:35:43Z</time>
      </trkpt>
      <trkpt lat="43.31654" lon="6.11086">
        <ele>548.01171875</ele>
        <time>2021-12-30T14:35:47Z</time>
      </trkpt>
      <trkpt lat="43.31654" lon="6.11092">
        <ele>547.890625</ele>
        <time>2021-12-30T14:35:49Z</time>
      </trkpt>
      <trkpt lat="43.3165" lon="6.11108">
        <ele>548.07421875</ele>
        <time>2021-12-30T14:35:54Z</time>
      </trkpt>
      <trkpt lat="43.31647" lon="6.11114">
        <ele>548.55859375</ele>
        <time>2021-12-30T14:35:56Z</time>
      </trkpt>
      <trkpt lat="43.31637" lon="6.11125">
        <ele>550.62890625</ele>
        <time>2021-12-30T14:36:01Z</time>
      </trkpt>
      <trkpt lat="43.31636" lon="6.11142">
        <ele>548.94140625</ele>
        <time>2021-12-30T14:36:06Z</time>
      </trkpt>
      <trkpt lat="43.31633" lon="6.1115">
        <ele>548.6171875</ele>
        <time>2021-12-30T14:36:13Z</time>
      </trkpt>
      <trkpt lat="43.31627" lon="6.1117">
        <ele>546</ele>
        <time>2021-12-30T14:36:20Z</time>
      </trkpt>
      <trkpt lat="43.31622" lon="6.11181">
        <ele>544.44921875</ele>
        <time>2021-12-30T14:36:23Z</time>
      </trkpt>
      <trkpt lat="43.31618" lon="6.11185">
        <ele>544.203125</ele>
        <time>2021-12-30T14:36:25Z</time>
      </trkpt>
      <trkpt lat="43.3161" lon="6.11197">
        <ele>542.578125</ele>
        <time>2021-12-30T14:36:29Z</time>
      </trkpt>
      <trkpt lat="43.31611" lon="6.11211">
        <ele>539.05859375</ele>
        <time>2021-12-30T14:36:33Z</time>
      </trkpt>
      <trkpt lat="43.3161" lon="6.11228">
        <ele>534.93359375</ele>
        <time>2021-12-30T14:36:37Z</time>
      </trkpt>
      <trkpt lat="43.31611" lon="6.11242">
        <ele>531.09375</ele>
        <time>2021-12-30T14:36:41Z</time>
      </trkpt>
      <trkpt lat="43.31609" lon="6.11252">
        <ele>528.9140625</ele>
        <time>2021-12-30T14:36:44Z</time>
      </trkpt>
      <trkpt lat="43.31611" lon="6.11264">
        <ele>525.6953125</ele>
        <time>2021-12-30T14:36:48Z</time>
      </trkpt>
      <trkpt lat="43.31611" lon="6.11267">
        <ele>524.78125</ele>
        <time>2021-12-30T14:36:50Z</time>
      </trkpt>
      <trkpt lat="43.31614" lon="6.11271">
        <ele>523.796875</ele>
        <time>2021-12-30T14:36:53Z</time>
      </trkpt>
      <trkpt lat="43.31615" lon="6.11276">
        <ele>522.8359375</ele>
        <time>2021-12-30T14:36:55Z</time>
      </trkpt>
      <trkpt lat="43.31615" lon="6.11277">
        <ele>522.5234375</ele>
        <time>2021-12-30T14:36:56Z</time>
      </trkpt>
      <trkpt lat="43.31622" lon="6.11292">
        <ele>518.57421875</ele>
        <time>2021-12-30T14:37:00Z</time>
      </trkpt>
      <trkpt lat="43.31626" lon="6.11302">
        <ele>516.09375</ele>
        <time>2021-12-30T14:37:03Z</time>
      </trkpt>
      <trkpt lat="43.31627" lon="6.11307">
        <ele>515.28515625</ele>
        <time>2021-12-30T14:37:04Z</time>
      </trkpt>
      <trkpt lat="43.31628" lon="6.11319">
        <ele>513.34375</ele>
        <time>2021-12-30T14:37:06Z</time>
      </trkpt>
      <trkpt lat="43.31636" lon="6.11323">
        <ele>510.40234375</ele>
        <time>2021-12-30T14:37:10Z</time>
      </trkpt>
      <trkpt lat="43.31643" lon="6.11326">
        <ele>508.03125</ele>
        <time>2021-12-30T14:37:21Z</time>
      </trkpt>
      <trkpt lat="43.31647" lon="6.11327">
        <ele>506.93359375</ele>
        <time>2021-12-30T14:37:41Z</time>
      </trkpt>
      <trkpt lat="43.31648" lon="6.11323">
        <ele>507.4296875</ele>
        <time>2021-12-30T14:38:06Z</time>
      </trkpt>
      <trkpt lat="43.31648" lon="6.11325">
        <ele>507.109375</ele>
        <time>2021-12-30T14:38:39Z</time>
      </trkpt>
      <trkpt lat="43.31646" lon="6.11329">
        <ele>506.921875</ele>
        <time>2021-12-30T14:39:02Z</time>
      </trkpt>
      <trkpt lat="43.31648" lon="6.11332">
        <ele>505.67578125</ele>
        <time>2021-12-30T14:39:29Z</time>
      </trkpt>
      <trkpt lat="43.31648" lon="6.11332">
        <ele>505.625</ele>
        <time>2021-12-30T14:39:31Z</time>
      </trkpt>
      <trkpt lat="43.31651" lon="6.11338">
        <ele>503.7734375</ele>
        <time>2021-12-30T14:39:34Z</time>
      </trkpt>
      <trkpt lat="43.31655" lon="6.11347">
        <ele>500.84765625</ele>
        <time>2021-12-30T14:39:36Z</time>
      </trkpt>
      <trkpt lat="43.31662" lon="6.1135">
        <ele>498.1953125</ele>
        <time>2021-12-30T14:39:38Z</time>
      </trkpt>
      <trkpt lat="43.31665" lon="6.11349">
        <ele>497.53125</ele>
        <time>2021-12-30T14:39:39Z</time>
      </trkpt>
      <trkpt lat="43.31668" lon="6.11348">
        <ele>497.03125</ele>
        <time>2021-12-30T14:39:40Z</time>
      </trkpt>
      <trkpt lat="43.31675" lon="6.11355">
        <ele>494.55078125</ele>
        <time>2021-12-30T14:39:44Z</time>
      </trkpt>
      <trkpt lat="43.31678" lon="6.11359">
        <ele>493.3359375</ele>
        <time>2021-12-30T14:39:46Z</time>
      </trkpt>
      <trkpt lat="43.31688" lon="6.11358">
        <ele>491.390625</ele>
        <time>2021-12-30T14:39:50Z</time>
      </trkpt>
      <trkpt lat="43.31699" lon="6.11362">
        <ele>489.01171875</ele>
        <time>2021-12-30T14:39:54Z</time>
      </trkpt>
      <trkpt lat="43.31704" lon="6.11361">
        <ele>488.90234375</ele>
        <time>2021-12-30T14:39:56Z</time>
      </trkpt>
      <trkpt lat="43.31708" lon="6.11363">
        <ele>488.265625</ele>
        <time>2021-12-30T14:40:00Z</time>
      </trkpt>
      <trkpt lat="43.31709" lon="6.11365">
        <ele>487.5078125</ele>
        <time>2021-12-30T14:40:02Z</time>
      </trkpt>
      <trkpt lat="43.3171" lon="6.11368">
        <ele>486.57421875</ele>
        <time>2021-12-30T14:40:04Z</time>
      </trkpt>
      <trkpt lat="43.31728" lon="6.11374">
        <ele>484.390625</ele>
        <time>2021-12-30T14:40:09Z</time>
      </trkpt>
      <trkpt lat="43.31735" lon="6.11384">
        <ele>482.08984375</ele>
        <time>2021-12-30T14:40:13Z</time>
      </trkpt>
      <trkpt lat="43.31735" lon="6.11384">
        <ele>481.8671875</ele>
        <time>2021-12-30T14:40:14Z</time>
      </trkpt>
      <trkpt lat="43.31735" lon="6.11385">
        <ele>481.68359375</ele>
        <time>2021-12-30T14:40:15Z</time>
      </trkpt>
      <trkpt lat="43.31727" lon="6.11392">
        <ele>479.37109375</ele>
        <time>2021-12-30T14:40:20Z</time>
      </trkpt>
      <trkpt lat="43.31726" lon="6.11395">
        <ele>478.67578125</ele>
        <time>2021-12-30T14:40:21Z</time>
      </trkpt>
      <trkpt lat="43.31725" lon="6.11412">
        <ele>474.6953125</ele>
        <time>2021-12-30T14:40:30Z</time>
      </trkpt>
      <trkpt lat="43.31732" lon="6.11411">
        <ele>474.32421875</ele>
        <time>2021-12-30T14:40:46Z</time>
      </trkpt>
      <trkpt lat="43.31739" lon="6.11416">
        <ele>472.48046875</ele>
        <time>2021-12-30T14:40:54Z</time>
      </trkpt>
      <trkpt lat="43.3174" lon="6.11419">
        <ele>471.5</ele>
        <time>2021-12-30T14:41:01Z</time>
      </trkpt>
      <trkpt lat="43.3174" lon="6.11423">
        <ele>470.35546875</ele>
        <time>2021-12-30T14:41:04Z</time>
      </trkpt>
      <trkpt lat="43.31743" lon="6.11426">
        <ele>468.78125</ele>
        <time>2021-12-30T14:41:20Z</time>
      </trkpt>
      <trkpt lat="43.31744" lon="6.11429">
        <ele>467.6796875</ele>
        <time>2021-12-30T14:41:24Z</time>
      </trkpt>
      <trkpt lat="43.31743" lon="6.1143">
        <ele>467.56640625</ele>
        <time>2021-12-30T14:41:29Z</time>
      </trkpt>
      <trkpt lat="43.31749" lon="6.11438">
        <ele>463.8671875</ele>
        <time>2021-12-30T14:41:35Z</time>
      </trkpt>
      <trkpt lat="43.3175" lon="6.11451">
        <ele>460.38671875</ele>
        <time>2021-12-30T14:41:39Z</time>
      </trkpt>
      <trkpt lat="43.31759" lon="6.11462">
        <ele>455.62890625</ele>
        <time>2021-12-30T14:41:43Z</time>
      </trkpt>
      <trkpt lat="43.31765" lon="6.11463">
        <ele>453.79296875</ele>
        <time>2021-12-30T14:41:51Z</time>
      </trkpt>
      <trkpt lat="43.31771" lon="6.11473">
        <ele>451.01953125</ele>
        <time>2021-12-30T14:41:59Z</time>
      </trkpt>
      <trkpt lat="43.31774" lon="6.11474">
        <ele>450.13671875</ele>
        <time>2021-12-30T14:42:05Z</time>
      </trkpt>
      <trkpt lat="43.31774" lon="6.11497">
        <ele>448.96875</ele>
        <time>2021-12-30T14:42:13Z</time>
      </trkpt>
      <trkpt lat="43.31777" lon="6.11502">
        <ele>448.2109375</ele>
        <time>2021-12-30T14:42:24Z</time>
      </trkpt>
      <trkpt lat="43.31778" lon="6.11506">
        <ele>448.0234375</ele>
        <time>2021-12-30T14:42:38Z</time>
      </trkpt>
      <trkpt lat="43.31775" lon="6.11508">
        <ele>449.25390625</ele>
        <time>2021-12-30T14:42:56Z</time>
      </trkpt>
      <trkpt lat="43.31776" lon="6.11507">
        <ele>448.7265625</ele>
        <time>2021-12-30T14:43:15Z</time>
      </trkpt>
      <trkpt lat="43.31778" lon="6.11509">
        <ele>448.31640625</ele>
        <time>2021-12-30T14:43:33Z</time>
      </trkpt>
      <trkpt lat="43.31779" lon="6.1151">
        <ele>448.12890625</ele>
        <time>2021-12-30T14:43:35Z</time>
      </trkpt>
      <trkpt lat="43.31787" lon="6.11514">
        <ele>445.6015625</ele>
        <time>2021-12-30T14:43:47Z</time>
      </trkpt>
      <trkpt lat="43.31789" lon="6.11519">
        <ele>445.171875</ele>
        <time>2021-12-30T14:43:59Z</time>
      </trkpt>
      <trkpt lat="43.31789" lon="6.11514">
        <ele>444.51953125</ele>
        <time>2021-12-30T14:44:12Z</time>
      </trkpt>
      <trkpt lat="43.31791" lon="6.11514">
        <ele>444.0625</ele>
        <time>2021-12-30T14:44:16Z</time>
      </trkpt>
      <trkpt lat="43.31795" lon="6.11508">
        <ele>442.45703125</ele>
        <time>2021-12-30T14:44:19Z</time>
      </trkpt>
      <trkpt lat="43.31796" lon="6.11504">
        <ele>442.0546875</ele>
        <time>2021-12-30T14:44:27Z</time>
      </trkpt>
      <trkpt lat="43.31795" lon="6.11507">
        <ele>442.42578125</ele>
        <time>2021-12-30T14:44:51Z</time>
      </trkpt>
      <trkpt lat="43.31795" lon="6.11508">
        <ele>442.35546875</ele>
        <time>2021-12-30T14:44:59Z</time>
      </trkpt>
      <trkpt lat="43.31803" lon="6.11503">
        <ele>439.75390625</ele>
        <time>2021-12-30T14:45:03Z</time>
      </trkpt>
      <trkpt lat="43.31807" lon="6.11506">
        <ele>438.60546875</ele>
        <time>2021-12-30T14:45:06Z</time>
      </trkpt>
      <trkpt lat="43.31808" lon="6.11512">
        <ele>438.21875</ele>
        <time>2021-12-30T14:45:09Z</time>
      </trkpt>
      <trkpt lat="43.31818" lon="6.11509">
        <ele>435.71875</ele>
        <time>2021-12-30T14:45:15Z</time>
      </trkpt>
      <trkpt lat="43.31828" lon="6.11509">
        <ele>433.0390625</ele>
        <time>2021-12-30T14:45:22Z</time>
      </trkpt>
      <trkpt lat="43.31836" lon="6.11509">
        <ele>430.95703125</ele>
        <time>2021-12-30T14:45:27Z</time>
      </trkpt>
      <trkpt lat="43.31842" lon="6.11517">
        <ele>429.69921875</ele>
        <time>2021-12-30T14:45:31Z</time>
      </trkpt>
      <trkpt lat="43.31858" lon="6.11535">
        <ele>428.265625</ele>
        <time>2021-12-30T14:45:38Z</time>
      </trkpt>
      <trkpt lat="43.31873" lon="6.11544">
        <ele>426.37109375</ele>
        <time>2021-12-30T14:45:43Z</time>
      </trkpt>
      <trkpt lat="43.31878" lon="6.11546">
        <ele>426.09765625</ele>
        <time>2021-12-30T14:45:44Z</time>
      </trkpt>
      <trkpt lat="43.31885" lon="6.11549">
        <ele>425.8671875</ele>
        <time>2021-12-30T14:45:45Z</time>
      </trkpt>
      <trkpt lat="43.31891" lon="6.11552">
        <ele>426.0859375</ele>
        <time>2021-12-30T14:45:46Z</time>
      </trkpt>
      <trkpt lat="43.31915" lon="6.11561">
        <ele>426.578125</ele>
        <time>2021-12-30T14:45:54Z</time>
      </trkpt>
      <trkpt lat="43.31945" lon="6.11567">
        <ele>424.703125</ele>
        <time>2021-12-30T14:46:03Z</time>
      </trkpt>
      <trkpt lat="43.31975" lon="6.11571">
        <ele>421.16015625</ele>
        <time>2021-12-30T14:46:12Z</time>
      </trkpt>
      <trkpt lat="43.32" lon="6.11577">
        <ele>417.2265625</ele>
        <time>2021-12-30T14:46:19Z</time>
      </trkpt>
      <trkpt lat="43.32016" lon="6.11586">
        <ele>415.2890625</ele>
        <time>2021-12-30T14:46:23Z</time>
      </trkpt>
      <trkpt lat="43.32019" lon="6.11587">
        <ele>414.72265625</ele>
        <time>2021-12-30T14:46:24Z</time>
      </trkpt>
      <trkpt lat="43.32026" lon="6.11589">
        <ele>413.08984375</ele>
        <time>2021-12-30T14:46:28Z</time>
      </trkpt>
      <trkpt lat="43.32029" lon="6.11592">
        <ele>412.8828125</ele>
        <time>2021-12-30T14:46:30Z</time>
      </trkpt>
      <trkpt lat="43.32036" lon="6.11591">
        <ele>410.86328125</ele>
        <time>2021-12-30T14:46:34Z</time>
      </trkpt>
      <trkpt lat="43.32044" lon="6.11585">
        <ele>407.75390625</ele>
        <time>2021-12-30T14:46:37Z</time>
      </trkpt>
      <trkpt lat="43.32046" lon="6.11587">
        <ele>407.5078125</ele>
        <time>2021-12-30T14:46:38Z</time>
      </trkpt>
      <trkpt lat="43.32055" lon="6.11594">
        <ele>406.87109375</ele>
        <time>2021-12-30T14:46:41Z</time>
      </trkpt>
      <trkpt lat="43.32069" lon="6.11599">
        <ele>404.3984375</ele>
        <time>2021-12-30T14:46:44Z</time>
      </trkpt>
      <trkpt lat="43.32096" lon="6.11605">
        <ele>398.99609375</ele>
        <time>2021-12-30T14:46:50Z</time>
      </trkpt>
      <trkpt lat="43.32111" lon="6.1161">
        <ele>396.44140625</ele>
        <time>2021-12-30T14:46:54Z</time>
      </trkpt>
      <trkpt lat="43.32129" lon="6.11627">
        <ele>396.89453125</ele>
        <time>2021-12-30T14:46:58Z</time>
      </trkpt>
      <trkpt lat="43.32149" lon="6.11641">
        <ele>396.00390625</ele>
        <time>2021-12-30T14:47:02Z</time>
      </trkpt>
      <trkpt lat="43.32163" lon="6.11652">
        <ele>395.76953125</ele>
        <time>2021-12-30T14:47:05Z</time>
      </trkpt>
      <trkpt lat="43.32185" lon="6.11671">
        <ele>394.515625</ele>
        <time>2021-12-30T14:47:10Z</time>
      </trkpt>
      <trkpt lat="43.32203" lon="6.11691">
        <ele>393.91015625</ele>
        <time>2021-12-30T14:47:14Z</time>
      </trkpt>
      <trkpt lat="43.32215" lon="6.11701">
        <ele>392.3984375</ele>
        <time>2021-12-30T14:47:17Z</time>
      </trkpt>
      <trkpt lat="43.32224" lon="6.117">
        <ele>389.31640625</ele>
        <time>2021-12-30T14:47:20Z</time>
      </trkpt>
      <trkpt lat="43.32229" lon="6.11692">
        <ele>384.8203125</ele>
        <time>2021-12-30T14:47:23Z</time>
      </trkpt>
      <trkpt lat="43.3223" lon="6.11688">
        <ele>383.40625</ele>
        <time>2021-12-30T14:47:24Z</time>
      </trkpt>
      <trkpt lat="43.32231" lon="6.11683">
        <ele>381.58984375</ele>
        <time>2021-12-30T14:47:25Z</time>
      </trkpt>
      <trkpt lat="43.32232" lon="6.11678">
        <ele>379.66796875</ele>
        <time>2021-12-30T14:47:26Z</time>
      </trkpt>
      <trkpt lat="43.32233" lon="6.11674">
        <ele>378.33203125</ele>
        <time>2021-12-30T14:47:27Z</time>
      </trkpt>
      <trkpt lat="43.32234" lon="6.11672">
        <ele>377.4296875</ele>
        <time>2021-12-30T14:47:28Z</time>
      </trkpt>
      <trkpt lat="43.32236" lon="6.11671">
        <ele>376.36328125</ele>
        <time>2021-12-30T14:47:32Z</time>
      </trkpt>
      <trkpt lat="43.3224" lon="6.11668">
        <ele>373.15234375</ele>
        <time>2021-12-30T14:47:49Z</time>
      </trkpt>
      <trkpt lat="43.32245" lon="6.11661">
        <ele>369.4296875</ele>
        <time>2021-12-30T14:48:12Z</time>
      </trkpt>
      <trkpt lat="43.32249" lon="6.11656">
        <ele>366.1171875</ele>
        <time>2021-12-30T14:48:43Z</time>
      </trkpt>
      <trkpt lat="43.3225" lon="6.11656">
        <ele>365.90625</ele>
        <time>2021-12-30T14:49:10Z</time>
      </trkpt>
      <trkpt lat="43.32259" lon="6.11648">
        <ele>360.7734375</ele>
        <time>2021-12-30T14:49:26Z</time>
      </trkpt>
      <trkpt lat="43.3226" lon="6.11646">
        <ele>359.91796875</ele>
        <time>2021-12-30T14:49:38Z</time>
      </trkpt>
      <trkpt lat="43.32263" lon="6.11639">
        <ele>357.59765625</ele>
        <time>2021-12-30T14:50:01Z</time>
      </trkpt>
      <trkpt lat="43.32263" lon="6.11642">
        <ele>357.9453125</ele>
        <time>2021-12-30T14:50:17Z</time>
      </trkpt>
      <trkpt lat="43.32266" lon="6.11635">
        <ele>355.5703125</ele>
        <time>2021-12-30T14:50:36Z</time>
      </trkpt>
      <trkpt lat="43.32265" lon="6.11628">
        <ele>354.44921875</ele>
        <time>2021-12-30T14:50:49Z</time>
      </trkpt>
      <trkpt lat="43.32267" lon="6.11633">
        <ele>354.59375</ele>
        <time>2021-12-30T14:51:02Z</time>
      </trkpt>
      <trkpt lat="43.3227" lon="6.11629">
        <ele>353.0546875</ele>
        <time>2021-12-30T14:51:10Z</time>
      </trkpt>
      <trkpt lat="43.32277" lon="6.1163">
        <ele>350.63671875</ele>
        <time>2021-12-30T14:51:23Z</time>
      </trkpt>
      <trkpt lat="43.32281" lon="6.11632">
        <ele>349.80078125</ele>
        <time>2021-12-30T14:51:38Z</time>
      </trkpt>
      <trkpt lat="43.3229" lon="6.11623">
        <ele>346.2421875</ele>
        <time>2021-12-30T14:51:50Z</time>
      </trkpt>
      <trkpt lat="43.32291" lon="6.11623">
        <ele>346.015625</ele>
        <time>2021-12-30T14:51:53Z</time>
      </trkpt>
      <trkpt lat="43.32298" lon="6.11619">
        <ele>344.08984375</ele>
        <time>2021-12-30T14:51:57Z</time>
      </trkpt>
      <trkpt lat="43.32305" lon="6.1161">
        <ele>342.35546875</ele>
        <time>2021-12-30T14:52:01Z</time>
      </trkpt>
      <trkpt lat="43.32308" lon="6.11612">
        <ele>342.1484375</ele>
        <time>2021-12-30T14:52:03Z</time>
      </trkpt>
      <trkpt lat="43.32309" lon="6.11619">
        <ele>342.171875</ele>
        <time>2021-12-30T14:52:07Z</time>
      </trkpt>
      <trkpt lat="43.32316" lon="6.11638">
        <ele>342.5</ele>
        <time>2021-12-30T14:52:13Z</time>
      </trkpt>
      <trkpt lat="43.32325" lon="6.11666">
        <ele>343.4765625</ele>
        <time>2021-12-30T14:52:18Z</time>
      </trkpt>
      <trkpt lat="43.32345" lon="6.1169">
        <ele>343.1875</ele>
        <time>2021-12-30T14:52:23Z</time>
      </trkpt>
      <trkpt lat="43.32384" lon="6.11708">
        <ele>340.2421875</ele>
        <time>2021-12-30T14:52:30Z</time>
      </trkpt>
      <trkpt lat="43.32389" lon="6.11711">
        <ele>339.8984375</ele>
        <time>2021-12-30T14:52:31Z</time>
      </trkpt>
      <trkpt lat="43.32402" lon="6.11706">
        <ele>337.41015625</ele>
        <time>2021-12-30T14:52:36Z</time>
      </trkpt>
      <trkpt lat="43.32413" lon="6.11703">
        <ele>335.57421875</ele>
        <time>2021-12-30T14:52:39Z</time>
      </trkpt>
      <trkpt lat="43.32418" lon="6.11705">
        <ele>335.34765625</ele>
        <time>2021-12-30T14:52:40Z</time>
      </trkpt>
      <trkpt lat="43.32422" lon="6.11708">
        <ele>335.34375</ele>
        <time>2021-12-30T14:52:41Z</time>
      </trkpt>
      <trkpt lat="43.32426" lon="6.1171">
        <ele>335.19921875</ele>
        <time>2021-12-30T14:52:42Z</time>
      </trkpt>
      <trkpt lat="43.32429" lon="6.11709">
        <ele>334.9140625</ele>
        <time>2021-12-30T14:52:43Z</time>
      </trkpt>
      <trkpt lat="43.32433" lon="6.11708">
        <ele>334.625</ele>
        <time>2021-12-30T14:52:44Z</time>
      </trkpt>
      <trkpt lat="43.32437" lon="6.11708">
        <ele>334.33203125</ele>
        <time>2021-12-30T14:52:45Z</time>
      </trkpt>
      <trkpt lat="43.32442" lon="6.11709">
        <ele>334.04296875</ele>
        <time>2021-12-30T14:52:46Z</time>
      </trkpt>
      <trkpt lat="43.32445" lon="6.11712">
        <ele>334.078125</ele>
        <time>2021-12-30T14:52:47Z</time>
      </trkpt>
      <trkpt lat="43.32447" lon="6.11715">
        <ele>334.140625</ele>
        <time>2021-12-30T14:52:48Z</time>
      </trkpt>
      <trkpt lat="43.32449" lon="6.11717">
        <ele>334.15234375</ele>
        <time>2021-12-30T14:52:49Z</time>
      </trkpt>
      <trkpt lat="43.3245" lon="6.11718">
        <ele>334.14453125</ele>
        <time>2021-12-30T14:52:50Z</time>
      </trkpt>
      <trkpt lat="43.32456" lon="6.11717">
        <ele>333.7734375</ele>
        <time>2021-12-30T14:53:00Z</time>
      </trkpt>
      <trkpt lat="43.32459" lon="6.11715">
        <ele>333.57421875</ele>
        <time>2021-12-30T14:53:23Z</time>
      </trkpt>
      <trkpt lat="43.32461" lon="6.11714">
        <ele>333.44921875</ele>
        <time>2021-12-30T14:53:44Z</time>
      </trkpt>
      <trkpt lat="43.32459" lon="6.11716">
        <ele>333.6015625</ele>
        <time>2021-12-30T14:54:02Z</time>
      </trkpt>
      <trkpt lat="43.32462" lon="6.11721">
        <ele>333.5703125</ele>
        <time>2021-12-30T14:54:05Z</time>
      </trkpt>
      <trkpt lat="43.32464" lon="6.11723">
        <ele>333.4921875</ele>
        <time>2021-12-30T14:54:06Z</time>
      </trkpt>
      <trkpt lat="43.32466" lon="6.11726">
        <ele>333.3984375</ele>
        <time>2021-12-30T14:54:07Z</time>
      </trkpt>
      <trkpt lat="43.32468" lon="6.1173">
        <ele>333.26171875</ele>
        <time>2021-12-30T14:54:08Z</time>
      </trkpt>
      <trkpt lat="43.3247" lon="6.11734">
        <ele>333.1171875</ele>
        <time>2021-12-30T14:54:09Z</time>
      </trkpt>
      <trkpt lat="43.32479" lon="6.11745">
        <ele>333.51953125</ele>
        <time>2021-12-30T14:54:12Z</time>
      </trkpt>
      <trkpt lat="43.3253" lon="6.11771">
        <ele>331.2421875</ele>
        <time>2021-12-30T14:54:22Z</time>
      </trkpt>
      <trkpt lat="43.32541" lon="6.11775">
        <ele>330.65234375</ele>
        <time>2021-12-30T14:54:24Z</time>
      </trkpt>
      <trkpt lat="43.32545" lon="6.11777">
        <ele>330.3359375</ele>
        <time>2021-12-30T14:54:25Z</time>
      </trkpt>
      <trkpt lat="43.32562" lon="6.11785">
        <ele>328.921875</ele>
        <time>2021-12-30T14:54:34Z</time>
      </trkpt>
      <trkpt lat="43.32594" lon="6.11831">
        <ele>325.50390625</ele>
        <time>2021-12-30T14:54:42Z</time>
      </trkpt>
      <trkpt lat="43.32627" lon="6.11855">
        <ele>321.37109375</ele>
        <time>2021-12-30T14:54:48Z</time>
      </trkpt>
      <trkpt lat="43.32632" lon="6.11861">
        <ele>320.75390625</ele>
        <time>2021-12-30T14:54:49Z</time>
      </trkpt>
      <trkpt lat="43.32644" lon="6.11873">
        <ele>319.8203125</ele>
        <time>2021-12-30T14:54:51Z</time>
      </trkpt>
      <trkpt lat="43.32674" lon="6.11947">
        <ele>319.53515625</ele>
        <time>2021-12-30T14:54:59Z</time>
      </trkpt>
      <trkpt lat="43.3268" lon="6.11966">
        <ele>318.9453125</ele>
        <time>2021-12-30T14:55:01Z</time>
      </trkpt>
      <trkpt lat="43.32698" lon="6.12021">
        <ele>315.81640625</ele>
        <time>2021-12-30T14:55:07Z</time>
      </trkpt>
      <trkpt lat="43.32699" lon="6.1203">
        <ele>315.6875</ele>
        <time>2021-12-30T14:55:08Z</time>
      </trkpt>
      <trkpt lat="43.32706" lon="6.12093">
        <ele>314.67578125</ele>
        <time>2021-12-30T14:55:18Z</time>
      </trkpt>
      <trkpt lat="43.32695" lon="6.12126">
        <ele>314.87109375</ele>
        <time>2021-12-30T14:55:30Z</time>
      </trkpt>
      <trkpt lat="43.32676" lon="6.12161">
        <ele>316.84375</ele>
        <time>2021-12-30T14:55:40Z</time>
      </trkpt>
      <trkpt lat="43.32675" lon="6.12167">
        <ele>317.01953125</ele>
        <time>2021-12-30T14:55:42Z</time>
      </trkpt>
      <trkpt lat="43.32675" lon="6.12171">
        <ele>317.01171875</ele>
        <time>2021-12-30T14:55:43Z</time>
      </trkpt>
      <trkpt lat="43.32676" lon="6.12177">
        <ele>316.94140625</ele>
        <time>2021-12-30T14:55:44Z</time>
      </trkpt>
      <trkpt lat="43.32677" lon="6.12183">
        <ele>316.8515625</ele>
        <time>2021-12-30T14:55:45Z</time>
      </trkpt>
      <trkpt lat="43.32677" lon="6.12188">
        <ele>316.93359375</ele>
        <time>2021-12-30T14:55:46Z</time>
      </trkpt>
      <trkpt lat="43.32677" lon="6.12194">
        <ele>317.08984375</ele>
        <time>2021-12-30T14:55:47Z</time>
      </trkpt>
      <trkpt lat="43.32679" lon="6.122">
        <ele>317.140625</ele>
        <time>2021-12-30T14:55:48Z</time>
      </trkpt>
      <trkpt lat="43.32681" lon="6.12206">
        <ele>317.265625</ele>
        <time>2021-12-30T14:55:49Z</time>
      </trkpt>
      <trkpt lat="43.32683" lon="6.12212">
        <ele>317.58984375</ele>
        <time>2021-12-30T14:55:50Z</time>
      </trkpt>
      <trkpt lat="43.32685" lon="6.12217">
        <ele>318.17578125</ele>
        <time>2021-12-30T14:55:51Z</time>
      </trkpt>
      <trkpt lat="43.32688" lon="6.12221">
        <ele>318.60546875</ele>
        <time>2021-12-30T14:55:52Z</time>
      </trkpt>
      <trkpt lat="43.32692" lon="6.12223">
        <ele>318.91015625</ele>
        <time>2021-12-30T14:55:53Z</time>
      </trkpt>
      <trkpt lat="43.32696" lon="6.12225">
        <ele>318.921875</ele>
        <time>2021-12-30T14:55:54Z</time>
      </trkpt>
      <trkpt lat="43.327" lon="6.12227">
        <ele>318.66015625</ele>
        <time>2021-12-30T14:55:55Z</time>
      </trkpt>
      <trkpt lat="43.32737" lon="6.12239">
        <ele>316.3125</ele>
        <time>2021-12-30T14:56:06Z</time>
      </trkpt>
      <trkpt lat="43.3276" lon="6.12258">
        <ele>314.12109375</ele>
        <time>2021-12-30T14:56:17Z</time>
      </trkpt>
      <trkpt lat="43.32768" lon="6.12263">
        <ele>312.78125</ele>
        <time>2021-12-30T14:56:19Z</time>
      </trkpt>
      <trkpt lat="43.32772" lon="6.12268">
        <ele>312.03515625</ele>
        <time>2021-12-30T14:56:20Z</time>
      </trkpt>
      <trkpt lat="43.32776" lon="6.12274">
        <ele>311.34375</ele>
        <time>2021-12-30T14:56:21Z</time>
      </trkpt>
      <trkpt lat="43.3278" lon="6.12281">
        <ele>311.03125</ele>
        <time>2021-12-30T14:56:22Z</time>
      </trkpt>
      <trkpt lat="43.32782" lon="6.12291">
        <ele>310.9296875</ele>
        <time>2021-12-30T14:56:23Z</time>
      </trkpt>
      <trkpt lat="43.32784" lon="6.12301">
        <ele>310.7109375</ele>
        <time>2021-12-30T14:56:24Z</time>
      </trkpt>
      <trkpt lat="43.32786" lon="6.12312">
        <ele>310.390625</ele>
        <time>2021-12-30T14:56:25Z</time>
      </trkpt>
      <trkpt lat="43.32791" lon="6.12355">
        <ele>309.62890625</ele>
        <time>2021-12-30T14:56:29Z</time>
      </trkpt>
      <trkpt lat="43.32802" lon="6.12427">
        <ele>310.3125</ele>
        <time>2021-12-30T14:56:36Z</time>
      </trkpt>
      <trkpt lat="43.32805" lon="6.12494">
        <ele>312.3828125</ele>
        <time>2021-12-30T14:56:47Z</time>
      </trkpt>
      <trkpt lat="43.32792" lon="6.12517">
        <ele>315.4921875</ele>
        <time>2021-12-30T14:56:53Z</time>
      </trkpt>
      <trkpt lat="43.32792" lon="6.12521">
        <ele>315.70703125</ele>
        <time>2021-12-30T14:56:54Z</time>
      </trkpt>
      <trkpt lat="43.32795" lon="6.12525">
        <ele>315.76171875</ele>
        <time>2021-12-30T14:56:55Z</time>
      </trkpt>
      <trkpt lat="43.32798" lon="6.12528">
        <ele>315.56640625</ele>
        <time>2021-12-30T14:56:56Z</time>
      </trkpt>
      <trkpt lat="43.32802" lon="6.1253">
        <ele>315.25390625</ele>
        <time>2021-12-30T14:56:57Z</time>
      </trkpt>
      <trkpt lat="43.32823" lon="6.12534">
        <ele>312.828125</ele>
        <time>2021-12-30T14:57:02Z</time>
      </trkpt>
      <trkpt lat="43.32833" lon="6.12537">
        <ele>311.72265625</ele>
        <time>2021-12-30T14:57:04Z</time>
      </trkpt>
      <trkpt lat="43.32838" lon="6.12541">
        <ele>311.125</ele>
        <time>2021-12-30T14:57:05Z</time>
      </trkpt>
      <trkpt lat="43.32842" lon="6.12545">
        <ele>310.60546875</ele>
        <time>2021-12-30T14:57:06Z</time>
      </trkpt>
      <trkpt lat="43.32846" lon="6.12551">
        <ele>310.2109375</ele>
        <time>2021-12-30T14:57:07Z</time>
      </trkpt>
      <trkpt lat="43.3285" lon="6.12557">
        <ele>309.9609375</ele>
        <time>2021-12-30T14:57:08Z</time>
      </trkpt>
      <trkpt lat="43.32853" lon="6.12563">
        <ele>309.78515625</ele>
        <time>2021-12-30T14:57:09Z</time>
      </trkpt>
      <trkpt lat="43.32867" lon="6.12603">
        <ele>309.39453125</ele>
        <time>2021-12-30T14:57:14Z</time>
      </trkpt>
      <trkpt lat="43.32871" lon="6.12611">
        <ele>309.265625</ele>
        <time>2021-12-30T14:57:15Z</time>
      </trkpt>
      <trkpt lat="43.32875" lon="6.12618">
        <ele>309.0390625</ele>
        <time>2021-12-30T14:57:16Z</time>
      </trkpt>
      <trkpt lat="43.32891" lon="6.1264">
        <ele>307.67578125</ele>
        <time>2021-12-30T14:57:21Z</time>
      </trkpt>
      <trkpt lat="43.32892" lon="6.12644">
        <ele>307.63671875</ele>
        <time>2021-12-30T14:57:22Z</time>
      </trkpt>
      <trkpt lat="43.32891" lon="6.12646">
        <ele>307.7109375</ele>
        <time>2021-12-30T14:57:23Z</time>
      </trkpt>
      <trkpt lat="43.3289" lon="6.12649">
        <ele>307.8125</ele>
        <time>2021-12-30T14:57:24Z</time>
      </trkpt>
      <trkpt lat="43.32889" lon="6.1265">
        <ele>307.9296875</ele>
        <time>2021-12-30T14:57:25Z</time>
      </trkpt>
      <trkpt lat="43.32886" lon="6.12653">
        <ele>308.26953125</ele>
        <time>2021-12-30T14:57:27Z</time>
      </trkpt>
      <trkpt lat="43.32872" lon="6.12664">
        <ele>310.3359375</ele>
        <time>2021-12-30T14:57:35Z</time>
      </trkpt>
      <trkpt lat="43.32859" lon="6.12674">
        <ele>312.2578125</ele>
        <time>2021-12-30T14:57:43Z</time>
      </trkpt>
      <trkpt lat="43.32849" lon="6.12679">
        <ele>313.94921875</ele>
        <time>2021-12-30T14:57:57Z</time>
      </trkpt>
      <trkpt lat="43.32844" lon="6.12682">
        <ele>314.80078125</ele>
        <time>2021-12-30T14:58:10Z</time>
      </trkpt>
      <trkpt lat="43.32843" lon="6.12683">
        <ele>315.125</ele>
        <time>2021-12-30T14:58:11Z</time>
      </trkpt>
      <trkpt lat="43.32833" lon="6.1269">
        <ele>316.80859375</ele>
        <time>2021-12-30T14:58:17Z</time>
      </trkpt>
      <trkpt lat="43.32816" lon="6.12702">
        <ele>319.73828125</ele>
        <time>2021-12-30T14:58:29Z</time>
      </trkpt>
      <trkpt lat="43.32815" lon="6.12703">
        <ele>319.9296875</ele>
        <time>2021-12-30T14:58:30Z</time>
      </trkpt>
      <trkpt lat="43.32814" lon="6.12704">
        <ele>320.15234375</ele>
        <time>2021-12-30T14:58:31Z</time>
      </trkpt>
      <trkpt lat="43.32807" lon="6.12711">
        <ele>321.60546875</ele>
        <time>2021-12-30T14:58:36Z</time>
      </trkpt>
      <trkpt lat="43.32796" lon="6.12717">
        <ele>323.12890625</ele>
        <time>2021-12-30T14:58:42Z</time>
      </trkpt>
      <trkpt lat="43.3279" lon="6.12723">
        <ele>324.19140625</ele>
        <time>2021-12-30T14:58:47Z</time>
      </trkpt>
      <trkpt lat="43.32784" lon="6.12728">
        <ele>325.2890625</ele>
        <time>2021-12-30T14:58:49Z</time>
      </trkpt>
      <trkpt lat="43.32781" lon="6.12729">
        <ele>325.828125</ele>
        <time>2021-12-30T14:58:50Z</time>
      </trkpt>
      <trkpt lat="43.32779" lon="6.1273">
        <ele>326.3046875</ele>
        <time>2021-12-30T14:58:51Z</time>
      </trkpt>
      <trkpt lat="43.32763" lon="6.12744">
        <ele>329.453125</ele>
        <time>2021-12-30T14:59:03Z</time>
      </trkpt>
      <trkpt lat="43.3275" lon="6.12753">
        <ele>331.7890625</ele>
        <time>2021-12-30T14:59:12Z</time>
      </trkpt>
      <trkpt lat="43.32729" lon="6.12769">
        <ele>335.3125</ele>
        <time>2021-12-30T14:59:27Z</time>
      </trkpt>
      <trkpt lat="43.32726" lon="6.12773">
        <ele>335.57421875</ele>
        <time>2021-12-30T14:59:30Z</time>
      </trkpt>
      <trkpt lat="43.32723" lon="6.12777">
        <ele>335.87109375</ele>
        <time>2021-12-30T14:59:33Z</time>
      </trkpt>
      <trkpt lat="43.32707" lon="6.12782">
        <ele>337.7734375</ele>
        <time>2021-12-30T14:59:44Z</time>
      </trkpt>
      <trkpt lat="43.32692" lon="6.12794">
        <ele>338.9375</ele>
        <time>2021-12-30T14:59:52Z</time>
      </trkpt>
      <trkpt lat="43.3269" lon="6.12794">
        <ele>339.171875</ele>
        <time>2021-12-30T14:59:53Z</time>
      </trkpt>
      <trkpt lat="43.32689" lon="6.12794">
        <ele>339.3828125</ele>
        <time>2021-12-30T14:59:54Z</time>
      </trkpt>
      <trkpt lat="43.32687" lon="6.12794">
        <ele>339.55078125</ele>
        <time>2021-12-30T14:59:55Z</time>
      </trkpt>
      <trkpt lat="43.32686" lon="6.12794">
        <ele>339.71875</ele>
        <time>2021-12-30T14:59:56Z</time>
      </trkpt>
      <trkpt lat="43.32679" lon="6.12793">
        <ele>340.65234375</ele>
        <time>2021-12-30T15:00:00Z</time>
      </trkpt>
      <trkpt lat="43.32677" lon="6.12793">
        <ele>340.83203125</ele>
        <time>2021-12-30T15:00:01Z</time>
      </trkpt>
      <trkpt lat="43.32675" lon="6.12793">
        <ele>341.03515625</ele>
        <time>2021-12-30T15:00:02Z</time>
      </trkpt>
      <trkpt lat="43.32672" lon="6.12794">
        <ele>341.19140625</ele>
        <time>2021-12-30T15:00:03Z</time>
      </trkpt>
      <trkpt lat="43.3267" lon="6.12795">
        <ele>341.28515625</ele>
        <time>2021-12-30T15:00:04Z</time>
      </trkpt>
      <trkpt lat="43.32668" lon="6.12795">
        <ele>341.41796875</ele>
        <time>2021-12-30T15:00:05Z</time>
      </trkpt>
      <trkpt lat="43.32666" lon="6.12795">
        <ele>341.63671875</ele>
        <time>2021-12-30T15:00:06Z</time>
      </trkpt>
      <trkpt lat="43.32664" lon="6.12795">
        <ele>341.953125</ele>
        <time>2021-12-30T15:00:07Z</time>
      </trkpt>
      <trkpt lat="43.32663" lon="6.12794">
        <ele>342.2890625</ele>
        <time>2021-12-30T15:00:08Z</time>
      </trkpt>
      <trkpt lat="43.32661" lon="6.12793">
        <ele>342.640625</ele>
        <time>2021-12-30T15:00:09Z</time>
      </trkpt>
      <trkpt lat="43.32657" lon="6.1279">
        <ele>343.625</ele>
        <time>2021-12-30T15:00:12Z</time>
      </trkpt>
      <trkpt lat="43.32655" lon="6.12789">
        <ele>343.94140625</ele>
        <time>2021-12-30T15:00:13Z</time>
      </trkpt>
      <trkpt lat="43.32654" lon="6.12788">
        <ele>344.2421875</ele>
        <time>2021-12-30T15:00:14Z</time>
      </trkpt>
      <trkpt lat="43.32652" lon="6.12787">
        <ele>344.54296875</ele>
        <time>2021-12-30T15:00:15Z</time>
      </trkpt>
      <trkpt lat="43.32651" lon="6.12786">
        <ele>344.98828125</ele>
        <time>2021-12-30T15:00:16Z</time>
      </trkpt>
      <trkpt lat="43.32649" lon="6.12784">
        <ele>345.41015625</ele>
        <time>2021-12-30T15:00:17Z</time>
      </trkpt>
      <trkpt lat="43.32647" lon="6.12784">
        <ele>345.70703125</ele>
        <time>2021-12-30T15:00:18Z</time>
      </trkpt>
      <trkpt lat="43.32645" lon="6.12783">
        <ele>346.03125</ele>
        <time>2021-12-30T15:00:19Z</time>
      </trkpt>
      <trkpt lat="43.32636" lon="6.12779">
        <ele>347.84765625</ele>
        <time>2021-12-30T15:00:24Z</time>
      </trkpt>
      <trkpt lat="43.32634" lon="6.12779">
        <ele>348.2265625</ele>
        <time>2021-12-30T15:00:25Z</time>
      </trkpt>
      <trkpt lat="43.32628" lon="6.12777">
        <ele>349.40234375</ele>
        <time>2021-12-30T15:00:29Z</time>
      </trkpt>
      <trkpt lat="43.32626" lon="6.12776">
        <ele>349.75</ele>
        <time>2021-12-30T15:00:30Z</time>
      </trkpt>
      <trkpt lat="43.32624" lon="6.12775">
        <ele>350.12109375</ele>
        <time>2021-12-30T15:00:31Z</time>
      </trkpt>
      <trkpt lat="43.32622" lon="6.12774">
        <ele>350.5234375</ele>
        <time>2021-12-30T15:00:32Z</time>
      </trkpt>
      <trkpt lat="43.3262" lon="6.12773">
        <ele>350.90234375</ele>
        <time>2021-12-30T15:00:33Z</time>
      </trkpt>
      <trkpt lat="43.32618" lon="6.12772">
        <ele>351.26953125</ele>
        <time>2021-12-30T15:00:34Z</time>
      </trkpt>
      <trkpt lat="43.32599" lon="6.12759">
        <ele>355.0703125</ele>
        <time>2021-12-30T15:00:47Z</time>
      </trkpt>
      <trkpt lat="43.32586" lon="6.12744">
        <ele>357.2734375</ele>
        <time>2021-12-30T15:00:55Z</time>
      </trkpt>
      <trkpt lat="43.32567" lon="6.12727">
        <ele>360.203125</ele>
        <time>2021-12-30T15:01:07Z</time>
      </trkpt>
      <trkpt lat="43.32565" lon="6.12726">
        <ele>360.4765625</ele>
        <time>2021-12-30T15:01:08Z</time>
      </trkpt>
      <trkpt lat="43.32554" lon="6.1272">
        <ele>361.90234375</ele>
        <time>2021-12-30T15:01:14Z</time>
      </trkpt>
      <trkpt lat="43.32552" lon="6.12719">
        <ele>362.29296875</ele>
        <time>2021-12-30T15:01:15Z</time>
      </trkpt>
      <trkpt lat="43.3255" lon="6.1272">
        <ele>363.0859375</ele>
        <time>2021-12-30T15:01:17Z</time>
      </trkpt>
      <trkpt lat="43.32546" lon="6.12732">
        <ele>364.79296875</ele>
        <time>2021-12-30T15:01:23Z</time>
      </trkpt>
      <trkpt lat="43.32544" lon="6.12745">
        <ele>366.11328125</ele>
        <time>2021-12-30T15:01:29Z</time>
      </trkpt>
      <trkpt lat="43.32544" lon="6.12753">
        <ele>366.3359375</ele>
        <time>2021-12-30T15:01:33Z</time>
      </trkpt>
      <trkpt lat="43.32541" lon="6.1278">
        <ele>368.4140625</ele>
        <time>2021-12-30T15:01:46Z</time>
      </trkpt>
      <trkpt lat="43.32539" lon="6.12786">
        <ele>369.2421875</ele>
        <time>2021-12-30T15:01:50Z</time>
      </trkpt>
      <trkpt lat="43.32531" lon="6.12798">
        <ele>371.78515625</ele>
        <time>2021-12-30T15:02:00Z</time>
      </trkpt>
      <trkpt lat="43.32527" lon="6.12804">
        <ele>372.90234375</ele>
        <time>2021-12-30T15:02:04Z</time>
      </trkpt>
      <trkpt lat="43.32525" lon="6.12807">
        <ele>373.58203125</ele>
        <time>2021-12-30T15:02:08Z</time>
      </trkpt>
      <trkpt lat="43.32518" lon="6.12835">
        <ele>375.203125</ele>
        <time>2021-12-30T15:02:20Z</time>
      </trkpt>
      <trkpt lat="43.32517" lon="6.12838">
        <ele>375.234375</ele>
        <time>2021-12-30T15:02:21Z</time>
      </trkpt>
      <trkpt lat="43.32512" lon="6.12848">
        <ele>376.3046875</ele>
        <time>2021-12-30T15:02:26Z</time>
      </trkpt>
      <trkpt lat="43.32509" lon="6.12841">
        <ele>377.4921875</ele>
        <time>2021-12-30T15:02:31Z</time>
      </trkpt>
      <trkpt lat="43.32505" lon="6.12832">
        <ele>379.5</ele>
        <time>2021-12-30T15:02:37Z</time>
      </trkpt>
      <trkpt lat="43.325" lon="6.1282">
        <ele>381.734375</ele>
        <time>2021-12-30T15:02:44Z</time>
      </trkpt>
      <trkpt lat="43.32497" lon="6.12811">
        <ele>382.14453125</ele>
        <time>2021-12-30T15:02:48Z</time>
      </trkpt>
      <trkpt lat="43.32489" lon="6.12784">
        <ele>384.2734375</ele>
        <time>2021-12-30T15:03:00Z</time>
      </trkpt>
      <trkpt lat="43.32492" lon="6.12773">
        <ele>383.39453125</ele>
        <time>2021-12-30T15:03:05Z</time>
      </trkpt>
      <trkpt lat="43.32489" lon="6.12756">
        <ele>383.65234375</ele>
        <time>2021-12-30T15:03:12Z</time>
      </trkpt>
      <trkpt lat="43.32486" lon="6.1275">
        <ele>384.453125</ele>
        <time>2021-12-30T15:03:16Z</time>
      </trkpt>
      <trkpt lat="43.32478" lon="6.12748">
        <ele>386.90625</ele>
        <time>2021-12-30T15:03:22Z</time>
      </trkpt>
      <trkpt lat="43.32474" lon="6.12745">
        <ele>388.29296875</ele>
        <time>2021-12-30T15:03:25Z</time>
      </trkpt>
      <trkpt lat="43.32468" lon="6.12738">
        <ele>390.1015625</ele>
        <time>2021-12-30T15:03:40Z</time>
      </trkpt>
      <trkpt lat="43.3246" lon="6.12733">
        <ele>392.42578125</ele>
        <time>2021-12-30T15:04:08Z</time>
      </trkpt>
      <trkpt lat="43.32454" lon="6.12729">
        <ele>393.89453125</ele>
        <time>2021-12-30T15:04:13Z</time>
      </trkpt>
      <trkpt lat="43.32451" lon="6.12726">
        <ele>394.76953125</ele>
        <time>2021-12-30T15:04:16Z</time>
      </trkpt>
      <trkpt lat="43.32448" lon="6.12723">
        <ele>395.37109375</ele>
        <time>2021-12-30T15:04:18Z</time>
      </trkpt>
      <trkpt lat="43.32442" lon="6.12715">
        <ele>396.875</ele>
        <time>2021-12-30T15:04:22Z</time>
      </trkpt>
      <trkpt lat="43.32421" lon="6.12701">
        <ele>401.5</ele>
        <time>2021-12-30T15:04:34Z</time>
      </trkpt>
      <trkpt lat="43.32417" lon="6.12691">
        <ele>401.734375</ele>
        <time>2021-12-30T15:04:39Z</time>
      </trkpt>
      <trkpt lat="43.32416" lon="6.12689">
        <ele>401.60546875</ele>
        <time>2021-12-30T15:04:40Z</time>
      </trkpt>
      <trkpt lat="43.32415" lon="6.12687">
        <ele>401.64453125</ele>
        <time>2021-12-30T15:04:41Z</time>
      </trkpt>
      <trkpt lat="43.32412" lon="6.12685">
        <ele>402.37109375</ele>
        <time>2021-12-30T15:04:57Z</time>
      </trkpt>
      <trkpt lat="43.32411" lon="6.12679">
        <ele>402.14453125</ele>
        <time>2021-12-30T15:05:28Z</time>
      </trkpt>
      <trkpt lat="43.3241" lon="6.12683">
        <ele>402.4765625</ele>
        <time>2021-12-30T15:06:01Z</time>
      </trkpt>
      <trkpt lat="43.32414" lon="6.12683">
        <ele>401.56640625</ele>
        <time>2021-12-30T15:06:34Z</time>
      </trkpt>
      <trkpt lat="43.3241" lon="6.12677">
        <ele>402.16796875</ele>
        <time>2021-12-30T15:06:40Z</time>
      </trkpt>
      <trkpt lat="43.32408" lon="6.12676">
        <ele>402.453125</ele>
        <time>2021-12-30T15:06:41Z</time>
      </trkpt>
      <trkpt lat="43.32402" lon="6.12658">
        <ele>403.1953125</ele>
        <time>2021-12-30T15:06:49Z</time>
      </trkpt>
      <trkpt lat="43.32402" lon="6.12655">
        <ele>403.0703125</ele>
        <time>2021-12-30T15:06:50Z</time>
      </trkpt>
      <trkpt lat="43.32402" lon="6.12651">
        <ele>402.890625</ele>
        <time>2021-12-30T15:06:51Z</time>
      </trkpt>
      <trkpt lat="43.32401" lon="6.12648">
        <ele>402.90234375</ele>
        <time>2021-12-30T15:06:52Z</time>
      </trkpt>
      <trkpt lat="43.324" lon="6.12645">
        <ele>403.00390625</ele>
        <time>2021-12-30T15:06:53Z</time>
      </trkpt>
      <trkpt lat="43.32399" lon="6.12643">
        <ele>403.1171875</ele>
        <time>2021-12-30T15:06:54Z</time>
      </trkpt>
      <trkpt lat="43.32398" lon="6.1264">
        <ele>403.12890625</ele>
        <time>2021-12-30T15:06:55Z</time>
      </trkpt>
      <trkpt lat="43.32397" lon="6.12637">
        <ele>403.1484375</ele>
        <time>2021-12-30T15:06:56Z</time>
      </trkpt>
      <trkpt lat="43.32396" lon="6.12634">
        <ele>403.2109375</ele>
        <time>2021-12-30T15:06:57Z</time>
      </trkpt>
      <trkpt lat="43.32395" lon="6.12632">
        <ele>403.28125</ele>
        <time>2021-12-30T15:06:58Z</time>
      </trkpt>
      <trkpt lat="43.32394" lon="6.12628">
        <ele>403.30859375</ele>
        <time>2021-12-30T15:06:59Z</time>
      </trkpt>
      <trkpt lat="43.32393" lon="6.12626">
        <ele>403.54296875</ele>
        <time>2021-12-30T15:07:00Z</time>
      </trkpt>
      <trkpt lat="43.32391" lon="6.12623">
        <ele>403.9375</ele>
        <time>2021-12-30T15:07:01Z</time>
      </trkpt>
      <trkpt lat="43.3239" lon="6.12621">
        <ele>404.31640625</ele>
        <time>2021-12-30T15:07:02Z</time>
      </trkpt>
      <trkpt lat="43.32376" lon="6.12604">
        <ele>407.671875</ele>
        <time>2021-12-30T15:07:10Z</time>
      </trkpt>
      <trkpt lat="43.32375" lon="6.12602">
        <ele>407.84375</ele>
        <time>2021-12-30T15:07:11Z</time>
      </trkpt>
      <trkpt lat="43.32374" lon="6.126">
        <ele>408.0390625</ele>
        <time>2021-12-30T15:07:12Z</time>
      </trkpt>
      <trkpt lat="43.32373" lon="6.12598">
        <ele>408.3359375</ele>
        <time>2021-12-30T15:07:13Z</time>
      </trkpt>
      <trkpt lat="43.32371" lon="6.12596">
        <ele>408.671875</ele>
        <time>2021-12-30T15:07:14Z</time>
      </trkpt>
      <trkpt lat="43.3236" lon="6.12578">
        <ele>411.21484375</ele>
        <time>2021-12-30T15:07:23Z</time>
      </trkpt>
      <trkpt lat="43.32354" lon="6.12569">
        <ele>412.7421875</ele>
        <time>2021-12-30T15:07:29Z</time>
      </trkpt>
      <trkpt lat="43.32336" lon="6.12561">
        <ele>417.01171875</ele>
        <time>2021-12-30T15:07:42Z</time>
      </trkpt>
      <trkpt lat="43.32335" lon="6.12566">
        <ele>417.83984375</ele>
        <time>2021-12-30T15:07:56Z</time>
      </trkpt>
      <trkpt lat="43.32334" lon="6.1257">
        <ele>418.3984375</ele>
        <time>2021-12-30T15:08:07Z</time>
      </trkpt>
      <trkpt lat="43.32335" lon="6.12572">
        <ele>418.43359375</ele>
        <time>2021-12-30T15:08:08Z</time>
      </trkpt>
      <trkpt lat="43.32335" lon="6.12573">
        <ele>418.5078125</ele>
        <time>2021-12-30T15:08:09Z</time>
      </trkpt>
      <trkpt lat="43.32335" lon="6.12575">
        <ele>418.61328125</ele>
        <time>2021-12-30T15:08:10Z</time>
      </trkpt>
      <trkpt lat="43.32335" lon="6.12576">
        <ele>418.58203125</ele>
        <time>2021-12-30T15:08:11Z</time>
      </trkpt>
      <trkpt lat="43.32335" lon="6.12577">
        <ele>418.58984375</ele>
        <time>2021-12-30T15:08:12Z</time>
      </trkpt>
      <trkpt lat="43.3233" lon="6.12603">
        <ele>421.82421875</ele>
        <time>2021-12-30T15:08:26Z</time>
      </trkpt>
      <trkpt lat="43.32329" lon="6.12605">
        <ele>422.30078125</ele>
        <time>2021-12-30T15:08:27Z</time>
      </trkpt>
      <trkpt lat="43.32327" lon="6.12608">
        <ele>422.77734375</ele>
        <time>2021-12-30T15:08:28Z</time>
      </trkpt>
      <trkpt lat="43.32328" lon="6.1264">
        <ele>423.73828125</ele>
        <time>2021-12-30T15:08:39Z</time>
      </trkpt>
      <trkpt lat="43.32333" lon="6.12655">
        <ele>422.96484375</ele>
        <time>2021-12-30T15:08:44Z</time>
      </trkpt>
      <trkpt lat="43.32332" lon="6.12657">
        <ele>423.21484375</ele>
        <time>2021-12-30T15:08:45Z</time>
      </trkpt>
      <trkpt lat="43.32332" lon="6.12659">
        <ele>423.49609375</ele>
        <time>2021-12-30T15:08:46Z</time>
      </trkpt>
      <trkpt lat="43.32331" lon="6.12661">
        <ele>423.8203125</ele>
        <time>2021-12-30T15:08:47Z</time>
      </trkpt>
      <trkpt lat="43.32331" lon="6.12664">
        <ele>423.9921875</ele>
        <time>2021-12-30T15:08:48Z</time>
      </trkpt>
      <trkpt lat="43.32329" lon="6.12681">
        <ele>425.8203125</ele>
        <time>2021-12-30T15:08:56Z</time>
      </trkpt>
      <trkpt lat="43.3233" lon="6.12684">
        <ele>425.984375</ele>
        <time>2021-12-30T15:08:57Z</time>
      </trkpt>
      <trkpt lat="43.3233" lon="6.12687">
        <ele>426.3359375</ele>
        <time>2021-12-30T15:08:58Z</time>
      </trkpt>
      <trkpt lat="43.32331" lon="6.12689">
        <ele>426.47265625</ele>
        <time>2021-12-30T15:08:59Z</time>
      </trkpt>
      <trkpt lat="43.32332" lon="6.12691">
        <ele>426.6015625</ele>
        <time>2021-12-30T15:09:00Z</time>
      </trkpt>
      <trkpt lat="43.32332" lon="6.12694">
        <ele>426.67578125</ele>
        <time>2021-12-30T15:09:01Z</time>
      </trkpt>
      <trkpt lat="43.32333" lon="6.12695">
        <ele>426.6796875</ele>
        <time>2021-12-30T15:09:02Z</time>
      </trkpt>
      <trkpt lat="43.32339" lon="6.12699">
        <ele>425.41015625</ele>
        <time>2021-12-30T15:09:18Z</time>
      </trkpt>
      <trkpt lat="43.32339" lon="6.12701">
        <ele>425.83203125</ele>
        <time>2021-12-30T15:09:48Z</time>
      </trkpt>
      <trkpt lat="43.32341" lon="6.127">
        <ele>425.078125</ele>
        <time>2021-12-30T15:10:12Z</time>
      </trkpt>
      <trkpt lat="43.32348" lon="6.12709">
        <ele>424.55859375</ele>
        <time>2021-12-30T15:10:20Z</time>
      </trkpt>
      <trkpt lat="43.32349" lon="6.12713">
        <ele>424.73828125</ele>
        <time>2021-12-30T15:10:21Z</time>
      </trkpt>
      <trkpt lat="43.32349" lon="6.12718">
        <ele>425.09375</ele>
        <time>2021-12-30T15:10:22Z</time>
      </trkpt>
      <trkpt lat="43.32349" lon="6.12724">
        <ele>425.87109375</ele>
        <time>2021-12-30T15:10:23Z</time>
      </trkpt>
      <trkpt lat="43.32348" lon="6.1273">
        <ele>426.8671875</ele>
        <time>2021-12-30T15:10:24Z</time>
      </trkpt>
      <trkpt lat="43.32348" lon="6.12734">
        <ele>427.6953125</ele>
        <time>2021-12-30T15:10:25Z</time>
      </trkpt>
      <trkpt lat="43.32347" lon="6.12738">
        <ele>428.4375</ele>
        <time>2021-12-30T15:10:26Z</time>
      </trkpt>
      <trkpt lat="43.32346" lon="6.12742">
        <ele>428.796875</ele>
        <time>2021-12-30T15:10:27Z</time>
      </trkpt>
      <trkpt lat="43.32346" lon="6.12786">
        <ele>429.83984375</ele>
        <time>2021-12-30T15:10:36Z</time>
      </trkpt>
      <trkpt lat="43.32346" lon="6.12812">
        <ele>429.05078125</ele>
        <time>2021-12-30T15:10:41Z</time>
      </trkpt>
      <trkpt lat="43.32342" lon="6.12822">
        <ele>429.4921875</ele>
        <time>2021-12-30T15:10:43Z</time>
      </trkpt>
      <trkpt lat="43.32339" lon="6.12825">
        <ele>429.71875</ele>
        <time>2021-12-30T15:10:44Z</time>
      </trkpt>
      <trkpt lat="43.32336" lon="6.12828">
        <ele>430.03515625</ele>
        <time>2021-12-30T15:10:45Z</time>
      </trkpt>
      <trkpt lat="43.32333" lon="6.1283">
        <ele>430.4921875</ele>
        <time>2021-12-30T15:10:46Z</time>
      </trkpt>
      <trkpt lat="43.32331" lon="6.12831">
        <ele>431.09375</ele>
        <time>2021-12-30T15:10:47Z</time>
      </trkpt>
      <trkpt lat="43.32328" lon="6.12833">
        <ele>431.6640625</ele>
        <time>2021-12-30T15:10:48Z</time>
      </trkpt>
      <trkpt lat="43.32325" lon="6.12835">
        <ele>432.2734375</ele>
        <time>2021-12-30T15:10:49Z</time>
      </trkpt>
      <trkpt lat="43.323" lon="6.12858">
        <ele>435.85546875</ele>
        <time>2021-12-30T15:10:58Z</time>
      </trkpt>
      <trkpt lat="43.32297" lon="6.1286">
        <ele>436.4609375</ele>
        <time>2021-12-30T15:10:59Z</time>
      </trkpt>
      <trkpt lat="43.32289" lon="6.12868">
        <ele>437.45703125</ele>
        <time>2021-12-30T15:11:08Z</time>
      </trkpt>
      <trkpt lat="43.32291" lon="6.12872">
        <ele>436.3046875</ele>
        <time>2021-12-30T15:11:22Z</time>
      </trkpt>
      <trkpt lat="43.323" lon="6.12866">
        <ele>434.48828125</ele>
        <time>2021-12-30T15:11:52Z</time>
      </trkpt>
      <trkpt lat="43.32298" lon="6.12873">
        <ele>433.71875</ele>
        <time>2021-12-30T15:12:08Z</time>
      </trkpt>
      <trkpt lat="43.32296" lon="6.12879">
        <ele>433.48828125</ele>
        <time>2021-12-30T15:12:21Z</time>
      </trkpt>
      <trkpt lat="43.32295" lon="6.1288">
        <ele>433.50390625</ele>
        <time>2021-12-30T15:12:22Z</time>
      </trkpt>
      <trkpt lat="43.32285" lon="6.12894">
        <ele>434.33984375</ele>
        <time>2021-12-30T15:12:31Z</time>
      </trkpt>
      <trkpt lat="43.32281" lon="6.12897">
        <ele>435.109375</ele>
        <time>2021-12-30T15:12:34Z</time>
      </trkpt>
      <trkpt lat="43.32276" lon="6.12901">
        <ele>435.90625</ele>
        <time>2021-12-30T15:12:48Z</time>
      </trkpt>
      <trkpt lat="43.3227" lon="6.12908">
        <ele>436.61328125</ele>
        <time>2021-12-30T15:13:06Z</time>
      </trkpt>
      <trkpt lat="43.32265" lon="6.12908">
        <ele>438.453125</ele>
        <time>2021-12-30T15:13:18Z</time>
      </trkpt>
      <trkpt lat="43.32266" lon="6.12907">
        <ele>438.16015625</ele>
        <time>2021-12-30T15:13:34Z</time>
      </trkpt>
      <trkpt lat="43.32263" lon="6.12911">
        <ele>438.61328125</ele>
        <time>2021-12-30T15:13:47Z</time>
      </trkpt>
      <trkpt lat="43.3226" lon="6.12914">
        <ele>438.94140625</ele>
        <time>2021-12-30T15:14:02Z</time>
      </trkpt>
      <trkpt lat="43.32255" lon="6.12916">
        <ele>440.390625</ele>
        <time>2021-12-30T15:14:13Z</time>
      </trkpt>
      <trkpt lat="43.32251" lon="6.12918">
        <ele>441.35546875</ele>
        <time>2021-12-30T15:14:37Z</time>
      </trkpt>
      <trkpt lat="43.32244" lon="6.12922">
        <ele>442.9609375</ele>
        <time>2021-12-30T15:14:54Z</time>
      </trkpt>
      <trkpt lat="43.32238" lon="6.12925">
        <ele>444.1875</ele>
        <time>2021-12-30T15:15:07Z</time>
      </trkpt>
      <trkpt lat="43.32236" lon="6.12923">
        <ele>445.4296875</ele>
        <time>2021-12-30T15:15:38Z</time>
      </trkpt>
      <trkpt lat="43.32232" lon="6.12927">
        <ele>445.6171875</ele>
        <time>2021-12-30T15:16:03Z</time>
      </trkpt>
      <trkpt lat="43.32229" lon="6.12929">
        <ele>446.39453125</ele>
        <time>2021-12-30T15:16:15Z</time>
      </trkpt>
      <trkpt lat="43.3222" lon="6.1293">
        <ele>448.85546875</ele>
        <time>2021-12-30T15:16:30Z</time>
      </trkpt>
      <trkpt lat="43.32215" lon="6.12931">
        <ele>449.55078125</ele>
        <time>2021-12-30T15:16:48Z</time>
      </trkpt>
      <trkpt lat="43.32216" lon="6.1293">
        <ele>449.6953125</ele>
        <time>2021-12-30T15:17:15Z</time>
      </trkpt>
      <trkpt lat="43.32209" lon="6.12931">
        <ele>451.1015625</ele>
        <time>2021-12-30T15:17:28Z</time>
      </trkpt>
      <trkpt lat="43.32203" lon="6.12935">
        <ele>450.859375</ele>
        <time>2021-12-30T15:17:42Z</time>
      </trkpt>
      <trkpt lat="43.32196" lon="6.1294">
        <ele>450.62890625</ele>
        <time>2021-12-30T15:17:57Z</time>
      </trkpt>
      <trkpt lat="43.32195" lon="6.12941">
        <ele>450.47265625</ele>
        <time>2021-12-30T15:17:58Z</time>
      </trkpt>
      <trkpt lat="43.32181" lon="6.12944">
        <ele>451.8515625</ele>
        <time>2021-12-30T15:18:10Z</time>
      </trkpt>
      <trkpt lat="43.32167" lon="6.12938">
        <ele>456.625</ele>
        <time>2021-12-30T15:18:20Z</time>
      </trkpt>
      <trkpt lat="43.32149" lon="6.12927">
        <ele>461.88671875</ele>
        <time>2021-12-30T15:18:33Z</time>
      </trkpt>
      <trkpt lat="43.32135" lon="6.12924">
        <ele>464.06640625</ele>
        <time>2021-12-30T15:18:45Z</time>
      </trkpt>
      <trkpt lat="43.32125" lon="6.12917">
        <ele>466.2578125</ele>
        <time>2021-12-30T15:18:53Z</time>
      </trkpt>
      <trkpt lat="43.32123" lon="6.12917">
        <ele>466.5390625</ele>
        <time>2021-12-30T15:18:54Z</time>
      </trkpt>
      <trkpt lat="43.32122" lon="6.12916">
        <ele>466.75390625</ele>
        <time>2021-12-30T15:18:55Z</time>
      </trkpt>
      <trkpt lat="43.32121" lon="6.12916">
        <ele>466.96484375</ele>
        <time>2021-12-30T15:18:56Z</time>
      </trkpt>
      <trkpt lat="43.32119" lon="6.12915">
        <ele>467.2421875</ele>
        <time>2021-12-30T15:18:57Z</time>
      </trkpt>
      <trkpt lat="43.32118" lon="6.12914">
        <ele>467.65625</ele>
        <time>2021-12-30T15:18:58Z</time>
      </trkpt>
      <trkpt lat="43.321" lon="6.12904">
        <ele>471.08203125</ele>
        <time>2021-12-30T15:19:11Z</time>
      </trkpt>
      <trkpt lat="43.32079" lon="6.129">
        <ele>472.8828125</ele>
        <time>2021-12-30T15:19:23Z</time>
      </trkpt>
      <trkpt lat="43.32056" lon="6.12899">
        <ele>473.0859375</ele>
        <time>2021-12-30T15:19:36Z</time>
      </trkpt>
      <trkpt lat="43.32033" lon="6.12908">
        <ele>471.12890625</ele>
        <time>2021-12-30T15:19:50Z</time>
      </trkpt>
      <trkpt lat="43.32029" lon="6.12909">
        <ele>471.0078125</ele>
        <time>2021-12-30T15:19:52Z</time>
      </trkpt>
      <trkpt lat="43.32028" lon="6.1291">
        <ele>470.94140625</ele>
        <time>2021-12-30T15:19:53Z</time>
      </trkpt>
      <trkpt lat="43.32026" lon="6.1291">
        <ele>471.1875</ele>
        <time>2021-12-30T15:19:54Z</time>
      </trkpt>
      <trkpt lat="43.32024" lon="6.12911">
        <ele>471.453125</ele>
        <time>2021-12-30T15:19:55Z</time>
      </trkpt>
      <trkpt lat="43.32005" lon="6.12919">
        <ele>473.640625</ele>
        <time>2021-12-30T15:20:08Z</time>
      </trkpt>
      <trkpt lat="43.31997" lon="6.12925">
        <ele>473.9765625</ele>
        <time>2021-12-30T15:20:13Z</time>
      </trkpt>
      <trkpt lat="43.31995" lon="6.12925">
        <ele>474.19921875</ele>
        <time>2021-12-30T15:20:14Z</time>
      </trkpt>
      <trkpt lat="43.31972" lon="6.12929">
        <ele>477.1953125</ele>
        <time>2021-12-30T15:20:23Z</time>
      </trkpt>
      <trkpt lat="43.3197" lon="6.12929">
        <ele>477.328125</ele>
        <time>2021-12-30T15:20:24Z</time>
      </trkpt>
      <trkpt lat="43.31968" lon="6.1293">
        <ele>477.5546875</ele>
        <time>2021-12-30T15:20:25Z</time>
      </trkpt>
      <trkpt lat="43.31966" lon="6.12929">
        <ele>477.9609375</ele>
        <time>2021-12-30T15:20:26Z</time>
      </trkpt>
      <trkpt lat="43.31964" lon="6.1293">
        <ele>478.2890625</ele>
        <time>2021-12-30T15:20:27Z</time>
      </trkpt>
      <trkpt lat="43.31962" lon="6.1293">
        <ele>478.54296875</ele>
        <time>2021-12-30T15:20:28Z</time>
      </trkpt>
      <trkpt lat="43.3196" lon="6.1293">
        <ele>478.6796875</ele>
        <time>2021-12-30T15:20:29Z</time>
      </trkpt>
      <trkpt lat="43.3194" lon="6.1293">
        <ele>481.80078125</ele>
        <time>2021-12-30T15:20:39Z</time>
      </trkpt>
      <trkpt lat="43.31933" lon="6.12926">
        <ele>483.640625</ele>
        <time>2021-12-30T15:20:42Z</time>
      </trkpt>
      <trkpt lat="43.31909" lon="6.1293">
        <ele>484.04296875</ele>
        <time>2021-12-30T15:20:55Z</time>
      </trkpt>
      <trkpt lat="43.31894" lon="6.12936">
        <ele>483.0859375</ele>
        <time>2021-12-30T15:21:09Z</time>
      </trkpt>
      <trkpt lat="43.31893" lon="6.12936">
        <ele>483.1875</ele>
        <time>2021-12-30T15:21:10Z</time>
      </trkpt>
      <trkpt lat="43.31891" lon="6.12937">
        <ele>483.015625</ele>
        <time>2021-12-30T15:21:11Z</time>
      </trkpt>
      <trkpt lat="43.31858" lon="6.12963">
        <ele>480.34765625</ele>
        <time>2021-12-30T15:21:23Z</time>
      </trkpt>
      <trkpt lat="43.31831" lon="6.12982">
        <ele>480.8359375</ele>
        <time>2021-12-30T15:21:34Z</time>
      </trkpt>
      <trkpt lat="43.31804" lon="6.13018">
        <ele>478.8984375</ele>
        <time>2021-12-30T15:21:47Z</time>
      </trkpt>
      <trkpt lat="43.31788" lon="6.13036">
        <ele>481.8203125</ele>
        <time>2021-12-30T15:21:59Z</time>
      </trkpt>
      <trkpt lat="43.31776" lon="6.13051">
        <ele>483.91796875</ele>
        <time>2021-12-30T15:22:08Z</time>
      </trkpt>
      <trkpt lat="43.31775" lon="6.13053">
        <ele>484.28515625</ele>
        <time>2021-12-30T15:22:09Z</time>
      </trkpt>
      <trkpt lat="43.31773" lon="6.13055">
        <ele>484.640625</ele>
        <time>2021-12-30T15:22:10Z</time>
      </trkpt>
      <trkpt lat="43.31772" lon="6.13058">
        <ele>484.796875</ele>
        <time>2021-12-30T15:22:11Z</time>
      </trkpt>
      <trkpt lat="43.3177" lon="6.13061">
        <ele>484.84765625</ele>
        <time>2021-12-30T15:22:12Z</time>
      </trkpt>
      <trkpt lat="43.31755" lon="6.13094">
        <ele>484.953125</ele>
        <time>2021-12-30T15:22:24Z</time>
      </trkpt>
      <trkpt lat="43.31751" lon="6.13102">
        <ele>484.5859375</ele>
        <time>2021-12-30T15:22:27Z</time>
      </trkpt>
      <trkpt lat="43.3175" lon="6.13105">
        <ele>484.36328125</ele>
        <time>2021-12-30T15:22:28Z</time>
      </trkpt>
      <trkpt lat="43.31748" lon="6.13107">
        <ele>484.53125</ele>
        <time>2021-12-30T15:22:29Z</time>
      </trkpt>
      <trkpt lat="43.31721" lon="6.13151">
        <ele>484.9140625</ele>
        <time>2021-12-30T15:22:46Z</time>
      </trkpt>
      <trkpt lat="43.3171" lon="6.1318">
        <ele>484.28515625</ele>
        <time>2021-12-30T15:22:56Z</time>
      </trkpt>
      <trkpt lat="43.3171" lon="6.13181">
        <ele>484.22265625</ele>
        <time>2021-12-30T15:23:20Z</time>
      </trkpt>
      <trkpt lat="43.3171" lon="6.13182">
        <ele>483.80078125</ele>
        <time>2021-12-30T15:23:52Z</time>
      </trkpt>
      <trkpt lat="43.31709" lon="6.13183">
        <ele>484.2578125</ele>
        <time>2021-12-30T15:24:15Z</time>
      </trkpt>
      <trkpt lat="43.3171" lon="6.13189">
        <ele>482.9375</ele>
        <time>2021-12-30T15:24:48Z</time>
      </trkpt>
      <trkpt lat="43.31711" lon="6.13186">
        <ele>483.203125</ele>
        <time>2021-12-30T15:25:20Z</time>
      </trkpt>
      <trkpt lat="43.3171" lon="6.13183">
        <ele>483.828125</ele>
        <time>2021-12-30T15:25:51Z</time>
      </trkpt>
      <trkpt lat="43.31709" lon="6.13185">
        <ele>484.1953125</ele>
        <time>2021-12-30T15:26:13Z</time>
      </trkpt>
      <trkpt lat="43.31712" lon="6.13184">
        <ele>482.546875</ele>
        <time>2021-12-30T15:26:41Z</time>
      </trkpt>
      <trkpt lat="43.31711" lon="6.13183">
        <ele>483.48046875</ele>
        <time>2021-12-30T15:27:06Z</time>
      </trkpt>
      <trkpt lat="43.31709" lon="6.1318">
        <ele>485.07421875</ele>
        <time>2021-12-30T15:27:27Z</time>
      </trkpt>
      <trkpt lat="43.31711" lon="6.13183">
        <ele>483.54296875</ele>
        <time>2021-12-30T15:27:48Z</time>
      </trkpt>
      <trkpt lat="43.31708" lon="6.13183">
        <ele>484.8984375</ele>
        <time>2021-12-30T15:28:13Z</time>
      </trkpt>
      <trkpt lat="43.31706" lon="6.13181">
        <ele>486.3359375</ele>
        <time>2021-12-30T15:28:40Z</time>
      </trkpt>
      <trkpt lat="43.31705" lon="6.13192">
        <ele>485.20703125</ele>
        <time>2021-12-30T15:28:51Z</time>
      </trkpt>
      <trkpt lat="43.31707" lon="6.13196">
        <ele>484.0703125</ele>
        <time>2021-12-30T15:29:22Z</time>
      </trkpt>
      <trkpt lat="43.317" lon="6.13218">
        <ele>486.4296875</ele>
        <time>2021-12-30T15:29:31Z</time>
      </trkpt>
      <trkpt lat="43.317" lon="6.13222">
        <ele>486.57421875</ele>
        <time>2021-12-30T15:29:32Z</time>
      </trkpt>
      <trkpt lat="43.31692" lon="6.1327">
        <ele>490.57421875</ele>
        <time>2021-12-30T15:29:46Z</time>
      </trkpt>
      <trkpt lat="43.31678" lon="6.13311">
        <ele>494.93359375</ele>
        <time>2021-12-30T15:29:57Z</time>
      </trkpt>
      <trkpt lat="43.31644" lon="6.13352">
        <ele>503.7578125</ele>
        <time>2021-12-30T15:30:13Z</time>
      </trkpt>
      <trkpt lat="43.31623" lon="6.13372">
        <ele>506.296875</ele>
        <time>2021-12-30T15:30:27Z</time>
      </trkpt>
      <trkpt lat="43.31622" lon="6.13375">
        <ele>506.265625</ele>
        <time>2021-12-30T15:30:36Z</time>
      </trkpt>
      <trkpt lat="43.31621" lon="6.13376">
        <ele>506.25390625</ele>
        <time>2021-12-30T15:30:37Z</time>
      </trkpt>
      <trkpt lat="43.31619" lon="6.13381">
        <ele>506.609375</ele>
        <time>2021-12-30T15:30:51Z</time>
      </trkpt>
      <trkpt lat="43.31618" lon="6.13382">
        <ele>506.6796875</ele>
        <time>2021-12-30T15:31:01Z</time>
      </trkpt>
      <trkpt lat="43.31618" lon="6.13384">
        <ele>506.78125</ele>
        <time>2021-12-30T15:31:02Z</time>
      </trkpt>
      <trkpt lat="43.31617" lon="6.13386">
        <ele>506.91015625</ele>
        <time>2021-12-30T15:31:03Z</time>
      </trkpt>
      <trkpt lat="43.31616" lon="6.13388">
        <ele>507.015625</ele>
        <time>2021-12-30T15:31:04Z</time>
      </trkpt>
      <trkpt lat="43.31616" lon="6.13389">
        <ele>507.1015625</ele>
        <time>2021-12-30T15:31:05Z</time>
      </trkpt>
      <trkpt lat="43.31616" lon="6.13391">
        <ele>507.12890625</ele>
        <time>2021-12-30T15:31:06Z</time>
      </trkpt>
      <trkpt lat="43.31615" lon="6.13416">
        <ele>508.19140625</ele>
        <time>2021-12-30T15:31:20Z</time>
      </trkpt>
      <trkpt lat="43.31614" lon="6.13419">
        <ele>508.37109375</ele>
        <time>2021-12-30T15:31:40Z</time>
      </trkpt>
      <trkpt lat="43.31612" lon="6.1342">
        <ele>508.50390625</ele>
        <time>2021-12-30T15:31:41Z</time>
      </trkpt>
      <trkpt lat="43.3161" lon="6.13423">
        <ele>508.6328125</ele>
        <time>2021-12-30T15:31:51Z</time>
      </trkpt>
      <trkpt lat="43.31609" lon="6.13424">
        <ele>508.609375</ele>
        <time>2021-12-30T15:31:52Z</time>
      </trkpt>
      <trkpt lat="43.31579" lon="6.1347">
        <ele>509.6875</ele>
        <time>2021-12-30T15:32:07Z</time>
      </trkpt>
      <trkpt lat="43.31546" lon="6.13525">
        <ele>510.77734375</ele>
        <time>2021-12-30T15:32:23Z</time>
      </trkpt>
      <trkpt lat="43.31494" lon="6.13573">
        <ele>508.4375</ele>
        <time>2021-12-30T15:32:38Z</time>
      </trkpt>
      <trkpt lat="43.31467" lon="6.13588">
        <ele>506.078125</ele>
        <time>2021-12-30T15:32:44Z</time>
      </trkpt>
      <trkpt lat="43.31389" lon="6.13629">
        <ele>502.64453125</ele>
        <time>2021-12-30T15:33:00Z</time>
      </trkpt>
      <trkpt lat="43.31312" lon="6.13683">
        <ele>500.14453125</ele>
        <time>2021-12-30T15:33:13Z</time>
      </trkpt>
      <trkpt lat="43.31267" lon="6.13737">
        <ele>496.37109375</ele>
        <time>2021-12-30T15:33:22Z</time>
      </trkpt>
      <trkpt lat="43.31264" lon="6.13744">
        <ele>495.6640625</ele>
        <time>2021-12-30T15:33:23Z</time>
      </trkpt>
      <trkpt lat="43.31257" lon="6.13767">
        <ele>494.41796875</ele>
        <time>2021-12-30T15:33:26Z</time>
      </trkpt>
      <trkpt lat="43.31254" lon="6.13789">
        <ele>493.01953125</ele>
        <time>2021-12-30T15:33:29Z</time>
      </trkpt>
      <trkpt lat="43.31253" lon="6.13804">
        <ele>492.4375</ele>
        <time>2021-12-30T15:33:31Z</time>
      </trkpt>
      <trkpt lat="43.31253" lon="6.13811">
        <ele>492.31640625</ele>
        <time>2021-12-30T15:33:32Z</time>
      </trkpt>
      <trkpt lat="43.31261" lon="6.13867">
        <ele>490.890625</ele>
        <time>2021-12-30T15:33:39Z</time>
      </trkpt>
      <trkpt lat="43.31263" lon="6.13876">
        <ele>490.84375</ele>
        <time>2021-12-30T15:33:40Z</time>
      </trkpt>
      <trkpt lat="43.31292" lon="6.13995">
        <ele>488.4375</ele>
        <time>2021-12-30T15:33:54Z</time>
      </trkpt>
      <trkpt lat="43.31293" lon="6.14003">
        <ele>487.58984375</ele>
        <time>2021-12-30T15:33:55Z</time>
      </trkpt>
      <trkpt lat="43.31295" lon="6.14012">
        <ele>486.9921875</ele>
        <time>2021-12-30T15:33:56Z</time>
      </trkpt>
      <trkpt lat="43.31297" lon="6.1402">
        <ele>486.52734375</ele>
        <time>2021-12-30T15:33:57Z</time>
      </trkpt>
      <trkpt lat="43.313" lon="6.14029">
        <ele>486.28125</ele>
        <time>2021-12-30T15:33:58Z</time>
      </trkpt>
      <trkpt lat="43.31303" lon="6.14037">
        <ele>486.203125</ele>
        <time>2021-12-30T15:33:59Z</time>
      </trkpt>
      <trkpt lat="43.31307" lon="6.14045">
        <ele>486.078125</ele>
        <time>2021-12-30T15:34:00Z</time>
      </trkpt>
      <trkpt lat="43.31345" lon="6.14125">
        <ele>482.21484375</ele>
        <time>2021-12-30T15:34:10Z</time>
      </trkpt>
      <trkpt lat="43.31407" lon="6.14232">
        <ele>473.87109375</ele>
        <time>2021-12-30T15:34:25Z</time>
      </trkpt>
      <trkpt lat="43.31493" lon="6.14326">
        <ele>475.078125</ele>
        <time>2021-12-30T15:34:42Z</time>
      </trkpt>
      <trkpt lat="43.31524" lon="6.14389">
        <ele>478.875</ele>
        <time>2021-12-30T15:34:51Z</time>
      </trkpt>
      <trkpt lat="43.31526" lon="6.14397">
        <ele>478.9765625</ele>
        <time>2021-12-30T15:34:52Z</time>
      </trkpt>
      <trkpt lat="43.31535" lon="6.14471">
        <ele>473.6484375</ele>
        <time>2021-12-30T15:35:00Z</time>
      </trkpt>
      <trkpt lat="43.31548" lon="6.14527">
        <ele>465.7421875</ele>
        <time>2021-12-30T15:35:06Z</time>
      </trkpt>
      <trkpt lat="43.31551" lon="6.14535">
        <ele>464.78515625</ele>
        <time>2021-12-30T15:35:07Z</time>
      </trkpt>
      <trkpt lat="43.31555" lon="6.14542">
        <ele>464.08984375</ele>
        <time>2021-12-30T15:35:08Z</time>
      </trkpt>
      <trkpt lat="43.3156" lon="6.14549">
        <ele>462.9765625</ele>
        <time>2021-12-30T15:35:09Z</time>
      </trkpt>
      <trkpt lat="43.31565" lon="6.14555">
        <ele>462.109375</ele>
        <time>2021-12-30T15:35:10Z</time>
      </trkpt>
      <trkpt lat="43.3157" lon="6.14561">
        <ele>461.4375</ele>
        <time>2021-12-30T15:35:11Z</time>
      </trkpt>
      <trkpt lat="43.31576" lon="6.14565">
        <ele>461.203125</ele>
        <time>2021-12-30T15:35:12Z</time>
      </trkpt>
      <trkpt lat="43.31582" lon="6.14568">
        <ele>461.27734375</ele>
        <time>2021-12-30T15:35:13Z</time>
      </trkpt>
      <trkpt lat="43.31588" lon="6.1457">
        <ele>461.24609375</ele>
        <time>2021-12-30T15:35:14Z</time>
      </trkpt>
      <trkpt lat="43.31595" lon="6.14571">
        <ele>461.3125</ele>
        <time>2021-12-30T15:35:15Z</time>
      </trkpt>
      <trkpt lat="43.31601" lon="6.14571">
        <ele>461.515625</ele>
        <time>2021-12-30T15:35:16Z</time>
      </trkpt>
      <trkpt lat="43.31608" lon="6.1457">
        <ele>461.81640625</ele>
        <time>2021-12-30T15:35:17Z</time>
      </trkpt>
      <trkpt lat="43.31641" lon="6.14565">
        <ele>465.9921875</ele>
        <time>2021-12-30T15:35:22Z</time>
      </trkpt>
      <trkpt lat="43.31648" lon="6.14566">
        <ele>466.54296875</ele>
        <time>2021-12-30T15:35:23Z</time>
      </trkpt>
      <trkpt lat="43.31654" lon="6.14569">
        <ele>466.83203125</ele>
        <time>2021-12-30T15:35:24Z</time>
      </trkpt>
      <trkpt lat="43.3166" lon="6.14574">
        <ele>466.88671875</ele>
        <time>2021-12-30T15:35:25Z</time>
      </trkpt>
      <trkpt lat="43.31665" lon="6.1458">
        <ele>466.74609375</ele>
        <time>2021-12-30T15:35:26Z</time>
      </trkpt>
      <trkpt lat="43.31669" lon="6.14588">
        <ele>466.4765625</ele>
        <time>2021-12-30T15:35:27Z</time>
      </trkpt>
      <trkpt lat="43.31672" lon="6.14597">
        <ele>466.14453125</ele>
        <time>2021-12-30T15:35:28Z</time>
      </trkpt>
      <trkpt lat="43.31688" lon="6.14644">
        <ele>464.6015625</ele>
        <time>2021-12-30T15:35:33Z</time>
      </trkpt>
      <trkpt lat="43.31697" lon="6.14672">
        <ele>463.921875</ele>
        <time>2021-12-30T15:35:36Z</time>
      </trkpt>
      <trkpt lat="43.31711" lon="6.14751">
        <ele>459.7421875</ele>
        <time>2021-12-30T15:35:44Z</time>
      </trkpt>
      <trkpt lat="43.31714" lon="6.1476">
        <ele>459.44140625</ele>
        <time>2021-12-30T15:35:45Z</time>
      </trkpt>
      <trkpt lat="43.31718" lon="6.14768">
        <ele>459.3984375</ele>
        <time>2021-12-30T15:35:46Z</time>
      </trkpt>
      <trkpt lat="43.31722" lon="6.14774">
        <ele>459.68359375</ele>
        <time>2021-12-30T15:35:47Z</time>
      </trkpt>
      <trkpt lat="43.31727" lon="6.1478">
        <ele>459.9765625</ele>
        <time>2021-12-30T15:35:48Z</time>
      </trkpt>
      <trkpt lat="43.31736" lon="6.14792">
        <ele>460.54296875</ele>
        <time>2021-12-30T15:35:50Z</time>
      </trkpt>
      <trkpt lat="43.3174" lon="6.14798">
        <ele>460.7265625</ele>
        <time>2021-12-30T15:35:51Z</time>
      </trkpt>
      <trkpt lat="43.31743" lon="6.14805">
        <ele>460.81640625</ele>
        <time>2021-12-30T15:35:52Z</time>
      </trkpt>
      <trkpt lat="43.31746" lon="6.14813">
        <ele>460.859375</ele>
        <time>2021-12-30T15:35:53Z</time>
      </trkpt>
      <trkpt lat="43.31748" lon="6.1482">
        <ele>460.828125</ele>
        <time>2021-12-30T15:35:54Z</time>
      </trkpt>
      <trkpt lat="43.3175" lon="6.14829">
        <ele>460.6796875</ele>
        <time>2021-12-30T15:35:55Z</time>
      </trkpt>
      <trkpt lat="43.31751" lon="6.14837">
        <ele>460.42578125</ele>
        <time>2021-12-30T15:35:56Z</time>
      </trkpt>
      <trkpt lat="43.31755" lon="6.14925">
        <ele>457.41015625</ele>
        <time>2021-12-30T15:36:06Z</time>
      </trkpt>
      <trkpt lat="43.31777" lon="6.1502">
        <ele>456</ele>
        <time>2021-12-30T15:36:18Z</time>
      </trkpt>
      <trkpt lat="43.31791" lon="6.15061">
        <ele>455.3203125</ele>
        <time>2021-12-30T15:36:24Z</time>
      </trkpt>
      <trkpt lat="43.31793" lon="6.15069">
        <ele>455.0390625</ele>
        <time>2021-12-30T15:36:25Z</time>
      </trkpt>
      <trkpt lat="43.31793" lon="6.15076">
        <ele>454.96484375</ele>
        <time>2021-12-30T15:36:26Z</time>
      </trkpt>
      <trkpt lat="43.31795" lon="6.15115">
        <ele>454.71484375</ele>
        <time>2021-12-30T15:36:31Z</time>
      </trkpt>
      <trkpt lat="43.31795" lon="6.15122">
        <ele>454.71484375</ele>
        <time>2021-12-30T15:36:32Z</time>
      </trkpt>
      <trkpt lat="43.31794" lon="6.1513">
        <ele>454.76953125</ele>
        <time>2021-12-30T15:36:33Z</time>
      </trkpt>
      <trkpt lat="43.31791" lon="6.15145">
        <ele>455.01953125</ele>
        <time>2021-12-30T15:36:35Z</time>
      </trkpt>
      <trkpt lat="43.31788" lon="6.1515">
        <ele>455.25390625</ele>
        <time>2021-12-30T15:36:36Z</time>
      </trkpt>
      <trkpt lat="43.31784" lon="6.15154">
        <ele>455.5234375</ele>
        <time>2021-12-30T15:36:37Z</time>
      </trkpt>
      <trkpt lat="43.31724" lon="6.15191">
        <ele>459</ele>
        <time>2021-12-30T15:36:50Z</time>
      </trkpt>
      <trkpt lat="43.3172" lon="6.15192">
        <ele>459.03125</ele>
        <time>2021-12-30T15:36:51Z</time>
      </trkpt>
      <trkpt lat="43.31715" lon="6.15191">
        <ele>459.09765625</ele>
        <time>2021-12-30T15:36:52Z</time>
      </trkpt>
      <trkpt lat="43.31711" lon="6.1519">
        <ele>459.12890625</ele>
        <time>2021-12-30T15:36:53Z</time>
      </trkpt>
      <trkpt lat="43.31708" lon="6.15186">
        <ele>459.1015625</ele>
        <time>2021-12-30T15:36:54Z</time>
      </trkpt>
      <trkpt lat="43.31705" lon="6.15181">
        <ele>459.01171875</ele>
        <time>2021-12-30T15:36:55Z</time>
      </trkpt>
      <trkpt lat="43.31703" lon="6.15175">
        <ele>458.6328125</ele>
        <time>2021-12-30T15:36:56Z</time>
      </trkpt>
      <trkpt lat="43.31701" lon="6.15167">
        <ele>458.13671875</ele>
        <time>2021-12-30T15:36:57Z</time>
      </trkpt>
      <trkpt lat="43.31701" lon="6.15158">
        <ele>457.5703125</ele>
        <time>2021-12-30T15:36:58Z</time>
      </trkpt>
      <trkpt lat="43.31701" lon="6.15149">
        <ele>456.9375</ele>
        <time>2021-12-30T15:36:59Z</time>
      </trkpt>
      <trkpt lat="43.317" lon="6.15139">
        <ele>456.234375</ele>
        <time>2021-12-30T15:37:00Z</time>
      </trkpt>
      <trkpt lat="43.31692" lon="6.15097">
        <ele>452.9921875</ele>
        <time>2021-12-30T15:37:04Z</time>
      </trkpt>
      <trkpt lat="43.31689" lon="6.15086">
        <ele>452.11328125</ele>
        <time>2021-12-30T15:37:05Z</time>
      </trkpt>
      <trkpt lat="43.31685" lon="6.15075">
        <ele>451.109375</ele>
        <time>2021-12-30T15:37:06Z</time>
      </trkpt>
      <trkpt lat="43.31679" lon="6.15064">
        <ele>450.0703125</ele>
        <time>2021-12-30T15:37:07Z</time>
      </trkpt>
      <trkpt lat="43.31673" lon="6.15054">
        <ele>449.109375</ele>
        <time>2021-12-30T15:37:08Z</time>
      </trkpt>
      <trkpt lat="43.31666" lon="6.15045">
        <ele>448.19140625</ele>
        <time>2021-12-30T15:37:09Z</time>
      </trkpt>
      <trkpt lat="43.31658" lon="6.15037">
        <ele>447.265625</ele>
        <time>2021-12-30T15:37:10Z</time>
      </trkpt>
      <trkpt lat="43.31648" lon="6.15029">
        <ele>446.140625</ele>
        <time>2021-12-30T15:37:11Z</time>
      </trkpt>
      <trkpt lat="43.31619" lon="6.15003">
        <ele>441.42578125</ele>
        <time>2021-12-30T15:37:14Z</time>
      </trkpt>
      <trkpt lat="43.316" lon="6.14987">
        <ele>437.90234375</ele>
        <time>2021-12-30T15:37:16Z</time>
      </trkpt>
      <trkpt lat="43.3157" lon="6.14962">
        <ele>432.875</ele>
        <time>2021-12-30T15:37:19Z</time>
      </trkpt>
      <trkpt lat="43.31549" lon="6.14942">
        <ele>429.43359375</ele>
        <time>2021-12-30T15:37:21Z</time>
      </trkpt>
      <trkpt lat="43.31526" lon="6.14926">
        <ele>426.57421875</ele>
        <time>2021-12-30T15:37:23Z</time>
      </trkpt>
      <trkpt lat="43.31514" lon="6.1492">
        <ele>425.54296875</ele>
        <time>2021-12-30T15:37:24Z</time>
      </trkpt>
      <trkpt lat="43.31491" lon="6.1491">
        <ele>423.43359375</ele>
        <time>2021-12-30T15:37:26Z</time>
      </trkpt>
      <trkpt lat="43.31479" lon="6.14907">
        <ele>422.68359375</ele>
        <time>2021-12-30T15:37:27Z</time>
      </trkpt>
      <trkpt lat="43.31455" lon="6.14904">
        <ele>421.50390625</ele>
        <time>2021-12-30T15:37:29Z</time>
      </trkpt>
      <trkpt lat="43.31422" lon="6.14896">
        <ele>420.75390625</ele>
        <time>2021-12-30T15:37:32Z</time>
      </trkpt>
      <trkpt lat="43.314" lon="6.14889">
        <ele>420.18359375</ele>
        <time>2021-12-30T15:37:34Z</time>
      </trkpt>
      <trkpt lat="43.31388" lon="6.14887">
        <ele>419.8515625</ele>
        <time>2021-12-30T15:37:35Z</time>
      </trkpt>
      <trkpt lat="43.31377" lon="6.14887">
        <ele>419.4453125</ele>
        <time>2021-12-30T15:37:36Z</time>
      </trkpt>
      <trkpt lat="43.31367" lon="6.14889">
        <ele>419.1796875</ele>
        <time>2021-12-30T15:37:37Z</time>
      </trkpt>
      <trkpt lat="43.31357" lon="6.14891">
        <ele>419</ele>
        <time>2021-12-30T15:37:38Z</time>
      </trkpt>
      <trkpt lat="43.31331" lon="6.14902">
        <ele>418.77734375</ele>
        <time>2021-12-30T15:37:41Z</time>
      </trkpt>
      <trkpt lat="43.31251" lon="6.14962">
        <ele>419.83984375</ele>
        <time>2021-12-30T15:37:53Z</time>
      </trkpt>
      <trkpt lat="43.3124" lon="6.14971">
        <ele>420.3203125</ele>
        <time>2021-12-30T15:37:55Z</time>
      </trkpt>
      <trkpt lat="43.31234" lon="6.14974">
        <ele>420.2890625</ele>
        <time>2021-12-30T15:37:56Z</time>
      </trkpt>
      <trkpt lat="43.31186" lon="6.14997">
        <ele>420.24609375</ele>
        <time>2021-12-30T15:38:04Z</time>
      </trkpt>
      <trkpt lat="43.31181" lon="6.15">
        <ele>420.4140625</ele>
        <time>2021-12-30T15:38:05Z</time>
      </trkpt>
      <trkpt lat="43.31134" lon="6.15028">
        <ele>421.80859375</ele>
        <time>2021-12-30T15:38:15Z</time>
      </trkpt>
      <trkpt lat="43.31105" lon="6.15041">
        <ele>422.79296875</ele>
        <time>2021-12-30T15:38:22Z</time>
      </trkpt>
      <trkpt lat="43.31101" lon="6.15042">
        <ele>422.953125</ele>
        <time>2021-12-30T15:38:23Z</time>
      </trkpt>
      <trkpt lat="43.3104" lon="6.15039">
        <ele>421.6953125</ele>
        <time>2021-12-30T15:38:38Z</time>
      </trkpt>
      <trkpt lat="43.30958" lon="6.15011">
        <ele>418.6484375</ele>
        <time>2021-12-30T15:38:52Z</time>
      </trkpt>
      <trkpt lat="43.30944" lon="6.15006">
        <ele>418.09765625</ele>
        <time>2021-12-30T15:38:54Z</time>
      </trkpt>
      <trkpt lat="43.30915" lon="6.14995">
        <ele>416.93359375</ele>
        <time>2021-12-30T15:38:58Z</time>
      </trkpt>
      <trkpt lat="43.30907" lon="6.14993">
        <ele>416.9609375</ele>
        <time>2021-12-30T15:38:59Z</time>
      </trkpt>
      <trkpt lat="43.30899" lon="6.14992">
        <ele>417.1328125</ele>
        <time>2021-12-30T15:39:00Z</time>
      </trkpt>
      <trkpt lat="43.30892" lon="6.14994">
        <ele>417.453125</ele>
        <time>2021-12-30T15:39:01Z</time>
      </trkpt>
      <trkpt lat="43.30885" lon="6.14997">
        <ele>417.74609375</ele>
        <time>2021-12-30T15:39:02Z</time>
      </trkpt>
      <trkpt lat="43.30878" lon="6.15001">
        <ele>418.03515625</ele>
        <time>2021-12-30T15:39:03Z</time>
      </trkpt>
      <trkpt lat="43.30874" lon="6.15005">
        <ele>418.3671875</ele>
        <time>2021-12-30T15:39:04Z</time>
      </trkpt>
      <trkpt lat="43.3087" lon="6.1501">
        <ele>418.734375</ele>
        <time>2021-12-30T15:39:05Z</time>
      </trkpt>
      <trkpt lat="43.30866" lon="6.15015">
        <ele>419.12890625</ele>
        <time>2021-12-30T15:39:06Z</time>
      </trkpt>
      <trkpt lat="43.30863" lon="6.1502">
        <ele>419.6171875</ele>
        <time>2021-12-30T15:39:07Z</time>
      </trkpt>
      <trkpt lat="43.30839" lon="6.1506">
        <ele>423.42578125</ele>
        <time>2021-12-30T15:39:16Z</time>
      </trkpt>
      <trkpt lat="43.30808" lon="6.15124">
        <ele>428.0703125</ele>
        <time>2021-12-30T15:39:30Z</time>
      </trkpt>
      <trkpt lat="43.30805" lon="6.15129">
        <ele>428.17578125</ele>
        <time>2021-12-30T15:39:31Z</time>
      </trkpt>
      <trkpt lat="43.30802" lon="6.15133">
        <ele>428.2421875</ele>
        <time>2021-12-30T15:39:32Z</time>
      </trkpt>
      <trkpt lat="43.30785" lon="6.15158">
        <ele>428.67578125</ele>
        <time>2021-12-30T15:39:37Z</time>
      </trkpt>
      <trkpt lat="43.30783" lon="6.15164">
        <ele>428.73828125</ele>
        <time>2021-12-30T15:39:38Z</time>
      </trkpt>
      <trkpt lat="43.30781" lon="6.1517">
        <ele>428.84375</ele>
        <time>2021-12-30T15:39:39Z</time>
      </trkpt>
      <trkpt lat="43.30778" lon="6.15191">
        <ele>429.35546875</ele>
        <time>2021-12-30T15:39:42Z</time>
      </trkpt>
      <trkpt lat="43.30778" lon="6.15198">
        <ele>429.58984375</ele>
        <time>2021-12-30T15:39:43Z</time>
      </trkpt>
      <trkpt lat="43.30778" lon="6.1521">
        <ele>430.06640625</ele>
        <time>2021-12-30T15:39:45Z</time>
      </trkpt>
      <trkpt lat="43.30779" lon="6.15216">
        <ele>430.33203125</ele>
        <time>2021-12-30T15:39:46Z</time>
      </trkpt>
      <trkpt lat="43.3078" lon="6.15222">
        <ele>430.62890625</ele>
        <time>2021-12-30T15:39:47Z</time>
      </trkpt>
      <trkpt lat="43.30781" lon="6.15227">
        <ele>430.94921875</ele>
        <time>2021-12-30T15:39:48Z</time>
      </trkpt>
      <trkpt lat="43.30782" lon="6.15232">
        <ele>431.28515625</ele>
        <time>2021-12-30T15:39:49Z</time>
      </trkpt>
      <trkpt lat="43.30788" lon="6.15289">
        <ele>433.68359375</ele>
        <time>2021-12-30T15:40:00Z</time>
      </trkpt>
      <trkpt lat="43.3078" lon="6.15346">
        <ele>435.05078125</ele>
        <time>2021-12-30T15:40:12Z</time>
      </trkpt>
      <trkpt lat="43.3078" lon="6.15393">
        <ele>436.71875</ele>
        <time>2021-12-30T15:40:22Z</time>
      </trkpt>
      <trkpt lat="43.30767" lon="6.15424">
        <ele>438.55078125</ele>
        <time>2021-12-30T15:40:30Z</time>
      </trkpt>
      <trkpt lat="43.30733" lon="6.1544">
        <ele>438.08203125</ele>
        <time>2021-12-30T15:40:42Z</time>
      </trkpt>
      <trkpt lat="43.3071" lon="6.15445">
        <ele>434.46484375</ele>
        <time>2021-12-30T15:40:55Z</time>
      </trkpt>
      <trkpt lat="43.3071" lon="6.15446">
        <ele>434.23828125</ele>
        <time>2021-12-30T15:41:18Z</time>
      </trkpt>
      <trkpt lat="43.3071" lon="6.15448">
        <ele>434.36328125</ele>
        <time>2021-12-30T15:41:48Z</time>
      </trkpt>
      <trkpt lat="43.30713" lon="6.15445">
        <ele>435.07421875</ele>
        <time>2021-12-30T15:42:16Z</time>
      </trkpt>
      <trkpt lat="43.30712" lon="6.15446">
        <ele>434.9453125</ele>
        <time>2021-12-30T15:42:43Z</time>
      </trkpt>
      <trkpt lat="43.30714" lon="6.15445">
        <ele>435.25</ele>
        <time>2021-12-30T15:43:07Z</time>
      </trkpt>
      <trkpt lat="43.30714" lon="6.15448">
        <ele>435.28515625</ele>
        <time>2021-12-30T15:43:27Z</time>
      </trkpt>
      <trkpt lat="43.30715" lon="6.15449">
        <ele>435.5390625</ele>
        <time>2021-12-30T15:43:28Z</time>
      </trkpt>
      <trkpt lat="43.30722" lon="6.15448">
        <ele>437.5234375</ele>
        <time>2021-12-30T15:43:32Z</time>
      </trkpt>
      <trkpt lat="43.30723" lon="6.15447">
        <ele>437.66015625</ele>
        <time>2021-12-30T15:43:33Z</time>
      </trkpt>
      <trkpt lat="43.30724" lon="6.15445">
        <ele>437.65625</ele>
        <time>2021-12-30T15:43:34Z</time>
      </trkpt>
      <trkpt lat="43.30723" lon="6.15443">
        <ele>437.50390625</ele>
        <time>2021-12-30T15:43:36Z</time>
      </trkpt>
      <trkpt lat="43.30722" lon="6.15441">
        <ele>437.37109375</ele>
        <time>2021-12-30T15:43:37Z</time>
      </trkpt>
      <trkpt lat="43.30721" lon="6.15441">
        <ele>437.046875</ele>
        <time>2021-12-30T15:43:38Z</time>
      </trkpt>
      <trkpt lat="43.3072" lon="6.15441">
        <ele>436.72265625</ele>
        <time>2021-12-30T15:43:39Z</time>
      </trkpt>
      <trkpt lat="43.30719" lon="6.15442">
        <ele>436.4765625</ele>
        <time>2021-12-30T15:43:40Z</time>
      </trkpt>
      <trkpt lat="43.30719" lon="6.15444">
        <ele>436.54296875</ele>
        <time>2021-12-30T15:43:41Z</time>
      </trkpt>
      <trkpt lat="43.3072" lon="6.15445">
        <ele>436.92578125</ele>
        <time>2021-12-30T15:43:42Z</time>
      </trkpt>
      <trkpt lat="43.30722" lon="6.15445">
        <ele>437.40234375</ele>
        <time>2021-12-30T15:43:43Z</time>
      </trkpt>
      <trkpt lat="43.30723" lon="6.15444">
        <ele>437.51953125</ele>
        <time>2021-12-30T15:43:44Z</time>
      </trkpt>
      <trkpt lat="43.30723" lon="6.15442">
        <ele>437.47265625</ele>
        <time>2021-12-30T15:43:45Z</time>
      </trkpt>
      <trkpt lat="43.30722" lon="6.15439">
        <ele>437.14453125</ele>
        <time>2021-12-30T15:43:59Z</time>
      </trkpt>
      <trkpt lat="43.3072" lon="6.15436">
        <ele>436.6953125</ele>
        <time>2021-12-30T15:44:09Z</time>
      </trkpt>
      <trkpt lat="43.30719" lon="6.15434">
        <ele>436.40234375</ele>
        <time>2021-12-30T15:44:10Z</time>
      </trkpt>
      <trkpt lat="43.30718" lon="6.15432">
        <ele>436.171875</ele>
        <time>2021-12-30T15:44:11Z</time>
      </trkpt>
      <trkpt lat="43.30706" lon="6.1541">
        <ele>435.38671875</ele>
        <time>2021-12-30T15:44:20Z</time>
      </trkpt>
      <trkpt lat="43.30703" lon="6.15406">
        <ele>435.3515625</ele>
        <time>2021-12-30T15:44:22Z</time>
      </trkpt>
      <trkpt lat="43.30702" lon="6.15402">
        <ele>435.55078125</ele>
        <time>2021-12-30T15:44:23Z</time>
      </trkpt>
      <trkpt lat="43.30702" lon="6.15399">
        <ele>435.8046875</ele>
        <time>2021-12-30T15:44:24Z</time>
      </trkpt>
      <trkpt lat="43.30702" lon="6.15396">
        <ele>436.078125</ele>
        <time>2021-12-30T15:44:25Z</time>
      </trkpt>
      <trkpt lat="43.30702" lon="6.15392">
        <ele>436.34765625</ele>
        <time>2021-12-30T15:44:26Z</time>
      </trkpt>
      <trkpt lat="43.30701" lon="6.15388">
        <ele>436.65625</ele>
        <time>2021-12-30T15:44:27Z</time>
      </trkpt>
      <trkpt lat="43.30701" lon="6.15385">
        <ele>436.984375</ele>
        <time>2021-12-30T15:44:28Z</time>
      </trkpt>
      <trkpt lat="43.30692" lon="6.15367">
        <ele>438.27734375</ele>
        <time>2021-12-30T15:44:34Z</time>
      </trkpt>
      <trkpt lat="43.30689" lon="6.15366">
        <ele>438.32421875</ele>
        <time>2021-12-30T15:44:35Z</time>
      </trkpt>
      <trkpt lat="43.30687" lon="6.15366">
        <ele>438.32421875</ele>
        <time>2021-12-30T15:44:36Z</time>
      </trkpt>
      <trkpt lat="43.30684" lon="6.15366">
        <ele>438.328125</ele>
        <time>2021-12-30T15:44:37Z</time>
      </trkpt>
      <trkpt lat="43.30681" lon="6.15365">
        <ele>438.37109375</ele>
        <time>2021-12-30T15:44:38Z</time>
      </trkpt>
      <trkpt lat="43.30679" lon="6.15365">
        <ele>438.4296875</ele>
        <time>2021-12-30T15:44:39Z</time>
      </trkpt>
      <trkpt lat="43.30676" lon="6.15364">
        <ele>438.546875</ele>
        <time>2021-12-30T15:44:40Z</time>
      </trkpt>
      <trkpt lat="43.30675" lon="6.15363">
        <ele>438.6875</ele>
        <time>2021-12-30T15:44:41Z</time>
      </trkpt>
      <trkpt lat="43.30665" lon="6.15353">
        <ele>439.66015625</ele>
        <time>2021-12-30T15:44:47Z</time>
      </trkpt>
      <trkpt lat="43.30658" lon="6.15337">
        <ele>440.23828125</ele>
        <time>2021-12-30T15:44:52Z</time>
      </trkpt>
      <trkpt lat="43.30657" lon="6.1533">
        <ele>440.921875</ele>
        <time>2021-12-30T15:44:55Z</time>
      </trkpt>
      <trkpt lat="43.30655" lon="6.15328">
        <ele>440.82421875</ele>
        <time>2021-12-30T15:44:56Z</time>
      </trkpt>
      <trkpt lat="43.30653" lon="6.15327">
        <ele>440.64453125</ele>
        <time>2021-12-30T15:44:57Z</time>
      </trkpt>
      <trkpt lat="43.30652" lon="6.15325">
        <ele>440.73828125</ele>
        <time>2021-12-30T15:44:58Z</time>
      </trkpt>
      <trkpt lat="43.30652" lon="6.15321">
        <ele>441.109375</ele>
        <time>2021-12-30T15:44:59Z</time>
      </trkpt>
      <trkpt lat="43.30652" lon="6.15318">
        <ele>441.2890625</ele>
        <time>2021-12-30T15:45:00Z</time>
      </trkpt>
      <trkpt lat="43.30651" lon="6.15313">
        <ele>441.09765625</ele>
        <time>2021-12-30T15:45:01Z</time>
      </trkpt>
      <trkpt lat="43.3065" lon="6.15308">
        <ele>440.9453125</ele>
        <time>2021-12-30T15:45:02Z</time>
      </trkpt>
      <trkpt lat="43.3065" lon="6.15302">
        <ele>440.796875</ele>
        <time>2021-12-30T15:45:03Z</time>
      </trkpt>
      <trkpt lat="43.30649" lon="6.15295">
        <ele>440.70703125</ele>
        <time>2021-12-30T15:45:04Z</time>
      </trkpt>
      <trkpt lat="43.30649" lon="6.1529">
        <ele>440.6328125</ele>
        <time>2021-12-30T15:45:05Z</time>
      </trkpt>
      <trkpt lat="43.30649" lon="6.15285">
        <ele>440.4921875</ele>
        <time>2021-12-30T15:45:06Z</time>
      </trkpt>
      <trkpt lat="43.3065" lon="6.15282">
        <ele>440.3984375</ele>
        <time>2021-12-30T15:45:07Z</time>
      </trkpt>
      <trkpt lat="43.30649" lon="6.15276">
        <ele>440.12890625</ele>
        <time>2021-12-30T15:45:18Z</time>
      </trkpt>
      <trkpt lat="43.30649" lon="6.15276">
        <ele>440.09375</ele>
        <time>2021-12-30T15:45:22Z</time>
      </trkpt>
      <trkpt lat="43.30648" lon="6.15273">
        <ele>439.95703125</ele>
        <time>2021-12-30T15:45:23Z</time>
      </trkpt>
      <trkpt lat="43.30648" lon="6.15269">
        <ele>439.796875</ele>
        <time>2021-12-30T15:45:24Z</time>
      </trkpt>
      <trkpt lat="43.30648" lon="6.15265">
        <ele>439.68359375</ele>
        <time>2021-12-30T15:45:25Z</time>
      </trkpt>
      <trkpt lat="43.30649" lon="6.15262">
        <ele>439.58203125</ele>
        <time>2021-12-30T15:45:26Z</time>
      </trkpt>
      <trkpt lat="43.30648" lon="6.15253">
        <ele>439.140625</ele>
        <time>2021-12-30T15:45:35Z</time>
      </trkpt>
      <trkpt lat="43.30648" lon="6.15251">
        <ele>439.01953125</ele>
        <time>2021-12-30T15:45:37Z</time>
      </trkpt>
      <trkpt lat="43.30643" lon="6.15218">
        <ele>437.49609375</ele>
        <time>2021-12-30T15:45:48Z</time>
      </trkpt>
      <trkpt lat="43.30643" lon="6.15215">
        <ele>437.375</ele>
        <time>2021-12-30T15:45:49Z</time>
      </trkpt>
      <trkpt lat="43.30639" lon="6.15192">
        <ele>437.00390625</ele>
        <time>2021-12-30T15:45:58Z</time>
      </trkpt>
      <trkpt lat="43.30641" lon="6.15183">
        <ele>437.00390625</ele>
        <time>2021-12-30T15:46:09Z</time>
      </trkpt>
      <trkpt lat="43.30641" lon="6.1518">
        <ele>436.9765625</ele>
        <time>2021-12-30T15:46:13Z</time>
      </trkpt>
      <trkpt lat="43.30641" lon="6.15178">
        <ele>436.89453125</ele>
        <time>2021-12-30T15:46:14Z</time>
      </trkpt>
      <trkpt lat="43.30641" lon="6.15175">
        <ele>436.79296875</ele>
        <time>2021-12-30T15:46:15Z</time>
      </trkpt>
      <trkpt lat="43.30643" lon="6.15172">
        <ele>436.69140625</ele>
        <time>2021-12-30T15:46:16Z</time>
      </trkpt>
      <trkpt lat="43.30643" lon="6.1517">
        <ele>436.60546875</ele>
        <time>2021-12-30T15:46:17Z</time>
      </trkpt>
      <trkpt lat="43.30648" lon="6.15163">
        <ele>436.34765625</ele>
        <time>2021-12-30T15:46:27Z</time>
      </trkpt>
      <trkpt lat="43.30648" lon="6.1516">
        <ele>436.2578125</ele>
        <time>2021-12-30T15:46:28Z</time>
      </trkpt>
      <trkpt lat="43.30647" lon="6.15157">
        <ele>436.15625</ele>
        <time>2021-12-30T15:46:29Z</time>
      </trkpt>
      <trkpt lat="43.30647" lon="6.15154">
        <ele>436.03515625</ele>
        <time>2021-12-30T15:46:30Z</time>
      </trkpt>
      <trkpt lat="43.30648" lon="6.1515">
        <ele>436</ele>
        <time>2021-12-30T15:46:31Z</time>
      </trkpt>
      <trkpt lat="43.3065" lon="6.15146">
        <ele>436</ele>
        <time>2021-12-30T15:46:32Z</time>
      </trkpt>
      <trkpt lat="43.30652" lon="6.15142">
        <ele>436</ele>
        <time>2021-12-30T15:46:33Z</time>
      </trkpt>
      <trkpt lat="43.30652" lon="6.15139">
        <ele>436</ele>
        <time>2021-12-30T15:46:34Z</time>
      </trkpt>
      <trkpt lat="43.3065" lon="6.15136">
        <ele>436</ele>
        <time>2021-12-30T15:46:35Z</time>
      </trkpt>
      <trkpt lat="43.30644" lon="6.15129">
        <ele>436</ele>
        <time>2021-12-30T15:46:42Z</time>
      </trkpt>
      <trkpt lat="43.30646" lon="6.15123">
        <ele>436</ele>
        <time>2021-12-30T15:46:58Z</time>
      </trkpt>
      <trkpt lat="43.30647" lon="6.1512">
        <ele>436</ele>
        <time>2021-12-30T15:47:01Z</time>
      </trkpt>
      <trkpt lat="43.30646" lon="6.15117">
        <ele>436</ele>
        <time>2021-12-30T15:47:03Z</time>
      </trkpt>
      <trkpt lat="43.30645" lon="6.15114">
        <ele>436</ele>
        <time>2021-12-30T15:47:04Z</time>
      </trkpt>
      <trkpt lat="43.30644" lon="6.1511">
        <ele>436</ele>
        <time>2021-12-30T15:47:05Z</time>
      </trkpt>
      <trkpt lat="43.30645" lon="6.15108">
        <ele>436</ele>
        <time>2021-12-30T15:47:06Z</time>
      </trkpt>
      <trkpt lat="43.30645" lon="6.15105">
        <ele>436</ele>
        <time>2021-12-30T15:47:07Z</time>
      </trkpt>
      <trkpt lat="43.30646" lon="6.15103">
        <ele>436</ele>
        <time>2021-12-30T15:47:08Z</time>
      </trkpt>
      <trkpt lat="43.30647" lon="6.15102">
        <ele>436</ele>
        <time>2021-12-30T15:47:09Z</time>
      </trkpt>
      <trkpt lat="43.30647" lon="6.151">
        <ele>436</ele>
        <time>2021-12-30T15:47:10Z</time>
      </trkpt>
      <trkpt lat="43.30648" lon="6.15098">
        <ele>436</ele>
        <time>2021-12-30T15:47:11Z</time>
      </trkpt>
      <trkpt lat="43.30648" lon="6.15095">
        <ele>435.92578125</ele>
        <time>2021-12-30T15:47:12Z</time>
      </trkpt>
      <trkpt lat="43.30648" lon="6.15093">
        <ele>435.82421875</ele>
        <time>2021-12-30T15:47:13Z</time>
      </trkpt>
      <trkpt lat="43.30647" lon="6.1508">
        <ele>435.3828125</ele>
        <time>2021-12-30T15:47:17Z</time>
      </trkpt>
      <trkpt lat="43.30648" lon="6.15077">
        <ele>435.2578125</ele>
        <time>2021-12-30T15:47:18Z</time>
      </trkpt>
      <trkpt lat="43.30647" lon="6.15074">
        <ele>435.14453125</ele>
        <time>2021-12-30T15:47:19Z</time>
      </trkpt>
      <trkpt lat="43.30645" lon="6.15072">
        <ele>435.06640625</ele>
        <time>2021-12-30T15:47:20Z</time>
      </trkpt>
      <trkpt lat="43.30644" lon="6.1507">
        <ele>435</ele>
        <time>2021-12-30T15:47:21Z</time>
      </trkpt>
      <trkpt lat="43.30643" lon="6.15067">
        <ele>435</ele>
        <time>2021-12-30T15:47:22Z</time>
      </trkpt>
      <trkpt lat="43.30644" lon="6.15064">
        <ele>435</ele>
        <time>2021-12-30T15:47:23Z</time>
      </trkpt>
      <trkpt lat="43.30645" lon="6.15062">
        <ele>435</ele>
        <time>2021-12-30T15:47:24Z</time>
      </trkpt>
      <trkpt lat="43.30646" lon="6.15059">
        <ele>435</ele>
        <time>2021-12-30T15:47:25Z</time>
      </trkpt>
      <trkpt lat="43.30647" lon="6.15056">
        <ele>435</ele>
        <time>2021-12-30T15:47:26Z</time>
      </trkpt>
      <trkpt lat="43.30648" lon="6.15053">
        <ele>435</ele>
        <time>2021-12-30T15:47:27Z</time>
      </trkpt>
      <trkpt lat="43.30648" lon="6.15049">
        <ele>435</ele>
        <time>2021-12-30T15:47:28Z</time>
      </trkpt>
      <trkpt lat="43.30649" lon="6.15045">
        <ele>435</ele>
        <time>2021-12-30T15:47:29Z</time>
      </trkpt>
      <trkpt lat="43.30649" lon="6.15042">
        <ele>435.01171875</ele>
        <time>2021-12-30T15:47:30Z</time>
      </trkpt>
      <trkpt lat="43.30649" lon="6.15038">
        <ele>435.1015625</ele>
        <time>2021-12-30T15:47:31Z</time>
      </trkpt>
      <trkpt lat="43.30649" lon="6.15034">
        <ele>435.1875</ele>
        <time>2021-12-30T15:47:32Z</time>
      </trkpt>
      <trkpt lat="43.30651" lon="6.15031">
        <ele>435.2421875</ele>
        <time>2021-12-30T15:47:33Z</time>
      </trkpt>
      <trkpt lat="43.30652" lon="6.15028">
        <ele>435.26953125</ele>
        <time>2021-12-30T15:47:34Z</time>
      </trkpt>
      <trkpt lat="43.30653" lon="6.15024">
        <ele>435.3125</ele>
        <time>2021-12-30T15:47:35Z</time>
      </trkpt>
      <trkpt lat="43.30654" lon="6.1502">
        <ele>435.37890625</ele>
        <time>2021-12-30T15:47:36Z</time>
      </trkpt>
      <trkpt lat="43.30653" lon="6.15017">
        <ele>435.46875</ele>
        <time>2021-12-30T15:47:37Z</time>
      </trkpt>
      <trkpt lat="43.30652" lon="6.15013">
        <ele>435.55078125</ele>
        <time>2021-12-30T15:47:38Z</time>
      </trkpt>
      <trkpt lat="43.30653" lon="6.15009">
        <ele>435.6015625</ele>
        <time>2021-12-30T15:47:39Z</time>
      </trkpt>
      <trkpt lat="43.30653" lon="6.15006">
        <ele>435.65625</ele>
        <time>2021-12-30T15:47:40Z</time>
      </trkpt>
      <trkpt lat="43.30652" lon="6.15002">
        <ele>435.73828125</ele>
        <time>2021-12-30T15:47:41Z</time>
      </trkpt>
      <trkpt lat="43.30653" lon="6.14972">
        <ele>436.53515625</ele>
        <time>2021-12-30T15:47:48Z</time>
      </trkpt>
      <trkpt lat="43.30651" lon="6.14968">
        <ele>436.66015625</ele>
        <time>2021-12-30T15:47:49Z</time>
      </trkpt>
      <trkpt lat="43.30649" lon="6.14965">
        <ele>436.77734375</ele>
        <time>2021-12-30T15:47:50Z</time>
      </trkpt>
      <trkpt lat="43.30649" lon="6.14961">
        <ele>436.90625</ele>
        <time>2021-12-30T15:47:51Z</time>
      </trkpt>
      <trkpt lat="43.30649" lon="6.14958">
        <ele>437.0234375</ele>
        <time>2021-12-30T15:47:52Z</time>
      </trkpt>
      <trkpt lat="43.30649" lon="6.14954">
        <ele>437.109375</ele>
        <time>2021-12-30T15:47:53Z</time>
      </trkpt>
      <trkpt lat="43.30648" lon="6.14951">
        <ele>437.1953125</ele>
        <time>2021-12-30T15:47:54Z</time>
      </trkpt>
      <trkpt lat="43.30647" lon="6.14947">
        <ele>437.28515625</ele>
        <time>2021-12-30T15:47:55Z</time>
      </trkpt>
      <trkpt lat="43.30647" lon="6.14944">
        <ele>437.375</ele>
        <time>2021-12-30T15:47:56Z</time>
      </trkpt>
      <trkpt lat="43.30647" lon="6.14941">
        <ele>437.45703125</ele>
        <time>2021-12-30T15:47:57Z</time>
      </trkpt>
      <trkpt lat="43.30648" lon="6.14938">
        <ele>437.51171875</ele>
        <time>2021-12-30T15:47:58Z</time>
      </trkpt>
      <trkpt lat="43.30649" lon="6.14934">
        <ele>437.5625</ele>
        <time>2021-12-30T15:47:59Z</time>
      </trkpt>
      <trkpt lat="43.3065" lon="6.14929">
        <ele>437.62109375</ele>
        <time>2021-12-30T15:48:00Z</time>
      </trkpt>
      <trkpt lat="43.30651" lon="6.14925">
        <ele>437.66796875</ele>
        <time>2021-12-30T15:48:01Z</time>
      </trkpt>
      <trkpt lat="43.30653" lon="6.14887">
        <ele>438.59375</ele>
        <time>2021-12-30T15:48:11Z</time>
      </trkpt>
      <trkpt lat="43.30652" lon="6.14884">
        <ele>438.7578125</ele>
        <time>2021-12-30T15:48:12Z</time>
      </trkpt>
      <trkpt lat="43.3065" lon="6.14883">
        <ele>438.890625</ele>
        <time>2021-12-30T15:48:13Z</time>
      </trkpt>
      <trkpt lat="43.30647" lon="6.1488">
        <ele>439.19140625</ele>
        <time>2021-12-30T15:48:15Z</time>
      </trkpt>
      <trkpt lat="43.30646" lon="6.14879">
        <ele>439.359375</ele>
        <time>2021-12-30T15:48:16Z</time>
      </trkpt>
      <trkpt lat="43.30645" lon="6.14876">
        <ele>439.5546875</ele>
        <time>2021-12-30T15:48:17Z</time>
      </trkpt>
      <trkpt lat="43.30643" lon="6.14871">
        <ele>440.0078125</ele>
        <time>2021-12-30T15:48:19Z</time>
      </trkpt>
      <trkpt lat="43.30636" lon="6.1486">
        <ele>441.078125</ele>
        <time>2021-12-30T15:48:24Z</time>
      </trkpt>
      <trkpt lat="43.30636" lon="6.14857">
        <ele>441.2578125</ele>
        <time>2021-12-30T15:48:25Z</time>
      </trkpt>
      <trkpt lat="43.30637" lon="6.14856">
        <ele>441.39453125</ele>
        <time>2021-12-30T15:48:26Z</time>
      </trkpt>
      <trkpt lat="43.30637" lon="6.14854">
        <ele>441.546875</ele>
        <time>2021-12-30T15:48:27Z</time>
      </trkpt>
      <trkpt lat="43.30637" lon="6.14851">
        <ele>441.71484375</ele>
        <time>2021-12-30T15:48:28Z</time>
      </trkpt>
      <trkpt lat="43.30637" lon="6.14849">
        <ele>441.87890625</ele>
        <time>2021-12-30T15:48:29Z</time>
      </trkpt>
      <trkpt lat="43.30636" lon="6.14847">
        <ele>442.00390625</ele>
        <time>2021-12-30T15:48:30Z</time>
      </trkpt>
      <trkpt lat="43.30635" lon="6.14844">
        <ele>442.015625</ele>
        <time>2021-12-30T15:48:31Z</time>
      </trkpt>
      <trkpt lat="43.30634" lon="6.14842">
        <ele>442.0390625</ele>
        <time>2021-12-30T15:48:32Z</time>
      </trkpt>
      <trkpt lat="43.30633" lon="6.1484">
        <ele>442.0625</ele>
        <time>2021-12-30T15:48:33Z</time>
      </trkpt>
      <trkpt lat="43.30631" lon="6.14838">
        <ele>442.09765625</ele>
        <time>2021-12-30T15:48:34Z</time>
      </trkpt>
      <trkpt lat="43.3063" lon="6.14837">
        <ele>442.13671875</ele>
        <time>2021-12-30T15:48:35Z</time>
      </trkpt>
      <trkpt lat="43.30629" lon="6.14835">
        <ele>442.17578125</ele>
        <time>2021-12-30T15:48:36Z</time>
      </trkpt>
      <trkpt lat="43.30628" lon="6.14833">
        <ele>442.22265625</ele>
        <time>2021-12-30T15:48:37Z</time>
      </trkpt>
      <trkpt lat="43.30628" lon="6.1483">
        <ele>442.265625</ele>
        <time>2021-12-30T15:48:38Z</time>
      </trkpt>
      <trkpt lat="43.30628" lon="6.14827">
        <ele>442.2890625</ele>
        <time>2021-12-30T15:48:39Z</time>
      </trkpt>
      <trkpt lat="43.30629" lon="6.14825">
        <ele>442.2890625</ele>
        <time>2021-12-30T15:48:40Z</time>
      </trkpt>
      <trkpt lat="43.3063" lon="6.14824">
        <ele>442.2734375</ele>
        <time>2021-12-30T15:48:41Z</time>
      </trkpt>
      <trkpt lat="43.30631" lon="6.14822">
        <ele>442.265625</ele>
        <time>2021-12-30T15:48:42Z</time>
      </trkpt>
      <trkpt lat="43.30632" lon="6.1482">
        <ele>442.26953125</ele>
        <time>2021-12-30T15:48:43Z</time>
      </trkpt>
      <trkpt lat="43.30632" lon="6.14818">
        <ele>442.3203125</ele>
        <time>2021-12-30T15:48:44Z</time>
      </trkpt>
      <trkpt lat="43.30632" lon="6.14815">
        <ele>442.375</ele>
        <time>2021-12-30T15:48:45Z</time>
      </trkpt>
      <trkpt lat="43.30633" lon="6.14813">
        <ele>442.41796875</ele>
        <time>2021-12-30T15:48:46Z</time>
      </trkpt>
      <trkpt lat="43.30633" lon="6.14809">
        <ele>442.54296875</ele>
        <time>2021-12-30T15:48:59Z</time>
      </trkpt>
      <trkpt lat="43.30634" lon="6.14804">
        <ele>442.64453125</ele>
        <time>2021-12-30T15:49:13Z</time>
      </trkpt>
      <trkpt lat="43.30632" lon="6.14798">
        <ele>442.83203125</ele>
        <time>2021-12-30T15:49:24Z</time>
      </trkpt>
      <trkpt lat="43.30635" lon="6.14785">
        <ele>442.9609375</ele>
        <time>2021-12-30T15:49:33Z</time>
      </trkpt>
      <trkpt lat="43.30637" lon="6.14779">
        <ele>442.96875</ele>
        <time>2021-12-30T15:49:36Z</time>
      </trkpt>
      <trkpt lat="43.30652" lon="6.14766">
        <ele>441.578125</ele>
        <time>2021-12-30T15:49:42Z</time>
      </trkpt>
      <trkpt lat="43.30659" lon="6.14754">
        <ele>440.5625</ele>
        <time>2021-12-30T15:49:45Z</time>
      </trkpt>
      <trkpt lat="43.30672" lon="6.14734">
        <ele>438.671875</ele>
        <time>2021-12-30T15:49:51Z</time>
      </trkpt>
      <trkpt lat="43.30674" lon="6.14729">
        <ele>437.734375</ele>
        <time>2021-12-30T15:49:52Z</time>
      </trkpt>
      <trkpt lat="43.30677" lon="6.14724">
        <ele>436.92578125</ele>
        <time>2021-12-30T15:49:53Z</time>
      </trkpt>
      <trkpt lat="43.30682" lon="6.14712">
        <ele>435.44140625</ele>
        <time>2021-12-30T15:49:55Z</time>
      </trkpt>
      <trkpt lat="43.30685" lon="6.14707">
        <ele>434.55078125</ele>
        <time>2021-12-30T15:49:56Z</time>
      </trkpt>
      <trkpt lat="43.30691" lon="6.147">
        <ele>432.68359375</ele>
        <time>2021-12-30T15:49:58Z</time>
      </trkpt>
      <trkpt lat="43.30699" lon="6.1469">
        <ele>430.35546875</ele>
        <time>2021-12-30T15:50:02Z</time>
      </trkpt>
      <trkpt lat="43.30702" lon="6.14685">
        <ele>429.53125</ele>
        <time>2021-12-30T15:50:04Z</time>
      </trkpt>
      <trkpt lat="43.30702" lon="6.14683">
        <ele>429.30078125</ele>
        <time>2021-12-30T15:50:05Z</time>
      </trkpt>
      <trkpt lat="43.30703" lon="6.14679">
        <ele>428.9765625</ele>
        <time>2021-12-30T15:50:07Z</time>
      </trkpt>
      <trkpt lat="43.30705" lon="6.14677">
        <ele>428.69921875</ele>
        <time>2021-12-30T15:50:08Z</time>
      </trkpt>
      <trkpt lat="43.30709" lon="6.14672">
        <ele>428.1328125</ele>
        <time>2021-12-30T15:50:10Z</time>
      </trkpt>
      <trkpt lat="43.3071" lon="6.14669">
        <ele>427.94921875</ele>
        <time>2021-12-30T15:50:11Z</time>
      </trkpt>
      <trkpt lat="43.3071" lon="6.14666">
        <ele>427.81640625</ele>
        <time>2021-12-30T15:50:12Z</time>
      </trkpt>
      <trkpt lat="43.30713" lon="6.14662">
        <ele>427.57421875</ele>
        <time>2021-12-30T15:50:23Z</time>
      </trkpt>
      <trkpt lat="43.30713" lon="6.14657">
        <ele>427.41015625</ele>
        <time>2021-12-30T15:51:03Z</time>
      </trkpt>
      <trkpt lat="43.30713" lon="6.14652">
        <ele>427.265625</ele>
        <time>2021-12-30T15:51:08Z</time>
      </trkpt>
      <trkpt lat="43.30712" lon="6.14647">
        <ele>426.9140625</ele>
        <time>2021-12-30T15:51:16Z</time>
      </trkpt>
      <trkpt lat="43.30711" lon="6.14651">
        <ele>427.234375</ele>
        <time>2021-12-30T15:51:30Z</time>
      </trkpt>
      <trkpt lat="43.30707" lon="6.14651">
        <ele>427.30078125</ele>
        <time>2021-12-30T15:51:35Z</time>
      </trkpt>
      <trkpt lat="43.30705" lon="6.1465">
        <ele>427.34375</ele>
        <time>2021-12-30T15:51:36Z</time>
      </trkpt>
      <trkpt lat="43.30702" lon="6.1465">
        <ele>427.37890625</ele>
        <time>2021-12-30T15:51:37Z</time>
      </trkpt>
      <trkpt lat="43.30701" lon="6.14651">
        <ele>427.4921875</ele>
        <time>2021-12-30T15:51:38Z</time>
      </trkpt>
      <trkpt lat="43.30699" lon="6.14652">
        <ele>427.66015625</ele>
        <time>2021-12-30T15:51:39Z</time>
      </trkpt>
      <trkpt lat="43.30697" lon="6.14651">
        <ele>427.57421875</ele>
        <time>2021-12-30T15:51:43Z</time>
      </trkpt>
      <trkpt lat="43.30697" lon="6.14649">
        <ele>427.375</ele>
        <time>2021-12-30T15:51:44Z</time>
      </trkpt>
      <trkpt lat="43.30697" lon="6.14647">
        <ele>427.109375</ele>
        <time>2021-12-30T15:51:45Z</time>
      </trkpt>
      <trkpt lat="43.30697" lon="6.14644">
        <ele>426.68359375</ele>
        <time>2021-12-30T15:51:46Z</time>
      </trkpt>
      <trkpt lat="43.30696" lon="6.1464">
        <ele>426.0859375</ele>
        <time>2021-12-30T15:51:47Z</time>
      </trkpt>
      <trkpt lat="43.30696" lon="6.14635">
        <ele>425.4375</ele>
        <time>2021-12-30T15:51:48Z</time>
      </trkpt>
      <trkpt lat="43.30696" lon="6.14631">
        <ele>424.921875</ele>
        <time>2021-12-30T15:51:49Z</time>
      </trkpt>
      <trkpt lat="43.30696" lon="6.14629">
        <ele>424.5859375</ele>
        <time>2021-12-30T15:51:50Z</time>
      </trkpt>
      <trkpt lat="43.30695" lon="6.14628">
        <ele>424.421875</ele>
        <time>2021-12-30T15:51:51Z</time>
      </trkpt>
      <trkpt lat="43.30693" lon="6.14629">
        <ele>424.2890625</ele>
        <time>2021-12-30T15:51:52Z</time>
      </trkpt>
      <trkpt lat="43.30692" lon="6.1463">
        <ele>424.26953125</ele>
        <time>2021-12-30T15:51:53Z</time>
      </trkpt>
      <trkpt lat="43.3069" lon="6.14632">
        <ele>424.28515625</ele>
        <time>2021-12-30T15:51:54Z</time>
      </trkpt>
      <trkpt lat="43.30688" lon="6.14634">
        <ele>424.21875</ele>
        <time>2021-12-30T15:51:55Z</time>
      </trkpt>
      <trkpt lat="43.30687" lon="6.14634">
        <ele>424.109375</ele>
        <time>2021-12-30T15:51:56Z</time>
      </trkpt>
      <trkpt lat="43.30685" lon="6.14635">
        <ele>424.0703125</ele>
        <time>2021-12-30T15:51:57Z</time>
      </trkpt>
      <trkpt lat="43.30683" lon="6.14636">
        <ele>423.9453125</ele>
        <time>2021-12-30T15:51:58Z</time>
      </trkpt>
      <trkpt lat="43.3068" lon="6.14637">
        <ele>423.7109375</ele>
        <time>2021-12-30T15:51:59Z</time>
      </trkpt>
      <trkpt lat="43.3067" lon="6.14639">
        <ele>422.69921875</ele>
        <time>2021-12-30T15:52:02Z</time>
      </trkpt>
      <trkpt lat="43.30656" lon="6.1464">
        <ele>419.4375</ele>
        <time>2021-12-30T15:52:06Z</time>
      </trkpt>
      <trkpt lat="43.3065" lon="6.14638">
        <ele>416.921875</ele>
        <time>2021-12-30T15:52:08Z</time>
      </trkpt>
      <trkpt lat="43.30625" lon="6.14652">
        <ele>414.87109375</ele>
        <time>2021-12-30T15:52:15Z</time>
      </trkpt>
      <trkpt lat="43.30609" lon="6.14659">
        <ele>413.9375</ele>
        <time>2021-12-30T15:52:19Z</time>
      </trkpt>
      <trkpt lat="43.30604" lon="6.14663">
        <ele>414.21484375</ele>
        <time>2021-12-30T15:52:20Z</time>
      </trkpt>
      <trkpt lat="43.30594" lon="6.14669">
        <ele>414.15234375</ele>
        <time>2021-12-30T15:52:22Z</time>
      </trkpt>
      <trkpt lat="43.30582" lon="6.14674">
        <ele>413.01953125</ele>
        <time>2021-12-30T15:52:24Z</time>
      </trkpt>
      <trkpt lat="43.30566" lon="6.14681">
        <ele>411.6640625</ele>
        <time>2021-12-30T15:52:27Z</time>
      </trkpt>
      <trkpt lat="43.3056" lon="6.14682">
        <ele>410.51171875</ele>
        <time>2021-12-30T15:52:28Z</time>
      </trkpt>
      <trkpt lat="43.30554" lon="6.14682">
        <ele>408.9375</ele>
        <time>2021-12-30T15:52:29Z</time>
      </trkpt>
      <trkpt lat="43.30549" lon="6.14681">
        <ele>407.39453125</ele>
        <time>2021-12-30T15:52:30Z</time>
      </trkpt>
      <trkpt lat="43.30543" lon="6.1468">
        <ele>405.76953125</ele>
        <time>2021-12-30T15:52:31Z</time>
      </trkpt>
      <trkpt lat="43.30523" lon="6.1468">
        <ele>401.52734375</ele>
        <time>2021-12-30T15:52:35Z</time>
      </trkpt>
      <trkpt lat="43.3052" lon="6.14678">
        <ele>400.59765625</ele>
        <time>2021-12-30T15:52:36Z</time>
      </trkpt>
      <trkpt lat="43.30506" lon="6.14683">
        <ele>397.47265625</ele>
        <time>2021-12-30T15:52:42Z</time>
      </trkpt>
      <trkpt lat="43.30498" lon="6.14699">
        <ele>395.890625</ele>
        <time>2021-12-30T15:52:46Z</time>
      </trkpt>
      <trkpt lat="43.30487" lon="6.14706">
        <ele>392.203125</ele>
        <time>2021-12-30T15:52:50Z</time>
      </trkpt>
      <trkpt lat="43.30482" lon="6.14708">
        <ele>390.34375</ele>
        <time>2021-12-30T15:52:52Z</time>
      </trkpt>
      <trkpt lat="43.3048" lon="6.14707">
        <ele>389.80078125</ele>
        <time>2021-12-30T15:52:53Z</time>
      </trkpt>
      <trkpt lat="43.3048" lon="6.14705">
        <ele>389.72265625</ele>
        <time>2021-12-30T15:52:54Z</time>
      </trkpt>
      <trkpt lat="43.3048" lon="6.14702">
        <ele>389.9140625</ele>
        <time>2021-12-30T15:52:56Z</time>
      </trkpt>
      <trkpt lat="43.3048" lon="6.147">
        <ele>390.15234375</ele>
        <time>2021-12-30T15:52:57Z</time>
      </trkpt>
      <trkpt lat="43.3048" lon="6.14698">
        <ele>390.18359375</ele>
        <time>2021-12-30T15:52:58Z</time>
      </trkpt>
      <trkpt lat="43.3048" lon="6.14696">
        <ele>390.14453125</ele>
        <time>2021-12-30T15:52:59Z</time>
      </trkpt>
      <trkpt lat="43.30479" lon="6.14693">
        <ele>390.15234375</ele>
        <time>2021-12-30T15:53:00Z</time>
      </trkpt>
      <trkpt lat="43.3048" lon="6.1469">
        <ele>390.4140625</ele>
        <time>2021-12-30T15:53:01Z</time>
      </trkpt>
      <trkpt lat="43.30481" lon="6.14687">
        <ele>390.74609375</ele>
        <time>2021-12-30T15:53:02Z</time>
      </trkpt>
      <trkpt lat="43.30481" lon="6.14685">
        <ele>390.9609375</ele>
        <time>2021-12-30T15:53:03Z</time>
      </trkpt>
      <trkpt lat="43.30479" lon="6.14683">
        <ele>390.64453125</ele>
        <time>2021-12-30T15:53:05Z</time>
      </trkpt>
      <trkpt lat="43.30472" lon="6.14689">
        <ele>388.30859375</ele>
        <time>2021-12-30T15:53:10Z</time>
      </trkpt>
      <trkpt lat="43.3047" lon="6.1469">
        <ele>387.18359375</ele>
        <time>2021-12-30T15:53:11Z</time>
      </trkpt>
      <trkpt lat="43.30468" lon="6.14692">
        <ele>386.234375</ele>
        <time>2021-12-30T15:53:12Z</time>
      </trkpt>
      <trkpt lat="43.30467" lon="6.14694">
        <ele>385.75</ele>
        <time>2021-12-30T15:53:13Z</time>
      </trkpt>
      <trkpt lat="43.30467" lon="6.14696">
        <ele>385.5</ele>
        <time>2021-12-30T15:53:14Z</time>
      </trkpt>
      <trkpt lat="43.30466" lon="6.14698">
        <ele>385.1640625</ele>
        <time>2021-12-30T15:53:15Z</time>
      </trkpt>
      <trkpt lat="43.30465" lon="6.14701">
        <ele>384.59375</ele>
        <time>2021-12-30T15:53:16Z</time>
      </trkpt>
      <trkpt lat="43.30464" lon="6.14703">
        <ele>384.078125</ele>
        <time>2021-12-30T15:53:17Z</time>
      </trkpt>
      <trkpt lat="43.30464" lon="6.14705">
        <ele>383.73828125</ele>
        <time>2021-12-30T15:53:18Z</time>
      </trkpt>
      <trkpt lat="43.30463" lon="6.14707">
        <ele>383.25390625</ele>
        <time>2021-12-30T15:53:19Z</time>
      </trkpt>
      <trkpt lat="43.3046" lon="6.14707">
        <ele>382.140625</ele>
        <time>2021-12-30T15:53:21Z</time>
      </trkpt>
      <trkpt lat="43.30458" lon="6.14707">
        <ele>381.15234375</ele>
        <time>2021-12-30T15:53:22Z</time>
      </trkpt>
      <trkpt lat="43.30455" lon="6.14706">
        <ele>380.15234375</ele>
        <time>2021-12-30T15:53:23Z</time>
      </trkpt>
      <trkpt lat="43.30444" lon="6.14701">
        <ele>376.02734375</ele>
        <time>2021-12-30T15:53:27Z</time>
      </trkpt>
      <trkpt lat="43.30442" lon="6.14702">
        <ele>375.07421875</ele>
        <time>2021-12-30T15:53:29Z</time>
      </trkpt>
      <trkpt lat="43.30441" lon="6.14703">
        <ele>374.78515625</ele>
        <time>2021-12-30T15:53:30Z</time>
      </trkpt>
      <trkpt lat="43.3044" lon="6.14706">
        <ele>374.515625</ele>
        <time>2021-12-30T15:53:31Z</time>
      </trkpt>
      <trkpt lat="43.30439" lon="6.14708">
        <ele>374.05078125</ele>
        <time>2021-12-30T15:53:32Z</time>
      </trkpt>
      <trkpt lat="43.30438" lon="6.14711">
        <ele>373.37109375</ele>
        <time>2021-12-30T15:53:33Z</time>
      </trkpt>
      <trkpt lat="43.30433" lon="6.14717">
        <ele>371.8828125</ele>
        <time>2021-12-30T15:53:35Z</time>
      </trkpt>
      <trkpt lat="43.3043" lon="6.14723">
        <ele>370.7578125</ele>
        <time>2021-12-30T15:53:37Z</time>
      </trkpt>
      <trkpt lat="43.30425" lon="6.14729">
        <ele>368.8125</ele>
        <time>2021-12-30T15:53:40Z</time>
      </trkpt>
      <trkpt lat="43.30418" lon="6.14722">
        <ele>366.48046875</ele>
        <time>2021-12-30T15:53:44Z</time>
      </trkpt>
      <trkpt lat="43.30406" lon="6.14717">
        <ele>362.9140625</ele>
        <time>2021-12-30T15:53:49Z</time>
      </trkpt>
      <trkpt lat="43.304" lon="6.14711">
        <ele>360.98046875</ele>
        <time>2021-12-30T15:53:52Z</time>
      </trkpt>
      <trkpt lat="43.30398" lon="6.14708">
        <ele>360.421875</ele>
        <time>2021-12-30T15:53:53Z</time>
      </trkpt>
      <trkpt lat="43.30394" lon="6.14702">
        <ele>359.1484375</ele>
        <time>2021-12-30T15:53:55Z</time>
      </trkpt>
      <trkpt lat="43.30393" lon="6.14653">
        <ele>355.35546875</ele>
        <time>2021-12-30T15:54:04Z</time>
      </trkpt>
      <trkpt lat="43.30397" lon="6.14642">
        <ele>356.34765625</ele>
        <time>2021-12-30T15:54:08Z</time>
      </trkpt>
      <trkpt lat="43.30397" lon="6.14633">
        <ele>354.9921875</ele>
        <time>2021-12-30T15:54:11Z</time>
      </trkpt>
      <trkpt lat="43.30396" lon="6.14621">
        <ele>353.31640625</ele>
        <time>2021-12-30T15:54:15Z</time>
      </trkpt>
      <trkpt lat="43.30401" lon="6.14592">
        <ele>350.453125</ele>
        <time>2021-12-30T15:54:24Z</time>
      </trkpt>
      <trkpt lat="43.30407" lon="6.14572">
        <ele>348.69921875</ele>
        <time>2021-12-30T15:54:30Z</time>
      </trkpt>
      <trkpt lat="43.30428" lon="6.14545">
        <ele>346.08203125</ele>
        <time>2021-12-30T15:54:42Z</time>
      </trkpt>
      <trkpt lat="43.30438" lon="6.14536">
        <ele>345.18359375</ele>
        <time>2021-12-30T15:54:46Z</time>
      </trkpt>
      <trkpt lat="43.30457" lon="6.14535">
        <ele>348.14453125</ele>
        <time>2021-12-30T15:54:52Z</time>
      </trkpt>
      <trkpt lat="43.30475" lon="6.14522">
        <ele>345.140625</ele>
        <time>2021-12-30T15:54:57Z</time>
      </trkpt>
      <trkpt lat="43.30482" lon="6.14517">
        <ele>344.296875</ele>
        <time>2021-12-30T15:54:59Z</time>
      </trkpt>
      <trkpt lat="43.30499" lon="6.14508">
        <ele>343.9609375</ele>
        <time>2021-12-30T15:55:04Z</time>
      </trkpt>
      <trkpt lat="43.30498" lon="6.14495">
        <ele>340.71484375</ele>
        <time>2021-12-30T15:55:09Z</time>
      </trkpt>
      <trkpt lat="43.30499" lon="6.1449">
        <ele>339.4296875</ele>
        <time>2021-12-30T15:55:23Z</time>
      </trkpt>
      <trkpt lat="43.30496" lon="6.14489">
        <ele>338.49609375</ele>
        <time>2021-12-30T15:55:44Z</time>
      </trkpt>
      <trkpt lat="43.30497" lon="6.14489">
        <ele>338.875</ele>
        <time>2021-12-30T15:56:13Z</time>
      </trkpt>
      <trkpt lat="43.30495" lon="6.1449">
        <ele>338.546875</ele>
        <time>2021-12-30T15:56:38Z</time>
      </trkpt>
      <trkpt lat="43.30489" lon="6.14483">
        <ele>335.72265625</ele>
        <time>2021-12-30T15:57:07Z</time>
      </trkpt>
      <trkpt lat="43.30481" lon="6.14489">
        <ele>334.7109375</ele>
        <time>2021-12-30T15:57:22Z</time>
      </trkpt>
      <trkpt lat="43.30479" lon="6.14488">
        <ele>334.109375</ele>
        <time>2021-12-30T15:57:39Z</time>
      </trkpt>
      <trkpt lat="43.3047" lon="6.14484">
        <ele>331.30078125</ele>
        <time>2021-12-30T15:57:57Z</time>
      </trkpt>
      <trkpt lat="43.30457" lon="6.14486">
        <ele>329.73828125</ele>
        <time>2021-12-30T15:58:11Z</time>
      </trkpt>
      <trkpt lat="43.30433" lon="6.14493">
        <ele>329.00390625</ele>
        <time>2021-12-30T15:58:21Z</time>
      </trkpt>
      <trkpt lat="43.30396" lon="6.14494">
        <ele>323.54296875</ele>
        <time>2021-12-30T15:58:32Z</time>
      </trkpt>
      <trkpt lat="43.30392" lon="6.14496">
        <ele>323.17578125</ele>
        <time>2021-12-30T15:58:33Z</time>
      </trkpt>
      <trkpt lat="43.30388" lon="6.14498">
        <ele>322.91015625</ele>
        <time>2021-12-30T15:58:34Z</time>
      </trkpt>
      <trkpt lat="43.30384" lon="6.14502">
        <ele>323.15234375</ele>
        <time>2021-12-30T15:58:35Z</time>
      </trkpt>
      <trkpt lat="43.30381" lon="6.14506">
        <ele>323.796875</ele>
        <time>2021-12-30T15:58:36Z</time>
      </trkpt>
      <trkpt lat="43.30378" lon="6.1451">
        <ele>323.89453125</ele>
        <time>2021-12-30T15:58:37Z</time>
      </trkpt>
      <trkpt lat="43.30356" lon="6.14559">
        <ele>328.30859375</ele>
        <time>2021-12-30T15:58:48Z</time>
      </trkpt>
      <trkpt lat="43.30347" lon="6.14579">
        <ele>328.9296875</ele>
        <time>2021-12-30T15:58:53Z</time>
      </trkpt>
      <trkpt lat="43.30346" lon="6.14585">
        <ele>329.375</ele>
        <time>2021-12-30T15:58:54Z</time>
      </trkpt>
      <trkpt lat="43.30345" lon="6.14591">
        <ele>330.07421875</ele>
        <time>2021-12-30T15:58:55Z</time>
      </trkpt>
      <trkpt lat="43.30345" lon="6.14596">
        <ele>330.8203125</ele>
        <time>2021-12-30T15:58:56Z</time>
      </trkpt>
      <trkpt lat="43.30345" lon="6.14601">
        <ele>331.3046875</ele>
        <time>2021-12-30T15:58:57Z</time>
      </trkpt>
      <trkpt lat="43.30339" lon="6.1464">
        <ele>334.9296875</ele>
        <time>2021-12-30T15:59:07Z</time>
      </trkpt>
      <trkpt lat="43.30328" lon="6.147">
        <ele>338.45703125</ele>
        <time>2021-12-30T15:59:19Z</time>
      </trkpt>
      <trkpt lat="43.30323" lon="6.1474">
        <ele>337.9140625</ele>
        <time>2021-12-30T15:59:24Z</time>
      </trkpt>
      <trkpt lat="43.30323" lon="6.14748">
        <ele>337.65625</ele>
        <time>2021-12-30T15:59:25Z</time>
      </trkpt>
      <trkpt lat="43.30322" lon="6.14755">
        <ele>337.328125</ele>
        <time>2021-12-30T15:59:26Z</time>
      </trkpt>
      <trkpt lat="43.30321" lon="6.14762">
        <ele>336.88671875</ele>
        <time>2021-12-30T15:59:27Z</time>
      </trkpt>
      <trkpt lat="43.3032" lon="6.14766">
        <ele>336.37890625</ele>
        <time>2021-12-30T15:59:28Z</time>
      </trkpt>
      <trkpt lat="43.30318" lon="6.14769">
        <ele>335.7734375</ele>
        <time>2021-12-30T15:59:29Z</time>
      </trkpt>
      <trkpt lat="43.30315" lon="6.1477">
        <ele>335.0859375</ele>
        <time>2021-12-30T15:59:30Z</time>
      </trkpt>
      <trkpt lat="43.30308" lon="6.14774">
        <ele>333.0546875</ele>
        <time>2021-12-30T15:59:32Z</time>
      </trkpt>
      <trkpt lat="43.30291" lon="6.14765">
        <ele>329.75</ele>
        <time>2021-12-30T15:59:36Z</time>
      </trkpt>
      <trkpt lat="43.30283" lon="6.14764">
        <ele>327.94140625</ele>
        <time>2021-12-30T15:59:38Z</time>
      </trkpt>
      <trkpt lat="43.3026" lon="6.14777">
        <ele>323.6328125</ele>
        <time>2021-12-30T15:59:42Z</time>
      </trkpt>
      <trkpt lat="43.30231" lon="6.14796">
        <ele>318.36328125</ele>
        <time>2021-12-30T15:59:47Z</time>
      </trkpt>
      <trkpt lat="43.30225" lon="6.14802">
        <ele>317.33203125</ele>
        <time>2021-12-30T15:59:48Z</time>
      </trkpt>
      <trkpt lat="43.30219" lon="6.14808">
        <ele>316.33203125</ele>
        <time>2021-12-30T15:59:49Z</time>
      </trkpt>
      <trkpt lat="43.30212" lon="6.14817">
        <ele>315.01953125</ele>
        <time>2021-12-30T15:59:51Z</time>
      </trkpt>
      <trkpt lat="43.30208" lon="6.14823">
        <ele>314.3828125</ele>
        <time>2021-12-30T15:59:53Z</time>
      </trkpt>
      <trkpt lat="43.30206" lon="6.14824">
        <ele>313.9765625</ele>
        <time>2021-12-30T15:59:54Z</time>
      </trkpt>
      <trkpt lat="43.30203" lon="6.14823">
        <ele>313.48828125</ele>
        <time>2021-12-30T15:59:55Z</time>
      </trkpt>
      <trkpt lat="43.30201" lon="6.14823">
        <ele>313.00390625</ele>
        <time>2021-12-30T15:59:56Z</time>
      </trkpt>
      <trkpt lat="43.30198" lon="6.14823">
        <ele>312.5546875</ele>
        <time>2021-12-30T15:59:57Z</time>
      </trkpt>
      <trkpt lat="43.30196" lon="6.14825">
        <ele>312.15234375</ele>
        <time>2021-12-30T15:59:58Z</time>
      </trkpt>
      <trkpt lat="43.30194" lon="6.14828">
        <ele>311.92578125</ele>
        <time>2021-12-30T15:59:59Z</time>
      </trkpt>
      <trkpt lat="43.30193" lon="6.14831">
        <ele>311.76953125</ele>
        <time>2021-12-30T16:00:00Z</time>
      </trkpt>
      <trkpt lat="43.30192" lon="6.14835">
        <ele>311.56640625</ele>
        <time>2021-12-30T16:00:01Z</time>
      </trkpt>
      <trkpt lat="43.3019" lon="6.14838">
        <ele>311.234375</ele>
        <time>2021-12-30T16:00:02Z</time>
      </trkpt>
      <trkpt lat="43.30188" lon="6.14842">
        <ele>310.8046875</ele>
        <time>2021-12-30T16:00:03Z</time>
      </trkpt>
      <trkpt lat="43.30186" lon="6.14846">
        <ele>310.40234375</ele>
        <time>2021-12-30T16:00:04Z</time>
      </trkpt>
      <trkpt lat="43.30184" lon="6.14851">
        <ele>310.08984375</ele>
        <time>2021-12-30T16:00:05Z</time>
      </trkpt>
      <trkpt lat="43.30182" lon="6.14857">
        <ele>309.8359375</ele>
        <time>2021-12-30T16:00:06Z</time>
      </trkpt>
      <trkpt lat="43.3018" lon="6.14864">
        <ele>309.54296875</ele>
        <time>2021-12-30T16:00:07Z</time>
      </trkpt>
      <trkpt lat="43.30175" lon="6.14875">
        <ele>308.7578125</ele>
        <time>2021-12-30T16:00:09Z</time>
      </trkpt>
      <trkpt lat="43.30172" lon="6.14879">
        <ele>308.0546875</ele>
        <time>2021-12-30T16:00:10Z</time>
      </trkpt>
      <trkpt lat="43.30166" lon="6.14887">
        <ele>306.671875</ele>
        <time>2021-12-30T16:00:12Z</time>
      </trkpt>
      <trkpt lat="43.30163" lon="6.14891">
        <ele>306.08984375</ele>
        <time>2021-12-30T16:00:13Z</time>
      </trkpt>
      <trkpt lat="43.30156" lon="6.14898">
        <ele>304.7421875</ele>
        <time>2021-12-30T16:00:15Z</time>
      </trkpt>
      <trkpt lat="43.30153" lon="6.14902">
        <ele>303.8828125</ele>
        <time>2021-12-30T16:00:16Z</time>
      </trkpt>
      <trkpt lat="43.30145" lon="6.1491">
        <ele>302.64453125</ele>
        <time>2021-12-30T16:00:18Z</time>
      </trkpt>
      <trkpt lat="43.30131" lon="6.14929">
        <ele>300.66796875</ele>
        <time>2021-12-30T16:00:22Z</time>
      </trkpt>
      <trkpt lat="43.30125" lon="6.14937">
        <ele>299.27734375</ele>
        <time>2021-12-30T16:00:24Z</time>
      </trkpt>
      <trkpt lat="43.30123" lon="6.1494">
        <ele>298.734375</ele>
        <time>2021-12-30T16:00:25Z</time>
      </trkpt>
      <trkpt lat="43.3012" lon="6.14941">
        <ele>297.92578125</ele>
        <time>2021-12-30T16:00:26Z</time>
      </trkpt>
      <trkpt lat="43.30117" lon="6.14943">
        <ele>297.09765625</ele>
        <time>2021-12-30T16:00:27Z</time>
      </trkpt>
      <trkpt lat="43.30114" lon="6.14944">
        <ele>296.17578125</ele>
        <time>2021-12-30T16:00:28Z</time>
      </trkpt>
      <trkpt lat="43.3011" lon="6.14948">
        <ele>295.05078125</ele>
        <time>2021-12-30T16:00:29Z</time>
      </trkpt>
      <trkpt lat="43.30106" lon="6.14951">
        <ele>293.8515625</ele>
        <time>2021-12-30T16:00:30Z</time>
      </trkpt>
      <trkpt lat="43.30101" lon="6.14955">
        <ele>292.48828125</ele>
        <time>2021-12-30T16:00:31Z</time>
      </trkpt>
      <trkpt lat="43.30096" lon="6.1496">
        <ele>291.0234375</ele>
        <time>2021-12-30T16:00:32Z</time>
      </trkpt>
      <trkpt lat="43.30092" lon="6.14967">
        <ele>289.6640625</ele>
        <time>2021-12-30T16:00:33Z</time>
      </trkpt>
      <trkpt lat="43.30089" lon="6.14973">
        <ele>288.3984375</ele>
        <time>2021-12-30T16:00:34Z</time>
      </trkpt>
      <trkpt lat="43.30086" lon="6.1498">
        <ele>287.1328125</ele>
        <time>2021-12-30T16:00:35Z</time>
      </trkpt>
      <trkpt lat="43.30083" lon="6.14987">
        <ele>285.73046875</ele>
        <time>2021-12-30T16:00:36Z</time>
      </trkpt>
      <trkpt lat="43.30079" lon="6.14999">
        <ele>283.68359375</ele>
        <time>2021-12-30T16:00:38Z</time>
      </trkpt>
      <trkpt lat="43.30076" lon="6.15007">
        <ele>282.53515625</ele>
        <time>2021-12-30T16:00:40Z</time>
      </trkpt>
      <trkpt lat="43.30077" lon="6.1501">
        <ele>282.51171875</ele>
        <time>2021-12-30T16:00:41Z</time>
      </trkpt>
      <trkpt lat="43.30076" lon="6.15011">
        <ele>282.140625</ele>
        <time>2021-12-30T16:00:42Z</time>
      </trkpt>
      <trkpt lat="43.30075" lon="6.15013">
        <ele>281.69140625</ele>
        <time>2021-12-30T16:00:43Z</time>
      </trkpt>
      <trkpt lat="43.30073" lon="6.15015">
        <ele>281.13671875</ele>
        <time>2021-12-30T16:00:44Z</time>
      </trkpt>
      <trkpt lat="43.30072" lon="6.15018">
        <ele>280.6953125</ele>
        <time>2021-12-30T16:00:45Z</time>
      </trkpt>
      <trkpt lat="43.30072" lon="6.15021">
        <ele>280.61328125</ele>
        <time>2021-12-30T16:00:46Z</time>
      </trkpt>
      <trkpt lat="43.30072" lon="6.15024">
        <ele>280.54296875</ele>
        <time>2021-12-30T16:00:47Z</time>
      </trkpt>
      <trkpt lat="43.30073" lon="6.15029">
        <ele>280.546875</ele>
        <time>2021-12-30T16:00:48Z</time>
      </trkpt>
      <trkpt lat="43.30078" lon="6.15047">
        <ele>282.07421875</ele>
        <time>2021-12-30T16:00:51Z</time>
      </trkpt>
      <trkpt lat="43.30081" lon="6.15052">
        <ele>283.171875</ele>
        <time>2021-12-30T16:00:52Z</time>
      </trkpt>
      <trkpt lat="43.30086" lon="6.15061">
        <ele>284.6640625</ele>
        <time>2021-12-30T16:00:54Z</time>
      </trkpt>
      <trkpt lat="43.30084" lon="6.15069">
        <ele>284.88671875</ele>
        <time>2021-12-30T16:00:57Z</time>
      </trkpt>
      <trkpt lat="43.30081" lon="6.15069">
        <ele>284.51171875</ele>
        <time>2021-12-30T16:00:58Z</time>
      </trkpt>
      <trkpt lat="43.30079" lon="6.15068">
        <ele>284.15234375</ele>
        <time>2021-12-30T16:00:59Z</time>
      </trkpt>
      <trkpt lat="43.30078" lon="6.15067">
        <ele>283.859375</ele>
        <time>2021-12-30T16:01:00Z</time>
      </trkpt>
      <trkpt lat="43.30076" lon="6.15066">
        <ele>283.52734375</ele>
        <time>2021-12-30T16:01:01Z</time>
      </trkpt>
      <trkpt lat="43.30069" lon="6.15063">
        <ele>281.890625</ele>
        <time>2021-12-30T16:01:04Z</time>
      </trkpt>
      <trkpt lat="43.30065" lon="6.15061">
        <ele>281.01171875</ele>
        <time>2021-12-30T16:01:05Z</time>
      </trkpt>
      <trkpt lat="43.30062" lon="6.15058">
        <ele>280</ele>
        <time>2021-12-30T16:01:06Z</time>
      </trkpt>
      <trkpt lat="43.30059" lon="6.15056">
        <ele>279.03125</ele>
        <time>2021-12-30T16:01:07Z</time>
      </trkpt>
      <trkpt lat="43.30056" lon="6.15054">
        <ele>278.16015625</ele>
        <time>2021-12-30T16:01:08Z</time>
      </trkpt>
      <trkpt lat="43.30052" lon="6.15053">
        <ele>277.4140625</ele>
        <time>2021-12-30T16:01:09Z</time>
      </trkpt>
      <trkpt lat="43.30047" lon="6.15052">
        <ele>276.59375</ele>
        <time>2021-12-30T16:01:10Z</time>
      </trkpt>
      <trkpt lat="43.30042" lon="6.15051">
        <ele>275.70703125</ele>
        <time>2021-12-30T16:01:11Z</time>
      </trkpt>
      <trkpt lat="43.30038" lon="6.1505">
        <ele>274.875</ele>
        <time>2021-12-30T16:01:12Z</time>
      </trkpt>
      <trkpt lat="43.30033" lon="6.15051">
        <ele>274.21484375</ele>
        <time>2021-12-30T16:01:13Z</time>
      </trkpt>
      <trkpt lat="43.30027" lon="6.15051">
        <ele>273.58984375</ele>
        <time>2021-12-30T16:01:14Z</time>
      </trkpt>
      <trkpt lat="43.30022" lon="6.15051">
        <ele>272.85546875</ele>
        <time>2021-12-30T16:01:15Z</time>
      </trkpt>
      <trkpt lat="43.30016" lon="6.15051">
        <ele>271.97265625</ele>
        <time>2021-12-30T16:01:16Z</time>
      </trkpt>
      <trkpt lat="43.3001" lon="6.1505">
        <ele>271.12109375</ele>
        <time>2021-12-30T16:01:17Z</time>
      </trkpt>
      <trkpt lat="43.30005" lon="6.1505">
        <ele>270.2734375</ele>
        <time>2021-12-30T16:01:18Z</time>
      </trkpt>
      <trkpt lat="43.29998" lon="6.1505">
        <ele>269.56640625</ele>
        <time>2021-12-30T16:01:19Z</time>
      </trkpt>
      <trkpt lat="43.29992" lon="6.1505">
        <ele>269.0625</ele>
        <time>2021-12-30T16:01:20Z</time>
      </trkpt>
      <trkpt lat="43.29984" lon="6.15049">
        <ele>268.41796875</ele>
        <time>2021-12-30T16:01:21Z</time>
      </trkpt>
      <trkpt lat="43.29977" lon="6.15047">
        <ele>267.515625</ele>
        <time>2021-12-30T16:01:22Z</time>
      </trkpt>
      <trkpt lat="43.29971" lon="6.15045">
        <ele>266.5625</ele>
        <time>2021-12-30T16:01:23Z</time>
      </trkpt>
      <trkpt lat="43.29964" lon="6.15044">
        <ele>265.73046875</ele>
        <time>2021-12-30T16:01:24Z</time>
      </trkpt>
      <trkpt lat="43.29943" lon="6.1504">
        <ele>264.12109375</ele>
        <time>2021-12-30T16:01:27Z</time>
      </trkpt>
      <trkpt lat="43.29918" lon="6.1503">
        <ele>262.59765625</ele>
        <time>2021-12-30T16:01:31Z</time>
      </trkpt>
      <trkpt lat="43.29913" lon="6.1503">
        <ele>262.0078125</ele>
        <time>2021-12-30T16:01:32Z</time>
      </trkpt>
      <trkpt lat="43.29907" lon="6.15029">
        <ele>261.4140625</ele>
        <time>2021-12-30T16:01:33Z</time>
      </trkpt>
      <trkpt lat="43.29889" lon="6.15024">
        <ele>259.73046875</ele>
        <time>2021-12-30T16:01:36Z</time>
      </trkpt>
      <trkpt lat="43.29883" lon="6.15022">
        <ele>259.34765625</ele>
        <time>2021-12-30T16:01:37Z</time>
      </trkpt>
      <trkpt lat="43.29869" lon="6.15015">
        <ele>258.8359375</ele>
        <time>2021-12-30T16:01:40Z</time>
      </trkpt>
      <trkpt lat="43.29865" lon="6.15013">
        <ele>258.796875</ele>
        <time>2021-12-30T16:01:41Z</time>
      </trkpt>
      <trkpt lat="43.29834" lon="6.15">
        <ele>259.5234375</ele>
        <time>2021-12-30T16:01:48Z</time>
      </trkpt>
      <trkpt lat="43.29813" lon="6.14994">
        <ele>260.34375</ele>
        <time>2021-12-30T16:01:58Z</time>
      </trkpt>
      <trkpt lat="43.29799" lon="6.14995">
        <ele>259.3359375</ele>
        <time>2021-12-30T16:02:19Z</time>
      </trkpt>
      <trkpt lat="43.29782" lon="6.14992">
        <ele>258.96484375</ele>
        <time>2021-12-30T16:02:22Z</time>
      </trkpt>
      <trkpt lat="43.29774" lon="6.14993">
        <ele>258.17578125</ele>
        <time>2021-12-30T16:02:23Z</time>
      </trkpt>
      <trkpt lat="43.29766" lon="6.14993">
        <ele>257.125</ele>
        <time>2021-12-30T16:02:24Z</time>
      </trkpt>
      <trkpt lat="43.29758" lon="6.14993">
        <ele>256.31640625</ele>
        <time>2021-12-30T16:02:25Z</time>
      </trkpt>
      <trkpt lat="43.2975" lon="6.14991">
        <ele>255.8046875</ele>
        <time>2021-12-30T16:02:26Z</time>
      </trkpt>
      <trkpt lat="43.29743" lon="6.14989">
        <ele>255.1328125</ele>
        <time>2021-12-30T16:02:27Z</time>
      </trkpt>
      <trkpt lat="43.29736" lon="6.14985">
        <ele>254.6171875</ele>
        <time>2021-12-30T16:02:28Z</time>
      </trkpt>
      <trkpt lat="43.2973" lon="6.14981">
        <ele>254.1484375</ele>
        <time>2021-12-30T16:02:29Z</time>
      </trkpt>
      <trkpt lat="43.29724" lon="6.14975">
        <ele>253.83984375</ele>
        <time>2021-12-30T16:02:30Z</time>
      </trkpt>
      <trkpt lat="43.29718" lon="6.14968">
        <ele>253.36328125</ele>
        <time>2021-12-30T16:02:31Z</time>
      </trkpt>
      <trkpt lat="43.29706" lon="6.14952">
        <ele>252.55078125</ele>
        <time>2021-12-30T16:02:33Z</time>
      </trkpt>
      <trkpt lat="43.29694" lon="6.14934">
        <ele>251.31640625</ele>
        <time>2021-12-30T16:02:35Z</time>
      </trkpt>
      <trkpt lat="43.29681" lon="6.14916">
        <ele>249.34765625</ele>
        <time>2021-12-30T16:02:37Z</time>
      </trkpt>
      <trkpt lat="43.29666" lon="6.14898">
        <ele>246.984375</ele>
        <time>2021-12-30T16:02:39Z</time>
      </trkpt>
      <trkpt lat="43.29641" lon="6.14855">
        <ele>243.90234375</ele>
        <time>2021-12-30T16:02:43Z</time>
      </trkpt>
      <trkpt lat="43.29625" lon="6.14817">
        <ele>243.38671875</ele>
        <time>2021-12-30T16:02:47Z</time>
      </trkpt>
      <trkpt lat="43.2962" lon="6.14808">
        <ele>242.671875</ele>
        <time>2021-12-30T16:02:48Z</time>
      </trkpt>
      <trkpt lat="43.29615" lon="6.148">
        <ele>241.53515625</ele>
        <time>2021-12-30T16:02:49Z</time>
      </trkpt>
      <trkpt lat="43.29609" lon="6.14792">
        <ele>240.13671875</ele>
        <time>2021-12-30T16:02:50Z</time>
      </trkpt>
      <trkpt lat="43.29595" lon="6.14774">
        <ele>236.9453125</ele>
        <time>2021-12-30T16:02:52Z</time>
      </trkpt>
      <trkpt lat="43.2958" lon="6.14752">
        <ele>233.44140625</ele>
        <time>2021-12-30T16:02:54Z</time>
      </trkpt>
      <trkpt lat="43.29574" lon="6.14739">
        <ele>232.265625</ele>
        <time>2021-12-30T16:02:55Z</time>
      </trkpt>
      <trkpt lat="43.29568" lon="6.14728">
        <ele>231.2109375</ele>
        <time>2021-12-30T16:02:56Z</time>
      </trkpt>
      <trkpt lat="43.29562" lon="6.14719">
        <ele>230.0234375</ele>
        <time>2021-12-30T16:02:57Z</time>
      </trkpt>
      <trkpt lat="43.29557" lon="6.14716">
        <ele>228.8203125</ele>
        <time>2021-12-30T16:02:58Z</time>
      </trkpt>
      <trkpt lat="43.29551" lon="6.14716">
        <ele>227.4453125</ele>
        <time>2021-12-30T16:02:59Z</time>
      </trkpt>
      <trkpt lat="43.29546" lon="6.14716">
        <ele>226.14453125</ele>
        <time>2021-12-30T16:03:00Z</time>
      </trkpt>
      <trkpt lat="43.29541" lon="6.14713">
        <ele>225.1484375</ele>
        <time>2021-12-30T16:03:01Z</time>
      </trkpt>
      <trkpt lat="43.29538" lon="6.14709">
        <ele>224.390625</ele>
        <time>2021-12-30T16:03:02Z</time>
      </trkpt>
      <trkpt lat="43.29536" lon="6.14703">
        <ele>224.0234375</ele>
        <time>2021-12-30T16:03:03Z</time>
      </trkpt>
      <trkpt lat="43.29534" lon="6.14697">
        <ele>223.79296875</ele>
        <time>2021-12-30T16:03:04Z</time>
      </trkpt>
      <trkpt lat="43.29533" lon="6.1469">
        <ele>223.6015625</ele>
        <time>2021-12-30T16:03:05Z</time>
      </trkpt>
      <trkpt lat="43.29532" lon="6.14684">
        <ele>223.51953125</ele>
        <time>2021-12-30T16:03:06Z</time>
      </trkpt>
      <trkpt lat="43.2953" lon="6.14677">
        <ele>223.37109375</ele>
        <time>2021-12-30T16:03:07Z</time>
      </trkpt>
      <trkpt lat="43.2953" lon="6.1467">
        <ele>223.2421875</ele>
        <time>2021-12-30T16:03:08Z</time>
      </trkpt>
      <trkpt lat="43.2953" lon="6.14662">
        <ele>223.20703125</ele>
        <time>2021-12-30T16:03:09Z</time>
      </trkpt>
      <trkpt lat="43.2953" lon="6.14654">
        <ele>223.2265625</ele>
        <time>2021-12-30T16:03:10Z</time>
      </trkpt>
      <trkpt lat="43.29532" lon="6.14576">
        <ele>222.80078125</ele>
        <time>2021-12-30T16:03:20Z</time>
      </trkpt>
      <trkpt lat="43.29532" lon="6.14569">
        <ele>222.6171875</ele>
        <time>2021-12-30T16:03:21Z</time>
      </trkpt>
      <trkpt lat="43.29531" lon="6.14561">
        <ele>222.44140625</ele>
        <time>2021-12-30T16:03:22Z</time>
      </trkpt>
      <trkpt lat="43.2953" lon="6.14553">
        <ele>222.30078125</ele>
        <time>2021-12-30T16:03:23Z</time>
      </trkpt>
      <trkpt lat="43.2953" lon="6.14543">
        <ele>222.26953125</ele>
        <time>2021-12-30T16:03:24Z</time>
      </trkpt>
      <trkpt lat="43.29527" lon="6.14451">
        <ele>219.79296875</ele>
        <time>2021-12-30T16:03:35Z</time>
      </trkpt>
      <trkpt lat="43.29526" lon="6.14396">
        <ele>218.359375</ele>
        <time>2021-12-30T16:03:42Z</time>
      </trkpt>
      <trkpt lat="43.29516" lon="6.14335">
        <ele>216.34375</ele>
        <time>2021-12-30T16:03:53Z</time>
      </trkpt>
      <trkpt lat="43.29513" lon="6.14294">
        <ele>215.28515625</ele>
        <time>2021-12-30T16:04:03Z</time>
      </trkpt>
      <trkpt lat="43.2951" lon="6.14283">
        <ele>214.9140625</ele>
        <time>2021-12-30T16:04:05Z</time>
      </trkpt>
      <trkpt lat="43.29509" lon="6.14209">
        <ele>212.6015625</ele>
        <time>2021-12-30T16:04:18Z</time>
      </trkpt>
      <trkpt lat="43.29509" lon="6.14195">
        <ele>212.578125</ele>
        <time>2021-12-30T16:04:20Z</time>
      </trkpt>
      <trkpt lat="43.2951" lon="6.14188">
        <ele>212.62890625</ele>
        <time>2021-12-30T16:04:21Z</time>
      </trkpt>
      <trkpt lat="43.29511" lon="6.14181">
        <ele>212.73046875</ele>
        <time>2021-12-30T16:04:22Z</time>
      </trkpt>
      <trkpt lat="43.29512" lon="6.14176">
        <ele>212.7890625</ele>
        <time>2021-12-30T16:04:23Z</time>
      </trkpt>
      <trkpt lat="43.29511" lon="6.1417">
        <ele>212.7578125</ele>
        <time>2021-12-30T16:04:24Z</time>
      </trkpt>
      <trkpt lat="43.2951" lon="6.14165">
        <ele>212.65234375</ele>
        <time>2021-12-30T16:04:25Z</time>
      </trkpt>
      <trkpt lat="43.29508" lon="6.14159">
        <ele>212.52734375</ele>
        <time>2021-12-30T16:04:26Z</time>
      </trkpt>
      <trkpt lat="43.29506" lon="6.14153">
        <ele>212.3984375</ele>
        <time>2021-12-30T16:04:27Z</time>
      </trkpt>
      <trkpt lat="43.29502" lon="6.14143">
        <ele>212.109375</ele>
        <time>2021-12-30T16:04:29Z</time>
      </trkpt>
      <trkpt lat="43.29499" lon="6.14139">
        <ele>211.9453125</ele>
        <time>2021-12-30T16:04:30Z</time>
      </trkpt>
      <trkpt lat="43.29483" lon="6.14123">
        <ele>211.3671875</ele>
        <time>2021-12-30T16:04:35Z</time>
      </trkpt>
      <trkpt lat="43.29462" lon="6.14084">
        <ele>211.109375</ele>
        <time>2021-12-30T16:04:45Z</time>
      </trkpt>
      <trkpt lat="43.2946" lon="6.14079">
        <ele>211.23828125</ele>
        <time>2021-12-30T16:04:46Z</time>
      </trkpt>
      <trkpt lat="43.29456" lon="6.14063">
        <ele>211.640625</ele>
        <time>2021-12-30T16:04:49Z</time>
      </trkpt>
      <trkpt lat="43.29455" lon="6.14056">
        <ele>211.83984375</ele>
        <time>2021-12-30T16:04:50Z</time>
      </trkpt>
      <trkpt lat="43.29454" lon="6.14049">
        <ele>212.0859375</ele>
        <time>2021-12-30T16:04:51Z</time>
      </trkpt>
      <trkpt lat="43.29455" lon="6.14042">
        <ele>212.33984375</ele>
        <time>2021-12-30T16:04:52Z</time>
      </trkpt>
      <trkpt lat="43.29455" lon="6.14035">
        <ele>212.4296875</ele>
        <time>2021-12-30T16:04:53Z</time>
      </trkpt>
      <trkpt lat="43.29454" lon="6.14027">
        <ele>212.4921875</ele>
        <time>2021-12-30T16:04:54Z</time>
      </trkpt>
      <trkpt lat="43.29454" lon="6.1402">
        <ele>212.5546875</ele>
        <time>2021-12-30T16:04:55Z</time>
      </trkpt>
      <trkpt lat="43.29452" lon="6.13933">
        <ele>212.671875</ele>
        <time>2021-12-30T16:05:07Z</time>
      </trkpt>
      <trkpt lat="43.29439" lon="6.13869">
        <ele>211.54296875</ele>
        <time>2021-12-30T16:05:20Z</time>
      </trkpt>
      <trkpt lat="43.29439" lon="6.13862">
        <ele>211.50390625</ele>
        <time>2021-12-30T16:05:25Z</time>
      </trkpt>
      <trkpt lat="43.29438" lon="6.1386">
        <ele>211.48046875</ele>
        <time>2021-12-30T16:05:37Z</time>
      </trkpt>
      <trkpt lat="43.29437" lon="6.13859">
        <ele>211.42578125</ele>
        <time>2021-12-30T16:06:07Z</time>
      </trkpt>
      <trkpt lat="43.29438" lon="6.13857">
        <ele>211.46875</ele>
        <time>2021-12-30T16:06:28Z</time>
      </trkpt>
      <trkpt lat="43.29438" lon="6.13855">
        <ele>211.43359375</ele>
        <time>2021-12-30T16:06:42Z</time>
      </trkpt>
      <trkpt lat="43.29437" lon="6.13854">
        <ele>211.3828125</ele>
        <time>2021-12-30T16:06:43Z</time>
      </trkpt>
      <trkpt lat="43.29436" lon="6.13853">
        <ele>211.3046875</ele>
        <time>2021-12-30T16:06:44Z</time>
      </trkpt>
      <trkpt lat="43.29435" lon="6.13852">
        <ele>211.234375</ele>
        <time>2021-12-30T16:06:45Z</time>
      </trkpt>
      <trkpt lat="43.29434" lon="6.1385">
        <ele>211.17578125</ele>
        <time>2021-12-30T16:06:46Z</time>
      </trkpt>
      <trkpt lat="43.29434" lon="6.13848">
        <ele>211.15625</ele>
        <time>2021-12-30T16:06:47Z</time>
      </trkpt>
      <trkpt lat="43.29434" lon="6.13846">
        <ele>211.2265625</ele>
        <time>2021-12-30T16:06:48Z</time>
      </trkpt>
      <trkpt lat="43.29433" lon="6.13845">
        <ele>211.24609375</ele>
        <time>2021-12-30T16:06:49Z</time>
      </trkpt>
      <trkpt lat="43.29433" lon="6.13844">
        <ele>211.234375</ele>
        <time>2021-12-30T16:06:50Z</time>
      </trkpt>
      <trkpt lat="43.29431" lon="6.13839">
        <ele>211.33984375</ele>
        <time>2021-12-30T16:06:56Z</time>
      </trkpt>
      <trkpt lat="43.29431" lon="6.13837">
        <ele>211.4140625</ele>
        <time>2021-12-30T16:06:57Z</time>
      </trkpt>
      <trkpt lat="43.29431" lon="6.13834">
        <ele>211.47265625</ele>
        <time>2021-12-30T16:06:58Z</time>
      </trkpt>
      <trkpt lat="43.29419" lon="6.13783">
        <ele>211.54296875</ele>
        <time>2021-12-30T16:07:08Z</time>
      </trkpt>
      <trkpt lat="43.29419" lon="6.13766">
        <ele>212.11328125</ele>
        <time>2021-12-30T16:07:11Z</time>
      </trkpt>
      <trkpt lat="43.29419" lon="6.1376">
        <ele>212.34375</ele>
        <time>2021-12-30T16:07:12Z</time>
      </trkpt>
      <trkpt lat="43.2942" lon="6.13755">
        <ele>212.6171875</ele>
        <time>2021-12-30T16:07:13Z</time>
      </trkpt>
      <trkpt lat="43.29424" lon="6.13737">
        <ele>213.484375</ele>
        <time>2021-12-30T16:07:16Z</time>
      </trkpt>
      <trkpt lat="43.29426" lon="6.13732">
        <ele>213.68359375</ele>
        <time>2021-12-30T16:07:17Z</time>
      </trkpt>
      <trkpt lat="43.29432" lon="6.13717">
        <ele>214.4296875</ele>
        <time>2021-12-30T16:07:20Z</time>
      </trkpt>
      <trkpt lat="43.29433" lon="6.13711">
        <ele>214.66796875</ele>
        <time>2021-12-30T16:07:21Z</time>
      </trkpt>
      <trkpt lat="43.29432" lon="6.13653">
        <ele>216.12890625</ele>
        <time>2021-12-30T16:07:31Z</time>
      </trkpt>
      <trkpt lat="43.29394" lon="6.13559">
        <ele>212.9296875</ele>
        <time>2021-12-30T16:07:46Z</time>
      </trkpt>
      <trkpt lat="43.29382" lon="6.13542">
        <ele>212.46875</ele>
        <time>2021-12-30T16:07:50Z</time>
      </trkpt>
      <trkpt lat="43.29379" lon="6.13536">
        <ele>212.48046875</ele>
        <time>2021-12-30T16:07:51Z</time>
      </trkpt>
      <trkpt lat="43.29376" lon="6.13526">
        <ele>212.578125</ele>
        <time>2021-12-30T16:07:53Z</time>
      </trkpt>
      <trkpt lat="43.29374" lon="6.13521">
        <ele>212.640625</ele>
        <time>2021-12-30T16:07:54Z</time>
      </trkpt>
      <trkpt lat="43.29372" lon="6.13516">
        <ele>212.66796875</ele>
        <time>2021-12-30T16:07:55Z</time>
      </trkpt>
      <trkpt lat="43.29333" lon="6.1343">
        <ele>212.91015625</ele>
        <time>2021-12-30T16:08:12Z</time>
      </trkpt>
      <trkpt lat="43.29327" lon="6.13407">
        <ele>212.4375</ele>
        <time>2021-12-30T16:08:16Z</time>
      </trkpt>
      <trkpt lat="43.29324" lon="6.13401">
        <ele>212.36328125</ele>
        <time>2021-12-30T16:08:17Z</time>
      </trkpt>
      <trkpt lat="43.2932" lon="6.13397">
        <ele>212.23046875</ele>
        <time>2021-12-30T16:08:18Z</time>
      </trkpt>
      <trkpt lat="43.29315" lon="6.13395">
        <ele>211.91015625</ele>
        <time>2021-12-30T16:08:19Z</time>
      </trkpt>
      <trkpt lat="43.29308" lon="6.13395">
        <ele>211.42578125</ele>
        <time>2021-12-30T16:08:20Z</time>
      </trkpt>
      <trkpt lat="43.29301" lon="6.13397">
        <ele>211.0078125</ele>
        <time>2021-12-30T16:08:21Z</time>
      </trkpt>
      <trkpt lat="43.29278" lon="6.13403">
        <ele>209.953125</ele>
        <time>2021-12-30T16:08:24Z</time>
      </trkpt>
      <trkpt lat="43.2923" lon="6.13406">
        <ele>206.46875</ele>
        <time>2021-12-30T16:08:30Z</time>
      </trkpt>
      <trkpt lat="43.29223" lon="6.13405">
        <ele>205.97265625</ele>
        <time>2021-12-30T16:08:31Z</time>
      </trkpt>
      <trkpt lat="43.29215" lon="6.13403">
        <ele>205.73828125</ele>
        <time>2021-12-30T16:08:32Z</time>
      </trkpt>
      <trkpt lat="43.292" lon="6.13399">
        <ele>205.20703125</ele>
        <time>2021-12-30T16:08:34Z</time>
      </trkpt>
      <trkpt lat="43.29193" lon="6.134">
        <ele>204.82421875</ele>
        <time>2021-12-30T16:08:35Z</time>
      </trkpt>
      <trkpt lat="43.29186" lon="6.13401">
        <ele>204.296875</ele>
        <time>2021-12-30T16:08:36Z</time>
      </trkpt>
      <trkpt lat="43.29164" lon="6.13409">
        <ele>202.70703125</ele>
        <time>2021-12-30T16:08:39Z</time>
      </trkpt>
      <trkpt lat="43.29142" lon="6.13417">
        <ele>201.1171875</ele>
        <time>2021-12-30T16:08:42Z</time>
      </trkpt>
      <trkpt lat="43.29127" lon="6.13421">
        <ele>200.5234375</ele>
        <time>2021-12-30T16:08:44Z</time>
      </trkpt>
      <trkpt lat="43.29119" lon="6.13424">
        <ele>200.2578125</ele>
        <time>2021-12-30T16:08:45Z</time>
      </trkpt>
      <trkpt lat="43.29076" lon="6.13451">
        <ele>198.6875</ele>
        <time>2021-12-30T16:08:52Z</time>
      </trkpt>
      <trkpt lat="43.29057" lon="6.13459">
        <ele>198.02734375</ele>
        <time>2021-12-30T16:08:55Z</time>
      </trkpt>
      <trkpt lat="43.29051" lon="6.1346">
        <ele>197.78125</ele>
        <time>2021-12-30T16:08:56Z</time>
      </trkpt>
      <trkpt lat="43.29044" lon="6.13461">
        <ele>197.52734375</ele>
        <time>2021-12-30T16:08:57Z</time>
      </trkpt>
      <trkpt lat="43.29012" lon="6.13466">
        <ele>196.23828125</ele>
        <time>2021-12-30T16:09:04Z</time>
      </trkpt>
      <trkpt lat="43.29011" lon="6.13465">
        <ele>196.2265625</ele>
        <time>2021-12-30T16:09:05Z</time>
      </trkpt>
      <trkpt lat="43.2901" lon="6.13463">
        <ele>196.21484375</ele>
        <time>2021-12-30T16:09:06Z</time>
      </trkpt>
      <trkpt lat="43.29007" lon="6.13462">
        <ele>196.1328125</ele>
        <time>2021-12-30T16:09:07Z</time>
      </trkpt>
      <trkpt lat="43.29004" lon="6.13463">
        <ele>195.98828125</ele>
        <time>2021-12-30T16:09:08Z</time>
      </trkpt>
      <trkpt lat="43.29001" lon="6.13465">
        <ele>195.7890625</ele>
        <time>2021-12-30T16:09:09Z</time>
      </trkpt>
      <trkpt lat="43.28998" lon="6.13468">
        <ele>195.56640625</ele>
        <time>2021-12-30T16:09:10Z</time>
      </trkpt>
      <trkpt lat="43.28994" lon="6.13471">
        <ele>195.33203125</ele>
        <time>2021-12-30T16:09:11Z</time>
      </trkpt>
      <trkpt lat="43.28937" lon="6.1351">
        <ele>191.84765625</ele>
        <time>2021-12-30T16:09:24Z</time>
      </trkpt>
      <trkpt lat="43.28917" lon="6.13519">
        <ele>190.84375</ele>
        <time>2021-12-30T16:09:28Z</time>
      </trkpt>
      <trkpt lat="43.28913" lon="6.13518">
        <ele>190.734375</ele>
        <time>2021-12-30T16:09:29Z</time>
      </trkpt>
      <trkpt lat="43.2891" lon="6.13514">
        <ele>190.77734375</ele>
        <time>2021-12-30T16:09:30Z</time>
      </trkpt>
      <trkpt lat="43.2891" lon="6.13507">
        <ele>190.9921875</ele>
        <time>2021-12-30T16:09:31Z</time>
      </trkpt>
      <trkpt lat="43.2891" lon="6.13501">
        <ele>191.22265625</ele>
        <time>2021-12-30T16:09:32Z</time>
      </trkpt>
      <trkpt lat="43.28909" lon="6.13494">
        <ele>191.43359375</ele>
        <time>2021-12-30T16:09:33Z</time>
      </trkpt>
      <trkpt lat="43.28903" lon="6.13454">
        <ele>192.78515625</ele>
        <time>2021-12-30T16:09:44Z</time>
      </trkpt>
      <trkpt lat="43.28899" lon="6.13435">
        <ele>193.83203125</ele>
        <time>2021-12-30T16:09:52Z</time>
      </trkpt>
      <trkpt lat="43.289" lon="6.1343">
        <ele>194.06640625</ele>
        <time>2021-12-30T16:09:53Z</time>
      </trkpt>
      <trkpt lat="43.28898" lon="6.13426">
        <ele>194.26171875</ele>
        <time>2021-12-30T16:09:54Z</time>
      </trkpt>
      <trkpt lat="43.28897" lon="6.13422">
        <ele>194.45703125</ele>
        <time>2021-12-30T16:09:55Z</time>
      </trkpt>
      <trkpt lat="43.28897" lon="6.13417">
        <ele>194.66796875</ele>
        <time>2021-12-30T16:09:56Z</time>
      </trkpt>
      <trkpt lat="43.28896" lon="6.13412">
        <ele>194.875</ele>
        <time>2021-12-30T16:09:57Z</time>
      </trkpt>
      <trkpt lat="43.28891" lon="6.13357">
        <ele>195.75</ele>
        <time>2021-12-30T16:10:08Z</time>
      </trkpt>
      <trkpt lat="43.28887" lon="6.1331">
        <ele>196.1484375</ele>
        <time>2021-12-30T16:10:17Z</time>
      </trkpt>
      <trkpt lat="43.28886" lon="6.13292">
        <ele>196.5</ele>
        <time>2021-12-30T16:10:20Z</time>
      </trkpt>
      <trkpt lat="43.28884" lon="6.13287">
        <ele>196.33984375</ele>
        <time>2021-12-30T16:10:21Z</time>
      </trkpt>
      <trkpt lat="43.28882" lon="6.13282">
        <ele>196.14453125</ele>
        <time>2021-12-30T16:10:22Z</time>
      </trkpt>
      <trkpt lat="43.2888" lon="6.13277">
        <ele>195.875</ele>
        <time>2021-12-30T16:10:23Z</time>
      </trkpt>
      <trkpt lat="43.28877" lon="6.13273">
        <ele>195.51953125</ele>
        <time>2021-12-30T16:10:24Z</time>
      </trkpt>
      <trkpt lat="43.28845" lon="6.13243">
        <ele>193.53515625</ele>
        <time>2021-12-30T16:10:34Z</time>
      </trkpt>
      <trkpt lat="43.28841" lon="6.13241">
        <ele>193.328125</ele>
        <time>2021-12-30T16:10:35Z</time>
      </trkpt>
      <trkpt lat="43.2878" lon="6.13217">
        <ele>193.50390625</ele>
        <time>2021-12-30T16:10:50Z</time>
      </trkpt>
      <trkpt lat="43.28742" lon="6.13212">
        <ele>193.87109375</ele>
        <time>2021-12-30T16:11:02Z</time>
      </trkpt>
      <trkpt lat="43.2874" lon="6.13215">
        <ele>193.6875</ele>
        <time>2021-12-30T16:11:03Z</time>
      </trkpt>
      <trkpt lat="43.28739" lon="6.13219">
        <ele>193.48046875</ele>
        <time>2021-12-30T16:11:04Z</time>
      </trkpt>
      <trkpt lat="43.28728" lon="6.13241">
        <ele>192.58984375</ele>
        <time>2021-12-30T16:11:09Z</time>
      </trkpt>
      <trkpt lat="43.2872" lon="6.13254">
        <ele>191.78125</ele>
        <time>2021-12-30T16:11:12Z</time>
      </trkpt>
      <trkpt lat="43.28716" lon="6.13255">
        <ele>191.7265625</ele>
        <time>2021-12-30T16:11:13Z</time>
      </trkpt>
      <trkpt lat="43.28712" lon="6.13254">
        <ele>191.80859375</ele>
        <time>2021-12-30T16:11:14Z</time>
      </trkpt>
      <trkpt lat="43.28709" lon="6.13251">
        <ele>192.0078125</ele>
        <time>2021-12-30T16:11:15Z</time>
      </trkpt>
      <trkpt lat="43.28708" lon="6.13248">
        <ele>192.25390625</ele>
        <time>2021-12-30T16:11:16Z</time>
      </trkpt>
      <trkpt lat="43.28707" lon="6.13244">
        <ele>192.51171875</ele>
        <time>2021-12-30T16:11:17Z</time>
      </trkpt>
      <trkpt lat="43.28705" lon="6.13241">
        <ele>192.765625</ele>
        <time>2021-12-30T16:11:18Z</time>
      </trkpt>
      <trkpt lat="43.28704" lon="6.13238">
        <ele>192.96875</ele>
        <time>2021-12-30T16:11:19Z</time>
      </trkpt>
      <trkpt lat="43.28702" lon="6.13235">
        <ele>193.09765625</ele>
        <time>2021-12-30T16:11:20Z</time>
      </trkpt>
      <trkpt lat="43.287" lon="6.13231">
        <ele>193.23046875</ele>
        <time>2021-12-30T16:11:21Z</time>
      </trkpt>
      <trkpt lat="43.2869" lon="6.13215">
        <ele>193.82421875</ele>
        <time>2021-12-30T16:11:25Z</time>
      </trkpt>
      <trkpt lat="43.28665" lon="6.13181">
        <ele>195.015625</ele>
        <time>2021-12-30T16:11:36Z</time>
      </trkpt>
      <trkpt lat="43.28662" lon="6.13183">
        <ele>194.95703125</ele>
        <time>2021-12-30T16:11:37Z</time>
      </trkpt>
      <trkpt lat="43.28659" lon="6.13185">
        <ele>194.875</ele>
        <time>2021-12-30T16:11:38Z</time>
      </trkpt>
      <trkpt lat="43.28637" lon="6.13206">
        <ele>193.98828125</ele>
        <time>2021-12-30T16:11:45Z</time>
      </trkpt>
      <trkpt lat="43.28613" lon="6.13227">
        <ele>192.3984375</ele>
        <time>2021-12-30T16:11:51Z</time>
      </trkpt>
      <trkpt lat="43.28611" lon="6.13226">
        <ele>192.3515625</ele>
        <time>2021-12-30T16:11:52Z</time>
      </trkpt>
      <trkpt lat="43.28611" lon="6.13224">
        <ele>192.4296875</ele>
        <time>2021-12-30T16:12:01Z</time>
      </trkpt>
      <trkpt lat="43.28608" lon="6.13217">
        <ele>192.56640625</ele>
        <time>2021-12-30T16:12:15Z</time>
      </trkpt>
      <trkpt lat="43.28607" lon="6.13219">
        <ele>192.47265625</ele>
        <time>2021-12-30T16:12:37Z</time>
      </trkpt>
      <trkpt lat="43.28607" lon="6.1322">
        <ele>192.43359375</ele>
        <time>2021-12-30T16:13:13Z</time>
      </trkpt>
      <trkpt lat="43.28607" lon="6.1322">
        <ele>192.4375</ele>
        <time>2021-12-30T16:13:36Z</time>
      </trkpt>
      <trkpt lat="43.28605" lon="6.13219">
        <ele>192.40234375</ele>
        <time>2021-12-30T16:14:09Z</time>
      </trkpt>
      <trkpt lat="43.28606" lon="6.13221">
        <ele>192.34375</ele>
        <time>2021-12-30T16:14:36Z</time>
      </trkpt>
      <trkpt lat="43.28605" lon="6.1322">
        <ele>192.34375</ele>
        <time>2021-12-30T16:15:09Z</time>
      </trkpt>
      <trkpt lat="43.28606" lon="6.13218">
        <ele>192.44921875</ele>
        <time>2021-12-30T16:15:36Z</time>
      </trkpt>
      <trkpt lat="43.28608" lon="6.13219">
        <ele>192.515625</ele>
        <time>2021-12-30T16:15:50Z</time>
      </trkpt>
    </trkseg>
  </trk>
</gpx>